<?xml version='1.0' encoding='UTF-8'?><gpx version="1.1" creator="JPX - https://github.com/jenetics/jpx" xmlns="http://www.topografix.com/GPX/1/1"><trk><trkseg><trkpt lat="43.8522750829547" lon="11.0766172561466"><ele>41.0</ele><time>2026-04-17T11:52:35.998Z</time></trkpt><trkpt lat="43.85223788218355" lon="11.076699154284826"><ele>41.0</ele><time>2026-04-17T11:52:37.998Z</time></trkpt><trkpt lat="43.85222304999972" lon="11.07678985171855"><ele>41.0</ele><time>2026-04-17T11:52:40.998Z</time></trkpt><trkpt lat="43.85217739955187" lon="11.076877778768843"><ele>41.0</ele><time>2026-04-17T11:53:12.997Z</time></trkpt><trkpt lat="43.85224265642483" lon="11.077007771324487"><ele>41.0</ele><time>2026-04-17T11:53:26.997Z</time></trkpt><trkpt lat="43.852336881102055" lon="11.077077590531298"><ele>41.0</ele><time>2026-04-17T11:53:28.997Z</time></trkpt><trkpt lat="43.85237757668156" lon="11.077169830781617"><ele>41.0</ele><time>2026-04-17T11:53:30.997Z</time></trkpt><trkpt lat="43.85241030137069" lon="11.077282657085238"><ele>41.0</ele><time>2026-04-17T11:53:32.997Z</time></trkpt><trkpt lat="43.852448734228595" lon="11.077358795226132"><ele>41.0</ele><time>2026-04-17T11:53:33.997Z</time></trkpt><trkpt lat="43.852548086929374" lon="11.077402992284128"><ele>41.0</ele><time>2026-04-17T11:53:35.997Z</time></trkpt><trkpt lat="43.85266789723716" lon="11.077381374083295"><ele>41.0</ele><time>2026-04-17T11:53:37.997Z</time></trkpt><trkpt lat="43.852691729800945" lon="11.077290883004018"><ele>41.0</ele><time>2026-04-17T11:53:38.997Z</time></trkpt><trkpt lat="43.85271297012862" lon="11.077199843017516"><ele>41.199999999999996</ele><time>2026-04-17T11:53:39.997Z</time></trkpt><trkpt lat="43.85272150509546" lon="11.077103437320757"><ele>41.4</ele><time>2026-04-17T11:53:40.997Z</time></trkpt><trkpt lat="43.85271589874248" lon="11.076941917821342"><ele>41.6</ele><time>2026-04-17T11:53:42.997Z</time></trkpt><trkpt lat="43.85277044732187" lon="11.076787703014848"><ele>41.8</ele><time>2026-04-17T11:53:43.997Z</time></trkpt><trkpt lat="43.85281802733375" lon="11.076656955864822"><ele>42.0</ele><time>2026-04-17T11:53:44.997Z</time></trkpt><trkpt lat="43.85285991233268" lon="11.076529256636812"><ele>42.0</ele><time>2026-04-17T11:53:45.998Z</time></trkpt><trkpt lat="43.85290577575528" lon="11.076399883782711"><ele>42.0</ele><time>2026-04-17T11:53:46.998Z</time></trkpt><trkpt lat="43.85295181865864" lon="11.076286174249333"><ele>42.0</ele><time>2026-04-17T11:53:47.998Z</time></trkpt><trkpt lat="43.85299626113082" lon="11.076177367945219"><ele>42.0</ele><time>2026-04-17T11:53:48.998Z</time></trkpt><trkpt lat="43.85304490327845" lon="11.076043094222824"><ele>42.0</ele><time>2026-04-17T11:53:49.998Z</time></trkpt><trkpt lat="43.85309456799824" lon="11.075912632918923"><ele>41.75</ele><time>2026-04-17T11:53:50.998Z</time></trkpt><trkpt lat="43.85315474107576" lon="11.075765395977463"><ele>41.5</ele><time>2026-04-17T11:53:51.998Z</time></trkpt><trkpt lat="43.85322587213181" lon="11.07560981692742"><ele>41.25</ele><time>2026-04-17T11:53:52.998Z</time></trkpt><trkpt lat="43.853292140865776" lon="11.07544222231444"><ele>41.0</ele><time>2026-04-17T11:53:53.998Z</time></trkpt><trkpt lat="43.85336655592888" lon="11.07526611957318"><ele>41.0</ele><time>2026-04-17T11:53:54.998Z</time></trkpt><trkpt lat="43.85344155258682" lon="11.075081197024195"><ele>41.0</ele><time>2026-04-17T11:53:55.998Z</time></trkpt><trkpt lat="43.853512465056006" lon="11.07489946993926"><ele>41.0</ele><time>2026-04-17T11:53:56.998Z</time></trkpt><trkpt lat="43.853584636756054" lon="11.074725055272634"><ele>41.0</ele><time>2026-04-17T11:53:57.998Z</time></trkpt><trkpt lat="43.853656677475435" lon="11.074542419006525"><ele>41.33333333333333</ele><time>2026-04-17T11:53:58.998Z</time></trkpt><trkpt lat="43.85373039827491" lon="11.07434937405247"><ele>41.666666666666664</ele><time>2026-04-17T11:53:59.998Z</time></trkpt><trkpt lat="43.85380889316094" lon="11.074153290784235"><ele>42.0</ele><time>2026-04-17T11:54:00.998Z</time></trkpt><trkpt lat="43.85389115033772" lon="11.073960988251594"><ele>42.0</ele><time>2026-04-17T11:54:01.998Z</time></trkpt><trkpt lat="43.85396365870851" lon="11.073787781764409"><ele>42.0</ele><time>2026-04-17T11:54:02.998Z</time></trkpt><trkpt lat="43.85402316187238" lon="11.073630820166546"><ele>42.0</ele><time>2026-04-17T11:54:03.998Z</time></trkpt><trkpt lat="43.85407724326904" lon="11.073486369757312"><ele>42.0</ele><time>2026-04-17T11:54:04.998Z</time></trkpt><trkpt lat="43.85414119544711" lon="11.073334828146503"><ele>42.0</ele><time>2026-04-17T11:54:05.998Z</time></trkpt><trkpt lat="43.8542142484622" lon="11.073167099493228"><ele>42.0</ele><time>2026-04-17T11:54:06.998Z</time></trkpt><trkpt lat="43.85428912302155" lon="11.072980687544975"><ele>42.0</ele><time>2026-04-17T11:54:07.998Z</time></trkpt><trkpt lat="43.85436729965939" lon="11.072783316196812"><ele>41.666666666666664</ele><time>2026-04-17T11:54:08.998Z</time></trkpt><trkpt lat="43.854451281128675" lon="11.072580061920398"><ele>41.33333333333333</ele><time>2026-04-17T11:54:09.998Z</time></trkpt><trkpt lat="43.854541018167936" lon="11.072376766067835"><ele>41.0</ele><time>2026-04-17T11:54:10.998Z</time></trkpt><trkpt lat="43.85463120493069" lon="11.072166608171738"><ele>40.666666666666664</ele><time>2026-04-17T11:54:11.998Z</time></trkpt><trkpt lat="43.85472085232093" lon="11.07195641781507"><ele>40.333333333333336</ele><time>2026-04-17T11:54:12.998Z</time></trkpt><trkpt lat="43.85480948300928" lon="11.071762698291902"><ele>40.0</ele><time>2026-04-17T11:54:13.998Z</time></trkpt><trkpt lat="43.85489277635099" lon="11.07159422043527"><ele>40.5</ele><time>2026-04-17T11:54:14.998Z</time></trkpt><trkpt lat="43.85497204788909" lon="11.071438262091647"><ele>41.0</ele><time>2026-04-17T11:54:15.998Z</time></trkpt><trkpt lat="43.855047088916464" lon="11.071282798660901"><ele>41.5</ele><time>2026-04-17T11:54:16.998Z</time></trkpt><trkpt lat="43.85512568644237" lon="11.071121091398938"><ele>42.0</ele><time>2026-04-17T11:54:17.998Z</time></trkpt><trkpt lat="43.85520368293871" lon="11.070952823765593"><ele>42.25</ele><time>2026-04-17T11:54:18.998Z</time></trkpt><trkpt lat="43.85527477863604" lon="11.07080299950798"><ele>42.5</ele><time>2026-04-17T11:54:19.998Z</time></trkpt><trkpt lat="43.855339764623174" lon="11.070666781912175"><ele>42.75</ele><time>2026-04-17T11:54:20.998Z</time></trkpt><trkpt lat="43.855401854655476" lon="11.070538235412368"><ele>43.0</ele><time>2026-04-17T11:54:21.998Z</time></trkpt><trkpt lat="43.85546059840461" lon="11.070415774315753"><ele>43.2</ele><time>2026-04-17T11:54:22.998Z</time></trkpt><trkpt lat="43.855514210918216" lon="11.070312994040648"><ele>43.4</ele><time>2026-04-17T11:54:23.998Z</time></trkpt><trkpt lat="43.85555797813125" lon="11.07024150934303"><ele>43.6</ele><time>2026-04-17T11:54:24.998Z</time></trkpt><trkpt lat="43.855635823435826" lon="11.07016347206868"><ele>43.800000000000004</ele><time>2026-04-17T11:54:26.998Z</time></trkpt><trkpt lat="43.85572633694614" lon="11.070121378892662"><ele>44.0</ele><time>2026-04-17T11:54:29.998Z</time></trkpt><trkpt lat="43.85584657363424" lon="11.070113706594952"><ele>44.0</ele><time>2026-04-17T11:54:31.998Z</time></trkpt><trkpt lat="43.85590286378259" lon="11.070072081909991"><ele>44.0</ele><time>2026-04-17T11:54:32.998Z</time></trkpt><trkpt lat="43.85594461871921" lon="11.070003908942741"><ele>44.0</ele><time>2026-04-17T11:54:33.998Z</time></trkpt><trkpt lat="43.855968866020454" lon="11.06991156132167"><ele>44.0</ele><time>2026-04-17T11:54:34.998Z</time></trkpt><trkpt lat="43.85597616872169" lon="11.06981470603718"><ele>44.0</ele><time>2026-04-17T11:54:35.998Z</time></trkpt><trkpt lat="43.855942658932726" lon="11.06972066045593"><ele>44.0</ele><time>2026-04-17T11:54:36.998Z</time></trkpt><trkpt lat="43.85594101521293" lon="11.069613489672136"><ele>44.0</ele><time>2026-04-17T11:54:37.998Z</time></trkpt><trkpt lat="43.85595118519199" lon="11.069486504739778"><ele>43.5</ele><time>2026-04-17T11:54:38.998Z</time></trkpt><trkpt lat="43.8559671399548" lon="11.069349341246092"><ele>43.0</ele><time>2026-04-17T11:54:39.998Z</time></trkpt><trkpt lat="43.856043361590814" lon="11.069206774073649"><ele>42.5</ele><time>2026-04-17T11:54:40.998Z</time></trkpt><trkpt lat="43.85611337775267" lon="11.069066603238392"><ele>42.0</ele><time>2026-04-17T11:54:41.998Z</time></trkpt><trkpt lat="43.85618837683928" lon="11.068921641485728"><ele>42.0</ele><time>2026-04-17T11:54:42.998Z</time></trkpt><trkpt lat="43.85626658726396" lon="11.06877975672117"><ele>42.0</ele><time>2026-04-17T11:54:43.998Z</time></trkpt><trkpt lat="43.85634982326175" lon="11.068640775048511"><ele>42.0</ele><time>2026-04-17T11:54:44.998Z</time></trkpt><trkpt lat="43.856431460093376" lon="11.068495265610048"><ele>42.0</ele><time>2026-04-17T11:54:45.998Z</time></trkpt><trkpt lat="43.85651463966225" lon="11.068331413248337"><ele>41.666666666666664</ele><time>2026-04-17T11:54:46.998Z</time></trkpt><trkpt lat="43.85659259347146" lon="11.068175045461963"><ele>41.33333333333333</ele><time>2026-04-17T11:54:47.998Z</time></trkpt><trkpt lat="43.8566806586007" lon="11.068003860907622"><ele>41.0</ele><time>2026-04-17T11:54:48.998Z</time></trkpt><trkpt lat="43.856784708469064" lon="11.067790294141398"><ele>41.25</ele><time>2026-04-17T11:54:49.998Z</time></trkpt><trkpt lat="43.856882976463574" lon="11.067584804966684"><ele>41.5</ele><time>2026-04-17T11:54:50.998Z</time></trkpt><trkpt lat="43.85696205779738" lon="11.067417843523355"><ele>41.75</ele><time>2026-04-17T11:54:51.998Z</time></trkpt><trkpt lat="43.857017580833045" lon="11.067291701753762"><ele>42.0</ele><time>2026-04-17T11:54:52.998Z</time></trkpt><trkpt lat="43.85705373999304" lon="11.067200369024402"><ele>42.0</ele><time>2026-04-17T11:54:53.998Z</time></trkpt><trkpt lat="43.85709894576048" lon="11.067093671817192"><ele>42.0</ele><time>2026-04-17T11:54:55.998Z</time></trkpt><trkpt lat="43.85718144207597" lon="11.06702011332235"><ele>42.0</ele><time>2026-04-17T11:54:57.998Z</time></trkpt><trkpt lat="43.85727291665065" lon="11.06691977074875"><ele>42.0</ele><time>2026-04-17T11:54:59.998Z</time></trkpt><trkpt lat="43.857295666393895" lon="11.066816013897956"><ele>42.0</ele><time>2026-04-17T11:55:00.998Z</time></trkpt><trkpt lat="43.85731262861803" lon="11.066689207471905"><ele>41.75</ele><time>2026-04-17T11:55:01.998Z</time></trkpt><trkpt lat="43.85734053743907" lon="11.066542740715175"><ele>41.5</ele><time>2026-04-17T11:55:02.998Z</time></trkpt><trkpt lat="43.8573890127888" lon="11.066398375173495"><ele>41.25</ele><time>2026-04-17T11:55:03.998Z</time></trkpt><trkpt lat="43.857443676856555" lon="11.066268406212558"><ele>41.0</ele><time>2026-04-17T11:55:04.998Z</time></trkpt><trkpt lat="43.85751235432473" lon="11.066116438716358"><ele>41.0</ele><time>2026-04-17T11:55:05.998Z</time></trkpt><trkpt lat="43.857590022862034" lon="11.065935245218444"><ele>41.0</ele><time>2026-04-17T11:55:06.998Z</time></trkpt><trkpt lat="43.857673952484866" lon="11.065741072463336"><ele>41.0</ele><time>2026-04-17T11:55:07.998Z</time></trkpt><trkpt lat="43.85776088542408" lon="11.065539529850165"><ele>40.666666666666664</ele><time>2026-04-17T11:55:08.998Z</time></trkpt><trkpt lat="43.85784560066698" lon="11.065338241527781"><ele>40.333333333333336</ele><time>2026-04-17T11:55:09.998Z</time></trkpt><trkpt lat="43.857920215455714" lon="11.065157175085313"><ele>40.0</ele><time>2026-04-17T11:55:10.998Z</time></trkpt><trkpt lat="43.857989412117384" lon="11.064992695668998"><ele>40.4</ele><time>2026-04-17T11:55:11.998Z</time></trkpt><trkpt lat="43.858052828166294" lon="11.064846819209771"><ele>40.8</ele><time>2026-04-17T11:55:12.998Z</time></trkpt><trkpt lat="43.85810275921121" lon="11.064728853942103"><ele>41.2</ele><time>2026-04-17T11:55:13.998Z</time></trkpt><trkpt lat="43.85815131354942" lon="11.064611197539083"><ele>41.6</ele><time>2026-04-17T11:55:14.998Z</time></trkpt><trkpt lat="43.85821831257624" lon="11.064501887674052"><ele>42.0</ele><time>2026-04-17T11:55:15.998Z</time></trkpt><trkpt lat="43.8582774042211" lon="11.064382849267803"><ele>42.0</ele><time>2026-04-17T11:55:17.998Z</time></trkpt><trkpt lat="43.85835258427931" lon="11.064293613764676"><ele>42.0</ele><time>2026-04-17T11:55:20.997Z</time></trkpt><trkpt lat="43.85840546784302" lon="11.064232524919046"><ele>42.0</ele><time>2026-04-17T11:55:21.997Z</time></trkpt><trkpt lat="43.85846141451257" lon="11.064134756254242"><ele>42.0</ele><time>2026-04-17T11:55:22.997Z</time></trkpt><trkpt lat="43.85848262789631" lon="11.06398178337682"><ele>42.0</ele><time>2026-04-17T11:55:23.997Z</time></trkpt><trkpt lat="43.85851514583256" lon="11.063849753322444"><ele>41.75</ele><time>2026-04-17T11:55:24.997Z</time></trkpt><trkpt lat="43.8585566233949" lon="11.063709219784947"><ele>41.5</ele><time>2026-04-17T11:55:25.997Z</time></trkpt><trkpt lat="43.85862065397237" lon="11.06355124190268"><ele>41.25</ele><time>2026-04-17T11:55:26.997Z</time></trkpt><trkpt lat="43.85869596474587" lon="11.063379241837806"><ele>41.0</ele><time>2026-04-17T11:55:27.997Z</time></trkpt><trkpt lat="43.858781848479424" lon="11.063195197119693"><ele>41.0</ele><time>2026-04-17T11:55:28.997Z</time></trkpt><trkpt lat="43.85886987931303" lon="11.062997905794342"><ele>41.0</ele><time>2026-04-17T11:55:29.997Z</time></trkpt><trkpt lat="43.85896218256066" lon="11.062794909868181"><ele>41.0</ele><time>2026-04-17T11:55:30.997Z</time></trkpt><trkpt lat="43.859053652163425" lon="11.062591040958397"><ele>41.33333333333333</ele><time>2026-04-17T11:55:31.997Z</time></trkpt><trkpt lat="43.85914685485066" lon="11.062388466741762"><ele>41.666666666666664</ele><time>2026-04-17T11:55:32.997Z</time></trkpt><trkpt lat="43.85923749006757" lon="11.062187822306342"><ele>42.0</ele><time>2026-04-17T11:55:33.997Z</time></trkpt><trkpt lat="43.859317960930476" lon="11.062004723802543"><ele>42.0</ele><time>2026-04-17T11:55:34.997Z</time></trkpt><trkpt lat="43.85938860186883" lon="11.061839449040228"><ele>42.0</ele><time>2026-04-17T11:55:35.997Z</time></trkpt><trkpt lat="43.85945408503473" lon="11.06168010248159"><ele>42.0</ele><time>2026-04-17T11:55:36.997Z</time></trkpt><trkpt lat="43.85951967620292" lon="11.061531571613465"><ele>42.0</ele><time>2026-04-17T11:55:37.997Z</time></trkpt><trkpt lat="43.85957776801571" lon="11.061387863516714"><ele>42.0</ele><time>2026-04-17T11:55:38.997Z</time></trkpt><trkpt lat="43.85963068909326" lon="11.061277656040646"><ele>42.0</ele><time>2026-04-17T11:55:39.997Z</time></trkpt><trkpt lat="43.85967459511448" lon="11.061201623656213"><ele>42.0</ele><time>2026-04-17T11:55:40.997Z</time></trkpt><trkpt lat="43.85973276845186" lon="11.061148238305979"><ele>42.0</ele><time>2026-04-17T11:55:42.997Z</time></trkpt><trkpt lat="43.85982857559171" lon="11.06111230351375"><ele>42.0</ele><time>2026-04-17T11:55:46.997Z</time></trkpt><trkpt lat="43.85990601816831" lon="11.060996364488101"><ele>42.0</ele><time>2026-04-17T11:55:48.997Z</time></trkpt><trkpt lat="43.85991991367683" lon="11.060910546586934"><ele>42.0</ele><time>2026-04-17T11:55:49.997Z</time></trkpt><trkpt lat="43.859917195753724" lon="11.060744757770728"><ele>42.0</ele><time>2026-04-17T11:55:51.997Z</time></trkpt><trkpt lat="43.85993023584246" lon="11.060636141028105"><ele>42.0</ele><time>2026-04-17T11:55:52.997Z</time></trkpt><trkpt lat="43.85996107675847" lon="11.060512155376575"><ele>42.0</ele><time>2026-04-17T11:55:53.997Z</time></trkpt><trkpt lat="43.86000970009424" lon="11.060378422441213"><ele>42.0</ele><time>2026-04-17T11:55:54.998Z</time></trkpt><trkpt lat="43.86006290708656" lon="11.060239588377963"><ele>42.0</ele><time>2026-04-17T11:55:55.998Z</time></trkpt><trkpt lat="43.86011752403834" lon="11.06010701575203"><ele>42.0</ele><time>2026-04-17T11:55:56.998Z</time></trkpt><trkpt lat="43.860181419114426" lon="11.059958436969422"><ele>42.0</ele><time>2026-04-17T11:55:57.998Z</time></trkpt><trkpt lat="43.86025176627856" lon="11.059789036592324"><ele>42.0</ele><time>2026-04-17T11:55:58.998Z</time></trkpt><trkpt lat="43.860329332911625" lon="11.059602617347775"><ele>42.0</ele><time>2026-04-17T11:55:59.998Z</time></trkpt><trkpt lat="43.86041770272851" lon="11.059406427803438"><ele>42.0</ele><time>2026-04-17T11:56:00.998Z</time></trkpt><trkpt lat="43.860508931919" lon="11.059201891143196"><ele>42.0</ele><time>2026-04-17T11:56:01.998Z</time></trkpt><trkpt lat="43.860606107018434" lon="11.058994293904131"><ele>42.333333333333336</ele><time>2026-04-17T11:56:02.998Z</time></trkpt><trkpt lat="43.86070316835403" lon="11.058777564448295"><ele>42.66666666666667</ele><time>2026-04-17T11:56:03.998Z</time></trkpt><trkpt lat="43.86080281079643" lon="11.058556493583245"><ele>43.0</ele><time>2026-04-17T11:56:04.998Z</time></trkpt><trkpt lat="43.86090270130554" lon="11.058334578728404"><ele>42.66666666666667</ele><time>2026-04-17T11:56:05.998Z</time></trkpt><trkpt lat="43.86100119920165" lon="11.05810812253147"><ele>42.333333333333336</ele><time>2026-04-17T11:56:06.998Z</time></trkpt><trkpt lat="43.86109973419923" lon="11.05788632979414"><ele>42.0</ele><time>2026-04-17T11:56:07.998Z</time></trkpt><trkpt lat="43.861190566310306" lon="11.057675325428635"><ele>42.0</ele><time>2026-04-17T11:56:08.998Z</time></trkpt><trkpt lat="43.86127068956618" lon="11.057481530244434"><ele>42.0</ele><time>2026-04-17T11:56:09.998Z</time></trkpt><trkpt lat="43.861348863620016" lon="11.057301097398527"><ele>42.0</ele><time>2026-04-17T11:56:10.998Z</time></trkpt><trkpt lat="43.86142172774234" lon="11.057137937391879"><ele>42.2</ele><time>2026-04-17T11:56:11.998Z</time></trkpt><trkpt lat="43.86149323903452" lon="11.056991436226388"><ele>42.400000000000006</ele><time>2026-04-17T11:56:12.998Z</time></trkpt><trkpt lat="43.86155426132176" lon="11.056875793525176"><ele>42.599999999999994</ele><time>2026-04-17T11:56:13.998Z</time></trkpt><trkpt lat="43.8616145647766" lon="11.056788663278553"><ele>42.8</ele><time>2026-04-17T11:56:14.998Z</time></trkpt><trkpt lat="43.86167907718518" lon="11.05672324266638"><ele>43.0</ele><time>2026-04-17T11:56:15.998Z</time></trkpt><trkpt lat="43.86175252292288" lon="11.056681616089579"><ele>43.2</ele><time>2026-04-17T11:56:16.998Z</time></trkpt><trkpt lat="43.861839187445625" lon="11.056667147624127"><ele>43.4</ele><time>2026-04-17T11:56:17.998Z</time></trkpt><trkpt lat="43.861937661953405" lon="11.056688131677841"><ele>43.6</ele><time>2026-04-17T11:56:18.998Z</time></trkpt><trkpt lat="43.862038872491446" lon="11.056738476340223"><ele>43.800000000000004</ele><time>2026-04-17T11:56:19.998Z</time></trkpt><trkpt lat="43.86214969617741" lon="11.056823736464588"><ele>44.0</ele><time>2026-04-17T11:56:20.998Z</time></trkpt><trkpt lat="43.86227517998013" lon="11.056902731990586"><ele>44.0</ele><time>2026-04-17T11:56:21.998Z</time></trkpt><trkpt lat="43.8624045181727" lon="11.056986233264364"><ele>44.0</ele><time>2026-04-17T11:56:22.998Z</time></trkpt><trkpt lat="43.86254223716719" lon="11.057066747452158"><ele>44.0</ele><time>2026-04-17T11:56:23.998Z</time></trkpt><trkpt lat="43.86268284605274" lon="11.057152497662099"><ele>44.0</ele><time>2026-04-17T11:56:24.998Z</time></trkpt><trkpt lat="43.862828322023816" lon="11.057243498489619"><ele>43.666666666666664</ele><time>2026-04-17T11:56:25.998Z</time></trkpt><trkpt lat="43.86297004946431" lon="11.057342211779899"><ele>43.333333333333336</ele><time>2026-04-17T11:56:26.998Z</time></trkpt><trkpt lat="43.86311858665182" lon="11.057452127275566"><ele>43.0</ele><time>2026-04-17T11:56:27.998Z</time></trkpt><trkpt lat="43.86327645553648" lon="11.057566118901814"><ele>42.66666666666667</ele><time>2026-04-17T11:56:28.998Z</time></trkpt><trkpt lat="43.86343860026813" lon="11.057677095473272"><ele>42.333333333333336</ele><time>2026-04-17T11:56:29.998Z</time></trkpt><trkpt lat="43.86360722396553" lon="11.057794608071802"><ele>42.0</ele><time>2026-04-17T11:56:30.998Z</time></trkpt><trkpt lat="43.86378350417058" lon="11.057920587266086"><ele>42.0</ele><time>2026-04-17T11:56:31.998Z</time></trkpt><trkpt lat="43.86397040321195" lon="11.05804973170457"><ele>42.0</ele><time>2026-04-17T11:56:32.998Z</time></trkpt><trkpt lat="43.8641578658332" lon="11.05818414596"><ele>42.0</ele><time>2026-04-17T11:56:33.998Z</time></trkpt><trkpt lat="43.8643473867753" lon="11.058318063747755"><ele>43.0</ele><time>2026-04-17T11:56:34.998Z</time></trkpt><trkpt lat="43.86452475140775" lon="11.058444980122358"><ele>44.0</ele><time>2026-04-17T11:56:35.998Z</time></trkpt><trkpt lat="43.86469018559854" lon="11.058562124035536"><ele>45.0</ele><time>2026-04-17T11:56:36.998Z</time></trkpt><trkpt lat="43.864854694677625" lon="11.058676912284007"><ele>45.0</ele><time>2026-04-17T11:56:37.998Z</time></trkpt><trkpt lat="43.86501754696514" lon="11.058784517850123"><ele>45.0</ele><time>2026-04-17T11:56:38.998Z</time></trkpt><trkpt lat="43.86518008035991" lon="11.058896777336752"><ele>45.0</ele><time>2026-04-17T11:56:39.998Z</time></trkpt><trkpt lat="43.86534698548601" lon="11.059005205086848"><ele>44.333333333333336</ele><time>2026-04-17T11:56:40.998Z</time></trkpt><trkpt lat="43.86551553642586" lon="11.059109455790368"><ele>43.66666666666667</ele><time>2026-04-17T11:56:41.998Z</time></trkpt><trkpt lat="43.86568696920058" lon="11.059213274926131"><ele>43.0</ele><time>2026-04-17T11:56:42.998Z</time></trkpt><trkpt lat="43.865857550574404" lon="11.059306060177276"><ele>43.0</ele><time>2026-04-17T11:56:43.998Z</time></trkpt><trkpt lat="43.86602893382291" lon="11.059392657697357"><ele>43.0</ele><time>2026-04-17T11:56:44.998Z</time></trkpt><trkpt lat="43.86619990770784" lon="11.05947689163756"><ele>43.0</ele><time>2026-04-17T11:56:45.998Z</time></trkpt><trkpt lat="43.86636760403943" lon="11.059552551716378"><ele>43.0</ele><time>2026-04-17T11:56:46.998Z</time></trkpt><trkpt lat="43.86652312593931" lon="11.05961693223787"><ele>43.0</ele><time>2026-04-17T11:56:47.998Z</time></trkpt><trkpt lat="43.86666625912972" lon="11.05967190535847"><ele>43.0</ele><time>2026-04-17T11:56:48.998Z</time></trkpt><trkpt lat="43.866793351197586" lon="11.059727473833576"><ele>43.0</ele><time>2026-04-17T11:56:49.998Z</time></trkpt><trkpt lat="43.866899030592165" lon="11.059777420048981"><ele>43.16666666666667</ele><time>2026-04-17T11:56:50.998Z</time></trkpt><trkpt lat="43.866981128752656" lon="11.059825447233216"><ele>43.333333333333336</ele><time>2026-04-17T11:56:51.998Z</time></trkpt><trkpt lat="43.86706381804039" lon="11.059894237368086"><ele>43.5</ele><time>2026-04-17T11:56:52.998Z</time></trkpt><trkpt lat="43.867129581775444" lon="11.059975819864027"><ele>43.666666666666664</ele><time>2026-04-17T11:56:53.998Z</time></trkpt><trkpt lat="43.867193559729195" lon="11.06003894187238"><ele>43.83333333333333</ele><time>2026-04-17T11:56:54.998Z</time></trkpt><trkpt lat="43.86726785500253" lon="11.060074077803606"><ele>44.0</ele><time>2026-04-17T11:56:55.998Z</time></trkpt><trkpt lat="43.86734896813909" lon="11.0600679511242"><ele>44.25</ele><time>2026-04-17T11:56:56.998Z</time></trkpt><trkpt lat="43.8674403461919" lon="11.06002720480103"><ele>44.5</ele><time>2026-04-17T11:56:57.998Z</time></trkpt><trkpt lat="43.867536666144936" lon="11.059983270017995"><ele>44.75</ele><time>2026-04-17T11:56:58.998Z</time></trkpt><trkpt lat="43.86765810306256" lon="11.05996715686704"><ele>45.0</ele><time>2026-04-17T11:56:59.998Z</time></trkpt><trkpt lat="43.867799184878635" lon="11.059987592638128"><ele>45.0</ele><time>2026-04-17T11:57:00.998Z</time></trkpt><trkpt lat="43.86795098392545" lon="11.060030692864649"><ele>45.0</ele><time>2026-04-17T11:57:01.998Z</time></trkpt><trkpt lat="43.86811160678726" lon="11.060082605869175"><ele>45.0</ele><time>2026-04-17T11:57:02.998Z</time></trkpt><trkpt lat="43.86827778335613" lon="11.060129044208308"><ele>44.0</ele><time>2026-04-17T11:57:03.998Z</time></trkpt><trkpt lat="43.8684459273847" lon="11.06016698634656"><ele>43.0</ele><time>2026-04-17T11:57:04.998Z</time></trkpt><trkpt lat="43.86860755537553" lon="11.060206689351402"><ele>42.0</ele><time>2026-04-17T11:57:05.998Z</time></trkpt><trkpt lat="43.868778092695344" lon="11.060247788128189"><ele>42.0</ele><time>2026-04-17T11:57:06.998Z</time></trkpt><trkpt lat="43.86897022330778" lon="11.060299058545171"><ele>42.0</ele><time>2026-04-17T11:57:07.998Z</time></trkpt><trkpt lat="43.869186715952694" lon="11.060353572343777"><ele>42.0</ele><time>2026-04-17T11:57:08.998Z</time></trkpt><trkpt lat="43.86941519708026" lon="11.060410181770969"><ele>44.0</ele><time>2026-04-17T11:57:09.998Z</time></trkpt><trkpt lat="43.86965625953665" lon="11.060468978156695"><ele>46.0</ele><time>2026-04-17T11:57:10.998Z</time></trkpt><trkpt lat="43.86989917806275" lon="11.06052892548291"><ele>47.0</ele><time>2026-04-17T11:57:11.998Z</time></trkpt><trkpt lat="43.87013527700665" lon="11.0605878491124"><ele>48.0</ele><time>2026-04-17T11:57:12.998Z</time></trkpt><trkpt lat="43.87035612702974" lon="11.060640665740209"><ele>48.0</ele><time>2026-04-17T11:57:13.998Z</time></trkpt><trkpt lat="43.87055653639797" lon="11.060690839110542"><ele>48.0</ele><time>2026-04-17T11:57:14.998Z</time></trkpt><trkpt lat="43.87075042429451" lon="11.060740370783858"><ele>48.0</ele><time>2026-04-17T11:57:15.998Z</time></trkpt><trkpt lat="43.87094498413614" lon="11.060792458832418"><ele>47.333333333333336</ele><time>2026-04-17T11:57:16.998Z</time></trkpt><trkpt lat="43.87113599404416" lon="11.060844526112835"><ele>46.66666666666667</ele><time>2026-04-17T11:57:17.998Z</time></trkpt><trkpt lat="43.87132323411885" lon="11.060889563949978"><ele>46.0</ele><time>2026-04-17T11:57:18.998Z</time></trkpt><trkpt lat="43.87150401154619" lon="11.060930139310068"><ele>46.0</ele><time>2026-04-17T11:57:19.998Z</time></trkpt><trkpt lat="43.87166675803967" lon="11.060971087141978"><ele>46.0</ele><time>2026-04-17T11:57:20.998Z</time></trkpt><trkpt lat="43.87180621563768" lon="11.061010515460957"><ele>46.0</ele><time>2026-04-17T11:57:21.998Z</time></trkpt><trkpt lat="43.87191289491433" lon="11.061037437411809"><ele>46.0</ele><time>2026-04-17T11:57:22.998Z</time></trkpt><trkpt lat="43.87199615295314" lon="11.061057391689548"><ele>46.16666666666667</ele><time>2026-04-17T11:57:23.998Z</time></trkpt><trkpt lat="43.87206200836434" lon="11.061074325795753"><ele>46.333333333333336</ele><time>2026-04-17T11:57:24.998Z</time></trkpt><trkpt lat="43.87216019283365" lon="11.061143622044462"><ele>46.5</ele><time>2026-04-17T11:57:26.998Z</time></trkpt><trkpt lat="43.872201502537415" lon="11.0612106971002"><ele>46.666666666666664</ele><time>2026-04-17T11:57:27.998Z</time></trkpt><trkpt lat="43.87226293699009" lon="11.061365034439012"><ele>46.83333333333333</ele><time>2026-04-17T11:57:29.998Z</time></trkpt><trkpt lat="43.87231204501115" lon="11.061425354923452"><ele>47.0</ele><time>2026-04-17T11:57:30.998Z</time></trkpt><trkpt lat="43.87237612991029" lon="11.061436186299218"><ele>47.0</ele><time>2026-04-17T11:57:31.998Z</time></trkpt><trkpt lat="43.872445788357815" lon="11.061412732373656"><ele>47.0</ele><time>2026-04-17T11:57:32.998Z</time></trkpt><trkpt lat="43.87251846842625" lon="11.0613609911649"><ele>47.0</ele><time>2026-04-17T11:57:33.998Z</time></trkpt><trkpt lat="43.87259231246241" lon="11.061294768324334"><ele>47.0</ele><time>2026-04-17T11:57:34.998Z</time></trkpt><trkpt lat="43.872644411151505" lon="11.061194817188158"><ele>47.0</ele><time>2026-04-17T11:57:35.998Z</time></trkpt><trkpt lat="43.87279856873993" lon="11.06125371214111"><ele>47.0</ele><time>2026-04-17T11:57:36.998Z</time></trkpt><trkpt lat="43.87290682562948" lon="11.061284977746348"><ele>47.0</ele><time>2026-04-17T11:57:37.998Z</time></trkpt><trkpt lat="43.87301944357792" lon="11.061320804029974"><ele>47.0</ele><time>2026-04-17T11:57:38.998Z</time></trkpt><trkpt lat="43.87315680946221" lon="11.061359905516802"><ele>47.0</ele><time>2026-04-17T11:57:39.998Z</time></trkpt><trkpt lat="43.873311704718326" lon="11.061398021364239"><ele>47.666666666666664</ele><time>2026-04-17T11:57:40.998Z</time></trkpt><trkpt lat="43.873481653818985" lon="11.061436465033509"><ele>48.33333333333333</ele><time>2026-04-17T11:57:41.998Z</time></trkpt><trkpt lat="43.87365961478423" lon="11.061477395089765"><ele>49.0</ele><time>2026-04-17T11:57:42.998Z</time></trkpt><trkpt lat="43.87384413906232" lon="11.061521438965125"><ele>49.0</ele><time>2026-04-17T11:57:43.998Z</time></trkpt><trkpt lat="43.874030484204646" lon="11.06156707307384"><ele>49.0</ele><time>2026-04-17T11:57:44.998Z</time></trkpt><trkpt lat="43.87422038725676" lon="11.06161645668944"><ele>49.0</ele><time>2026-04-17T11:57:45.998Z</time></trkpt><trkpt lat="43.87441282825593" lon="11.061669888513174"><ele>49.0</ele><time>2026-04-17T11:57:46.998Z</time></trkpt><trkpt lat="43.87460947618424" lon="11.061722841740817"><ele>49.0</ele><time>2026-04-17T11:57:47.998Z</time></trkpt><trkpt lat="43.874810861975014" lon="11.06176889262643"><ele>49.0</ele><time>2026-04-17T11:57:48.998Z</time></trkpt><trkpt lat="43.87501566358004" lon="11.061818000351657"><ele>49.0</ele><time>2026-04-17T11:57:49.998Z</time></trkpt><trkpt lat="43.875223836755254" lon="11.06186907615103"><ele>49.0</ele><time>2026-04-17T11:57:50.998Z</time></trkpt><trkpt lat="43.87543056920614" lon="11.061924778959085"><ele>49.0</ele><time>2026-04-17T11:57:51.998Z</time></trkpt><trkpt lat="43.87563893009009" lon="11.061982169684415"><ele>49.0</ele><time>2026-04-17T11:57:52.998Z</time></trkpt><trkpt lat="43.875848533860825" lon="11.062039633635813"><ele>49.0</ele><time>2026-04-17T11:57:53.998Z</time></trkpt><trkpt lat="43.876058339142425" lon="11.062101643681801"><ele>49.0</ele><time>2026-04-17T11:57:54.998Z</time></trkpt><trkpt lat="43.876255583496004" lon="11.062170380541996"><ele>49.0</ele><time>2026-04-17T11:57:55.998Z</time></trkpt><trkpt lat="43.87643659615938" lon="11.06223845192522"><ele>49.0</ele><time>2026-04-17T11:57:56.998Z</time></trkpt><trkpt lat="43.87661037288121" lon="11.062313048891363"><ele>49.0</ele><time>2026-04-17T11:57:57.998Z</time></trkpt><trkpt lat="43.8767878602375" lon="11.062389100430455"><ele>48.666666666666664</ele><time>2026-04-17T11:57:58.998Z</time></trkpt><trkpt lat="43.87696758910696" lon="11.062473331301506"><ele>48.33333333333333</ele><time>2026-04-17T11:57:59.998Z</time></trkpt><trkpt lat="43.87714338805312" lon="11.062556571685056"><ele>48.0</ele><time>2026-04-17T11:58:00.998Z</time></trkpt><trkpt lat="43.87731921807681" lon="11.06263947179142"><ele>48.0</ele><time>2026-04-17T11:58:01.998Z</time></trkpt><trkpt lat="43.877425046230286" lon="11.062712232902376"><ele>48.0</ele><time>2026-04-17T11:58:02.998Z</time></trkpt><trkpt lat="43.8775442717938" lon="11.062781114660059"><ele>48.0</ele><time>2026-04-17T11:58:03.998Z</time></trkpt><trkpt lat="43.877647524251486" lon="11.062844890363671"><ele>48.0</ele><time>2026-04-17T11:58:04.998Z</time></trkpt><trkpt lat="43.8777388278198" lon="11.062904465848487"><ele>48.333333333333336</ele><time>2026-04-17T11:58:05.998Z</time></trkpt><trkpt lat="43.87782040362326" lon="11.062954860710319"><ele>48.66666666666667</ele><time>2026-04-17T11:58:06.998Z</time></trkpt><trkpt lat="43.877898436376825" lon="11.06300227268282"><ele>49.0</ele><time>2026-04-17T11:58:07.998Z</time></trkpt><trkpt lat="43.877976733299846" lon="11.063049961161656"><ele>49.333333333333336</ele><time>2026-04-17T11:58:08.998Z</time></trkpt><trkpt lat="43.878049770217046" lon="11.063095693179093"><ele>49.66666666666667</ele><time>2026-04-17T11:58:09.998Z</time></trkpt><trkpt lat="43.878112910155224" lon="11.063131243086263"><ele>50.0</ele><time>2026-04-17T11:58:10.998Z</time></trkpt><trkpt lat="43.87819214951035" lon="11.063178196883547"><ele>50.00000000000001</ele><time>2026-04-17T11:58:12.998Z</time></trkpt><trkpt lat="43.878256705431724" lon="11.063218357103953"><ele>50.0</ele><time>2026-04-17T11:58:14.998Z</time></trkpt><trkpt lat="43.87833862354554" lon="11.063251089588114"><ele>50.0</ele><time>2026-04-17T11:58:17.999Z</time></trkpt><trkpt lat="43.878418539996346" lon="11.063304960186056"><ele>50.0</ele><time>2026-04-17T11:58:20.999Z</time></trkpt><trkpt lat="43.87848054274496" lon="11.063351437631416"><ele>50.00000000000001</ele><time>2026-04-17T11:58:22.999Z</time></trkpt><trkpt lat="43.87853985385192" lon="11.06341302918937"><ele>50.0</ele><time>2026-04-17T11:58:24.999Z</time></trkpt><trkpt lat="43.87860007560869" lon="11.063474927526178"><ele>50.0</ele><time>2026-04-17T11:58:27.999Z</time></trkpt><trkpt lat="43.87864915854587" lon="11.063551595099792"><ele>50.0</ele><time>2026-04-17T11:58:34.999Z</time></trkpt><trkpt lat="43.87870226464174" lon="11.06366212782268"><ele>50.0</ele><time>2026-04-17T11:58:36.999Z</time></trkpt><trkpt lat="43.8787898980048" lon="11.063744588873858"><ele>50.0</ele><time>2026-04-17T11:58:38.999Z</time></trkpt><trkpt lat="43.878918490867704" lon="11.063766807959906"><ele>50.0</ele><time>2026-04-17T11:58:40.999Z</time></trkpt><trkpt lat="43.878976732405114" lon="11.06372381928309"><ele>50.0</ele><time>2026-04-17T11:58:41.999Z</time></trkpt><trkpt lat="43.87906102770716" lon="11.063581748100628"><ele>50.0</ele><time>2026-04-17T11:58:43.999Z</time></trkpt><trkpt lat="43.87907166640976" lon="11.063472263277383"><ele>50.0</ele><time>2026-04-17T11:58:44.999Z</time></trkpt><trkpt lat="43.87905851654939" lon="11.063363185448452"><ele>50.0</ele><time>2026-04-17T11:58:45.999Z</time></trkpt><trkpt lat="43.87905539960359" lon="11.063229929534"><ele>50.0</ele><time>2026-04-17T11:58:46.999Z</time></trkpt><trkpt lat="43.87906561152686" lon="11.063071731480415"><ele>50.0</ele><time>2026-04-17T11:58:47.999Z</time></trkpt><trkpt lat="43.87909824688247" lon="11.06286588956917"><ele>50.0</ele><time>2026-04-17T11:58:48.999Z</time></trkpt><trkpt lat="43.879145618932775" lon="11.062671481980695"><ele>50.0</ele><time>2026-04-17T11:58:49.999Z</time></trkpt><trkpt lat="43.8791909945419" lon="11.062469323743796"><ele>50.0</ele><time>2026-04-17T11:58:50.999Z</time></trkpt><trkpt lat="43.879234883492636" lon="11.062247105842399"><ele>50.0</ele><time>2026-04-17T11:58:51.999Z</time></trkpt><trkpt lat="43.87928082841979" lon="11.062009388702243"><ele>50.0</ele><time>2026-04-17T11:58:52.999Z</time></trkpt><trkpt lat="43.87932982502082" lon="11.06176254130068"><ele>50.333333333333336</ele><time>2026-04-17T11:58:53.999Z</time></trkpt><trkpt lat="43.87938127207875" lon="11.06151923441337"><ele>50.66666666666667</ele><time>2026-04-17T11:58:54.999Z</time></trkpt><trkpt lat="43.879432209807675" lon="11.061287023400562"><ele>51.0</ele><time>2026-04-17T11:58:55.999Z</time></trkpt><trkpt lat="43.87948207841053" lon="11.061066057707736"><ele>51.0</ele><time>2026-04-17T11:58:56.999Z</time></trkpt><trkpt lat="43.87953632334111" lon="11.060829027983242"><ele>51.0</ele><time>2026-04-17T11:58:57.999Z</time></trkpt><trkpt lat="43.87959360163705" lon="11.06055252291071"><ele>51.0</ele><time>2026-04-17T11:58:58.999Z</time></trkpt><trkpt lat="43.87965603897235" lon="11.060248189602332"><ele>49.0</ele><time>2026-04-17T11:58:59.999Z</time></trkpt><trkpt lat="43.87972570723692" lon="11.059926096551674"><ele>47.0</ele><time>2026-04-17T11:59:00.999Z</time></trkpt><trkpt lat="43.87980015502261" lon="11.059599955700305"><ele>47.0</ele><time>2026-04-17T11:59:01.999Z</time></trkpt><trkpt lat="43.87987526693071" lon="11.059275734991942"><ele>47.0</ele><time>2026-04-17T11:59:02.999Z</time></trkpt><trkpt lat="43.879941956463455" lon="11.058964872496347"><ele>47.33333333333333</ele><time>2026-04-17T11:59:03.999Z</time></trkpt><trkpt lat="43.880010926733604" lon="11.05866680131038"><ele>47.666666666666664</ele><time>2026-04-17T11:59:04.999Z</time></trkpt><trkpt lat="43.88007748297947" lon="11.058384443133079"><ele>48.0</ele><time>2026-04-17T11:59:05.999Z</time></trkpt><trkpt lat="43.880138611575966" lon="11.058121596216639"><ele>48.0</ele><time>2026-04-17T11:59:06.999Z</time></trkpt><trkpt lat="43.880196196251156" lon="11.057868963389643"><ele>48.0</ele><time>2026-04-17T11:59:07.999Z</time></trkpt><trkpt lat="43.88024999185064" lon="11.057616585390768"><ele>48.0</ele><time>2026-04-17T11:59:08.999Z</time></trkpt><trkpt lat="43.880304569013674" lon="11.057360435503432"><ele>48.33333333333333</ele><time>2026-04-17T11:59:09.999Z</time></trkpt><trkpt lat="43.88036224613541" lon="11.057099398564711"><ele>48.666666666666664</ele><time>2026-04-17T11:59:10.999Z</time></trkpt><trkpt lat="43.88042021863922" lon="11.056837030495466"><ele>49.0</ele><time>2026-04-17T11:59:11.999Z</time></trkpt><trkpt lat="43.880481546113934" lon="11.05658225503689"><ele>48.33333333333333</ele><time>2026-04-17T11:59:12.999Z</time></trkpt><trkpt lat="43.88053989281315" lon="11.056332534228734"><ele>47.666666666666664</ele><time>2026-04-17T11:59:13.999Z</time></trkpt><trkpt lat="43.88059501864788" lon="11.056094210511954"><ele>47.0</ele><time>2026-04-17T11:59:14.999Z</time></trkpt><trkpt lat="43.88064440224242" lon="11.05586982705816"><ele>47.0</ele><time>2026-04-17T11:59:15.999Z</time></trkpt><trkpt lat="43.88069245337474" lon="11.055659614478557"><ele>47.0</ele><time>2026-04-17T11:59:16.999Z</time></trkpt><trkpt lat="43.88074071211173" lon="11.055440240044797"><ele>47.0</ele><time>2026-04-17T11:59:17.999Z</time></trkpt><trkpt lat="43.880788624717994" lon="11.055210029465446"><ele>47.0</ele><time>2026-04-17T11:59:18.999Z</time></trkpt><trkpt lat="43.880837444702124" lon="11.054971511783405"><ele>47.0</ele><time>2026-04-17T11:59:19.999Z</time></trkpt><trkpt lat="43.88088760626426" lon="11.054725031916128"><ele>47.0</ele><time>2026-04-17T11:59:20.999Z</time></trkpt><trkpt lat="43.8809414133214" lon="11.054476457029354"><ele>46.666666666666664</ele><time>2026-04-17T11:59:21.999Z</time></trkpt><trkpt lat="43.88099957732438" lon="11.054219707769175"><ele>46.333333333333336</ele><time>2026-04-17T11:59:22.999Z</time></trkpt><trkpt lat="43.8810650591131" lon="11.053934027460542"><ele>46.0</ele><time>2026-04-17T11:59:23.999Z</time></trkpt><trkpt lat="43.88113090079434" lon="11.053629231718382"><ele>45.0</ele><time>2026-04-17T11:59:24.999Z</time></trkpt><trkpt lat="43.881191866027244" lon="11.05332099604206"><ele>44.0</ele><time>2026-04-17T11:59:25.999Z</time></trkpt><trkpt lat="43.88125294844909" lon="11.053011509070906"><ele>44.0</ele><time>2026-04-17T11:59:26.999Z</time></trkpt><trkpt lat="43.88131593939359" lon="11.05269917958432"><ele>44.0</ele><time>2026-04-17T11:59:27.999Z</time></trkpt><trkpt lat="43.88138106395155" lon="11.052393318852463"><ele>44.0</ele><time>2026-04-17T11:59:28.999Z</time></trkpt><trkpt lat="43.88144580113725" lon="11.052090760348186"><ele>44.0</ele><time>2026-04-17T11:59:29.999Z</time></trkpt><trkpt lat="43.881517747999276" lon="11.051758562799412"><ele>43.5</ele><time>2026-04-17T11:59:30.999Z</time></trkpt><trkpt lat="43.881592227472915" lon="11.051409148412153"><ele>43.0</ele><time>2026-04-17T11:59:31.999Z</time></trkpt><trkpt lat="43.88166827374643" lon="11.051049748104296"><ele>42.5</ele><time>2026-04-17T11:59:32.999Z</time></trkpt><trkpt lat="43.881742534705374" lon="11.050693516629728"><ele>42.0</ele><time>2026-04-17T11:59:33.999Z</time></trkpt><trkpt lat="43.881816099278325" lon="11.05034983433422"><ele>43.0</ele><time>2026-04-17T11:59:34.999Z</time></trkpt><trkpt lat="43.88188954938931" lon="11.050011460965036"><ele>44.0</ele><time>2026-04-17T11:59:35.999Z</time></trkpt><trkpt lat="43.88196142054009" lon="11.049674722696727"><ele>44.0</ele><time>2026-04-17T11:59:36.999Z</time></trkpt><trkpt lat="43.882030764486416" lon="11.049337320881834"><ele>44.0</ele><time>2026-04-17T11:59:37.999Z</time></trkpt><trkpt lat="43.882099934983714" lon="11.048997918605167"><ele>44.0</ele><time>2026-04-17T11:59:38.999Z</time></trkpt><trkpt lat="43.88217141481416" lon="11.04866246253625"><ele>44.0</ele><time>2026-04-17T11:59:39.999Z</time></trkpt><trkpt lat="43.88224586203736" lon="11.048324778725089"><ele>44.5</ele><time>2026-04-17T11:59:40.999Z</time></trkpt><trkpt lat="43.88231608755556" lon="11.047997544416313"><ele>45.0</ele><time>2026-04-17T11:59:41.999Z</time></trkpt><trkpt lat="43.88239045918711" lon="11.047677053529279"><ele>45.5</ele><time>2026-04-17T11:59:42.999Z</time></trkpt><trkpt lat="43.88246794408337" lon="11.047343838150308"><ele>46.0</ele><time>2026-04-17T11:59:43.999Z</time></trkpt><trkpt lat="43.882545899112316" lon="11.047006798855973"><ele>45.0</ele><time>2026-04-17T11:59:44.999Z</time></trkpt><trkpt lat="43.882620069088006" lon="11.04668323814025"><ele>44.0</ele><time>2026-04-17T11:59:45.999Z</time></trkpt><trkpt lat="43.88269277972328" lon="11.046359153338035"><ele>44.0</ele><time>2026-04-17T11:59:46.999Z</time></trkpt><trkpt lat="43.88276561671973" lon="11.04602800123157"><ele>44.0</ele><time>2026-04-17T11:59:47.999Z</time></trkpt><trkpt lat="43.882835609784024" lon="11.045693440482221"><ele>44.0</ele><time>2026-04-17T11:59:48.999Z</time></trkpt><trkpt lat="43.882902673413604" lon="11.0453552230787"><ele>44.0</ele><time>2026-04-17T11:59:49.999Z</time></trkpt><trkpt lat="43.88297474745956" lon="11.04501586932568"><ele>43.5</ele><time>2026-04-17T11:59:50.998Z</time></trkpt><trkpt lat="43.88304515000525" lon="11.044682973859397"><ele>43.0</ele><time>2026-04-17T11:59:51.998Z</time></trkpt><trkpt lat="43.883112990113" lon="11.044368565713397"><ele>42.66666666666667</ele><time>2026-04-17T11:59:52.998Z</time></trkpt><trkpt lat="43.883176751262006" lon="11.04407105225569"><ele>42.333333333333336</ele><time>2026-04-17T11:59:53.998Z</time></trkpt><trkpt lat="43.88323782189482" lon="11.04378025562118"><ele>42.0</ele><time>2026-04-17T11:59:54.998Z</time></trkpt><trkpt lat="43.88329321319925" lon="11.043496039573666"><ele>41.666666666666664</ele><time>2026-04-17T11:59:55.998Z</time></trkpt><trkpt lat="43.88334189819615" lon="11.043219465296056"><ele>41.33333333333333</ele><time>2026-04-17T11:59:56.998Z</time></trkpt><trkpt lat="43.8833880472593" lon="11.042956523955954"><ele>41.0</ele><time>2026-04-17T11:59:57.998Z</time></trkpt><trkpt lat="43.88343610603808" lon="11.04270246161016"><ele>41.33333333333333</ele><time>2026-04-17T11:59:58.998Z</time></trkpt><trkpt lat="43.8834824052127" lon="11.042467635343074"><ele>41.666666666666664</ele><time>2026-04-17T11:59:59.998Z</time></trkpt><trkpt lat="43.88352459193248" lon="11.04226974016342"><ele>42.0</ele><time>2026-04-17T12:00:00.998Z</time></trkpt><trkpt lat="43.88355752336144" lon="11.042097616953797"><ele>42.0</ele><time>2026-04-17T12:00:01.999Z</time></trkpt><trkpt lat="43.883587832535135" lon="11.041940668641535"><ele>42.0</ele><time>2026-04-17T12:00:02.999Z</time></trkpt><trkpt lat="43.88361539800571" lon="11.041816436977957"><ele>42.0</ele><time>2026-04-17T12:00:03.999Z</time></trkpt><trkpt lat="43.883639206656035" lon="11.041722305447598"><ele>42.0</ele><time>2026-04-17T12:00:04.999Z</time></trkpt><trkpt lat="43.88369777570026" lon="11.041605755827383"><ele>42.0</ele><time>2026-04-17T12:00:06.999Z</time></trkpt><trkpt lat="43.883765208092385" lon="11.041537136191481"><ele>41.8</ele><time>2026-04-17T12:00:08.999Z</time></trkpt><trkpt lat="43.88387674010835" lon="11.041494332972436"><ele>41.6</ele><time>2026-04-17T12:00:10.999Z</time></trkpt><trkpt lat="43.88395943567713" lon="11.041464456736602"><ele>41.4</ele><time>2026-04-17T12:00:11.999Z</time></trkpt><trkpt lat="43.884055883286365" lon="11.041415262334112"><ele>41.199999999999996</ele><time>2026-04-17T12:00:12.999Z</time></trkpt><trkpt lat="43.88414131296442" lon="11.041351183892031"><ele>41.0</ele><time>2026-04-17T12:00:13.999Z</time></trkpt><trkpt lat="43.884218462686505" lon="11.04127405729652"><ele>40.8</ele><time>2026-04-17T12:00:14.999Z</time></trkpt><trkpt lat="43.88428963694027" lon="11.041178731526841"><ele>40.599999999999994</ele><time>2026-04-17T12:00:15.999Z</time></trkpt><trkpt lat="43.884353829819666" lon="11.041070863113873"><ele>40.4</ele><time>2026-04-17T12:00:16.999Z</time></trkpt><trkpt lat="43.884404526772336" lon="11.04093329860483"><ele>40.2</ele><time>2026-04-17T12:00:17.999Z</time></trkpt><trkpt lat="43.88442867987601" lon="11.040780672270364"><ele>40.0</ele><time>2026-04-17T12:00:18.999Z</time></trkpt><trkpt lat="43.884428382890995" lon="11.040643319573391"><ele>40.0</ele><time>2026-04-17T12:00:19.999Z</time></trkpt><trkpt lat="43.88440352123365" lon="11.040506662110197"><ele>40.0</ele><time>2026-04-17T12:00:20.999Z</time></trkpt><trkpt lat="43.88435428484323" lon="11.04036695753192"><ele>40.0</ele><time>2026-04-17T12:00:21.999Z</time></trkpt><trkpt lat="43.88429080895261" lon="11.040221781538772"><ele>40.0</ele><time>2026-04-17T12:00:22.999Z</time></trkpt><trkpt lat="43.88422966674882" lon="11.040076559315615"><ele>40.75</ele><time>2026-04-17T12:00:23.999Z</time></trkpt><trkpt lat="43.88418804277336" lon="11.039936802024158"><ele>41.5</ele><time>2026-04-17T12:00:24.999Z</time></trkpt><trkpt lat="43.88417018499593" lon="11.039787662443988"><ele>42.25</ele><time>2026-04-17T12:00:25.999Z</time></trkpt><trkpt lat="43.88416791613617" lon="11.039623296169012"><ele>43.0</ele><time>2026-04-17T12:00:26.999Z</time></trkpt><trkpt lat="43.88418513694058" lon="11.039451560990718"><ele>43.0</ele><time>2026-04-17T12:00:27.999Z</time></trkpt><trkpt lat="43.88422374541119" lon="11.039263895441469"><ele>43.0</ele><time>2026-04-17T12:00:28.999Z</time></trkpt><trkpt lat="43.88427573766191" lon="11.039057280107317"><ele>43.0</ele><time>2026-04-17T12:00:29.999Z</time></trkpt><trkpt lat="43.8843292258296" lon="11.038833517231057"><ele>43.333333333333336</ele><time>2026-04-17T12:00:30.999Z</time></trkpt><trkpt lat="43.884382077795394" lon="11.038596996365305"><ele>43.666666666666664</ele><time>2026-04-17T12:00:31.999Z</time></trkpt><trkpt lat="43.88443443151719" lon="11.03835154515795"><ele>44.0</ele><time>2026-04-17T12:00:32.999Z</time></trkpt><trkpt lat="43.8844821266149" lon="11.038117832827954"><ele>44.0</ele><time>2026-04-17T12:00:33.999Z</time></trkpt><trkpt lat="43.88453531949599" lon="11.037867120533448"><ele>44.0</ele><time>2026-04-17T12:00:34.999Z</time></trkpt><trkpt lat="43.884589895364954" lon="11.037613983766974"><ele>44.0</ele><time>2026-04-17T12:00:35.999Z</time></trkpt><trkpt lat="43.884646203683324" lon="11.037357328419386"><ele>44.0</ele><time>2026-04-17T12:00:36.999Z</time></trkpt><trkpt lat="43.884701102842946" lon="11.037110686688692"><ele>44.0</ele><time>2026-04-17T12:00:37.999Z</time></trkpt><trkpt lat="43.88475521265202" lon="11.036865465683857"><ele>44.0</ele><time>2026-04-17T12:00:38.999Z</time></trkpt><trkpt lat="43.88480902920897" lon="11.036614024631605"><ele>43.666666666666664</ele><time>2026-04-17T12:00:39.999Z</time></trkpt><trkpt lat="43.88486392563017" lon="11.036359335705429"><ele>43.333333333333336</ele><time>2026-04-17T12:00:40.999Z</time></trkpt><trkpt lat="43.884917825962994" lon="11.036109642709436"><ele>43.0</ele><time>2026-04-17T12:00:41.999Z</time></trkpt><trkpt lat="43.88497317357792" lon="11.035852783071748"><ele>42.66666666666667</ele><time>2026-04-17T12:00:42.999Z</time></trkpt><trkpt lat="43.88503040595868" lon="11.035587034810018"><ele>42.333333333333336</ele><time>2026-04-17T12:00:43.999Z</time></trkpt><trkpt lat="43.885096280166046" lon="11.035290550671537"><ele>42.0</ele><time>2026-04-17T12:00:44.999Z</time></trkpt><trkpt lat="43.88516653898795" lon="11.034982236158054"><ele>41.5</ele><time>2026-04-17T12:00:45.999Z</time></trkpt><trkpt lat="43.885238739735904" lon="11.03466420153249"><ele>41.0</ele><time>2026-04-17T12:00:46.999Z</time></trkpt><trkpt lat="43.885310528556936" lon="11.034341689868928"><ele>41.0</ele><time>2026-04-17T12:00:47.999Z</time></trkpt><trkpt lat="43.885371298705635" lon="11.03402233740101"><ele>41.0</ele><time>2026-04-17T12:00:48.999Z</time></trkpt><trkpt lat="43.885433337905475" lon="11.033686858243671"><ele>41.0</ele><time>2026-04-17T12:00:49.999Z</time></trkpt><trkpt lat="43.88549747260757" lon="11.033351123447911"><ele>41.0</ele><time>2026-04-17T12:00:50.999Z</time></trkpt><trkpt lat="43.88555639227022" lon="11.033016063550644"><ele>41.0</ele><time>2026-04-17T12:00:51.999Z</time></trkpt><trkpt lat="43.88566332642327" lon="11.03267971662198"><ele>41.0</ele><time>2026-04-17T12:00:52.999Z</time></trkpt><trkpt lat="43.885729056717324" lon="11.032339181867139"><ele>39.5</ele><time>2026-04-17T12:00:53.999Z</time></trkpt><trkpt lat="43.88580079095154" lon="11.03200038789073"><ele>38.0</ele><time>2026-04-17T12:00:54.999Z</time></trkpt><trkpt lat="43.885873114364294" lon="11.031666683288798"><ele>38.5</ele><time>2026-04-17T12:00:55.999Z</time></trkpt><trkpt lat="43.88594449529802" lon="11.031336160701024"><ele>39.0</ele><time>2026-04-17T12:00:56.999Z</time></trkpt><trkpt lat="43.88601695534487" lon="11.031005273120302"><ele>40.0</ele><time>2026-04-17T12:00:57.999Z</time></trkpt><trkpt lat="43.88608970919559" lon="11.030676346387134"><ele>41.0</ele><time>2026-04-17T12:00:58.999Z</time></trkpt><trkpt lat="43.88616017173622" lon="11.030350264864008"><ele>41.0</ele><time>2026-04-17T12:00:59.999Z</time></trkpt><trkpt lat="43.886232000311786" lon="11.030030532463018"><ele>41.0</ele><time>2026-04-17T12:01:00.999Z</time></trkpt><trkpt lat="43.88630704639659" lon="11.029712626042233"><ele>40.0</ele><time>2026-04-17T12:01:01.999Z</time></trkpt><trkpt lat="43.88640084886519" lon="11.029391197187609"><ele>39.0</ele><time>2026-04-17T12:01:02.999Z</time></trkpt><trkpt lat="43.88649151852224" lon="11.02906615139913"><ele>38.5</ele><time>2026-04-17T12:01:03.999Z</time></trkpt><trkpt lat="43.8865900325909" lon="11.0287438943223"><ele>38.0</ele><time>2026-04-17T12:01:04.999Z</time></trkpt><trkpt lat="43.88657399996649" lon="11.028414398256533"><ele>39.0</ele><time>2026-04-17T12:01:05.999Z</time></trkpt><trkpt lat="43.886645001779186" lon="11.0280957675263"><ele>40.0</ele><time>2026-04-17T12:01:06.999Z</time></trkpt><trkpt lat="43.886720340936684" lon="11.027783215928142"><ele>41.0</ele><time>2026-04-17T12:01:07.999Z</time></trkpt><trkpt lat="43.88679427428213" lon="11.02747539720564"><ele>42.0</ele><time>2026-04-17T12:01:08.999Z</time></trkpt><trkpt lat="43.88686917754605" lon="11.027183639043505"><ele>42.0</ele><time>2026-04-17T12:01:09.999Z</time></trkpt><trkpt lat="43.88695508520795" lon="11.026903475226105"><ele>42.0</ele><time>2026-04-17T12:01:10.999Z</time></trkpt><trkpt lat="43.887061772935965" lon="11.026645903621514"><ele>42.0</ele><time>2026-04-17T12:01:11.999Z</time></trkpt><trkpt lat="43.887184454295195" lon="11.026404724840074"><ele>41.666666666666664</ele><time>2026-04-17T12:01:12.999Z</time></trkpt><trkpt lat="43.88731507822682" lon="11.026173687598723"><ele>41.33333333333333</ele><time>2026-04-17T12:01:13.999Z</time></trkpt><trkpt lat="43.88744729398181" lon="11.025955561671678"><ele>41.0</ele><time>2026-04-17T12:01:14.999Z</time></trkpt><trkpt lat="43.88757322646215" lon="11.025743354285765"><ele>40.666666666666664</ele><time>2026-04-17T12:01:15.999Z</time></trkpt><trkpt lat="43.88770438779065" lon="11.02552604006135"><ele>40.333333333333336</ele><time>2026-04-17T12:01:16.999Z</time></trkpt><trkpt lat="43.88784247841662" lon="11.0253041318212"><ele>40.0</ele><time>2026-04-17T12:01:17.999Z</time></trkpt><trkpt lat="43.887972077260685" lon="11.025070915836833"><ele>39.66666666666667</ele><time>2026-04-17T12:01:18.999Z</time></trkpt><trkpt lat="43.88809320542456" lon="11.02482785824804"><ele>39.333333333333336</ele><time>2026-04-17T12:01:19.999Z</time></trkpt><trkpt lat="43.88819536264368" lon="11.024574338884038"><ele>39.0</ele><time>2026-04-17T12:01:20.999Z</time></trkpt><trkpt lat="43.88827544487954" lon="11.024301047119236"><ele>39.0</ele><time>2026-04-17T12:01:21.999Z</time></trkpt><trkpt lat="43.888336321153645" lon="11.02402211357095"><ele>39.0</ele><time>2026-04-17T12:01:22.999Z</time></trkpt><trkpt lat="43.88838368439571" lon="11.023731815042014"><ele>39.0</ele><time>2026-04-17T12:01:23.999Z</time></trkpt><trkpt lat="43.88842659170121" lon="11.023444128052837"><ele>39.0</ele><time>2026-04-17T12:01:24.999Z</time></trkpt><trkpt lat="43.88845186103879" lon="11.023154667996106"><ele>39.0</ele><time>2026-04-17T12:01:25.999Z</time></trkpt><trkpt lat="43.88845370630464" lon="11.022868840255281"><ele>39.0</ele><time>2026-04-17T12:01:26.999Z</time></trkpt><trkpt lat="43.888422912315576" lon="11.022567053608272"><ele>40.333333333333336</ele><time>2026-04-17T12:01:27.999Z</time></trkpt><trkpt lat="43.88840647076103" lon="11.022265648980794"><ele>41.66666666666667</ele><time>2026-04-17T12:01:28.999Z</time></trkpt><trkpt lat="43.8883983394974" lon="11.021980079412746"><ele>43.0</ele><time>2026-04-17T12:01:29.999Z</time></trkpt><trkpt lat="43.88839736486121" lon="11.021709296010812"><ele>43.0</ele><time>2026-04-17T12:01:30.999Z</time></trkpt><trkpt lat="43.8884097685242" lon="11.021460262801142"><ele>43.0</ele><time>2026-04-17T12:01:31.999Z</time></trkpt><trkpt lat="43.88844885351963" lon="11.02124044553285"><ele>43.0</ele><time>2026-04-17T12:01:32.999Z</time></trkpt><trkpt lat="43.88851125392868" lon="11.021034500699589"><ele>42.333333333333336</ele><time>2026-04-17T12:01:33.999Z</time></trkpt><trkpt lat="43.88858801960658" lon="11.02083199948428"><ele>41.666666666666664</ele><time>2026-04-17T12:01:34.999Z</time></trkpt><trkpt lat="43.88867425180482" lon="11.020623259704049"><ele>41.0</ele><time>2026-04-17T12:01:35.999Z</time></trkpt><trkpt lat="43.88875761284853" lon="11.020395980092655"><ele>41.0</ele><time>2026-04-17T12:01:36.999Z</time></trkpt><trkpt lat="43.888857948138536" lon="11.020150907186785"><ele>41.0</ele><time>2026-04-17T12:01:37.999Z</time></trkpt><trkpt lat="43.88895669168419" lon="11.019900536536161"><ele>41.0</ele><time>2026-04-17T12:01:38.999Z</time></trkpt><trkpt lat="43.88905231011129" lon="11.01966013459782"><ele>41.33333333333333</ele><time>2026-04-17T12:01:39.999Z</time></trkpt><trkpt lat="43.88914811978584" lon="11.01943303470435"><ele>41.666666666666664</ele><time>2026-04-17T12:01:40.999Z</time></trkpt><trkpt lat="43.88923363637007" lon="11.019203002678067"><ele>42.0</ele><time>2026-04-17T12:01:41.999Z</time></trkpt><trkpt lat="43.88933068474797" lon="11.018979666618796"><ele>42.333333333333336</ele><time>2026-04-17T12:01:42.999Z</time></trkpt><trkpt lat="43.88942120572777" lon="11.018768170167162"><ele>42.66666666666667</ele><time>2026-04-17T12:01:43.999Z</time></trkpt><trkpt lat="43.88951106832101" lon="11.018563942718979"><ele>43.0</ele><time>2026-04-17T12:01:44.999Z</time></trkpt><trkpt lat="43.88960534689739" lon="11.018354405961077"><ele>42.66666666666667</ele><time>2026-04-17T12:01:45.999Z</time></trkpt><trkpt lat="43.889701134845794" lon="11.018137759872669"><ele>42.333333333333336</ele><time>2026-04-17T12:01:46.999Z</time></trkpt><trkpt lat="43.88979769537458" lon="11.017919449809702"><ele>42.0</ele><time>2026-04-17T12:01:47.999Z</time></trkpt><trkpt lat="43.889894512298376" lon="11.01770713233159"><ele>42.0</ele><time>2026-04-17T12:01:48.999Z</time></trkpt><trkpt lat="43.889992643825096" lon="11.01749484601998"><ele>42.0</ele><time>2026-04-17T12:01:49.999Z</time></trkpt><trkpt lat="43.890095059214936" lon="11.017286975304708"><ele>42.0</ele><time>2026-04-17T12:01:50.999Z</time></trkpt><trkpt lat="43.89019793895253" lon="11.01708465052179"><ele>41.666666666666664</ele><time>2026-04-17T12:01:51.999Z</time></trkpt><trkpt lat="43.89030239394842" lon="11.01688921913852"><ele>41.33333333333333</ele><time>2026-04-17T12:01:52.999Z</time></trkpt><trkpt lat="43.890403389701675" lon="11.016695997538358"><ele>41.0</ele><time>2026-04-17T12:01:53.999Z</time></trkpt><trkpt lat="43.89050120052437" lon="11.016510867798377"><ele>40.666666666666664</ele><time>2026-04-17T12:01:54.999Z</time></trkpt><trkpt lat="43.89059576336693" lon="11.016332410322269"><ele>40.333333333333336</ele><time>2026-04-17T12:01:55.999Z</time></trkpt><trkpt lat="43.89069010700681" lon="11.016162164416214"><ele>40.0</ele><time>2026-04-17T12:01:56.999Z</time></trkpt><trkpt lat="43.89079003559386" lon="11.01601720074104"><ele>40.0</ele><time>2026-04-17T12:01:57.999Z</time></trkpt><trkpt lat="43.890878852500464" lon="11.01585837117192"><ele>40.0</ele><time>2026-04-17T12:01:58.999Z</time></trkpt><trkpt lat="43.8909673512059" lon="11.015700495594013"><ele>40.0</ele><time>2026-04-17T12:01:59.999Z</time></trkpt><trkpt lat="43.89106237245543" lon="11.015532319680803"><ele>40.0</ele><time>2026-04-17T12:02:00.999Z</time></trkpt><trkpt lat="43.89116039358751" lon="11.015361321657346"><ele>40.0</ele><time>2026-04-17T12:02:01.999Z</time></trkpt><trkpt lat="43.891251942901455" lon="11.015149931847205"><ele>40.0</ele><time>2026-04-17T12:02:02.999Z</time></trkpt><trkpt lat="43.89136040726578" lon="11.014958382493266"><ele>40.0</ele><time>2026-04-17T12:02:03.999Z</time></trkpt><trkpt lat="43.891457289634516" lon="11.014792951894892"><ele>40.5</ele><time>2026-04-17T12:02:04.999Z</time></trkpt><trkpt lat="43.8915486992185" lon="11.014637264718248"><ele>41.0</ele><time>2026-04-17T12:02:05.999Z</time></trkpt><trkpt lat="43.891625516129004" lon="11.014511348466693"><ele>41.5</ele><time>2026-04-17T12:02:06.999Z</time></trkpt><trkpt lat="43.89169505839136" lon="11.014404146657396"><ele>42.0</ele><time>2026-04-17T12:02:07.999Z</time></trkpt><trkpt lat="43.891762937702254" lon="11.014310651272833"><ele>42.0</ele><time>2026-04-17T12:02:08.999Z</time></trkpt><trkpt lat="43.89183122368339" lon="11.014236340377085"><ele>42.0</ele><time>2026-04-17T12:02:09.999Z</time></trkpt><trkpt lat="43.89190605977244" lon="11.014179936405167"><ele>42.0</ele><time>2026-04-17T12:02:10.999Z</time></trkpt><trkpt lat="43.89199423916057" lon="11.014130328002274"><ele>42.0</ele><time>2026-04-17T12:02:11.999Z</time></trkpt><trkpt lat="43.892080408945475" lon="11.01408060328605"><ele>42.0</ele><time>2026-04-17T12:02:12.999Z</time></trkpt><trkpt lat="43.89215658864789" lon="11.013994595824437"><ele>41.8</ele><time>2026-04-17T12:02:13.999Z</time></trkpt><trkpt lat="43.8922035649523" lon="11.013889802350878"><ele>41.6</ele><time>2026-04-17T12:02:14.999Z</time></trkpt><trkpt lat="43.89222657895215" lon="11.013758911041803"><ele>41.4</ele><time>2026-04-17T12:02:15.999Z</time></trkpt><trkpt lat="43.892241408781246" lon="11.0136015671959"><ele>41.199999999999996</ele><time>2026-04-17T12:02:16.999Z</time></trkpt><trkpt lat="43.8922702059667" lon="11.013434915939758"><ele>41.0</ele><time>2026-04-17T12:02:17.999Z</time></trkpt><trkpt lat="43.8923328801187" lon="11.01327612272711"><ele>41.0</ele><time>2026-04-17T12:02:18.999Z</time></trkpt><trkpt lat="43.89242204727898" lon="11.013120131783223"><ele>41.0</ele><time>2026-04-17T12:02:19.999Z</time></trkpt><trkpt lat="43.89251954793282" lon="11.012957455233844"><ele>41.0</ele><time>2026-04-17T12:02:21Z</time></trkpt><trkpt lat="43.89262782659032" lon="11.012796593172366"><ele>41.0</ele><time>2026-04-17T12:02:22Z</time></trkpt><trkpt lat="43.89273051333816" lon="11.012617549606505"><ele>41.0</ele><time>2026-04-17T12:02:23Z</time></trkpt><trkpt lat="43.892837367178984" lon="11.012430472271266"><ele>41.0</ele><time>2026-04-17T12:02:24Z</time></trkpt><trkpt lat="43.89294661349267" lon="11.01223912661334"><ele>41.0</ele><time>2026-04-17T12:02:25Z</time></trkpt><trkpt lat="43.89304571540861" lon="11.01202946749163"><ele>41.0</ele><time>2026-04-17T12:02:26Z</time></trkpt><trkpt lat="43.89315813181768" lon="11.0118408858419"><ele>41.0</ele><time>2026-04-17T12:02:27Z</time></trkpt><trkpt lat="43.893261516659074" lon="11.01167814104736"><ele>40.75</ele><time>2026-04-17T12:02:28Z</time></trkpt><trkpt lat="43.89336423829554" lon="11.011534483480087"><ele>40.5</ele><time>2026-04-17T12:02:29Z</time></trkpt><trkpt lat="43.893455557853855" lon="11.011390087996755"><ele>40.25</ele><time>2026-04-17T12:02:30Z</time></trkpt><trkpt lat="43.89354054988578" lon="11.01124112035397"><ele>40.0</ele><time>2026-04-17T12:02:31Z</time></trkpt><trkpt lat="43.893631672360144" lon="11.011082929042953"><ele>40.333333333333336</ele><time>2026-04-17T12:02:32Z</time></trkpt><trkpt lat="43.893728989889595" lon="11.010917334583006"><ele>40.666666666666664</ele><time>2026-04-17T12:02:33Z</time></trkpt><trkpt lat="43.89382114808536" lon="11.010755583970656"><ele>41.0</ele><time>2026-04-17T12:02:34Z</time></trkpt><trkpt lat="43.89391899292287" lon="11.010585654105089"><ele>41.0</ele><time>2026-04-17T12:02:35Z</time></trkpt><trkpt lat="43.89402331725735" lon="11.010408798933108"><ele>41.0</ele><time>2026-04-17T12:02:36Z</time></trkpt><trkpt lat="43.894123145923125" lon="11.010217644860722"><ele>41.0</ele><time>2026-04-17T12:02:37Z</time></trkpt><trkpt lat="43.89422264947396" lon="11.010016873005982"><ele>40.666666666666664</ele><time>2026-04-17T12:02:38Z</time></trkpt><trkpt lat="43.89432654003095" lon="11.009816106943166"><ele>40.333333333333336</ele><time>2026-04-17T12:02:39Z</time></trkpt><trkpt lat="43.89443878160596" lon="11.009620184854938"><ele>40.0</ele><time>2026-04-17T12:02:40Z</time></trkpt><trkpt lat="43.894547733110926" lon="11.00944209947857"><ele>40.0</ele><time>2026-04-17T12:02:41Z</time></trkpt><trkpt lat="43.89464364858089" lon="11.009278077974429"><ele>40.0</ele><time>2026-04-17T12:02:42Z</time></trkpt><trkpt lat="43.894726461922744" lon="11.009123764907736"><ele>40.0</ele><time>2026-04-17T12:02:43Z</time></trkpt><trkpt lat="43.894804000682115" lon="11.008977863341947"><ele>40.0</ele><time>2026-04-17T12:02:44Z</time></trkpt><trkpt lat="43.89487228342181" lon="11.008857308178946"><ele>40.2</ele><time>2026-04-17T12:02:45Z</time></trkpt><trkpt lat="43.89493357453176" lon="11.008755364039798"><ele>40.4</ele><time>2026-04-17T12:02:46Z</time></trkpt><trkpt lat="43.89498817028812" lon="11.008650369292434"><ele>40.599999999999994</ele><time>2026-04-17T12:02:47Z</time></trkpt><trkpt lat="43.895039584423614" lon="11.008538051064386"><ele>40.8</ele><time>2026-04-17T12:02:48Z</time></trkpt><trkpt lat="43.895087326774394" lon="11.00843482558386"><ele>41.0</ele><time>2026-04-17T12:02:49Z</time></trkpt><trkpt lat="43.89513423669683" lon="11.008341993340938"><ele>41.4</ele><time>2026-04-17T12:02:50Z</time></trkpt><trkpt lat="43.895178642035056" lon="11.008258957587792"><ele>41.8</ele><time>2026-04-17T12:02:51Z</time></trkpt><trkpt lat="43.895221510786136" lon="11.008192920730432"><ele>42.199999999999996</ele><time>2026-04-17T12:02:52Z</time></trkpt><trkpt lat="43.89531249639282" lon="11.008103612311633"><ele>42.599999999999994</ele><time>2026-04-17T12:02:54Z</time></trkpt><trkpt lat="43.89542884406752" lon="11.008040165770412"><ele>43.0</ele><time>2026-04-17T12:02:56Z</time></trkpt><trkpt lat="43.89549531853897" lon="11.00797774204663"><ele>43.0</ele><time>2026-04-17T12:02:57Z</time></trkpt><trkpt lat="43.895550022550474" lon="11.007877336123066"><ele>43.0</ele><time>2026-04-17T12:02:58Z</time></trkpt><trkpt lat="43.89559089515737" lon="11.007746919981804"><ele>43.0</ele><time>2026-04-17T12:02:59Z</time></trkpt><trkpt lat="43.89562634903813" lon="11.007609082643308"><ele>43.0</ele><time>2026-04-17T12:03:00Z</time></trkpt><trkpt lat="43.89568578470865" lon="11.007484145906414"><ele>43.0</ele><time>2026-04-17T12:03:01Z</time></trkpt><trkpt lat="43.895772106615176" lon="11.007372088085772"><ele>42.75</ele><time>2026-04-17T12:03:02Z</time></trkpt><trkpt lat="43.89587043584456" lon="11.007261185665888"><ele>42.5</ele><time>2026-04-17T12:03:03Z</time></trkpt><trkpt lat="43.895973207524804" lon="11.007142530319797"><ele>42.25</ele><time>2026-04-17T12:03:04Z</time></trkpt><trkpt lat="43.896068001194585" lon="11.00702293255693"><ele>42.0</ele><time>2026-04-17T12:03:05Z</time></trkpt><trkpt lat="43.8961698521528" lon="11.006881881726056"><ele>41.333333333333336</ele><time>2026-04-17T12:03:06Z</time></trkpt><trkpt lat="43.8962864277649" lon="11.006719863410176"><ele>40.66666666666667</ele><time>2026-04-17T12:03:07Z</time></trkpt><trkpt lat="43.896426093339564" lon="11.006540844569422"><ele>40.0</ele><time>2026-04-17T12:03:08Z</time></trkpt><trkpt lat="43.89658491535221" lon="11.00634495766785"><ele>40.0</ele><time>2026-04-17T12:03:09Z</time></trkpt><trkpt lat="43.89674059585458" lon="11.006135737291958"><ele>40.0</ele><time>2026-04-17T12:03:10Z</time></trkpt><trkpt lat="43.89688801903571" lon="11.005919919478172"><ele>40.0</ele><time>2026-04-17T12:03:11Z</time></trkpt><trkpt lat="43.89702023996807" lon="11.005720834220956"><ele>40.0</ele><time>2026-04-17T12:03:12Z</time></trkpt><trkpt lat="43.897141287711285" lon="11.005543365547476"><ele>40.0</ele><time>2026-04-17T12:03:13Z</time></trkpt><trkpt lat="43.89726072752978" lon="11.005374430777282"><ele>40.0</ele><time>2026-04-17T12:03:14Z</time></trkpt><trkpt lat="43.89737653108795" lon="11.005204862722357"><ele>40.0</ele><time>2026-04-17T12:03:15Z</time></trkpt><trkpt lat="43.89748611026921" lon="11.005032711597083"><ele>40.0</ele><time>2026-04-17T12:03:16Z</time></trkpt><trkpt lat="43.897588019428916" lon="11.00485673429592"><ele>40.0</ele><time>2026-04-17T12:03:17Z</time></trkpt><trkpt lat="43.89768121871137" lon="11.004682177784728"><ele>40.5</ele><time>2026-04-17T12:03:18Z</time></trkpt><trkpt lat="43.89777362005463" lon="11.004511134658722"><ele>41.0</ele><time>2026-04-17T12:03:19Z</time></trkpt><trkpt lat="43.89786166724745" lon="11.00435982518324"><ele>41.5</ele><time>2026-04-17T12:03:20Z</time></trkpt><trkpt lat="43.89794060465768" lon="11.004221174398099"><ele>42.0</ele><time>2026-04-17T12:03:21Z</time></trkpt><trkpt lat="43.898018153308975" lon="11.004091331009487"><ele>42.0</ele><time>2026-04-17T12:03:22Z</time></trkpt><trkpt lat="43.89808316527821" lon="11.00393524017491"><ele>42.0</ele><time>2026-04-17T12:03:23Z</time></trkpt><trkpt lat="43.89815702027528" lon="11.00376916960018"><ele>42.0</ele><time>2026-04-17T12:03:24Z</time></trkpt><trkpt lat="43.89822626125594" lon="11.003609825793285"><ele>42.0</ele><time>2026-04-17T12:03:25Z</time></trkpt><trkpt lat="43.898289581042654" lon="11.003462857623802"><ele>42.0</ele><time>2026-04-17T12:03:26Z</time></trkpt><trkpt lat="43.89835000702507" lon="11.003320969036327"><ele>42.0</ele><time>2026-04-17T12:03:27Z</time></trkpt><trkpt lat="43.898413253952796" lon="11.00318097480411"><ele>42.0</ele><time>2026-04-17T12:03:28Z</time></trkpt><trkpt lat="43.898486107455135" lon="11.003029715183207"><ele>42.0</ele><time>2026-04-17T12:03:29Z</time></trkpt><trkpt lat="43.898563115913824" lon="11.002868687052846"><ele>42.0</ele><time>2026-04-17T12:03:30Z</time></trkpt><trkpt lat="43.898639827617075" lon="11.002703729322286"><ele>42.0</ele><time>2026-04-17T12:03:31Z</time></trkpt><trkpt lat="43.89871592846525" lon="11.002541629180614"><ele>42.0</ele><time>2026-04-17T12:03:32Z</time></trkpt><trkpt lat="43.89879663260183" lon="11.00238364916183"><ele>42.0</ele><time>2026-04-17T12:03:33Z</time></trkpt><trkpt lat="43.89888224509362" lon="11.002230958866662"><ele>42.0</ele><time>2026-04-17T12:03:34Z</time></trkpt><trkpt lat="43.898961554774814" lon="11.002088544845142"><ele>42.0</ele><time>2026-04-17T12:03:35Z</time></trkpt><trkpt lat="43.899038273303304" lon="11.0019504945705"><ele>42.0</ele><time>2026-04-17T12:03:36Z</time></trkpt><trkpt lat="43.89911532398428" lon="11.001815604962054"><ele>42.0</ele><time>2026-04-17T12:03:37Z</time></trkpt><trkpt lat="43.89919184677063" lon="11.001687251223522"><ele>42.25</ele><time>2026-04-17T12:03:38Z</time></trkpt><trkpt lat="43.89926622165824" lon="11.001568858171387"><ele>42.5</ele><time>2026-04-17T12:03:39Z</time></trkpt><trkpt lat="43.89934365637102" lon="11.001436291860374"><ele>42.75</ele><time>2026-04-17T12:03:40Z</time></trkpt><trkpt lat="43.89942629709492" lon="11.00129606865983"><ele>43.0</ele><time>2026-04-17T12:03:41Z</time></trkpt><trkpt lat="43.89950507499403" lon="11.00115202093069"><ele>43.0</ele><time>2026-04-17T12:03:42Z</time></trkpt><trkpt lat="43.89958355433569" lon="11.001014935697707"><ele>43.0</ele><time>2026-04-17T12:03:43Z</time></trkpt><trkpt lat="43.89966305624439" lon="11.000884752269846"><ele>43.0</ele><time>2026-04-17T12:03:44Z</time></trkpt><trkpt lat="43.89974030248379" lon="11.000761609854635"><ele>43.0</ele><time>2026-04-17T12:03:45Z</time></trkpt><trkpt lat="43.899809121498606" lon="11.000651006281368"><ele>42.75</ele><time>2026-04-17T12:03:46Z</time></trkpt><trkpt lat="43.89986913819813" lon="11.000549856933583"><ele>42.5</ele><time>2026-04-17T12:03:47Z</time></trkpt><trkpt lat="43.89992901314518" lon="11.000487803914625"><ele>42.25</ele><time>2026-04-17T12:03:48Z</time></trkpt><trkpt lat="43.89998308935326" lon="11.00039910367366"><ele>42.0</ele><time>2026-04-17T12:03:50Z</time></trkpt><trkpt lat="43.90010838513607" lon="11.000166964197602"><ele>42.333333333333336</ele><time>2026-04-17T12:03:53Z</time></trkpt><trkpt lat="43.90017600547366" lon="11.000081717572554"><ele>42.666666666666664</ele><time>2026-04-17T12:03:55Z</time></trkpt><trkpt lat="43.90023926061869" lon="11.000013850366026"><ele>43.0</ele><time>2026-04-17T12:03:57Z</time></trkpt><trkpt lat="43.90034272819105" lon="10.999965225321185"><ele>43.33333333333333</ele><time>2026-04-17T12:03:59Z</time></trkpt><trkpt lat="43.900417067387934" lon="10.999933504313272"><ele>43.666666666666664</ele><time>2026-04-17T12:04:00Z</time></trkpt><trkpt lat="43.90047564037581" lon="10.99986902733577"><ele>44.0</ele><time>2026-04-17T12:04:01Z</time></trkpt><trkpt lat="43.90050283726954" lon="10.999775610590792"><ele>44.0</ele><time>2026-04-17T12:04:01.999Z</time></trkpt><trkpt lat="43.90052220882282" lon="10.999673187106918"><ele>44.0</ele><time>2026-04-17T12:04:02.999Z</time></trkpt><trkpt lat="43.900545430335185" lon="10.99955475656996"><ele>44.0</ele><time>2026-04-17T12:04:03.999Z</time></trkpt><trkpt lat="43.900577010569656" lon="10.999419387429432"><ele>44.0</ele><time>2026-04-17T12:04:04.999Z</time></trkpt><trkpt lat="43.900635130670594" lon="10.999286569314831"><ele>44.0</ele><time>2026-04-17T12:04:05.999Z</time></trkpt><trkpt lat="43.90071384975073" lon="10.99916128125738"><ele>43.75</ele><time>2026-04-17T12:04:06.999Z</time></trkpt><trkpt lat="43.900786221061615" lon="10.999045780518065"><ele>43.5</ele><time>2026-04-17T12:04:07.999Z</time></trkpt><trkpt lat="43.90086717087051" lon="10.99891815807825"><ele>43.25</ele><time>2026-04-17T12:04:08.999Z</time></trkpt><trkpt lat="43.900958062669815" lon="10.99876927772484"><ele>43.0</ele><time>2026-04-17T12:04:09.999Z</time></trkpt><trkpt lat="43.901063647586994" lon="10.998633909663708"><ele>43.0</ele><time>2026-04-17T12:04:10.999Z</time></trkpt><trkpt lat="43.90114165083261" lon="10.99847818530136"><ele>43.0</ele><time>2026-04-17T12:04:11.999Z</time></trkpt><trkpt lat="43.90122809436209" lon="10.998351668770772"><ele>43.0</ele><time>2026-04-17T12:04:13Z</time></trkpt><trkpt lat="43.90130666876352" lon="10.998226906922373"><ele>43.0</ele><time>2026-04-17T12:04:14Z</time></trkpt><trkpt lat="43.90137785118907" lon="10.998108818877444"><ele>43.0</ele><time>2026-04-17T12:04:15Z</time></trkpt><trkpt lat="43.90145597112271" lon="10.997980963017849"><ele>43.0</ele><time>2026-04-17T12:04:16Z</time></trkpt><trkpt lat="43.90154472945786" lon="10.997848666277195"><ele>43.0</ele><time>2026-04-17T12:04:17Z</time></trkpt><trkpt lat="43.901627667581906" lon="10.997706892758845"><ele>43.0</ele><time>2026-04-17T12:04:18Z</time></trkpt><trkpt lat="43.90172532517529" lon="10.997556581880124"><ele>43.0</ele><time>2026-04-17T12:04:19Z</time></trkpt><trkpt lat="43.90184958737353" lon="10.997387138491195"><ele>43.0</ele><time>2026-04-17T12:04:20Z</time></trkpt><trkpt lat="43.901958820531924" lon="10.99722749537322"><ele>43.0</ele><time>2026-04-17T12:04:21Z</time></trkpt><trkpt lat="43.90206746958719" lon="10.997110974075325"><ele>43.0</ele><time>2026-04-17T12:04:22Z</time></trkpt><trkpt lat="43.90215506838307" lon="10.996997760745378"><ele>43.0</ele><time>2026-04-17T12:04:23Z</time></trkpt><trkpt lat="43.902238880765616" lon="10.996890258687925"><ele>43.0</ele><time>2026-04-17T12:04:24Z</time></trkpt><trkpt lat="43.90230343581451" lon="10.996791370534236"><ele>43.0</ele><time>2026-04-17T12:04:25Z</time></trkpt><trkpt lat="43.902384570555355" lon="10.996701080041877"><ele>43.0</ele><time>2026-04-17T12:04:26Z</time></trkpt><trkpt lat="43.90247013466715" lon="10.996606442465099"><ele>43.2</ele><time>2026-04-17T12:04:27Z</time></trkpt><trkpt lat="43.90255453430725" lon="10.996509160207962"><ele>43.4</ele><time>2026-04-17T12:04:28Z</time></trkpt><trkpt lat="43.90263623556951" lon="10.996415855135405"><ele>43.6</ele><time>2026-04-17T12:04:29Z</time></trkpt><trkpt lat="43.9027140336674" lon="10.99633156032322"><ele>43.800000000000004</ele><time>2026-04-17T12:04:30Z</time></trkpt><trkpt lat="43.90278747100632" lon="10.996246576082331"><ele>44.0</ele><time>2026-04-17T12:04:31Z</time></trkpt><trkpt lat="43.902852459431685" lon="10.996168052534198"><ele>43.666666666666664</ele><time>2026-04-17T12:04:32Z</time></trkpt><trkpt lat="43.90290472868143" lon="10.996107423885508"><ele>43.33333333333333</ele><time>2026-04-17T12:04:33Z</time></trkpt><trkpt lat="43.90295268663628" lon="10.996046055773014"><ele>43.0</ele><time>2026-04-17T12:04:34Z</time></trkpt><trkpt lat="43.903034762918494" lon="10.995941621592193"><ele>42.666666666666664</ele><time>2026-04-17T12:04:36Z</time></trkpt><trkpt lat="43.90310794316683" lon="10.995844550141339"><ele>42.333333333333336</ele><time>2026-04-17T12:04:38Z</time></trkpt><trkpt lat="43.9031804199126" lon="10.995794620106595"><ele>42.0</ele><time>2026-04-17T12:04:40Z</time></trkpt><trkpt lat="43.90324854327288" lon="10.995786873354541"><ele>42.0</ele><time>2026-04-17T12:04:42Z</time></trkpt><trkpt lat="43.903334597997315" lon="10.995805976274973"><ele>42.0</ele><time>2026-04-17T12:04:44Z</time></trkpt><trkpt lat="43.90345185309019" lon="10.995809107542147"><ele>42.0</ele><time>2026-04-17T12:04:46Z</time></trkpt><trkpt lat="43.903551362983116" lon="10.995710246054427"><ele>42.0</ele><time>2026-04-17T12:04:48Z</time></trkpt><trkpt lat="43.90359056258406" lon="10.995625870460092"><ele>42.0</ele><time>2026-04-17T12:04:49Z</time></trkpt><trkpt lat="43.90361488454583" lon="10.995531082602785"><ele>41.8</ele><time>2026-04-17T12:04:50Z</time></trkpt><trkpt lat="43.90364687958034" lon="10.99543500803915"><ele>41.6</ele><time>2026-04-17T12:04:51Z</time></trkpt><trkpt lat="43.90370240589295" lon="10.995351483730248"><ele>41.4</ele><time>2026-04-17T12:04:52Z</time></trkpt><trkpt lat="43.903795683039434" lon="10.995294563597458"><ele>41.199999999999996</ele><time>2026-04-17T12:04:53Z</time></trkpt><trkpt lat="43.90390921932395" lon="10.99525280686011"><ele>41.0</ele><time>2026-04-17T12:04:54Z</time></trkpt><trkpt lat="43.90402522616576" lon="10.995197795543111"><ele>41.0</ele><time>2026-04-17T12:04:55Z</time></trkpt><trkpt lat="43.90410747803788" lon="10.995073050499117"><ele>41.0</ele><time>2026-04-17T12:04:56Z</time></trkpt><trkpt lat="43.904182853957956" lon="10.994956699483383"><ele>41.0</ele><time>2026-04-17T12:04:57Z</time></trkpt><trkpt lat="43.90424351701887" lon="10.994863059451111"><ele>41.0</ele><time>2026-04-17T12:04:58Z</time></trkpt><trkpt lat="43.904296696209876" lon="10.994780971455903"><ele>41.0</ele><time>2026-04-17T12:04:59Z</time></trkpt><trkpt lat="43.9044957563077" lon="10.994871975912268"><ele>41.5</ele><time>2026-04-17T12:05:00Z</time></trkpt><trkpt lat="43.904589035215864" lon="10.994816794510808"><ele>42.0</ele><time>2026-04-17T12:05:01Z</time></trkpt><trkpt lat="43.90469523007343" lon="10.994763685024294"><ele>42.5</ele><time>2026-04-17T12:05:02Z</time></trkpt><trkpt lat="43.904805596375624" lon="10.9947041496084"><ele>43.0</ele><time>2026-04-17T12:05:03Z</time></trkpt><trkpt lat="43.90491407216176" lon="10.99463431242096"><ele>43.0</ele><time>2026-04-17T12:05:04Z</time></trkpt><trkpt lat="43.90501195790709" lon="10.994572150626551"><ele>43.0</ele><time>2026-04-17T12:05:05Z</time></trkpt><trkpt lat="43.905106089506425" lon="10.994518116211127"><ele>43.0</ele><time>2026-04-17T12:05:06Z</time></trkpt><trkpt lat="43.905197474432526" lon="10.994465488976942"><ele>43.0</ele><time>2026-04-17T12:05:07Z</time></trkpt><trkpt lat="43.905285753113624" lon="10.994409044365682"><ele>43.0</ele><time>2026-04-17T12:05:08Z</time></trkpt><trkpt lat="43.90538701760335" lon="10.994341955809686"><ele>43.0</ele><time>2026-04-17T12:05:09Z</time></trkpt><trkpt lat="43.90548654783617" lon="10.994276645370185"><ele>43.0</ele><time>2026-04-17T12:05:10Z</time></trkpt><trkpt lat="43.90558031226579" lon="10.994222910688999"><ele>43.0</ele><time>2026-04-17T12:05:11Z</time></trkpt><trkpt lat="43.90566763287495" lon="10.994171730980925"><ele>43.0</ele><time>2026-04-17T12:05:12Z</time></trkpt><trkpt lat="43.90576459176668" lon="10.994103052975609"><ele>43.0</ele><time>2026-04-17T12:05:13Z</time></trkpt><trkpt lat="43.90586247436329" lon="10.994031886768369"><ele>43.0</ele><time>2026-04-17T12:05:14Z</time></trkpt><trkpt lat="43.905967115191736" lon="10.993965674356861"><ele>43.0</ele><time>2026-04-17T12:05:15Z</time></trkpt><trkpt lat="43.90607537474776" lon="10.9939011734782"><ele>43.0</ele><time>2026-04-17T12:05:16Z</time></trkpt><trkpt lat="43.906184468130334" lon="10.993830591146324"><ele>43.0</ele><time>2026-04-17T12:05:17Z</time></trkpt><trkpt lat="43.90629487171472" lon="10.993757118886183"><ele>43.0</ele><time>2026-04-17T12:05:18Z</time></trkpt><trkpt lat="43.906407372033165" lon="10.993686880719725"><ele>43.0</ele><time>2026-04-17T12:05:19Z</time></trkpt><trkpt lat="43.9065208783635" lon="10.993615372192469"><ele>43.0</ele><time>2026-04-17T12:05:20Z</time></trkpt><trkpt lat="43.906635381431045" lon="10.99354340643433"><ele>43.0</ele><time>2026-04-17T12:05:21Z</time></trkpt><trkpt lat="43.90674962725947" lon="10.993471600058106"><ele>42.75</ele><time>2026-04-17T12:05:22Z</time></trkpt><trkpt lat="43.90686324806642" lon="10.993397686912042"><ele>42.5</ele><time>2026-04-17T12:05:23Z</time></trkpt><trkpt lat="43.90697768236144" lon="10.993323147551248"><ele>42.25</ele><time>2026-04-17T12:05:24Z</time></trkpt><trkpt lat="43.90709195578606" lon="10.993248689186945"><ele>42.0</ele><time>2026-04-17T12:05:25Z</time></trkpt><trkpt lat="43.90720514006667" lon="10.993175112052453"><ele>42.0</ele><time>2026-04-17T12:05:26Z</time></trkpt><trkpt lat="43.90732076393091" lon="10.993106242741165"><ele>42.0</ele><time>2026-04-17T12:05:27Z</time></trkpt><trkpt lat="43.90743667597979" lon="10.993036790916776"><ele>42.0</ele><time>2026-04-17T12:05:28Z</time></trkpt><trkpt lat="43.907551578306325" lon="10.992964732950592"><ele>42.0</ele><time>2026-04-17T12:05:29Z</time></trkpt><trkpt lat="43.90766184626849" lon="10.992895758377388"><ele>42.0</ele><time>2026-04-17T12:05:30Z</time></trkpt><trkpt lat="43.907765860921586" lon="10.992835495262202"><ele>42.0</ele><time>2026-04-17T12:05:31Z</time></trkpt><trkpt lat="43.90786312571739" lon="10.992778534702254"><ele>42.0</ele><time>2026-04-17T12:05:32Z</time></trkpt><trkpt lat="43.907954785248585" lon="10.992723667983388"><ele>42.0</ele><time>2026-04-17T12:05:33Z</time></trkpt><trkpt lat="43.9080378249093" lon="10.992670355562286"><ele>42.0</ele><time>2026-04-17T12:05:34Z</time></trkpt><trkpt lat="43.908119305396866" lon="10.992621275233358"><ele>42.0</ele><time>2026-04-17T12:05:35Z</time></trkpt><trkpt lat="43.9081965469037" lon="10.992569950046583"><ele>42.0</ele><time>2026-04-17T12:05:36Z</time></trkpt><trkpt lat="43.908267048923385" lon="10.992524566944276"><ele>42.0</ele><time>2026-04-17T12:05:37Z</time></trkpt><trkpt lat="43.90833247101031" lon="10.992488534142105"><ele>42.0</ele><time>2026-04-17T12:05:38Z</time></trkpt><trkpt lat="43.908398884931636" lon="10.99246365206512"><ele>42.0</ele><time>2026-04-17T12:05:39Z</time></trkpt><trkpt lat="43.908494790567964" lon="10.992449861959685"><ele>42.0</ele><time>2026-04-17T12:05:41Z</time></trkpt><trkpt lat="43.908574626172985" lon="10.99246993152285"><ele>42.0</ele><time>2026-04-17T12:05:43Z</time></trkpt><trkpt lat="43.9086678052573" lon="10.992500870333936"><ele>42.0</ele><time>2026-04-17T12:05:45Z</time></trkpt><trkpt lat="43.90879708179408" lon="10.992553940825408"><ele>42.0</ele><time>2026-04-17T12:05:47Z</time></trkpt><trkpt lat="43.9088793322953" lon="10.992582038790959"><ele>42.0</ele><time>2026-04-17T12:05:48Z</time></trkpt><trkpt lat="43.90896814110617" lon="10.992599591351"><ele>42.0</ele><time>2026-04-17T12:05:49Z</time></trkpt><trkpt lat="43.9090565566735" lon="10.992588236055765"><ele>41.857142857142854</ele><time>2026-04-17T12:05:50Z</time></trkpt><trkpt lat="43.909133350453864" lon="10.992560344752581"><ele>41.714285714285715</ele><time>2026-04-17T12:05:51Z</time></trkpt><trkpt lat="43.90920476189068" lon="10.992519000987304"><ele>41.57142857142857</ele><time>2026-04-17T12:05:52Z</time></trkpt><trkpt lat="43.90926941349836" lon="10.99246462029804"><ele>41.42857142857143</ele><time>2026-04-17T12:05:53Z</time></trkpt><trkpt lat="43.90931890829838" lon="10.99238996535771"><ele>41.285714285714285</ele><time>2026-04-17T12:05:54Z</time></trkpt><trkpt lat="43.909358614378675" lon="10.992312054557784"><ele>41.14285714285714</ele><time>2026-04-17T12:05:55Z</time></trkpt><trkpt lat="43.909395371381045" lon="10.992224433326328"><ele>41.0</ele><time>2026-04-17T12:05:56Z</time></trkpt><trkpt lat="43.909426516819195" lon="10.992122870508082"><ele>41.33333333333333</ele><time>2026-04-17T12:05:57Z</time></trkpt><trkpt lat="43.90945006317477" lon="10.992007595555814"><ele>41.666666666666664</ele><time>2026-04-17T12:05:58Z</time></trkpt><trkpt lat="43.90947358646633" lon="10.991896062925143"><ele>42.0</ele><time>2026-04-17T12:05:59Z</time></trkpt><trkpt lat="43.90950943325803" lon="10.991798131587856"><ele>42.333333333333336</ele><time>2026-04-17T12:06:00Z</time></trkpt><trkpt lat="43.909562055653616" lon="10.991714539853215"><ele>42.66666666666667</ele><time>2026-04-17T12:06:01Z</time></trkpt><trkpt lat="43.909626371002076" lon="10.991654532434255"><ele>43.0</ele><time>2026-04-17T12:06:02Z</time></trkpt><trkpt lat="43.909701052458885" lon="10.991601556288677"><ele>43.0</ele><time>2026-04-17T12:06:03Z</time></trkpt><trkpt lat="43.909783873922976" lon="10.991544583620453"><ele>43.0</ele><time>2026-04-17T12:06:04Z</time></trkpt><trkpt lat="43.909864179618324" lon="10.991489197333514"><ele>43.0</ele><time>2026-04-17T12:06:05Z</time></trkpt><trkpt lat="43.909947926895825" lon="10.991436421110846"><ele>43.0</ele><time>2026-04-17T12:06:06Z</time></trkpt><trkpt lat="43.91003906392645" lon="10.991381815861821"><ele>43.0</ele><time>2026-04-17T12:06:07Z</time></trkpt><trkpt lat="43.910138403340476" lon="10.991323795338829"><ele>43.4</ele><time>2026-04-17T12:06:08Z</time></trkpt><trkpt lat="43.91023745567048" lon="10.991262492700875"><ele>43.8</ele><time>2026-04-17T12:06:09Z</time></trkpt><trkpt lat="43.910332446432335" lon="10.991201935500957"><ele>44.2</ele><time>2026-04-17T12:06:10Z</time></trkpt><trkpt lat="43.910431360035886" lon="10.991137947179471"><ele>44.6</ele><time>2026-04-17T12:06:11Z</time></trkpt><trkpt lat="43.910541692810135" lon="10.991068668550346"><ele>45.0</ele><time>2026-04-17T12:06:12Z</time></trkpt><trkpt lat="43.910658125481916" lon="10.990997130679208"><ele>45.0</ele><time>2026-04-17T12:06:13Z</time></trkpt><trkpt lat="43.91077277805175" lon="10.990925607980497"><ele>45.0</ele><time>2026-04-17T12:06:14Z</time></trkpt><trkpt lat="43.91089208456061" lon="10.990850328487081"><ele>45.0</ele><time>2026-04-17T12:06:15Z</time></trkpt><trkpt lat="43.911017211931906" lon="10.990769210789962"><ele>45.0</ele><time>2026-04-17T12:06:16Z</time></trkpt><trkpt lat="43.91116950307681" lon="10.990662828365707"><ele>45.0</ele><time>2026-04-17T12:06:17Z</time></trkpt><trkpt lat="43.91135418209804" lon="10.990537667026238"><ele>45.0</ele><time>2026-04-17T12:06:18Z</time></trkpt><trkpt lat="43.91155094554765" lon="10.990416821939018"><ele>45.0</ele><time>2026-04-17T12:06:19Z</time></trkpt><trkpt lat="43.911742910977175" lon="10.990305542402256"><ele>45.0</ele><time>2026-04-17T12:06:20Z</time></trkpt><trkpt lat="43.911949140637994" lon="10.99019185545846"><ele>45.0</ele><time>2026-04-17T12:06:21Z</time></trkpt><trkpt lat="43.912157163020126" lon="10.990073527229322"><ele>45.0</ele><time>2026-04-17T12:06:22Z</time></trkpt><trkpt lat="43.912350396672196" lon="10.989949251582795"><ele>45.333333333333336</ele><time>2026-04-17T12:06:23Z</time></trkpt><trkpt lat="43.912526465342204" lon="10.989828117067598"><ele>45.66666666666667</ele><time>2026-04-17T12:06:24Z</time></trkpt><trkpt lat="43.912687665186404" lon="10.989713591706046"><ele>46.0</ele><time>2026-04-17T12:06:25Z</time></trkpt><trkpt lat="43.91283992580823" lon="10.989602409463012"><ele>45.333333333333336</ele><time>2026-04-17T12:06:26Z</time></trkpt><trkpt lat="43.91298255624044" lon="10.989480370901159"><ele>44.666666666666664</ele><time>2026-04-17T12:06:27Z</time></trkpt><trkpt lat="43.91311735398494" lon="10.989349463175108"><ele>44.0</ele><time>2026-04-17T12:06:28Z</time></trkpt><trkpt lat="43.91325408651483" lon="10.989211366863135"><ele>44.0</ele><time>2026-04-17T12:06:29Z</time></trkpt><trkpt lat="43.91339208570085" lon="10.989067463489295"><ele>44.0</ele><time>2026-04-17T12:06:30Z</time></trkpt><trkpt lat="43.91352822806643" lon="10.988915921910879"><ele>44.0</ele><time>2026-04-17T12:06:31Z</time></trkpt><trkpt lat="43.913663982924106" lon="10.988754960583474"><ele>44.0</ele><time>2026-04-17T12:06:32Z</time></trkpt><trkpt lat="43.91379774043832" lon="10.988585858713117"><ele>44.0</ele><time>2026-04-17T12:06:33Z</time></trkpt><trkpt lat="43.91393203755145" lon="10.98840968050933"><ele>44.0</ele><time>2026-04-17T12:06:34Z</time></trkpt><trkpt lat="43.91406796980867" lon="10.988229290717074"><ele>44.0</ele><time>2026-04-17T12:06:35Z</time></trkpt><trkpt lat="43.914200215818425" lon="10.988035546742344"><ele>44.0</ele><time>2026-04-17T12:06:36Z</time></trkpt><trkpt lat="43.91432454080234" lon="10.987832891584864"><ele>44.0</ele><time>2026-04-17T12:06:37Z</time></trkpt><trkpt lat="43.914446781173126" lon="10.987617019790441"><ele>44.0</ele><time>2026-04-17T12:06:38Z</time></trkpt><trkpt lat="43.91456724117541" lon="10.987392511989311"><ele>44.0</ele><time>2026-04-17T12:06:39Z</time></trkpt><trkpt lat="43.91468483182244" lon="10.987159921640847"><ele>44.0</ele><time>2026-04-17T12:06:40Z</time></trkpt><trkpt lat="43.91479513156659" lon="10.986917902155177"><ele>44.0</ele><time>2026-04-17T12:06:41Z</time></trkpt><trkpt lat="43.91489819954004" lon="10.986669044846533"><ele>44.0</ele><time>2026-04-17T12:06:42Z</time></trkpt><trkpt lat="43.91499490990577" lon="10.986413471496295"><ele>44.0</ele><time>2026-04-17T12:06:43Z</time></trkpt><trkpt lat="43.91508688120724" lon="10.986159586709178"><ele>44.0</ele><time>2026-04-17T12:06:44Z</time></trkpt><trkpt lat="43.91517271886397" lon="10.98590368186597"><ele>44.0</ele><time>2026-04-17T12:06:45Z</time></trkpt><trkpt lat="43.91525056309973" lon="10.985642363335138"><ele>44.0</ele><time>2026-04-17T12:06:46Z</time></trkpt><trkpt lat="43.91532236070542" lon="10.98537589694342"><ele>44.0</ele><time>2026-04-17T12:06:47Z</time></trkpt><trkpt lat="43.91538900145898" lon="10.985105216083246"><ele>44.0</ele><time>2026-04-17T12:06:48Z</time></trkpt><trkpt lat="43.91544913963813" lon="10.984830512765022"><ele>44.0</ele><time>2026-04-17T12:06:49Z</time></trkpt><trkpt lat="43.915499944191296" lon="10.98455543706301"><ele>44.33333333333333</ele><time>2026-04-17T12:06:50Z</time></trkpt><trkpt lat="43.91554062226313" lon="10.984290160838665"><ele>44.666666666666664</ele><time>2026-04-17T12:06:51Z</time></trkpt><trkpt lat="43.91557151802324" lon="10.984041042453963"><ele>45.0</ele><time>2026-04-17T12:06:52Z</time></trkpt><trkpt lat="43.91559821434136" lon="10.983794854737905"><ele>44.666666666666664</ele><time>2026-04-17T12:06:53Z</time></trkpt><trkpt lat="43.91562231112122" lon="10.983551793168576"><ele>44.33333333333333</ele><time>2026-04-17T12:06:54Z</time></trkpt><trkpt lat="43.915641659062175" lon="10.983309909742584"><ele>44.0</ele><time>2026-04-17T12:06:55Z</time></trkpt><trkpt lat="43.91565706334345" lon="10.983065567399354"><ele>44.0</ele><time>2026-04-17T12:06:56Z</time></trkpt><trkpt lat="43.91566995843308" lon="10.98282181474368"><ele>44.0</ele><time>2026-04-17T12:06:57Z</time></trkpt><trkpt lat="43.91568427621787" lon="10.982575178091956"><ele>44.0</ele><time>2026-04-17T12:06:58Z</time></trkpt><trkpt lat="43.9157006519398" lon="10.982326016484981"><ele>43.666666666666664</ele><time>2026-04-17T12:06:59Z</time></trkpt><trkpt lat="43.915717461464716" lon="10.98207548278698"><ele>43.333333333333336</ele><time>2026-04-17T12:07:00Z</time></trkpt><trkpt lat="43.91573372299291" lon="10.981823647581466"><ele>43.0</ele><time>2026-04-17T12:07:01Z</time></trkpt><trkpt lat="43.91574788769126" lon="10.981581508352665"><ele>42.66666666666667</ele><time>2026-04-17T12:07:02Z</time></trkpt><trkpt lat="43.915757957007294" lon="10.981351400847426"><ele>42.333333333333336</ele><time>2026-04-17T12:07:03Z</time></trkpt><trkpt lat="43.915765651376645" lon="10.981134413694651"><ele>42.0</ele><time>2026-04-17T12:07:04Z</time></trkpt><trkpt lat="43.91577472706328" lon="10.980926536735902"><ele>42.25</ele><time>2026-04-17T12:07:05Z</time></trkpt><trkpt lat="43.915785584140245" lon="10.980725335405626"><ele>42.5</ele><time>2026-04-17T12:07:06Z</time></trkpt><trkpt lat="43.91579894311925" lon="10.980528171729564"><ele>42.75</ele><time>2026-04-17T12:07:07Z</time></trkpt><trkpt lat="43.91581253116959" lon="10.980324690185835"><ele>43.0</ele><time>2026-04-17T12:07:08Z</time></trkpt><trkpt lat="43.91582646127866" lon="10.980111679871143"><ele>43.0</ele><time>2026-04-17T12:07:09Z</time></trkpt><trkpt lat="43.9158400010945" lon="10.979889448485663"><ele>43.0</ele><time>2026-04-17T12:07:10Z</time></trkpt><trkpt lat="43.91585489298828" lon="10.979659964823426"><ele>43.0</ele><time>2026-04-17T12:07:11Z</time></trkpt><trkpt lat="43.9158686651498" lon="10.97942290650544"><ele>43.0</ele><time>2026-04-17T12:07:12Z</time></trkpt><trkpt lat="43.915882167309384" lon="10.979178406891634"><ele>43.0</ele><time>2026-04-17T12:07:13Z</time></trkpt><trkpt lat="43.9158950656501" lon="10.97893752670583"><ele>43.0</ele><time>2026-04-17T12:07:14Z</time></trkpt><trkpt lat="43.915908631481805" lon="10.978703942350693"><ele>43.0</ele><time>2026-04-17T12:07:15Z</time></trkpt><trkpt lat="43.91592218149255" lon="10.978474876887287"><ele>43.0</ele><time>2026-04-17T12:07:16Z</time></trkpt><trkpt lat="43.91593699113516" lon="10.978240783301748"><ele>43.0</ele><time>2026-04-17T12:07:17Z</time></trkpt><trkpt lat="43.915952481894934" lon="10.97799094664423"><ele>43.333333333333336</ele><time>2026-04-17T12:07:18Z</time></trkpt><trkpt lat="43.9159696805235" lon="10.977726833748324"><ele>43.666666666666664</ele><time>2026-04-17T12:07:19Z</time></trkpt><trkpt lat="43.91598587779719" lon="10.977447531326938"><ele>44.0</ele><time>2026-04-17T12:07:20Z</time></trkpt><trkpt lat="43.91600226798528" lon="10.977137724443454"><ele>44.0</ele><time>2026-04-17T12:07:21Z</time></trkpt><trkpt lat="43.91602248771111" lon="10.976813131522297"><ele>44.0</ele><time>2026-04-17T12:07:22Z</time></trkpt><trkpt lat="43.91605045961291" lon="10.9764817279521"><ele>44.0</ele><time>2026-04-17T12:07:23Z</time></trkpt><trkpt lat="43.91607656438809" lon="10.976146807681598"><ele>44.0</ele><time>2026-04-17T12:07:24Z</time></trkpt><trkpt lat="43.91610297820046" lon="10.975794681561068"><ele>44.0</ele><time>2026-04-17T12:07:25.001Z</time></trkpt><trkpt lat="43.91612456858087" lon="10.975440158365764"><ele>44.0</ele><time>2026-04-17T12:07:26.001Z</time></trkpt><trkpt lat="43.91614593389753" lon="10.975089190502208"><ele>43.5</ele><time>2026-04-17T12:07:27.001Z</time></trkpt><trkpt lat="43.91616806435806" lon="10.97474228653285"><ele>43.0</ele><time>2026-04-17T12:07:28.001Z</time></trkpt><trkpt lat="43.91618915231904" lon="10.974395110418323"><ele>43.0</ele><time>2026-04-17T12:07:29.001Z</time></trkpt><trkpt lat="43.91620951166595" lon="10.974049260207712"><ele>43.0</ele><time>2026-04-17T12:07:30.001Z</time></trkpt><trkpt lat="43.91623080740556" lon="10.97370361019564"><ele>43.0</ele><time>2026-04-17T12:07:31.001Z</time></trkpt><trkpt lat="43.91625058298323" lon="10.973361107507564"><ele>43.0</ele><time>2026-04-17T12:07:32.001Z</time></trkpt><trkpt lat="43.916270432766794" lon="10.973019782853148"><ele>44.0</ele><time>2026-04-17T12:07:33.001Z</time></trkpt><trkpt lat="43.916290493929" lon="10.97268163036783"><ele>45.0</ele><time>2026-04-17T12:07:34.001Z</time></trkpt><trkpt lat="43.91631346602943" lon="10.972351322961375"><ele>45.5</ele><time>2026-04-17T12:07:35.001Z</time></trkpt><trkpt lat="43.916346184927136" lon="10.972031548724239"><ele>46.0</ele><time>2026-04-17T12:07:36.001Z</time></trkpt><trkpt lat="43.916345674683704" lon="10.971719563960134"><ele>45.66666666666667</ele><time>2026-04-17T12:07:37.001Z</time></trkpt><trkpt lat="43.9163643669413" lon="10.971422552954653"><ele>45.333333333333336</ele><time>2026-04-17T12:07:38.001Z</time></trkpt><trkpt lat="43.91638109598215" lon="10.971128668743354"><ele>45.0</ele><time>2026-04-17T12:07:39.001Z</time></trkpt><trkpt lat="43.91639857195986" lon="10.970841173233165"><ele>44.333333333333336</ele><time>2026-04-17T12:07:40.001Z</time></trkpt><trkpt lat="43.91641523470921" lon="10.970559004764302"><ele>43.66666666666667</ele><time>2026-04-17T12:07:41.001Z</time></trkpt><trkpt lat="43.91643192875078" lon="10.970284900306897"><ele>43.0</ele><time>2026-04-17T12:07:42.001Z</time></trkpt><trkpt lat="43.91644869769602" lon="10.970011438833318"><ele>43.0</ele><time>2026-04-17T12:07:43.001Z</time></trkpt><trkpt lat="43.91646547873931" lon="10.969737890340035"><ele>43.0</ele><time>2026-04-17T12:07:44.001Z</time></trkpt><trkpt lat="43.9164792416255" lon="10.96947290802772"><ele>43.0</ele><time>2026-04-17T12:07:45.001Z</time></trkpt><trkpt lat="43.91649327934086" lon="10.969224355609132"><ele>43.333333333333336</ele><time>2026-04-17T12:07:46.001Z</time></trkpt><trkpt lat="43.91650783848025" lon="10.968984444786807"><ele>43.666666666666664</ele><time>2026-04-17T12:07:47.001Z</time></trkpt><trkpt lat="43.916523482475725" lon="10.96874660068621"><ele>44.0</ele><time>2026-04-17T12:07:48.001Z</time></trkpt><trkpt lat="43.9165398813398" lon="10.968503739664936"><ele>44.0</ele><time>2026-04-17T12:07:49.001Z</time></trkpt><trkpt lat="43.91656034852121" lon="10.968264295664026"><ele>44.0</ele><time>2026-04-17T12:07:50.001Z</time></trkpt><trkpt lat="43.916585010878045" lon="10.968016974237926"><ele>44.0</ele><time>2026-04-17T12:07:51.001Z</time></trkpt><trkpt lat="43.916606352794574" lon="10.967766700702088"><ele>44.0</ele><time>2026-04-17T12:07:52.001Z</time></trkpt><trkpt lat="43.91662046628476" lon="10.96752320073272"><ele>44.0</ele><time>2026-04-17T12:07:53.001Z</time></trkpt><trkpt lat="43.916635559374356" lon="10.967295005598029"><ele>44.0</ele><time>2026-04-17T12:07:54.001Z</time></trkpt><trkpt lat="43.916651983940596" lon="10.967077455226645"><ele>44.0</ele><time>2026-04-17T12:07:55Z</time></trkpt><trkpt lat="43.916662995189974" lon="10.966869927504336"><ele>44.0</ele><time>2026-04-17T12:07:56Z</time></trkpt><trkpt lat="43.916675324905285" lon="10.966669847600603"><ele>44.0</ele><time>2026-04-17T12:07:57Z</time></trkpt><trkpt lat="43.91668889036257" lon="10.966474904046281"><ele>44.0</ele><time>2026-04-17T12:07:58Z</time></trkpt><trkpt lat="43.91669948941438" lon="10.966286774900585"><ele>43.666666666666664</ele><time>2026-04-17T12:07:59Z</time></trkpt><trkpt lat="43.91671141637057" lon="10.966091827472498"><ele>43.333333333333336</ele><time>2026-04-17T12:08:00Z</time></trkpt><trkpt lat="43.916726211763404" lon="10.965865590021565"><ele>43.0</ele><time>2026-04-17T12:08:01Z</time></trkpt><trkpt lat="43.91674340207233" lon="10.965616319624967"><ele>43.333333333333336</ele><time>2026-04-17T12:08:02Z</time></trkpt><trkpt lat="43.916760141861026" lon="10.965352110540554"><ele>43.666666666666664</ele><time>2026-04-17T12:08:03Z</time></trkpt><trkpt lat="43.91676934657984" lon="10.965099859238833"><ele>44.0</ele><time>2026-04-17T12:08:04Z</time></trkpt><trkpt lat="43.91677864263062" lon="10.964846793034726"><ele>44.0</ele><time>2026-04-17T12:08:05Z</time></trkpt><trkpt lat="43.916792695903055" lon="10.96459351423897"><ele>44.0</ele><time>2026-04-17T12:08:06Z</time></trkpt><trkpt lat="43.916812598688075" lon="10.964347726538625"><ele>44.0</ele><time>2026-04-17T12:08:07Z</time></trkpt><trkpt lat="43.91684402434458" lon="10.964099664627636"><ele>44.666666666666664</ele><time>2026-04-17T12:08:08Z</time></trkpt><trkpt lat="43.91688226063633" lon="10.963845470250865"><ele>45.333333333333336</ele><time>2026-04-17T12:08:09Z</time></trkpt><trkpt lat="43.91691668685404" lon="10.96360119650465"><ele>46.0</ele><time>2026-04-17T12:08:10Z</time></trkpt><trkpt lat="43.91694818921581" lon="10.963374775934737"><ele>46.0</ele><time>2026-04-17T12:08:11Z</time></trkpt><trkpt lat="43.916976700163104" lon="10.963158044536767"><ele>46.0</ele><time>2026-04-17T12:08:12Z</time></trkpt><trkpt lat="43.91700376574186" lon="10.962931329181274"><ele>46.0</ele><time>2026-04-17T12:08:13Z</time></trkpt><trkpt lat="43.917033486058315" lon="10.962696080382976"><ele>46.0</ele><time>2026-04-17T12:08:13.999Z</time></trkpt><trkpt lat="43.91706390524459" lon="10.962467499634485"><ele>46.0</ele><time>2026-04-17T12:08:14.999Z</time></trkpt><trkpt lat="43.91709248393074" lon="10.962251051168465"><ele>46.0</ele><time>2026-04-17T12:08:15.999Z</time></trkpt><trkpt lat="43.91712151527367" lon="10.962023146324963"><ele>46.0</ele><time>2026-04-17T12:08:16.999Z</time></trkpt><trkpt lat="43.917154720147586" lon="10.96177518448988"><ele>46.0</ele><time>2026-04-17T12:08:17.999Z</time></trkpt><trkpt lat="43.91719063818574" lon="10.961508969026637"><ele>46.0</ele><time>2026-04-17T12:08:18.999Z</time></trkpt><trkpt lat="43.91722617551957" lon="10.961230686531525"><ele>46.333333333333336</ele><time>2026-04-17T12:08:19.999Z</time></trkpt><trkpt lat="43.91726422643247" lon="10.96094308857695"><ele>46.666666666666664</ele><time>2026-04-17T12:08:20.999Z</time></trkpt><trkpt lat="43.91730379985355" lon="10.960650625231613"><ele>47.0</ele><time>2026-04-17T12:08:21.999Z</time></trkpt><trkpt lat="43.91734066511333" lon="10.960358724569616"><ele>47.0</ele><time>2026-04-17T12:08:22.999Z</time></trkpt><trkpt lat="43.917374823704556" lon="10.960090652312466"><ele>47.0</ele><time>2026-04-17T12:08:23.999Z</time></trkpt><trkpt lat="43.91740759010025" lon="10.959838992163277"><ele>47.0</ele><time>2026-04-17T12:08:24.999Z</time></trkpt><trkpt lat="43.917441003084114" lon="10.959585078451353"><ele>47.0</ele><time>2026-04-17T12:08:25.999Z</time></trkpt><trkpt lat="43.91747491997407" lon="10.959328413100568"><ele>47.0</ele><time>2026-04-17T12:08:26.999Z</time></trkpt><trkpt lat="43.91750691103281" lon="10.959067157667462"><ele>47.0</ele><time>2026-04-17T12:08:27.999Z</time></trkpt><trkpt lat="43.91753971036861" lon="10.958801249660276"><ele>46.666666666666664</ele><time>2026-04-17T12:08:28.999Z</time></trkpt><trkpt lat="43.917575596342985" lon="10.958534190262878"><ele>46.333333333333336</ele><time>2026-04-17T12:08:29.999Z</time></trkpt><trkpt lat="43.917612778812384" lon="10.958264400732574"><ele>46.0</ele><time>2026-04-17T12:08:30.999Z</time></trkpt><trkpt lat="43.91765140772156" lon="10.957993454025305"><ele>46.0</ele><time>2026-04-17T12:08:31.999Z</time></trkpt><trkpt lat="43.917686535856454" lon="10.957731815516373"><ele>46.0</ele><time>2026-04-17T12:08:32.999Z</time></trkpt><trkpt lat="43.91771821807083" lon="10.957487495244486"><ele>46.0</ele><time>2026-04-17T12:08:33.999Z</time></trkpt><trkpt lat="43.91774907440254" lon="10.957257410498233"><ele>46.333333333333336</ele><time>2026-04-17T12:08:34.999Z</time></trkpt><trkpt lat="43.91777771572222" lon="10.95703937573605"><ele>46.666666666666664</ele><time>2026-04-17T12:08:35.999Z</time></trkpt><trkpt lat="43.91780507096757" lon="10.95682793178246"><ele>47.0</ele><time>2026-04-17T12:08:36.999Z</time></trkpt><trkpt lat="43.91783288251189" lon="10.956620622356922"><ele>47.0</ele><time>2026-04-17T12:08:37.999Z</time></trkpt><trkpt lat="43.917860174518374" lon="10.95640786854125"><ele>47.0</ele><time>2026-04-17T12:08:38.999Z</time></trkpt><trkpt lat="43.91788877230194" lon="10.956189900763219"><ele>47.0</ele><time>2026-04-17T12:08:39.999Z</time></trkpt><trkpt lat="43.91791726879676" lon="10.955977655178023"><ele>47.0</ele><time>2026-04-17T12:08:40.999Z</time></trkpt><trkpt lat="43.917944867278926" lon="10.955770556145536"><ele>47.0</ele><time>2026-04-17T12:08:41.999Z</time></trkpt><trkpt lat="43.917971308430836" lon="10.955559842896227"><ele>47.0</ele><time>2026-04-17T12:08:42.999Z</time></trkpt><trkpt lat="43.91800015387396" lon="10.955344807078387"><ele>47.0</ele><time>2026-04-17T12:08:43.999Z</time></trkpt><trkpt lat="43.91802843710337" lon="10.955127629072113"><ele>47.0</ele><time>2026-04-17T12:08:44.999Z</time></trkpt><trkpt lat="43.91805878542496" lon="10.954919217636938"><ele>47.0</ele><time>2026-04-17T12:08:45.999Z</time></trkpt><trkpt lat="43.91808534213011" lon="10.954718093598679"><ele>47.0</ele><time>2026-04-17T12:08:46.999Z</time></trkpt><trkpt lat="43.918113188067075" lon="10.954487402212976"><ele>47.0</ele><time>2026-04-17T12:08:47.999Z</time></trkpt><trkpt lat="43.91814560195241" lon="10.954229880364775"><ele>47.0</ele><time>2026-04-17T12:08:48.999Z</time></trkpt><trkpt lat="43.918184523237855" lon="10.953944751494982"><ele>47.0</ele><time>2026-04-17T12:08:49.999Z</time></trkpt><trkpt lat="43.91823082245269" lon="10.953644193075537"><ele>47.0</ele><time>2026-04-17T12:08:50.999Z</time></trkpt><trkpt lat="43.91827650970521" lon="10.953330086340486"><ele>47.0</ele><time>2026-04-17T12:08:51.999Z</time></trkpt><trkpt lat="43.91831553620445" lon="10.953065751296327"><ele>47.0</ele><time>2026-04-17T12:08:52.999Z</time></trkpt><trkpt lat="43.918359959991434" lon="10.95274685041848"><ele>47.0</ele><time>2026-04-17T12:08:53.999Z</time></trkpt><trkpt lat="43.918399683656205" lon="10.952420294347803"><ele>47.5</ele><time>2026-04-17T12:08:54.999Z</time></trkpt><trkpt lat="43.91844496333655" lon="10.95209466891459"><ele>48.0</ele><time>2026-04-17T12:08:56Z</time></trkpt><trkpt lat="43.918488887431344" lon="10.951766764859704"><ele>47.5</ele><time>2026-04-17T12:08:57Z</time></trkpt><trkpt lat="43.918534870718666" lon="10.95143429361634"><ele>47.0</ele><time>2026-04-17T12:08:58Z</time></trkpt><trkpt lat="43.918582568569505" lon="10.951104466737757"><ele>47.5</ele><time>2026-04-17T12:08:59Z</time></trkpt><trkpt lat="43.91862128909553" lon="10.950780194763945"><ele>48.0</ele><time>2026-04-17T12:09:00Z</time></trkpt><trkpt lat="43.918665456737024" lon="10.950464408202562"><ele>48.0</ele><time>2026-04-17T12:09:01Z</time></trkpt><trkpt lat="43.918703702648834" lon="10.950165816862016"><ele>48.0</ele><time>2026-04-17T12:09:02Z</time></trkpt><trkpt lat="43.918741266635834" lon="10.94986702934032"><ele>48.0</ele><time>2026-04-17T12:09:03Z</time></trkpt><trkpt lat="43.918783107735415" lon="10.949571830216545"><ele>48.0</ele><time>2026-04-17T12:09:04Z</time></trkpt><trkpt lat="43.91882292122057" lon="10.949278312503516"><ele>48.0</ele><time>2026-04-17T12:09:05Z</time></trkpt><trkpt lat="43.918860626444484" lon="10.948977892865106"><ele>48.0</ele><time>2026-04-17T12:09:06Z</time></trkpt><trkpt lat="43.918899174724466" lon="10.948678259659074"><ele>48.0</ele><time>2026-04-17T12:09:07Z</time></trkpt><trkpt lat="43.91893524287012" lon="10.948377920453263"><ele>48.0</ele><time>2026-04-17T12:09:08Z</time></trkpt><trkpt lat="43.91896467491704" lon="10.948076345037073"><ele>48.0</ele><time>2026-04-17T12:09:09Z</time></trkpt><trkpt lat="43.91899866094404" lon="10.94778361279206"><ele>48.0</ele><time>2026-04-17T12:09:10Z</time></trkpt><trkpt lat="43.9190374497527" lon="10.947487755908075"><ele>48.0</ele><time>2026-04-17T12:09:11Z</time></trkpt><trkpt lat="43.91907622843533" lon="10.94721700412868"><ele>48.0</ele><time>2026-04-17T12:09:12Z</time></trkpt><trkpt lat="43.91910943167455" lon="10.946965121347484"><ele>48.0</ele><time>2026-04-17T12:09:13Z</time></trkpt><trkpt lat="43.91914229781814" lon="10.946715853888685"><ele>48.0</ele><time>2026-04-17T12:09:14Z</time></trkpt><trkpt lat="43.91917053664316" lon="10.94649873629988"><ele>48.0</ele><time>2026-04-17T12:09:15Z</time></trkpt><trkpt lat="43.91919976332997" lon="10.94627517422171"><ele>48.25</ele><time>2026-04-17T12:09:16Z</time></trkpt><trkpt lat="43.91923193327002" lon="10.946057033976334"><ele>48.5</ele><time>2026-04-17T12:09:17Z</time></trkpt><trkpt lat="43.91926901265744" lon="10.945853347510706"><ele>48.75</ele><time>2026-04-17T12:09:18Z</time></trkpt><trkpt lat="43.9193058839238" lon="10.945683262063607"><ele>49.0</ele><time>2026-04-17T12:09:19Z</time></trkpt><trkpt lat="43.91935379010773" lon="10.945516594284804"><ele>49.33333333333333</ele><time>2026-04-17T12:09:20Z</time></trkpt><trkpt lat="43.919418470255145" lon="10.945318438264607"><ele>49.66666666666667</ele><time>2026-04-17T12:09:21Z</time></trkpt><trkpt lat="43.91948728553084" lon="10.945095516384303"><ele>50.0</ele><time>2026-04-17T12:09:22Z</time></trkpt><trkpt lat="43.919554879547476" lon="10.944856801323082"><ele>50.0</ele><time>2026-04-17T12:09:23Z</time></trkpt><trkpt lat="43.91962724209388" lon="10.94461011964204"><ele>50.0</ele><time>2026-04-17T12:09:24Z</time></trkpt><trkpt lat="43.91970737987712" lon="10.944360062865261"><ele>50.0</ele><time>2026-04-17T12:09:25Z</time></trkpt><trkpt lat="43.91979249843174" lon="10.944110539318975"><ele>50.0</ele><time>2026-04-17T12:09:26Z</time></trkpt><trkpt lat="43.91988244978004" lon="10.943854046030431"><ele>50.0</ele><time>2026-04-17T12:09:27Z</time></trkpt><trkpt lat="43.91997386615102" lon="10.943595306684779"><ele>50.0</ele><time>2026-04-17T12:09:28Z</time></trkpt><trkpt lat="43.920063194014475" lon="10.943333434586227"><ele>50.66666666666667</ele><time>2026-04-17T12:09:29Z</time></trkpt><trkpt lat="43.920145966327645" lon="10.943082789020405"><ele>51.33333333333333</ele><time>2026-04-17T12:09:30Z</time></trkpt><trkpt lat="43.92022363112854" lon="10.94284595408453"><ele>52.0</ele><time>2026-04-17T12:09:31Z</time></trkpt><trkpt lat="43.920301761667254" lon="10.942614106425598"><ele>51.666666666666664</ele><time>2026-04-17T12:09:32Z</time></trkpt><trkpt lat="43.920380143524504" lon="10.942386594915266"><ele>51.33333333333333</ele><time>2026-04-17T12:09:33Z</time></trkpt><trkpt lat="43.92045954931282" lon="10.942161419960335"><ele>51.0</ele><time>2026-04-17T12:09:34Z</time></trkpt><trkpt lat="43.920537085915896" lon="10.941936261386523"><ele>51.66666666666667</ele><time>2026-04-17T12:09:35Z</time></trkpt><trkpt lat="43.92061838991934" lon="10.94169590296969"><ele>52.333333333333336</ele><time>2026-04-17T12:09:36Z</time></trkpt><trkpt lat="43.92070664444565" lon="10.941444502822334"><ele>53.0</ele><time>2026-04-17T12:09:37Z</time></trkpt><trkpt lat="43.92079869267666" lon="10.941193528883286"><ele>53.0</ele><time>2026-04-17T12:09:38Z</time></trkpt><trkpt lat="43.92089405632396" lon="10.940941805183863"><ele>53.0</ele><time>2026-04-17T12:09:39Z</time></trkpt><trkpt lat="43.920985431122254" lon="10.940686859787398"><ele>53.0</ele><time>2026-04-17T12:09:40Z</time></trkpt><trkpt lat="43.92107045309964" lon="10.940436341313514"><ele>52.333333333333336</ele><time>2026-04-17T12:09:41Z</time></trkpt><trkpt lat="43.92115390966616" lon="10.940191316909983"><ele>51.66666666666667</ele><time>2026-04-17T12:09:42Z</time></trkpt><trkpt lat="43.92123725779885" lon="10.93994849432941"><ele>51.0</ele><time>2026-04-17T12:09:43Z</time></trkpt><trkpt lat="43.92132108792758" lon="10.939700067878883"><ele>51.0</ele><time>2026-04-17T12:09:44Z</time></trkpt><trkpt lat="43.92140434885054" lon="10.939450508043409"><ele>51.0</ele><time>2026-04-17T12:09:45Z</time></trkpt><trkpt lat="43.92148864819106" lon="10.939205658116204"><ele>51.0</ele><time>2026-04-17T12:09:46Z</time></trkpt><trkpt lat="43.92157449497849" lon="10.938953837193989"><ele>51.0</ele><time>2026-04-17T12:09:47Z</time></trkpt><trkpt lat="43.921661458465806" lon="10.938693736253152"><ele>51.0</ele><time>2026-04-17T12:09:48Z</time></trkpt><trkpt lat="43.92174682146491" lon="10.938432006429295"><ele>51.0</ele><time>2026-04-17T12:09:49Z</time></trkpt><trkpt lat="43.92183355738878" lon="10.938172689585855"><ele>51.0</ele><time>2026-04-17T12:09:50Z</time></trkpt><trkpt lat="43.92193065253029" lon="10.937920744501083"><ele>51.0</ele><time>2026-04-17T12:09:51Z</time></trkpt><trkpt lat="43.92201882693372" lon="10.937675505491699"><ele>51.0</ele><time>2026-04-17T12:09:52Z</time></trkpt><trkpt lat="43.92209588127838" lon="10.937442316490719"><ele>51.0</ele><time>2026-04-17T12:09:53Z</time></trkpt><trkpt lat="43.92217973350224" lon="10.937199683543765"><ele>51.0</ele><time>2026-04-17T12:09:54Z</time></trkpt><trkpt lat="43.92226323264381" lon="10.936945118929216"><ele>51.0</ele><time>2026-04-17T12:09:55Z</time></trkpt><trkpt lat="43.922343205221686" lon="10.936676518251302"><ele>51.0</ele><time>2026-04-17T12:09:56Z</time></trkpt><trkpt lat="43.92243385957558" lon="10.93639918923303"><ele>51.0</ele><time>2026-04-17T12:09:57Z</time></trkpt><trkpt lat="43.92254486432426" lon="10.936130231220215"><ele>51.0</ele><time>2026-04-17T12:09:58Z</time></trkpt><trkpt lat="43.9226558980054" lon="10.935861627607078"><ele>51.66666666666667</ele><time>2026-04-17T12:09:59Z</time></trkpt><trkpt lat="43.92275329832287" lon="10.935577921478206"><ele>52.333333333333336</ele><time>2026-04-17T12:10:00Z</time></trkpt><trkpt lat="43.92284313909749" lon="10.935299698926073"><ele>53.0</ele><time>2026-04-17T12:10:01Z</time></trkpt><trkpt lat="43.92292805388075" lon="10.93504583990637"><ele>53.333333333333336</ele><time>2026-04-17T12:10:02Z</time></trkpt><trkpt lat="43.92300934210961" lon="10.934812147496043"><ele>53.66666666666667</ele><time>2026-04-17T12:10:03Z</time></trkpt><trkpt lat="43.92308612231104" lon="10.934592049316649"><ele>54.0</ele><time>2026-04-17T12:10:04Z</time></trkpt><trkpt lat="43.923158029344116" lon="10.934386178795798"><ele>54.0</ele><time>2026-04-17T12:10:05Z</time></trkpt><trkpt lat="43.92322489576328" lon="10.934191161546618"><ele>54.0</ele><time>2026-04-17T12:10:06Z</time></trkpt><trkpt lat="43.923282839314744" lon="10.934015033487455"><ele>54.0</ele><time>2026-04-17T12:10:07Z</time></trkpt><trkpt lat="43.92333036314433" lon="10.933870828646123"><ele>54.0</ele><time>2026-04-17T12:10:08Z</time></trkpt><trkpt lat="43.92337162363946" lon="10.933755419573911"><ele>53.800000000000004</ele><time>2026-04-17T12:10:09Z</time></trkpt><trkpt lat="43.923408148996806" lon="10.93366411065066"><ele>53.60000000000001</ele><time>2026-04-17T12:10:10Z</time></trkpt><trkpt lat="43.92344651804249" lon="10.933594279736322"><ele>53.4</ele><time>2026-04-17T12:10:11Z</time></trkpt><trkpt lat="43.92354249767779" lon="10.933494830174128"><ele>53.2</ele><time>2026-04-17T12:10:13Z</time></trkpt><trkpt lat="43.92367063613162" lon="10.933419766651156"><ele>53.0</ele><time>2026-04-17T12:10:15Z</time></trkpt><trkpt lat="43.9237622812981" lon="10.933374487951474"><ele>53.0</ele><time>2026-04-17T12:10:16Z</time></trkpt><trkpt lat="43.923859772870486" lon="10.933314150990933"><ele>53.0</ele><time>2026-04-17T12:10:17Z</time></trkpt><trkpt lat="43.92394963381092" lon="10.93321554295485"><ele>53.0</ele><time>2026-04-17T12:10:18Z</time></trkpt><trkpt lat="43.92402128481235" lon="10.933102733463361"><ele>53.0</ele><time>2026-04-17T12:10:18.999Z</time></trkpt><trkpt lat="43.92407695741487" lon="10.932984162216847"><ele>53.0</ele><time>2026-04-17T12:10:19.999Z</time></trkpt><trkpt lat="43.92411550754633" lon="10.932851846459851"><ele>53.0</ele><time>2026-04-17T12:10:20.999Z</time></trkpt><trkpt lat="43.92413155411983" lon="10.932710068559588"><ele>53.0</ele><time>2026-04-17T12:10:21.999Z</time></trkpt><trkpt lat="43.92413650629387" lon="10.932558678137054"><ele>53.0</ele><time>2026-04-17T12:10:22.999Z</time></trkpt><trkpt lat="43.924118231566396" lon="10.932419606184125"><ele>53.0</ele><time>2026-04-17T12:10:23.999Z</time></trkpt><trkpt lat="43.92407766474715" lon="10.932279212778516"><ele>53.0</ele><time>2026-04-17T12:10:24.999Z</time></trkpt><trkpt lat="43.924018520951805" lon="10.932147052958681"><ele>53.0</ele><time>2026-04-17T12:10:25.999Z</time></trkpt><trkpt lat="43.92394871098867" lon="10.932033493326397"><ele>53.0</ele><time>2026-04-17T12:10:26.999Z</time></trkpt><trkpt lat="43.92387277841657" lon="10.931937557530432"><ele>53.0</ele><time>2026-04-17T12:10:27.999Z</time></trkpt><trkpt lat="43.92379443334662" lon="10.931835619778626"><ele>53.0</ele><time>2026-04-17T12:10:28.999Z</time></trkpt><trkpt lat="43.92372655916189" lon="10.93171533227395"><ele>53.0</ele><time>2026-04-17T12:10:29.999Z</time></trkpt><trkpt lat="43.92368319696539" lon="10.931584645417368"><ele>53.0</ele><time>2026-04-17T12:10:30.999Z</time></trkpt><trkpt lat="43.92366546963515" lon="10.93144025338301"><ele>53.0</ele><time>2026-04-17T12:10:31.999Z</time></trkpt><trkpt lat="43.92366871736134" lon="10.931277157582707"><ele>53.0</ele><time>2026-04-17T12:10:32.999Z</time></trkpt><trkpt lat="43.92367634731225" lon="10.931099414657536"><ele>53.0</ele><time>2026-04-17T12:10:33.999Z</time></trkpt><trkpt lat="43.92368603591297" lon="10.930898768785472"><ele>53.333333333333336</ele><time>2026-04-17T12:10:34.999Z</time></trkpt><trkpt lat="43.923694245881975" lon="10.930680005656882"><ele>53.66666666666667</ele><time>2026-04-17T12:10:35.999Z</time></trkpt><trkpt lat="43.92369932688595" lon="10.930449940106692"><ele>54.0</ele><time>2026-04-17T12:10:37Z</time></trkpt><trkpt lat="43.923704554490584" lon="10.930224452595482"><ele>54.0</ele><time>2026-04-17T12:10:38Z</time></trkpt><trkpt lat="43.923706648025366" lon="10.930019646104036"><ele>54.0</ele><time>2026-04-17T12:10:39Z</time></trkpt><trkpt lat="43.92370881537154" lon="10.929818756931239"><ele>54.0</ele><time>2026-04-17T12:10:40Z</time></trkpt><trkpt lat="43.923712390283626" lon="10.92961265725876"><ele>54.0</ele><time>2026-04-17T12:10:41Z</time></trkpt><trkpt lat="43.92371721755772" lon="10.929396740448412"><ele>53.33333333333333</ele><time>2026-04-17T12:10:42Z</time></trkpt><trkpt lat="43.92372459755048" lon="10.929172749211562"><ele>52.666666666666664</ele><time>2026-04-17T12:10:43Z</time></trkpt><trkpt lat="43.9237349433954" lon="10.928940877657917"><ele>52.0</ele><time>2026-04-17T12:10:44Z</time></trkpt><trkpt lat="43.92373803323527" lon="10.928720007549204"><ele>52.0</ele><time>2026-04-17T12:10:45Z</time></trkpt><trkpt lat="43.92373574467299" lon="10.928516117405824"><ele>52.0</ele><time>2026-04-17T12:10:46Z</time></trkpt><trkpt lat="43.92373075164947" lon="10.928345208283371"><ele>52.0</ele><time>2026-04-17T12:10:47Z</time></trkpt><trkpt lat="43.923726247942334" lon="10.928185202273955"><ele>52.0</ele><time>2026-04-17T12:10:48Z</time></trkpt><trkpt lat="43.92372013533527" lon="10.928021310699554"><ele>52.0</ele><time>2026-04-17T12:10:49Z</time></trkpt><trkpt lat="43.923712982676776" lon="10.927868117098734"><ele>52.0</ele><time>2026-04-17T12:10:50Z</time></trkpt><trkpt lat="43.92370977195689" lon="10.927718245104138"><ele>52.0</ele><time>2026-04-17T12:10:51Z</time></trkpt><trkpt lat="43.923707750164574" lon="10.927596445776208"><ele>52.0</ele><time>2026-04-17T12:10:52Z</time></trkpt><trkpt lat="43.92370907189914" lon="10.927491376818528"><ele>52.0</ele><time>2026-04-17T12:10:53Z</time></trkpt><trkpt lat="43.92371479947468" lon="10.927394261905707"><ele>52.166666666666664</ele><time>2026-04-17T12:10:54Z</time></trkpt><trkpt lat="43.92372754814461" lon="10.927293212319402"><ele>52.33333333333333</ele><time>2026-04-17T12:10:55Z</time></trkpt><trkpt lat="43.9237517412191" lon="10.927185499887552"><ele>52.5</ele><time>2026-04-17T12:10:56Z</time></trkpt><trkpt lat="43.923777506463324" lon="10.927073036183721"><ele>52.66666666666667</ele><time>2026-04-17T12:10:57Z</time></trkpt><trkpt lat="43.923788102366586" lon="10.926958205193396"><ele>52.833333333333336</ele><time>2026-04-17T12:10:58Z</time></trkpt><trkpt lat="43.923777958909206" lon="10.926843585306981"><ele>53.0</ele><time>2026-04-17T12:10:59Z</time></trkpt><trkpt lat="43.9237492390229" lon="10.926733070187678"><ele>53.2</ele><time>2026-04-17T12:11:00Z</time></trkpt><trkpt lat="43.9236971555189" lon="10.926627104733454"><ele>53.4</ele><time>2026-04-17T12:11:01Z</time></trkpt><trkpt lat="43.9236280100536" lon="10.926532265845037"><ele>53.60000000000001</ele><time>2026-04-17T12:11:02Z</time></trkpt><trkpt lat="43.92355138274685" lon="10.92643444963578"><ele>53.800000000000004</ele><time>2026-04-17T12:11:03Z</time></trkpt><trkpt lat="43.92348703606385" lon="10.926315210896794"><ele>54.0</ele><time>2026-04-17T12:11:04Z</time></trkpt><trkpt lat="43.92343729777377" lon="10.926190797562295"><ele>54.0</ele><time>2026-04-17T12:11:05Z</time></trkpt><trkpt lat="43.92340109931121" lon="10.92607606269685"><ele>54.00000000000001</ele><time>2026-04-17T12:11:06Z</time></trkpt><trkpt lat="43.92337471470647" lon="10.925957166644128"><ele>54.00000000000001</ele><time>2026-04-17T12:11:07Z</time></trkpt><trkpt lat="43.923350790565536" lon="10.925839757024399"><ele>54.0</ele><time>2026-04-17T12:11:08Z</time></trkpt><trkpt lat="43.92332238325216" lon="10.925721463216075"><ele>54.0</ele><time>2026-04-17T12:11:09Z</time></trkpt><trkpt lat="43.923289826972265" lon="10.925594268086863"><ele>54.166666666666664</ele><time>2026-04-17T12:11:10Z</time></trkpt><trkpt lat="43.923254111656156" lon="10.925475638020623"><ele>54.33333333333333</ele><time>2026-04-17T12:11:11Z</time></trkpt><trkpt lat="43.92322114704654" lon="10.925357637112954"><ele>54.5</ele><time>2026-04-17T12:11:12Z</time></trkpt><trkpt lat="43.92319129783705" lon="10.925248701518989"><ele>54.666666666666664</ele><time>2026-04-17T12:11:13Z</time></trkpt><trkpt lat="43.92315836349794" lon="10.925142641290147"><ele>54.83333333333333</ele><time>2026-04-17T12:11:14Z</time></trkpt><trkpt lat="43.923131974756416" lon="10.92503363237134"><ele>55.0</ele><time>2026-04-17T12:11:15Z</time></trkpt><trkpt lat="43.923113304422195" lon="10.924919436911274"><ele>55.0</ele><time>2026-04-17T12:11:16Z</time></trkpt><trkpt lat="43.923110594802324" lon="10.924805321507602"><ele>55.0</ele><time>2026-04-17T12:11:17Z</time></trkpt><trkpt lat="43.923133453238044" lon="10.924686654629479"><ele>55.0</ele><time>2026-04-17T12:11:18Z</time></trkpt><trkpt lat="43.92318367006537" lon="10.924581033266648"><ele>55.0</ele><time>2026-04-17T12:11:19Z</time></trkpt><trkpt lat="43.923253621955936" lon="10.924489773210462"><ele>55.0</ele><time>2026-04-17T12:11:20Z</time></trkpt><trkpt lat="43.92332833641849" lon="10.924404856678583"><ele>55.0</ele><time>2026-04-17T12:11:21Z</time></trkpt><trkpt lat="43.92339791413874" lon="10.924313135432673"><ele>55.0</ele><time>2026-04-17T12:11:22Z</time></trkpt><trkpt lat="43.92346287222093" lon="10.92420152073801"><ele>55.0</ele><time>2026-04-17T12:11:23Z</time></trkpt><trkpt lat="43.9235179487324" lon="10.924073868268556"><ele>55.0</ele><time>2026-04-17T12:11:24Z</time></trkpt><trkpt lat="43.92355773637481" lon="10.923923101194152"><ele>55.0</ele><time>2026-04-17T12:11:25Z</time></trkpt><trkpt lat="43.92359489239228" lon="10.923765920528995"><ele>55.0</ele><time>2026-04-17T12:11:26Z</time></trkpt><trkpt lat="43.923641534040094" lon="10.92361199464754"><ele>55.0</ele><time>2026-04-17T12:11:27Z</time></trkpt><trkpt lat="43.92369286079852" lon="10.923453863116938"><ele>55.0</ele><time>2026-04-17T12:11:28Z</time></trkpt><trkpt lat="43.92374743545135" lon="10.923311532728274"><ele>55.0</ele><time>2026-04-17T12:11:29Z</time></trkpt><trkpt lat="43.923806913645855" lon="10.923185507749949"><ele>55.5</ele><time>2026-04-17T12:11:30Z</time></trkpt><trkpt lat="43.92388659201771" lon="10.92306007936444"><ele>56.0</ele><time>2026-04-17T12:11:31Z</time></trkpt><trkpt lat="43.923973529501566" lon="10.922938722976165"><ele>56.5</ele><time>2026-04-17T12:11:32Z</time></trkpt><trkpt lat="43.92406111666875" lon="10.922819337504693"><ele>57.0</ele><time>2026-04-17T12:11:33Z</time></trkpt><trkpt lat="43.92414169451469" lon="10.922700780557811"><ele>57.0</ele><time>2026-04-17T12:11:34Z</time></trkpt><trkpt lat="43.924225088225676" lon="10.922578028350985"><ele>57.0</ele><time>2026-04-17T12:11:35Z</time></trkpt><trkpt lat="43.92431211399603" lon="10.922455727631204"><ele>57.0</ele><time>2026-04-17T12:11:36Z</time></trkpt><trkpt lat="43.92440077697868" lon="10.922329064569356"><ele>57.0</ele><time>2026-04-17T12:11:37Z</time></trkpt><trkpt lat="43.92449615473418" lon="10.922190081375573"><ele>57.5</ele><time>2026-04-17T12:11:38Z</time></trkpt><trkpt lat="43.92459163602804" lon="10.922056323240326"><ele>58.0</ele><time>2026-04-17T12:11:39Z</time></trkpt><trkpt lat="43.92468695371179" lon="10.921926608776639"><ele>58.5</ele><time>2026-04-17T12:11:40Z</time></trkpt><trkpt lat="43.92478243227737" lon="10.921799588421628"><ele>59.0</ele><time>2026-04-17T12:11:41Z</time></trkpt><trkpt lat="43.92487096559369" lon="10.92166886078824"><ele>59.25</ele><time>2026-04-17T12:11:42Z</time></trkpt><trkpt lat="43.92496092847299" lon="10.921541877672528"><ele>59.5</ele><time>2026-04-17T12:11:43Z</time></trkpt><trkpt lat="43.92504843701828" lon="10.921417019092942"><ele>59.75</ele><time>2026-04-17T12:11:44Z</time></trkpt><trkpt lat="43.92513464431152" lon="10.921291926178752"><ele>60.0</ele><time>2026-04-17T12:11:45Z</time></trkpt><trkpt lat="43.9252194750979" lon="10.921171276032846"><ele>60.0</ele><time>2026-04-17T12:11:46Z</time></trkpt><trkpt lat="43.92530453277354" lon="10.921052397713465"><ele>60.0</ele><time>2026-04-17T12:11:47Z</time></trkpt><trkpt lat="43.92538817261226" lon="10.92093607881462"><ele>60.0</ele><time>2026-04-17T12:11:48Z</time></trkpt><trkpt lat="43.92547206898795" lon="10.920821888565396"><ele>60.0</ele><time>2026-04-17T12:11:49Z</time></trkpt><trkpt lat="43.92555359809542" lon="10.920709278874776"><ele>60.4</ele><time>2026-04-17T12:11:50Z</time></trkpt><trkpt lat="43.92563450360872" lon="10.920598263623072"><ele>60.8</ele><time>2026-04-17T12:11:51Z</time></trkpt><trkpt lat="43.925713978919966" lon="10.920486003865317"><ele>61.2</ele><time>2026-04-17T12:11:52Z</time></trkpt><trkpt lat="43.925790650999154" lon="10.920378761312826"><ele>61.6</ele><time>2026-04-17T12:11:53Z</time></trkpt><trkpt lat="43.925861327435015" lon="10.920279668869323"><ele>62.0</ele><time>2026-04-17T12:11:54Z</time></trkpt><trkpt lat="43.92594028106559" lon="10.920174973924603"><ele>62.0</ele><time>2026-04-17T12:11:55Z</time></trkpt><trkpt lat="43.926035162533935" lon="10.92006378826154"><ele>62.0</ele><time>2026-04-17T12:11:56Z</time></trkpt><trkpt lat="43.92612731431192" lon="10.919973309468777"><ele>62.0</ele><time>2026-04-17T12:11:57Z</time></trkpt><trkpt lat="43.926217780589795" lon="10.919900569458761"><ele>62.0</ele><time>2026-04-17T12:11:58Z</time></trkpt><trkpt lat="43.9262981435667" lon="10.91984370307891"><ele>62.0</ele><time>2026-04-17T12:11:59Z</time></trkpt><trkpt lat="43.92635829843413" lon="10.919800416890453"><ele>62.0</ele><time>2026-04-17T12:12:00Z</time></trkpt><trkpt lat="43.92644011486536" lon="10.919739513729425"><ele>62.0</ele><time>2026-04-17T12:12:02Z</time></trkpt><trkpt lat="43.92649789135967" lon="10.919699120312867"><ele>62.0</ele><time>2026-04-17T12:12:04Z</time></trkpt><trkpt lat="43.926556174978565" lon="10.919662438702746"><ele>62.0</ele><time>2026-04-17T12:12:06Z</time></trkpt><trkpt lat="43.926658210622335" lon="10.91960187073166"><ele>62.0</ele><time>2026-04-17T12:12:08Z</time></trkpt><trkpt lat="43.92676350181786" lon="10.919529665138256"><ele>62.400000000000006</ele><time>2026-04-17T12:12:10Z</time></trkpt><trkpt lat="43.92687541552228" lon="10.919462042980026"><ele>62.800000000000004</ele><time>2026-04-17T12:12:12Z</time></trkpt><trkpt lat="43.92693481834822" lon="10.919419939922255"><ele>63.2</ele><time>2026-04-17T12:12:13Z</time></trkpt><trkpt lat="43.92703449209715" lon="10.919343273117773"><ele>63.6</ele><time>2026-04-17T12:12:15Z</time></trkpt><trkpt lat="43.92712762839985" lon="10.919282999744134"><ele>64.0</ele><time>2026-04-17T12:12:17Z</time></trkpt><trkpt lat="43.927218612470156" lon="10.919220142432998"><ele>64.4</ele><time>2026-04-17T12:12:19Z</time></trkpt><trkpt lat="43.92730142307679" lon="10.919158500579268"><ele>64.80000000000001</ele><time>2026-04-17T12:12:21Z</time></trkpt><trkpt lat="43.9273912470079" lon="10.919091428101556"><ele>65.19999999999999</ele><time>2026-04-17T12:12:23Z</time></trkpt><trkpt lat="43.927486351381866" lon="10.919016826047155"><ele>65.6</ele><time>2026-04-17T12:12:25Z</time></trkpt><trkpt lat="43.92759063253909" lon="10.918934795954373"><ele>66.0</ele><time>2026-04-17T12:12:27Z</time></trkpt><trkpt lat="43.927648119686275" lon="10.918894271702081"><ele>66.0</ele><time>2026-04-17T12:12:28Z</time></trkpt><trkpt lat="43.92770860637962" lon="10.918853424948676"><ele>66.0</ele><time>2026-04-17T12:12:29Z</time></trkpt><trkpt lat="43.92779825053185" lon="10.918798725410783"><ele>66.0</ele><time>2026-04-17T12:12:31Z</time></trkpt><trkpt lat="43.92787792544251" lon="10.918745584852575"><ele>66.0</ele><time>2026-04-17T12:12:33Z</time></trkpt><trkpt lat="43.92795298049818" lon="10.918689220687478"><ele>66.0</ele><time>2026-04-17T12:12:35Z</time></trkpt><trkpt lat="43.928022119076104" lon="10.918656324590003"><ele>66.0</ele><time>2026-04-17T12:12:37Z</time></trkpt><trkpt lat="43.92808340667686" lon="10.918692123511974"><ele>66.0</ele><time>2026-04-17T12:12:39Z</time></trkpt><trkpt lat="43.928139170408535" lon="10.918753606675804"><ele>66.0</ele><time>2026-04-17T12:12:41Z</time></trkpt><trkpt lat="43.92820748105424" lon="10.918832283023706"><ele>66.0</ele><time>2026-04-17T12:12:44Z</time></trkpt><trkpt lat="43.92827036616746" lon="10.918838994143586"><ele>66.0</ele><time>2026-04-17T12:12:47Z</time></trkpt><trkpt lat="43.92831952339744" lon="10.918778012494528"><ele>66.0</ele><time>2026-04-17T12:12:50Z</time></trkpt><trkpt lat="43.928404939311115" lon="10.918714910067184"><ele>66.0</ele><time>2026-04-17T12:12:52Z</time></trkpt><trkpt lat="43.928493716369864" lon="10.918626645983805"><ele>66.0</ele><time>2026-04-17T12:12:54Z</time></trkpt><trkpt lat="43.92857113653429" lon="10.918544364015355"><ele>66.0</ele><time>2026-04-17T12:12:56Z</time></trkpt><trkpt lat="43.9285874518426" lon="10.918434136262144"><ele>66.0</ele><time>2026-04-17T12:12:59Z</time></trkpt><trkpt lat="43.92850901122273" lon="10.918387476841966"><ele>66.0</ele><time>2026-04-17T12:13:02Z</time></trkpt><trkpt lat="43.92840079690958" lon="10.918400684576131"><ele>66.0</ele><time>2026-04-17T12:13:04Z</time></trkpt><trkpt lat="43.9283199686883" lon="10.918431458385788"><ele>66.0</ele><time>2026-04-17T12:13:05Z</time></trkpt><trkpt lat="43.928254707899185" lon="10.9184637566616"><ele>66.0</ele><time>2026-04-17T12:13:06Z</time></trkpt><trkpt lat="43.92819213489946" lon="10.918491443855489"><ele>66.0</ele><time>2026-04-17T12:13:07Z</time></trkpt><trkpt lat="43.928083547230976" lon="10.91851352115027"><ele>66.0</ele><time>2026-04-17T12:13:09Z</time></trkpt><trkpt lat="43.928008853912175" lon="10.91847309313054"><ele>66.0</ele><time>2026-04-17T12:13:11Z</time></trkpt><trkpt lat="43.92797256868803" lon="10.918377894849932"><ele>66.0</ele><time>2026-04-17T12:13:13Z</time></trkpt><trkpt lat="43.92794043141188" lon="10.918301750415292"><ele>66.2</ele><time>2026-04-17T12:13:16Z</time></trkpt><trkpt lat="43.92792177926039" lon="10.9181750395234"><ele>66.39999999999999</ele><time>2026-04-17T12:13:18Z</time></trkpt><trkpt lat="43.92790278455934" lon="10.918003265293825"><ele>66.6</ele><time>2026-04-17T12:13:20Z</time></trkpt><trkpt lat="43.927876728261275" lon="10.917852753808535"><ele>66.8</ele><time>2026-04-17T12:13:22Z</time></trkpt><trkpt lat="43.927883104010945" lon="10.917688406755339"><ele>67.0</ele><time>2026-04-17T12:13:24Z</time></trkpt><trkpt lat="43.92787673947702" lon="10.917526896053838"><ele>67.25</ele><time>2026-04-17T12:13:26Z</time></trkpt><trkpt lat="43.92790919512662" lon="10.917398287799308"><ele>67.5</ele><time>2026-04-17T12:13:28Z</time></trkpt><trkpt lat="43.92793542685546" lon="10.9172937702282"><ele>67.75</ele><time>2026-04-17T12:13:30Z</time></trkpt><trkpt lat="43.927894343670026" lon="10.917188355577483"><ele>68.0</ele><time>2026-04-17T12:13:32Z</time></trkpt><trkpt lat="43.92766789252184" lon="10.917106723866434"><ele>67.8</ele><time>2026-04-17T12:13:34Z</time></trkpt><trkpt lat="43.927556384649904" lon="10.916992112715125"><ele>67.6</ele><time>2026-04-17T12:13:36Z</time></trkpt><trkpt lat="43.92748936708385" lon="10.91693159779884"><ele>67.4</ele><time>2026-04-17T12:13:37Z</time></trkpt><trkpt lat="43.927442939198556" lon="10.916839514142046"><ele>67.2</ele><time>2026-04-17T12:13:38Z</time></trkpt><trkpt lat="43.92741576488509" lon="10.91673744969151"><ele>67.0</ele><time>2026-04-17T12:13:39Z</time></trkpt><trkpt lat="43.92740480460143" lon="10.91660059016645"><ele>67.0</ele><time>2026-04-17T12:13:40Z</time></trkpt><trkpt lat="43.927400826655735" lon="10.916453655216374"><ele>67.0</ele><time>2026-04-17T12:13:41Z</time></trkpt><trkpt lat="43.927403996935766" lon="10.916297297953273"><ele>67.0</ele><time>2026-04-17T12:13:42Z</time></trkpt><trkpt lat="43.92739772492509" lon="10.916131034071025"><ele>67.0</ele><time>2026-04-17T12:13:43Z</time></trkpt><trkpt lat="43.92737557561051" lon="10.91597302207744"><ele>67.0</ele><time>2026-04-17T12:13:44Z</time></trkpt><trkpt lat="43.92737001835492" lon="10.915817182808091"><ele>67.0</ele><time>2026-04-17T12:13:45Z</time></trkpt><trkpt lat="43.92736731132365" lon="10.91566657534493"><ele>67.0</ele><time>2026-04-17T12:13:46Z</time></trkpt><trkpt lat="43.92735971023303" lon="10.915523391260649"><ele>67.0</ele><time>2026-04-17T12:13:47Z</time></trkpt><trkpt lat="43.92735592741905" lon="10.915392471388676"><ele>67.0</ele><time>2026-04-17T12:13:48Z</time></trkpt><trkpt lat="43.927356272046126" lon="10.91526011434227"><ele>67.0</ele><time>2026-04-17T12:13:49Z</time></trkpt><trkpt lat="43.92733030494941" lon="10.915135125624143"><ele>67.0</ele><time>2026-04-17T12:13:50Z</time></trkpt><trkpt lat="43.927317419524485" lon="10.915026554971538"><ele>67.0</ele><time>2026-04-17T12:13:51Z</time></trkpt><trkpt lat="43.92731568730682" lon="10.914921015067643"><ele>67.0</ele><time>2026-04-17T12:13:52Z</time></trkpt><trkpt lat="43.92729575484418" lon="10.914823523354803"><ele>67.0</ele><time>2026-04-17T12:13:53Z</time></trkpt><trkpt lat="43.92727073980575" lon="10.914723283078446"><ele>67.0</ele><time>2026-04-17T12:13:55Z</time></trkpt><trkpt lat="43.927332609863285" lon="10.91464393347236"><ele>66.83333333333333</ele><time>2026-04-17T12:13:59.001Z</time></trkpt><trkpt lat="43.92735258951751" lon="10.914540598803638"><ele>66.66666666666666</ele><time>2026-04-17T12:14:02.001Z</time></trkpt><trkpt lat="43.927348699924615" lon="10.914417815973582"><ele>66.5</ele><time>2026-04-17T12:14:04.001Z</time></trkpt><trkpt lat="43.92731068736796" lon="10.914336474938215"><ele>66.33333333333333</ele><time>2026-04-17T12:14:05.001Z</time></trkpt><trkpt lat="43.92726457199183" lon="10.914258725696653"><ele>66.16666666666667</ele><time>2026-04-17T12:14:06.001Z</time></trkpt><trkpt lat="43.92723340695363" lon="10.91417581758809"><ele>66.0</ele><time>2026-04-17T12:14:07.001Z</time></trkpt><trkpt lat="43.92721136216807" lon="10.914073431825788"><ele>65.6</ele><time>2026-04-17T12:14:08.001Z</time></trkpt><trkpt lat="43.92719417575586" lon="10.91396201359292"><ele>65.19999999999999</ele><time>2026-04-17T12:14:09.001Z</time></trkpt><trkpt lat="43.9271978119174" lon="10.91380641721356"><ele>64.80000000000001</ele><time>2026-04-17T12:14:10.001Z</time></trkpt><trkpt lat="43.92719642456162" lon="10.913668636927083"><ele>64.4</ele><time>2026-04-17T12:14:11.001Z</time></trkpt><trkpt lat="43.92720167233241" lon="10.913528350376485"><ele>64.0</ele><time>2026-04-17T12:14:12.001Z</time></trkpt><trkpt lat="43.92721219041094" lon="10.913388353976282"><ele>64.0</ele><time>2026-04-17T12:14:13.001Z</time></trkpt><trkpt lat="43.92722841674792" lon="10.913252840323532"><ele>64.0</ele><time>2026-04-17T12:14:14.001Z</time></trkpt><trkpt lat="43.92724444244815" lon="10.913123658742037"><ele>64.0</ele><time>2026-04-17T12:14:15.001Z</time></trkpt><trkpt lat="43.92726207712601" lon="10.91299102852812"><ele>64.0</ele><time>2026-04-17T12:14:16.001Z</time></trkpt><trkpt lat="43.92728122821045" lon="10.91285372182102"><ele>64.0</ele><time>2026-04-17T12:14:17.001Z</time></trkpt><trkpt lat="43.92729743826928" lon="10.912708799349799"><ele>64.0</ele><time>2026-04-17T12:14:18.001Z</time></trkpt><trkpt lat="43.92731841164016" lon="10.912553888201266"><ele>64.0</ele><time>2026-04-17T12:14:19.001Z</time></trkpt><trkpt lat="43.92734004819081" lon="10.912354316431928"><ele>64.0</ele><time>2026-04-17T12:14:20.001Z</time></trkpt><trkpt lat="43.92736216266069" lon="10.912157316985708"><ele>64.0</ele><time>2026-04-17T12:14:21.001Z</time></trkpt><trkpt lat="43.92738270571181" lon="10.9119805857126"><ele>64.0</ele><time>2026-04-17T12:14:22.001Z</time></trkpt><trkpt lat="43.92740593979381" lon="10.911801401667889"><ele>64.0</ele><time>2026-04-17T12:14:23.001Z</time></trkpt><trkpt lat="43.927430612637686" lon="10.911609633425641"><ele>64.0</ele><time>2026-04-17T12:14:24.001Z</time></trkpt><trkpt lat="43.92745505159037" lon="10.911412003010318"><ele>64.0</ele><time>2026-04-17T12:14:25.001Z</time></trkpt><trkpt lat="43.927474294241414" lon="10.91120551014581"><ele>64.5</ele><time>2026-04-17T12:14:26.001Z</time></trkpt><trkpt lat="43.92748248451046" lon="10.911007419835121"><ele>65.0</ele><time>2026-04-17T12:14:27.001Z</time></trkpt><trkpt lat="43.92748222580205" lon="10.910800146375529"><ele>65.5</ele><time>2026-04-17T12:14:28.001Z</time></trkpt><trkpt lat="43.92747646977566" lon="10.910592291583779"><ele>66.0</ele><time>2026-04-17T12:14:29.001Z</time></trkpt><trkpt lat="43.927455622328026" lon="10.910382288510752"><ele>66.0</ele><time>2026-04-17T12:14:30Z</time></trkpt><trkpt lat="43.92743422315575" lon="10.910172127930515"><ele>66.0</ele><time>2026-04-17T12:14:31Z</time></trkpt><trkpt lat="43.927411807510865" lon="10.90998097679735"><ele>66.0</ele><time>2026-04-17T12:14:32Z</time></trkpt><trkpt lat="43.92738902018204" lon="10.909798224856345"><ele>66.0</ele><time>2026-04-17T12:14:33Z</time></trkpt><trkpt lat="43.92737141898061" lon="10.909620697340392"><ele>66.25</ele><time>2026-04-17T12:14:34Z</time></trkpt><trkpt lat="43.92734951584475" lon="10.909443332673952"><ele>66.5</ele><time>2026-04-17T12:14:35Z</time></trkpt><trkpt lat="43.92732498499302" lon="10.909264208110358"><ele>66.75</ele><time>2026-04-17T12:14:36Z</time></trkpt><trkpt lat="43.92730450086512" lon="10.909101964929283"><ele>67.0</ele><time>2026-04-17T12:14:37Z</time></trkpt><trkpt lat="43.92728642973657" lon="10.908963921265537"><ele>67.2</ele><time>2026-04-17T12:14:38Z</time></trkpt><trkpt lat="43.927275639283096" lon="10.908827523578593"><ele>67.4</ele><time>2026-04-17T12:14:39Z</time></trkpt><trkpt lat="43.92726888101039" lon="10.90869575642973"><ele>67.6</ele><time>2026-04-17T12:14:40Z</time></trkpt><trkpt lat="43.92726893856572" lon="10.90856471646911"><ele>67.8</ele><time>2026-04-17T12:14:41Z</time></trkpt><trkpt lat="43.92727254014778" lon="10.908432706767396"><ele>68.0</ele><time>2026-04-17T12:14:42Z</time></trkpt><trkpt lat="43.927283920617995" lon="10.908289234061497"><ele>68.0</ele><time>2026-04-17T12:14:43Z</time></trkpt><trkpt lat="43.92729654584124" lon="10.908128399931448"><ele>68.0</ele><time>2026-04-17T12:14:44Z</time></trkpt><trkpt lat="43.9273054388972" lon="10.907974377878551"><ele>68.0</ele><time>2026-04-17T12:14:45Z</time></trkpt><trkpt lat="43.92731380142395" lon="10.907827322281326"><ele>68.0</ele><time>2026-04-17T12:14:46Z</time></trkpt><trkpt lat="43.927324291575324" lon="10.907679884584798"><ele>68.0</ele><time>2026-04-17T12:14:47Z</time></trkpt><trkpt lat="43.92733660586746" lon="10.907549584219865"><ele>67.5</ele><time>2026-04-17T12:14:48Z</time></trkpt><trkpt lat="43.92735514953984" lon="10.90742356524911"><ele>67.0</ele><time>2026-04-17T12:14:49Z</time></trkpt><trkpt lat="43.92737592295828" lon="10.90731050720025"><ele>66.5</ele><time>2026-04-17T12:14:50Z</time></trkpt><trkpt lat="43.9273992811161" lon="10.907197407991127"><ele>66.0</ele><time>2026-04-17T12:14:51Z</time></trkpt><trkpt lat="43.927423601364225" lon="10.907089829821292"><ele>65.5</ele><time>2026-04-17T12:14:52Z</time></trkpt><trkpt lat="43.92745272384193" lon="10.906985424737703"><ele>65.0</ele><time>2026-04-17T12:14:53Z</time></trkpt><trkpt lat="43.92749328868305" lon="10.906885380503768"><ele>65.0</ele><time>2026-04-17T12:14:54Z</time></trkpt><trkpt lat="43.92754670510777" lon="10.906792513811068"><ele>65.0</ele><time>2026-04-17T12:14:55Z</time></trkpt><trkpt lat="43.92760381116759" lon="10.9067169669851"><ele>65.0</ele><time>2026-04-17T12:14:56Z</time></trkpt><trkpt lat="43.92766564076614" lon="10.906649450788919"><ele>65.0</ele><time>2026-04-17T12:14:57Z</time></trkpt><trkpt lat="43.92772881563152" lon="10.906591407112122"><ele>65.0</ele><time>2026-04-17T12:14:58Z</time></trkpt><trkpt lat="43.927796122317794" lon="10.906549013704383"><ele>65.0</ele><time>2026-04-17T12:14:59Z</time></trkpt><trkpt lat="43.92786570909258" lon="10.906522782980247"><ele>65.16666666666667</ele><time>2026-04-17T12:15:00Z</time></trkpt><trkpt lat="43.92793891220125" lon="10.906506351016898"><ele>65.33333333333334</ele><time>2026-04-17T12:15:01Z</time></trkpt><trkpt lat="43.928021429661385" lon="10.906495196664938"><ele>65.5</ele><time>2026-04-17T12:15:02Z</time></trkpt><trkpt lat="43.92811406178657" lon="10.906495361914955"><ele>65.66666666666667</ele><time>2026-04-17T12:15:03Z</time></trkpt><trkpt lat="43.92821153159555" lon="10.90650727629408"><ele>65.83333333333333</ele><time>2026-04-17T12:15:04Z</time></trkpt><trkpt lat="43.92830933173403" lon="10.906528745946211"><ele>66.0</ele><time>2026-04-17T12:15:05Z</time></trkpt><trkpt lat="43.92840750158655" lon="10.906554152019694"><ele>66.66666666666667</ele><time>2026-04-17T12:15:06Z</time></trkpt><trkpt lat="43.928479368824156" lon="10.90658135816723"><ele>67.33333333333333</ele><time>2026-04-17T12:15:07Z</time></trkpt><trkpt lat="43.92855419852493" lon="10.90658242569632"><ele>68.0</ele><time>2026-04-17T12:15:08Z</time></trkpt><trkpt lat="43.928634970921564" lon="10.906600948370842"><ele>68.66666666666666</ele><time>2026-04-17T12:15:09Z</time></trkpt><trkpt lat="43.92872540874707" lon="10.906620089224806"><ele>69.33333333333333</ele><time>2026-04-17T12:15:10Z</time></trkpt><trkpt lat="43.92881290201374" lon="10.90662931490544"><ele>70.0</ele><time>2026-04-17T12:15:11Z</time></trkpt><trkpt lat="43.92891732984801" lon="10.906644052648236"><ele>70.0</ele><time>2026-04-17T12:15:12Z</time></trkpt><trkpt lat="43.929017674650474" lon="10.90667674009954"><ele>70.0</ele><time>2026-04-17T12:15:13Z</time></trkpt><trkpt lat="43.929117394598514" lon="10.906694398256818"><ele>70.0</ele><time>2026-04-17T12:15:14Z</time></trkpt><trkpt lat="43.929207943810596" lon="10.906714210630522"><ele>70.0</ele><time>2026-04-17T12:15:15Z</time></trkpt><trkpt lat="43.92928859561478" lon="10.906733319586992"><ele>70.0</ele><time>2026-04-17T12:15:16Z</time></trkpt><trkpt lat="43.92936022942625" lon="10.906742993465302"><ele>70.0</ele><time>2026-04-17T12:15:17Z</time></trkpt><trkpt lat="43.929467738245364" lon="10.906726476809824"><ele>70.33333333333333</ele><time>2026-04-17T12:15:19Z</time></trkpt><trkpt lat="43.929537650274455" lon="10.906721000278045"><ele>70.66666666666666</ele><time>2026-04-17T12:15:29Z</time></trkpt><trkpt lat="43.929617684165585" lon="10.906701917509686"><ele>71.0</ele><time>2026-04-17T12:15:32Z</time></trkpt><trkpt lat="43.92970881560461" lon="10.906699361957712"><ele>71.33333333333333</ele><time>2026-04-17T12:15:35Z</time></trkpt><trkpt lat="43.92977770269866" lon="10.906732547733245"><ele>71.66666666666667</ele><time>2026-04-17T12:15:41Z</time></trkpt><trkpt lat="43.929838996549776" lon="10.906777759738038"><ele>72.0</ele><time>2026-04-17T12:15:43Z</time></trkpt><trkpt lat="43.92994658394768" lon="10.90681909606459"><ele>72.0</ele><time>2026-04-17T12:15:45.001Z</time></trkpt><trkpt lat="43.93004230164667" lon="10.906778272664912"><ele>72.0</ele><time>2026-04-17T12:15:47.001Z</time></trkpt><trkpt lat="43.93006704134264" lon="10.906615525518973"><ele>72.0</ele><time>2026-04-17T12:15:49.001Z</time></trkpt><trkpt lat="43.93004730920506" lon="10.906514305559009"><ele>72.0</ele><time>2026-04-17T12:15:50.001Z</time></trkpt><trkpt lat="43.93001638289335" lon="10.90641979745535"><ele>72.0</ele><time>2026-04-17T12:15:51.001Z</time></trkpt><trkpt lat="43.929986261775866" lon="10.906318468054192"><ele>72.0</ele><time>2026-04-17T12:15:52.001Z</time></trkpt><trkpt lat="43.929952770846086" lon="10.906189596509057"><ele>72.0</ele><time>2026-04-17T12:15:53.001Z</time></trkpt><trkpt lat="43.929924902627526" lon="10.9060364407709"><ele>72.0</ele><time>2026-04-17T12:15:54.001Z</time></trkpt><trkpt lat="43.92989618514906" lon="10.905869826599783"><ele>72.0</ele><time>2026-04-17T12:15:55.001Z</time></trkpt><trkpt lat="43.92986372091263" lon="10.905698741846246"><ele>72.0</ele><time>2026-04-17T12:15:56.001Z</time></trkpt><trkpt lat="43.929831135329955" lon="10.905522756154214"><ele>72.0</ele><time>2026-04-17T12:15:57.001Z</time></trkpt><trkpt lat="43.929797578402855" lon="10.905344441108038"><ele>72.0</ele><time>2026-04-17T12:15:58.001Z</time></trkpt><trkpt lat="43.92976693742882" lon="10.905175307987644"><ele>72.0</ele><time>2026-04-17T12:15:59.001Z</time></trkpt><trkpt lat="43.92973755569592" lon="10.905027815374012"><ele>72.0</ele><time>2026-04-17T12:16:00.001Z</time></trkpt><trkpt lat="43.92970822417844" lon="10.904900687930795"><ele>72.4</ele><time>2026-04-17T12:16:01.001Z</time></trkpt><trkpt lat="43.92968565632662" lon="10.90477602601909"><ele>72.80000000000001</ele><time>2026-04-17T12:16:02.001Z</time></trkpt><trkpt lat="43.929665154587695" lon="10.904655068055122"><ele>73.2</ele><time>2026-04-17T12:16:03.001Z</time></trkpt><trkpt lat="43.92964447780237" lon="10.904540408010373"><ele>73.60000000000001</ele><time>2026-04-17T12:16:04.001Z</time></trkpt><trkpt lat="43.929620339159314" lon="10.90442225753605"><ele>74.0</ele><time>2026-04-17T12:16:05.001Z</time></trkpt><trkpt lat="43.92959326356828" lon="10.904293442742578"><ele>74.4</ele><time>2026-04-17T12:16:06.001Z</time></trkpt><trkpt lat="43.929568257516216" lon="10.904158717378516"><ele>74.80000000000001</ele><time>2026-04-17T12:16:07.001Z</time></trkpt><trkpt lat="43.92954025424516" lon="10.904021356044947"><ele>75.19999999999999</ele><time>2026-04-17T12:16:08.001Z</time></trkpt><trkpt lat="43.929513425685144" lon="10.903884236159143"><ele>75.6</ele><time>2026-04-17T12:16:09.001Z</time></trkpt><trkpt lat="43.9294923670319" lon="10.90375415392404"><ele>76.0</ele><time>2026-04-17T12:16:10.001Z</time></trkpt><trkpt lat="43.92946594768623" lon="10.903628354336746"><ele>76.0</ele><time>2026-04-17T12:16:11.001Z</time></trkpt><trkpt lat="43.92944240962494" lon="10.903502670910443"><ele>76.0</ele><time>2026-04-17T12:16:12.001Z</time></trkpt><trkpt lat="43.92941481813069" lon="10.90337972573345"><ele>76.0</ele><time>2026-04-17T12:16:13.001Z</time></trkpt><trkpt lat="43.92939025912747" lon="10.903255990278279"><ele>76.0</ele><time>2026-04-17T12:16:14.001Z</time></trkpt><trkpt lat="43.92936836836373" lon="10.90313398313836"><ele>76.0</ele><time>2026-04-17T12:16:15.001Z</time></trkpt><trkpt lat="43.929350776695735" lon="10.903008511209412"><ele>76.0</ele><time>2026-04-17T12:16:16.001Z</time></trkpt><trkpt lat="43.92932301157658" lon="10.902868509475596"><ele>76.0</ele><time>2026-04-17T12:16:17.001Z</time></trkpt><trkpt lat="43.92929733558732" lon="10.902719909206139"><ele>76.0</ele><time>2026-04-17T12:16:18.001Z</time></trkpt><trkpt lat="43.92926771081754" lon="10.902575894353648"><ele>76.0</ele><time>2026-04-17T12:16:19.001Z</time></trkpt><trkpt lat="43.929244376771194" lon="10.902447489090534"><ele>76.0</ele><time>2026-04-17T12:16:20.001Z</time></trkpt><trkpt lat="43.92921999163022" lon="10.902319534257321"><ele>75.8</ele><time>2026-04-17T12:16:21.001Z</time></trkpt><trkpt lat="43.929190938448606" lon="10.902189798330575"><ele>75.6</ele><time>2026-04-17T12:16:22.001Z</time></trkpt><trkpt lat="43.92916843572683" lon="10.90206137383261"><ele>75.4</ele><time>2026-04-17T12:16:23.001Z</time></trkpt><trkpt lat="43.9291470221275" lon="10.901927364874835"><ele>75.2</ele><time>2026-04-17T12:16:24.001Z</time></trkpt><trkpt lat="43.92912394937239" lon="10.901792491359025"><ele>75.0</ele><time>2026-04-17T12:16:25.001Z</time></trkpt><trkpt lat="43.92910346356386" lon="10.901652121675946"><ele>74.6</ele><time>2026-04-17T12:16:26.001Z</time></trkpt><trkpt lat="43.929078297281166" lon="10.901506442462866"><ele>74.2</ele><time>2026-04-17T12:16:27.001Z</time></trkpt><trkpt lat="43.92905179136733" lon="10.901362613531822"><ele>73.8</ele><time>2026-04-17T12:16:28.001Z</time></trkpt><trkpt lat="43.929026163049556" lon="10.901229671521813"><ele>73.4</ele><time>2026-04-17T12:16:29.001Z</time></trkpt><trkpt lat="43.92900589718246" lon="10.901113525535168"><ele>73.0</ele><time>2026-04-17T12:16:30.001Z</time></trkpt><trkpt lat="43.92901307780744" lon="10.901013548661028"><ele>72.83333333333333</ele><time>2026-04-17T12:16:31.001Z</time></trkpt><trkpt lat="43.92901701596558" lon="10.900913934345242"><ele>72.66666666666666</ele><time>2026-04-17T12:16:32.001Z</time></trkpt><trkpt lat="43.92902622892564" lon="10.900798332362761"><ele>72.5</ele><time>2026-04-17T12:16:33.001Z</time></trkpt><trkpt lat="43.929043227135544" lon="10.900698878469596"><ele>72.33333333333333</ele><time>2026-04-17T12:16:34.001Z</time></trkpt><trkpt lat="43.92904652371237" lon="10.900603456475988"><ele>72.16666666666667</ele><time>2026-04-17T12:16:35.001Z</time></trkpt><trkpt lat="43.92899047931106" lon="10.900453545982824"><ele>72.0</ele><time>2026-04-17T12:16:37Z</time></trkpt><trkpt lat="43.92893784850698" lon="10.900402612537073"><ele>72.0</ele><time>2026-04-17T12:16:38Z</time></trkpt><trkpt lat="43.92887011129867" lon="10.900373554239033"><ele>72.0</ele><time>2026-04-17T12:16:39Z</time></trkpt><trkpt lat="43.928785196174054" lon="10.900352858730848"><ele>72.0</ele><time>2026-04-17T12:16:40Z</time></trkpt><trkpt lat="43.92869857578024" lon="10.900332729768119"><ele>72.0</ele><time>2026-04-17T12:16:41Z</time></trkpt><trkpt lat="43.92860209392525" lon="10.900308125746104"><ele>72.0</ele><time>2026-04-17T12:16:42Z</time></trkpt><trkpt lat="43.92849835801009" lon="10.900278785902085"><ele>72.0</ele><time>2026-04-17T12:16:43Z</time></trkpt><trkpt lat="43.92839822715776" lon="10.900246359146387"><ele>72.2</ele><time>2026-04-17T12:16:44Z</time></trkpt><trkpt lat="43.92830221450134" lon="10.900209338914703"><ele>72.4</ele><time>2026-04-17T12:16:45Z</time></trkpt><trkpt lat="43.928206115188" lon="10.900167276814907"><ele>72.6</ele><time>2026-04-17T12:16:46Z</time></trkpt><trkpt lat="43.92811230995419" lon="10.900123726939272"><ele>72.8</ele><time>2026-04-17T12:16:47Z</time></trkpt><trkpt lat="43.928017204774065" lon="10.900078786056051"><ele>73.0</ele><time>2026-04-17T12:16:48Z</time></trkpt><trkpt lat="43.92791742127926" lon="10.90003632321461"><ele>72.66666666666666</ele><time>2026-04-17T12:16:49Z</time></trkpt><trkpt lat="43.92782545052493" lon="10.899999212792745"><ele>72.33333333333333</ele><time>2026-04-17T12:16:50Z</time></trkpt><trkpt lat="43.927739223196824" lon="10.899960373285726"><ele>72.0</ele><time>2026-04-17T12:16:51Z</time></trkpt><trkpt lat="43.927664769938986" lon="10.899923387949663"><ele>71.66666666666667</ele><time>2026-04-17T12:16:52Z</time></trkpt><trkpt lat="43.92760249381363" lon="10.899893591473262"><ele>71.33333333333334</ele><time>2026-04-17T12:16:53Z</time></trkpt><trkpt lat="43.92751141464793" lon="10.899852518406176"><ele>71.0</ele><time>2026-04-17T12:16:55Z</time></trkpt><trkpt lat="43.92744422482695" lon="10.899820650145859"><ele>70.2</ele><time>2026-04-17T12:16:57Z</time></trkpt><trkpt lat="43.92736635553443" lon="10.899790105922879"><ele>69.39999999999999</ele><time>2026-04-17T12:17:12Z</time></trkpt><trkpt lat="43.92726759355833" lon="10.899736180110825"><ele>68.6</ele><time>2026-04-17T12:17:13Z</time></trkpt><trkpt lat="43.92716176388881" lon="10.899712752232148"><ele>67.8</ele><time>2026-04-17T12:17:14Z</time></trkpt><trkpt lat="43.927067917991366" lon="10.89970912911662"><ele>67.0</ele><time>2026-04-17T12:17:15Z</time></trkpt><trkpt lat="43.92696654296112" lon="10.899703882989426"><ele>67.0</ele><time>2026-04-17T12:17:16Z</time></trkpt><trkpt lat="43.926833395987934" lon="10.899694031553759"><ele>67.0</ele><time>2026-04-17T12:17:17Z</time></trkpt><trkpt lat="43.92669235944893" lon="10.899652534880202"><ele>67.0</ele><time>2026-04-17T12:17:18Z</time></trkpt><trkpt lat="43.92656757613512" lon="10.899585154975691"><ele>67.0</ele><time>2026-04-17T12:17:19Z</time></trkpt><trkpt lat="43.92644320247663" lon="10.899500405372114"><ele>67.66666666666666</ele><time>2026-04-17T12:17:20Z</time></trkpt><trkpt lat="43.926304449840124" lon="10.899404984294485"><ele>68.33333333333333</ele><time>2026-04-17T12:17:21Z</time></trkpt><trkpt lat="43.92615003500395" lon="10.899312478263218"><ele>69.0</ele><time>2026-04-17T12:17:22Z</time></trkpt><trkpt lat="43.92598973568674" lon="10.899217975296368"><ele>68.33333333333333</ele><time>2026-04-17T12:17:23Z</time></trkpt><trkpt lat="43.92582376174499" lon="10.899112478364758"><ele>67.66666666666666</ele><time>2026-04-17T12:17:24Z</time></trkpt><trkpt lat="43.92565563436909" lon="10.899006639821092"><ele>67.0</ele><time>2026-04-17T12:17:25Z</time></trkpt><trkpt lat="43.9254936145705" lon="10.898914236733493"><ele>67.0</ele><time>2026-04-17T12:17:26Z</time></trkpt><trkpt lat="43.92535398361039" lon="10.89883340117245"><ele>67.0</ele><time>2026-04-17T12:17:27Z</time></trkpt><trkpt lat="43.92524480996207" lon="10.898767057161033"><ele>67.0</ele><time>2026-04-17T12:17:28Z</time></trkpt><trkpt lat="43.92517382986195" lon="10.898704698811542"><ele>67.0</ele><time>2026-04-17T12:17:29Z</time></trkpt><trkpt lat="43.92511992422075" lon="10.898637446192826"><ele>67.0</ele><time>2026-04-17T12:17:30Z</time></trkpt><trkpt lat="43.925078068619605" lon="10.898563415476389"><ele>66.5</ele><time>2026-04-17T12:17:31Z</time></trkpt><trkpt lat="43.92505221989029" lon="10.898470437681652"><ele>66.0</ele><time>2026-04-17T12:17:32Z</time></trkpt><trkpt lat="43.92503962236" lon="10.898352096276026"><ele>65.5</ele><time>2026-04-17T12:17:33Z</time></trkpt><trkpt lat="43.92502116932052" lon="10.898228369228477"><ele>65.0</ele><time>2026-04-17T12:17:34Z</time></trkpt><trkpt lat="43.924973801489344" lon="10.89811945595316"><ele>64.5</ele><time>2026-04-17T12:17:35Z</time></trkpt><trkpt lat="43.92490655858119" lon="10.898047021100755"><ele>64.0</ele><time>2026-04-17T12:17:36.001Z</time></trkpt><trkpt lat="43.92482318839423" lon="10.898000926927791"><ele>64.0</ele><time>2026-04-17T12:17:37.001Z</time></trkpt><trkpt lat="43.92471856534077" lon="10.897987537647705"><ele>64.0</ele><time>2026-04-17T12:17:38.001Z</time></trkpt><trkpt lat="43.924599132786035" lon="10.897982064722886"><ele>64.0</ele><time>2026-04-17T12:17:39.001Z</time></trkpt><trkpt lat="43.92447862895579" lon="10.897932013662459"><ele>64.0</ele><time>2026-04-17T12:17:40.001Z</time></trkpt><trkpt lat="43.92437336624626" lon="10.897828844438619"><ele>64.0</ele><time>2026-04-17T12:17:41.001Z</time></trkpt><trkpt lat="43.92429080272629" lon="10.897678924964094"><ele>64.0</ele><time>2026-04-17T12:17:42.001Z</time></trkpt><trkpt lat="43.92423146504748" lon="10.897512406128945"><ele>64.0</ele><time>2026-04-17T12:17:43.001Z</time></trkpt><trkpt lat="43.92418083378898" lon="10.897321879984645"><ele>64.0</ele><time>2026-04-17T12:17:44.001Z</time></trkpt><trkpt lat="43.924123672790856" lon="10.897123227943032"><ele>65.0</ele><time>2026-04-17T12:17:45.001Z</time></trkpt><trkpt lat="43.924060819459264" lon="10.896933630860724"><ele>66.0</ele><time>2026-04-17T12:17:46.001Z</time></trkpt><trkpt lat="43.92400009933358" lon="10.896742228176269"><ele>67.0</ele><time>2026-04-17T12:17:47.001Z</time></trkpt><trkpt lat="43.92393987336974" lon="10.89654519563609"><ele>67.66666666666666</ele><time>2026-04-17T12:17:48.001Z</time></trkpt><trkpt lat="43.92387687642913" lon="10.89635263297176"><ele>68.33333333333333</ele><time>2026-04-17T12:17:49.001Z</time></trkpt><trkpt lat="43.923808025275676" lon="10.896171071292367"><ele>69.0</ele><time>2026-04-17T12:17:50.001Z</time></trkpt><trkpt lat="43.92372994375007" lon="10.895994098496756"><ele>69.0</ele><time>2026-04-17T12:17:51.001Z</time></trkpt><trkpt lat="43.923650294146015" lon="10.895816182887307"><ele>69.0</ele><time>2026-04-17T12:17:52.001Z</time></trkpt><trkpt lat="43.92357799538643" lon="10.895651523411429"><ele>69.0</ele><time>2026-04-17T12:17:53.001Z</time></trkpt><trkpt lat="43.92350896616579" lon="10.895508651305786"><ele>69.0</ele><time>2026-04-17T12:17:54.001Z</time></trkpt><trkpt lat="43.92343862875396" lon="10.895377123951292"><ele>69.0</ele><time>2026-04-17T12:17:55.001Z</time></trkpt><trkpt lat="43.92337225682626" lon="10.895252663329025"><ele>69.0</ele><time>2026-04-17T12:17:56.001Z</time></trkpt><trkpt lat="43.9233044086873" lon="10.895106570396745"><ele>69.0</ele><time>2026-04-17T12:17:57.001Z</time></trkpt><trkpt lat="43.92323095076821" lon="10.894934028248695"><ele>69.0</ele><time>2026-04-17T12:17:58.001Z</time></trkpt><trkpt lat="43.92316081575005" lon="10.894727066734893"><ele>69.33333333333333</ele><time>2026-04-17T12:17:59.001Z</time></trkpt><trkpt lat="43.92309382135813" lon="10.894496368730076"><ele>69.66666666666666</ele><time>2026-04-17T12:18:00.001Z</time></trkpt><trkpt lat="43.923012563442775" lon="10.894252446507101"><ele>70.0</ele><time>2026-04-17T12:18:01.001Z</time></trkpt><trkpt lat="43.9229257478821" lon="10.894013216789906"><ele>69.0</ele><time>2026-04-17T12:18:02.001Z</time></trkpt><trkpt lat="43.92284218760862" lon="10.893789525905616"><ele>68.0</ele><time>2026-04-17T12:18:03.001Z</time></trkpt><trkpt lat="43.92276319714033" lon="10.893573804374391"><ele>67.0</ele><time>2026-04-17T12:18:04.001Z</time></trkpt><trkpt lat="43.92268910388195" lon="10.893361880898746"><ele>67.0</ele><time>2026-04-17T12:18:05.001Z</time></trkpt><trkpt lat="43.922617213952826" lon="10.893155155448225"><ele>67.0</ele><time>2026-04-17T12:18:06.001Z</time></trkpt><trkpt lat="43.92254331225923" lon="10.892950440309871"><ele>67.0</ele><time>2026-04-17T12:18:07.001Z</time></trkpt><trkpt lat="43.92247029824925" lon="10.892750510211496"><ele>67.66666666666666</ele><time>2026-04-17T12:18:08.001Z</time></trkpt><trkpt lat="43.92240425956082" lon="10.892554057746189"><ele>68.33333333333333</ele><time>2026-04-17T12:18:09.001Z</time></trkpt><trkpt lat="43.922331805274176" lon="10.892348483503627"><ele>69.0</ele><time>2026-04-17T12:18:10.001Z</time></trkpt><trkpt lat="43.92224551498697" lon="10.89212062091657"><ele>69.0</ele><time>2026-04-17T12:18:11.001Z</time></trkpt><trkpt lat="43.922167154526804" lon="10.891897337290148"><ele>69.0</ele><time>2026-04-17T12:18:12.001Z</time></trkpt><trkpt lat="43.92209546704707" lon="10.89169691649824"><ele>69.0</ele><time>2026-04-17T12:18:13.001Z</time></trkpt><trkpt lat="43.922030213470556" lon="10.891514760394484"><ele>68.75</ele><time>2026-04-17T12:18:14.001Z</time></trkpt><trkpt lat="43.921970776434115" lon="10.891344443784142"><ele>68.5</ele><time>2026-04-17T12:18:15.001Z</time></trkpt><trkpt lat="43.92191854272123" lon="10.891190541036062"><ele>68.25</ele><time>2026-04-17T12:18:16.001Z</time></trkpt><trkpt lat="43.9218703960823" lon="10.8910464637062"><ele>68.0</ele><time>2026-04-17T12:18:17.001Z</time></trkpt><trkpt lat="43.92182784486839" lon="10.890923804639904"><ele>67.83333333333334</ele><time>2026-04-17T12:18:18.001Z</time></trkpt><trkpt lat="43.92179276584724" lon="10.890812823281493"><ele>67.66666666666667</ele><time>2026-04-17T12:18:19.001Z</time></trkpt><trkpt lat="43.92176077566171" lon="10.890700953372018"><ele>67.5</ele><time>2026-04-17T12:18:20.001Z</time></trkpt><trkpt lat="43.921736019626245" lon="10.890586291821824"><ele>67.33333333333333</ele><time>2026-04-17T12:18:21.001Z</time></trkpt><trkpt lat="43.92172594838425" lon="10.890467411607997"><ele>67.16666666666666</ele><time>2026-04-17T12:18:22.001Z</time></trkpt><trkpt lat="43.92171208885571" lon="10.89035440128934"><ele>67.0</ele><time>2026-04-17T12:18:23.001Z</time></trkpt><trkpt lat="43.921705393172154" lon="10.890246827884058"><ele>67.0</ele><time>2026-04-17T12:18:24.001Z</time></trkpt><trkpt lat="43.92170559965366" lon="10.890142706808822"><ele>67.0</ele><time>2026-04-17T12:18:25.001Z</time></trkpt><trkpt lat="43.92171527247618" lon="10.890034632667879"><ele>67.0</ele><time>2026-04-17T12:18:26.001Z</time></trkpt><trkpt lat="43.921729301635736" lon="10.889918744676335"><ele>67.0</ele><time>2026-04-17T12:18:27.001Z</time></trkpt><trkpt lat="43.921744495715096" lon="10.889784562846113"><ele>67.0</ele><time>2026-04-17T12:18:28.001Z</time></trkpt><trkpt lat="43.92177219651797" lon="10.88963022485171"><ele>67.0</ele><time>2026-04-17T12:18:29.001Z</time></trkpt><trkpt lat="43.92181503453606" lon="10.889473695655782"><ele>67.0</ele><time>2026-04-17T12:18:30.001Z</time></trkpt><trkpt lat="43.92185459241862" lon="10.889335580453142"><ele>67.0</ele><time>2026-04-17T12:18:31.001Z</time></trkpt><trkpt lat="43.92187413717511" lon="10.889179089660018"><ele>67.0</ele><time>2026-04-17T12:18:32.001Z</time></trkpt><trkpt lat="43.92188184115974" lon="10.889018835435564"><ele>67.0</ele><time>2026-04-17T12:18:33.001Z</time></trkpt><trkpt lat="43.9218568792717" lon="10.888842403730184"><ele>67.0</ele><time>2026-04-17T12:18:34.001Z</time></trkpt><trkpt lat="43.921804052288515" lon="10.888672048036248"><ele>67.0</ele><time>2026-04-17T12:18:35.001Z</time></trkpt><trkpt lat="43.921730478416585" lon="10.888526808698398"><ele>67.0</ele><time>2026-04-17T12:18:36.001Z</time></trkpt><trkpt lat="43.92164095917082" lon="10.888401719132931"><ele>67.0</ele><time>2026-04-17T12:18:37.001Z</time></trkpt><trkpt lat="43.92153973683121" lon="10.888303566083671"><ele>67.0</ele><time>2026-04-17T12:18:38.001Z</time></trkpt><trkpt lat="43.92141294954039" lon="10.88823187265977"><ele>67.0</ele><time>2026-04-17T12:18:39.001Z</time></trkpt><trkpt lat="43.92127906792417" lon="10.88819730873748"><ele>67.0</ele><time>2026-04-17T12:18:40.001Z</time></trkpt><trkpt lat="43.92114038236159" lon="10.888192072900159"><ele>67.0</ele><time>2026-04-17T12:18:41.001Z</time></trkpt><trkpt lat="43.92099893737108" lon="10.888200779533811"><ele>67.0</ele><time>2026-04-17T12:18:42Z</time></trkpt><trkpt lat="43.92085925472973" lon="10.888206680186142"><ele>67.0</ele><time>2026-04-17T12:18:43Z</time></trkpt><trkpt lat="43.92071740858842" lon="10.88820048730997"><ele>67.0</ele><time>2026-04-17T12:18:44Z</time></trkpt><trkpt lat="43.920573390931786" lon="10.888189020624331"><ele>66.66666666666666</ele><time>2026-04-17T12:18:45Z</time></trkpt><trkpt lat="43.92039758976694" lon="10.888165751538208"><ele>66.33333333333333</ele><time>2026-04-17T12:18:46Z</time></trkpt><trkpt lat="43.920207764759354" lon="10.888173108843189"><ele>66.0</ele><time>2026-04-17T12:18:47Z</time></trkpt><trkpt lat="43.92003878332924" lon="10.888135289935136"><ele>65.0</ele><time>2026-04-17T12:18:48Z</time></trkpt><trkpt lat="43.919872852974905" lon="10.888075793174918"><ele>64.0</ele><time>2026-04-17T12:18:49Z</time></trkpt><trkpt lat="43.919721117935374" lon="10.887986754031362"><ele>63.0</ele><time>2026-04-17T12:18:50Z</time></trkpt><trkpt lat="43.9195754309045" lon="10.887870181251996"><ele>63.0</ele><time>2026-04-17T12:18:51Z</time></trkpt><trkpt lat="43.919436690234036" lon="10.887733205140437"><ele>63.0</ele><time>2026-04-17T12:18:52Z</time></trkpt><trkpt lat="43.91930436079771" lon="10.887582184050634"><ele>63.0</ele><time>2026-04-17T12:18:53Z</time></trkpt><trkpt lat="43.91916359213122" lon="10.88742665155452"><ele>63.0</ele><time>2026-04-17T12:18:54Z</time></trkpt><trkpt lat="43.9190185293137" lon="10.887276607820107"><ele>63.0</ele><time>2026-04-17T12:18:55Z</time></trkpt><trkpt lat="43.918872838241235" lon="10.887129240300304"><ele>63.0</ele><time>2026-04-17T12:18:56Z</time></trkpt><trkpt lat="43.918727406625024" lon="10.886973284266828"><ele>63.0</ele><time>2026-04-17T12:18:57Z</time></trkpt><trkpt lat="43.918576699097436" lon="10.886807783020783"><ele>63.0</ele><time>2026-04-17T12:18:58Z</time></trkpt><trkpt lat="43.9184230800239" lon="10.886642160298173"><ele>63.0</ele><time>2026-04-17T12:18:59Z</time></trkpt><trkpt lat="43.91827980042459" lon="10.886486586674879"><ele>62.66666666666667</ele><time>2026-04-17T12:19:00Z</time></trkpt><trkpt lat="43.918144065788255" lon="10.886342043031243"><ele>62.333333333333336</ele><time>2026-04-17T12:19:01Z</time></trkpt><trkpt lat="43.91801805032777" lon="10.886206265768699"><ele>62.0</ele><time>2026-04-17T12:19:02Z</time></trkpt><trkpt lat="43.91789197414729" lon="10.886072794861374"><ele>62.0</ele><time>2026-04-17T12:19:03Z</time></trkpt><trkpt lat="43.91776930132028" lon="10.885942061018444"><ele>62.0</ele><time>2026-04-17T12:19:04Z</time></trkpt><trkpt lat="43.917654035138725" lon="10.885821086148951"><ele>62.0</ele><time>2026-04-17T12:19:05Z</time></trkpt><trkpt lat="43.91754161246195" lon="10.88570030390933"><ele>62.0</ele><time>2026-04-17T12:19:06Z</time></trkpt><trkpt lat="43.917435545647976" lon="10.885584638485962"><ele>62.0</ele><time>2026-04-17T12:19:07Z</time></trkpt><trkpt lat="43.91732492519064" lon="10.885463428973896"><ele>62.0</ele><time>2026-04-17T12:19:08Z</time></trkpt><trkpt lat="43.91720508302623" lon="10.885332108775183"><ele>62.0</ele><time>2026-04-17T12:19:09Z</time></trkpt><trkpt lat="43.91707165680517" lon="10.885188039648174"><ele>61.66666666666667</ele><time>2026-04-17T12:19:10Z</time></trkpt><trkpt lat="43.91691716241833" lon="10.885022122941193"><ele>61.33333333333333</ele><time>2026-04-17T12:19:11Z</time></trkpt><trkpt lat="43.91675280611483" lon="10.884841912101924"><ele>61.0</ele><time>2026-04-17T12:19:12Z</time></trkpt><trkpt lat="43.916585544146336" lon="10.884655611463193"><ele>61.0</ele><time>2026-04-17T12:19:13Z</time></trkpt><trkpt lat="43.91641831439865" lon="10.884468164746293"><ele>61.0</ele><time>2026-04-17T12:19:14Z</time></trkpt><trkpt lat="43.91625508782791" lon="10.884292248314305"><ele>61.0</ele><time>2026-04-17T12:19:15.001Z</time></trkpt><trkpt lat="43.91609819593017" lon="10.884126064319679"><ele>61.33333333333333</ele><time>2026-04-17T12:19:16.001Z</time></trkpt><trkpt lat="43.9159554293012" lon="10.883972118123001"><ele>61.66666666666667</ele><time>2026-04-17T12:19:17.001Z</time></trkpt><trkpt lat="43.915826807023244" lon="10.883828040497352"><ele>62.0</ele><time>2026-04-17T12:19:18.001Z</time></trkpt><trkpt lat="43.91571998708418" lon="10.883698898164376"><ele>61.6</ele><time>2026-04-17T12:19:19.001Z</time></trkpt><trkpt lat="43.91563607386651" lon="10.883598811534972"><ele>61.2</ele><time>2026-04-17T12:19:20.001Z</time></trkpt><trkpt lat="43.915569557392026" lon="10.88352190835684"><ele>60.8</ele><time>2026-04-17T12:19:21.001Z</time></trkpt><trkpt lat="43.915511320094744" lon="10.883452787748286"><ele>60.4</ele><time>2026-04-17T12:19:22.001Z</time></trkpt><trkpt lat="43.9154492863593" lon="10.883371733419326"><ele>60.0</ele><time>2026-04-17T12:19:23.001Z</time></trkpt><trkpt lat="43.91539020292785" lon="10.88327083692093"><ele>59.8</ele><time>2026-04-17T12:19:24.001Z</time></trkpt><trkpt lat="43.91532330213358" lon="10.883174002138503"><ele>59.6</ele><time>2026-04-17T12:19:25.001Z</time></trkpt><trkpt lat="43.91523358382714" lon="10.88311223517154"><ele>59.400000000000006</ele><time>2026-04-17T12:19:26.001Z</time></trkpt><trkpt lat="43.91512828622708" lon="10.883054128254154"><ele>59.2</ele><time>2026-04-17T12:19:27.001Z</time></trkpt><trkpt lat="43.91502330046545" lon="10.882953272790017"><ele>59.0</ele><time>2026-04-17T12:19:28.001Z</time></trkpt><trkpt lat="43.914922179187705" lon="10.88281973687991"><ele>59.0</ele><time>2026-04-17T12:19:29.001Z</time></trkpt><trkpt lat="43.914808539432606" lon="10.882675132717745"><ele>59.0</ele><time>2026-04-17T12:19:30.001Z</time></trkpt><trkpt lat="43.9146858333459" lon="10.88252420131473"><ele>59.0</ele><time>2026-04-17T12:19:31.001Z</time></trkpt><trkpt lat="43.914561843455495" lon="10.882362725697952"><ele>59.0</ele><time>2026-04-17T12:19:32.001Z</time></trkpt><trkpt lat="43.91444488626923" lon="10.88220011123293"><ele>59.0</ele><time>2026-04-17T12:19:33.001Z</time></trkpt><trkpt lat="43.91433634747247" lon="10.882041482622363"><ele>59.0</ele><time>2026-04-17T12:19:34.001Z</time></trkpt><trkpt lat="43.914221654690245" lon="10.881867309588355"><ele>59.0</ele><time>2026-04-17T12:19:35.001Z</time></trkpt><trkpt lat="43.91410314566236" lon="10.881670797153618"><ele>59.0</ele><time>2026-04-17T12:19:36.001Z</time></trkpt><trkpt lat="43.913983908709255" lon="10.881452536229181"><ele>59.0</ele><time>2026-04-17T12:19:37.001Z</time></trkpt><trkpt lat="43.91386426869667" lon="10.881221239174685"><ele>59.0</ele><time>2026-04-17T12:19:38.001Z</time></trkpt><trkpt lat="43.91374490844246" lon="10.88098169881359"><ele>59.0</ele><time>2026-04-17T12:19:39.001Z</time></trkpt><trkpt lat="43.91363128383747" lon="10.8807342961894"><ele>59.0</ele><time>2026-04-17T12:19:40.001Z</time></trkpt><trkpt lat="43.91352144993511" lon="10.880475857862878"><ele>59.333333333333336</ele><time>2026-04-17T12:19:41.001Z</time></trkpt><trkpt lat="43.91341788909677" lon="10.880212248774608"><ele>59.66666666666667</ele><time>2026-04-17T12:19:42.001Z</time></trkpt><trkpt lat="43.91332089053984" lon="10.879947066461405"><ele>60.0</ele><time>2026-04-17T12:19:43.001Z</time></trkpt><trkpt lat="43.913230688649634" lon="10.87968055913373"><ele>60.33333333333333</ele><time>2026-04-17T12:19:44.001Z</time></trkpt><trkpt lat="43.91314742941578" lon="10.879413759181991"><ele>60.666666666666664</ele><time>2026-04-17T12:19:45.001Z</time></trkpt><trkpt lat="43.913072111214916" lon="10.879145757323869"><ele>61.0</ele><time>2026-04-17T12:19:46.001Z</time></trkpt><trkpt lat="43.91300243988526" lon="10.878877058526198"><ele>61.0</ele><time>2026-04-17T12:19:47.001Z</time></trkpt><trkpt lat="43.91294249771587" lon="10.87861582824772"><ele>61.0</ele><time>2026-04-17T12:19:48.001Z</time></trkpt><trkpt lat="43.91288503773807" lon="10.878338801830385"><ele>61.0</ele><time>2026-04-17T12:19:49.001Z</time></trkpt><trkpt lat="43.912831407793895" lon="10.878041598192802"><ele>60.5</ele><time>2026-04-17T12:19:50.001Z</time></trkpt><trkpt lat="43.91278382091896" lon="10.87772889288191"><ele>60.0</ele><time>2026-04-17T12:19:51.001Z</time></trkpt><trkpt lat="43.91274596510847" lon="10.877407182396144"><ele>60.0</ele><time>2026-04-17T12:19:52.001Z</time></trkpt><trkpt lat="43.9127172767861" lon="10.877086519244545"><ele>60.0</ele><time>2026-04-17T12:19:53.001Z</time></trkpt><trkpt lat="43.91269090021185" lon="10.876759120251098"><ele>60.0</ele><time>2026-04-17T12:19:54.001Z</time></trkpt><trkpt lat="43.91266972388212" lon="10.87642574146474"><ele>60.0</ele><time>2026-04-17T12:19:55.001Z</time></trkpt><trkpt lat="43.91264665644989" lon="10.87608600743778"><ele>60.5</ele><time>2026-04-17T12:19:56.001Z</time></trkpt><trkpt lat="43.91262278560917" lon="10.875746418868898"><ele>61.0</ele><time>2026-04-17T12:19:57.001Z</time></trkpt><trkpt lat="43.9125990817546" lon="10.875425991546402"><ele>61.0</ele><time>2026-04-17T12:19:58.001Z</time></trkpt><trkpt lat="43.912577905650856" lon="10.875105535677266"><ele>61.0</ele><time>2026-04-17T12:19:59.001Z</time></trkpt><trkpt lat="43.9125746436298" lon="10.87476653378722"><ele>61.0</ele><time>2026-04-17T12:20:00.001Z</time></trkpt><trkpt lat="43.91256152688869" lon="10.874421621636515"><ele>61.0</ele><time>2026-04-17T12:20:01.001Z</time></trkpt><trkpt lat="43.912548790062985" lon="10.874080234389435"><ele>61.5</ele><time>2026-04-17T12:20:02.001Z</time></trkpt><trkpt lat="43.912536861253706" lon="10.873742896150157"><ele>62.0</ele><time>2026-04-17T12:20:03.001Z</time></trkpt><trkpt lat="43.91252475939156" lon="10.873392171892501"><ele>63.0</ele><time>2026-04-17T12:20:04.001Z</time></trkpt><trkpt lat="43.91251329755457" lon="10.873044849714855"><ele>64.0</ele><time>2026-04-17T12:20:05.001Z</time></trkpt><trkpt lat="43.91250237161625" lon="10.872710766294418"><ele>63.5</ele><time>2026-04-17T12:20:06.001Z</time></trkpt><trkpt lat="43.9124755767635" lon="10.872397389826839"><ele>63.0</ele><time>2026-04-17T12:20:07.001Z</time></trkpt><trkpt lat="43.91248196621735" lon="10.87208682858825"><ele>63.0</ele><time>2026-04-17T12:20:08.001Z</time></trkpt><trkpt lat="43.9124554314013" lon="10.87178301543607"><ele>63.0</ele><time>2026-04-17T12:20:09.001Z</time></trkpt><trkpt lat="43.912447017813626" lon="10.871480249795344"><ele>63.0</ele><time>2026-04-17T12:20:10.001Z</time></trkpt><trkpt lat="43.912437357250525" lon="10.871178023048095"><ele>62.33333333333333</ele><time>2026-04-17T12:20:11.001Z</time></trkpt><trkpt lat="43.91242541805606" lon="10.870878285118037"><ele>61.666666666666664</ele><time>2026-04-17T12:20:12.001Z</time></trkpt><trkpt lat="43.91241564983387" lon="10.87058971505864"><ele>61.0</ele><time>2026-04-17T12:20:13.001Z</time></trkpt><trkpt lat="43.912408485242665" lon="10.870309224682087"><ele>61.0</ele><time>2026-04-17T12:20:14.001Z</time></trkpt><trkpt lat="43.912399533685" lon="10.870029953856791"><ele>61.0</ele><time>2026-04-17T12:20:15.001Z</time></trkpt><trkpt lat="43.9123897767098" lon="10.869752271128029"><ele>61.0</ele><time>2026-04-17T12:20:16.001Z</time></trkpt><trkpt lat="43.91237765827006" lon="10.869483647014624"><ele>61.33333333333333</ele><time>2026-04-17T12:20:17.001Z</time></trkpt><trkpt lat="43.91237391362764" lon="10.869218127219632"><ele>61.66666666666667</ele><time>2026-04-17T12:20:18.001Z</time></trkpt><trkpt lat="43.912366994794894" lon="10.868946995220519"><ele>62.0</ele><time>2026-04-17T12:20:19.001Z</time></trkpt><trkpt lat="43.91235700755553" lon="10.868673798840247"><ele>62.333333333333336</ele><time>2026-04-17T12:20:20.001Z</time></trkpt><trkpt lat="43.91234672730132" lon="10.868410681782581"><ele>62.66666666666667</ele><time>2026-04-17T12:20:21.001Z</time></trkpt><trkpt lat="43.91233763523226" lon="10.868147826797562"><ele>63.0</ele><time>2026-04-17T12:20:22.001Z</time></trkpt><trkpt lat="43.91232796706902" lon="10.867883288264778"><ele>63.33333333333333</ele><time>2026-04-17T12:20:23.001Z</time></trkpt><trkpt lat="43.91231654275265" lon="10.867588302085581"><ele>63.666666666666664</ele><time>2026-04-17T12:20:24.001Z</time></trkpt><trkpt lat="43.91232159502926" lon="10.867267914713825"><ele>64.0</ele><time>2026-04-17T12:20:25.001Z</time></trkpt><trkpt lat="43.91231018957312" lon="10.866930032770274"><ele>64.5</ele><time>2026-04-17T12:20:26.001Z</time></trkpt><trkpt lat="43.912285198069625" lon="10.866577232251641"><ele>65.0</ele><time>2026-04-17T12:20:27.001Z</time></trkpt><trkpt lat="43.91227235881776" lon="10.866211411265642"><ele>65.5</ele><time>2026-04-17T12:20:28.001Z</time></trkpt><trkpt lat="43.9122743114433" lon="10.865878969956315"><ele>66.0</ele><time>2026-04-17T12:20:29.001Z</time></trkpt><trkpt lat="43.91226394042059" lon="10.86557913989806"><ele>66.0</ele><time>2026-04-17T12:20:30.001Z</time></trkpt><trkpt lat="43.91225559389745" lon="10.865303320758326"><ele>66.0</ele><time>2026-04-17T12:20:31.001Z</time></trkpt><trkpt lat="43.912233721363435" lon="10.865049403268978"><ele>66.0</ele><time>2026-04-17T12:20:32.001Z</time></trkpt><trkpt lat="43.9122417103928" lon="10.864812091785206"><ele>66.33333333333333</ele><time>2026-04-17T12:20:33.001Z</time></trkpt><trkpt lat="43.912260546319516" lon="10.864570497907215"><ele>66.66666666666666</ele><time>2026-04-17T12:20:34.001Z</time></trkpt><trkpt lat="43.91231061455433" lon="10.864349572830934"><ele>67.0</ele><time>2026-04-17T12:20:35.001Z</time></trkpt><trkpt lat="43.91235914599259" lon="10.864131301719928"><ele>67.0</ele><time>2026-04-17T12:20:36.001Z</time></trkpt><trkpt lat="43.912413794914926" lon="10.863897418789657"><ele>67.0</ele><time>2026-04-17T12:20:37.001Z</time></trkpt><trkpt lat="43.9124755045295" lon="10.863644700229253"><ele>67.0</ele><time>2026-04-17T12:20:38.001Z</time></trkpt><trkpt lat="43.912541902322246" lon="10.863372572605726"><ele>70.0</ele><time>2026-04-17T12:20:39.001Z</time></trkpt><trkpt lat="43.91260561385114" lon="10.863111399930334"><ele>73.0</ele><time>2026-04-17T12:20:40.001Z</time></trkpt><trkpt lat="43.912665913735424" lon="10.862855154234515"><ele>76.0</ele><time>2026-04-17T12:20:41.001Z</time></trkpt><trkpt lat="43.912701030927884" lon="10.862614091730425"><ele>76.0</ele><time>2026-04-17T12:20:42.001Z</time></trkpt><trkpt lat="43.9127430863184" lon="10.86238699505806"><ele>76.0</ele><time>2026-04-17T12:20:43.001Z</time></trkpt><trkpt lat="43.91276986857842" lon="10.862156718439016"><ele>76.0</ele><time>2026-04-17T12:20:44.001Z</time></trkpt><trkpt lat="43.91277602233003" lon="10.861931730481219"><ele>74.33333333333333</ele><time>2026-04-17T12:20:45.001Z</time></trkpt><trkpt lat="43.912761729406945" lon="10.861710421360879"><ele>72.66666666666667</ele><time>2026-04-17T12:20:46.001Z</time></trkpt><trkpt lat="43.91273824707319" lon="10.861493500120128"><ele>71.0</ele><time>2026-04-17T12:20:47.001Z</time></trkpt><trkpt lat="43.912690051762624" lon="10.861283281167278"><ele>71.0</ele><time>2026-04-17T12:20:48.001Z</time></trkpt><trkpt lat="43.912625043771214" lon="10.861075949699849"><ele>71.0</ele><time>2026-04-17T12:20:49.001Z</time></trkpt><trkpt lat="43.91256016771548" lon="10.86088001553554"><ele>71.0</ele><time>2026-04-17T12:20:50.001Z</time></trkpt><trkpt lat="43.91250033189197" lon="10.860692435433666"><ele>70.0</ele><time>2026-04-17T12:20:51.001Z</time></trkpt><trkpt lat="43.912443441219864" lon="10.86050998074844"><ele>69.0</ele><time>2026-04-17T12:20:52.001Z</time></trkpt><trkpt lat="43.912386833139806" lon="10.86033336257071"><ele>68.0</ele><time>2026-04-17T12:20:53.001Z</time></trkpt><trkpt lat="43.91233154738695" lon="10.86016595972664"><ele>67.0</ele><time>2026-04-17T12:20:54.001Z</time></trkpt><trkpt lat="43.91227644949096" lon="10.860001167504866"><ele>69.66666666666666</ele><time>2026-04-17T12:20:55.001Z</time></trkpt><trkpt lat="43.91221823304846" lon="10.859820915834913"><ele>72.33333333333333</ele><time>2026-04-17T12:20:56.001Z</time></trkpt><trkpt lat="43.9121558727699" lon="10.859626459198346"><ele>75.0</ele><time>2026-04-17T12:20:57.001Z</time></trkpt><trkpt lat="43.9120894429844" lon="10.859426616079773"><ele>77.5</ele><time>2026-04-17T12:20:58.001Z</time></trkpt><trkpt lat="43.912025372358165" lon="10.859230657661472"><ele>80.0</ele><time>2026-04-17T12:20:59.001Z</time></trkpt><trkpt lat="43.91196388471096" lon="10.859043663605956"><ele>82.5</ele><time>2026-04-17T12:21:00.001Z</time></trkpt><trkpt lat="43.911903407333796" lon="10.858860796981315"><ele>85.0</ele><time>2026-04-17T12:21:01.001Z</time></trkpt><trkpt lat="43.91184101081395" lon="10.858677441300648"><ele>85.0</ele><time>2026-04-17T12:21:02.001Z</time></trkpt><trkpt lat="43.91177443118308" lon="10.858489932083385"><ele>85.0</ele><time>2026-04-17T12:21:03.001Z</time></trkpt><trkpt lat="43.911704154655474" lon="10.85830391495181"><ele>85.0</ele><time>2026-04-17T12:21:04.001Z</time></trkpt><trkpt lat="43.91163437046346" lon="10.85813292549443"><ele>85.0</ele><time>2026-04-17T12:21:05.001Z</time></trkpt><trkpt lat="43.91156744707635" lon="10.857971347392935"><ele>84.0</ele><time>2026-04-17T12:21:06.001Z</time></trkpt><trkpt lat="43.91150750646586" lon="10.857815939094058"><ele>83.0</ele><time>2026-04-17T12:21:07.001Z</time></trkpt><trkpt lat="43.91144404837856" lon="10.857652701592013"><ele>82.0</ele><time>2026-04-17T12:21:08.001Z</time></trkpt><trkpt lat="43.91137343470595" lon="10.857485181735614"><ele>81.0</ele><time>2026-04-17T12:21:09.001Z</time></trkpt><trkpt lat="43.91130183519658" lon="10.857310229174752"><ele>81.0</ele><time>2026-04-17T12:21:10.001Z</time></trkpt><trkpt lat="43.91123669987" lon="10.857137178031408"><ele>81.0</ele><time>2026-04-17T12:21:11.001Z</time></trkpt><trkpt lat="43.91118075626625" lon="10.856963318357014"><ele>81.0</ele><time>2026-04-17T12:21:12.001Z</time></trkpt><trkpt lat="43.91113074573778" lon="10.856776045110184"><ele>81.0</ele><time>2026-04-17T12:21:13.001Z</time></trkpt><trkpt lat="43.911082535485136" lon="10.85658541387908"><ele>81.75</ele><time>2026-04-17T12:21:14.001Z</time></trkpt><trkpt lat="43.91103799743938" lon="10.856401264902653"><ele>82.5</ele><time>2026-04-17T12:21:15.001Z</time></trkpt><trkpt lat="43.910999228236875" lon="10.856208793603948"><ele>83.25</ele><time>2026-04-17T12:21:16.001Z</time></trkpt><trkpt lat="43.91096479407274" lon="10.856007938971441"><ele>84.0</ele><time>2026-04-17T12:21:17.001Z</time></trkpt><trkpt lat="43.91093513087093" lon="10.855808374406884"><ele>85.25</ele><time>2026-04-17T12:21:18.001Z</time></trkpt><trkpt lat="43.910910177724304" lon="10.8556191419902"><ele>86.5</ele><time>2026-04-17T12:21:19.001Z</time></trkpt><trkpt lat="43.91088318921716" lon="10.855441592727692"><ele>87.75</ele><time>2026-04-17T12:21:20.001Z</time></trkpt><trkpt lat="43.91085271571348" lon="10.855270072475745"><ele>89.0</ele><time>2026-04-17T12:21:21.001Z</time></trkpt><trkpt lat="43.910816906181566" lon="10.855098271166026"><ele>85.75</ele><time>2026-04-17T12:21:22.001Z</time></trkpt><trkpt lat="43.91078073552544" lon="10.85493474585119"><ele>82.5</ele><time>2026-04-17T12:21:23.001Z</time></trkpt><trkpt lat="43.910739625406364" lon="10.854773096395135"><ele>79.25</ele><time>2026-04-17T12:21:24.001Z</time></trkpt><trkpt lat="43.91069197898199" lon="10.854609962174715"><ele>76.0</ele><time>2026-04-17T12:21:25.001Z</time></trkpt><trkpt lat="43.91063730539725" lon="10.85444520917753"><ele>76.0</ele><time>2026-04-17T12:21:26.001Z</time></trkpt><trkpt lat="43.910586012107274" lon="10.85429293482763"><ele>76.0</ele><time>2026-04-17T12:21:27.001Z</time></trkpt><trkpt lat="43.91053605474805" lon="10.85413883481297"><ele>76.0</ele><time>2026-04-17T12:21:28.001Z</time></trkpt><trkpt lat="43.91048330345812" lon="10.85396592486754"><ele>76.0</ele><time>2026-04-17T12:21:29.001Z</time></trkpt><trkpt lat="43.910427234868585" lon="10.853789286668647"><ele>75.8</ele><time>2026-04-17T12:21:30.001Z</time></trkpt><trkpt lat="43.91036371858057" lon="10.853665816616196"><ele>75.6</ele><time>2026-04-17T12:21:31.001Z</time></trkpt><trkpt lat="43.91030998436728" lon="10.853524287811046"><ele>75.4</ele><time>2026-04-17T12:21:32.001Z</time></trkpt><trkpt lat="43.910265096312095" lon="10.85338594832055"><ele>75.2</ele><time>2026-04-17T12:21:33.001Z</time></trkpt><trkpt lat="43.910221497110975" lon="10.853252215631489"><ele>75.0</ele><time>2026-04-17T12:21:34.001Z</time></trkpt><trkpt lat="43.91017529872731" lon="10.85311690150455"><ele>75.0</ele><time>2026-04-17T12:21:35.001Z</time></trkpt><trkpt lat="43.91012385257385" lon="10.852975599353778"><ele>75.0</ele><time>2026-04-17T12:21:36.001Z</time></trkpt><trkpt lat="43.910070360659276" lon="10.852827363806066"><ele>75.0</ele><time>2026-04-17T12:21:37.001Z</time></trkpt><trkpt lat="43.91001306498538" lon="10.852675696305607"><ele>75.0</ele><time>2026-04-17T12:21:38.001Z</time></trkpt><trkpt lat="43.9099563245699" lon="10.852520130122228"><ele>76.25</ele><time>2026-04-17T12:21:39.001Z</time></trkpt><trkpt lat="43.909897882912894" lon="10.852358489328669"><ele>77.5</ele><time>2026-04-17T12:21:40.001Z</time></trkpt><trkpt lat="43.90983446513532" lon="10.852191379944657"><ele>78.75</ele><time>2026-04-17T12:21:41.001Z</time></trkpt><trkpt lat="43.90977297163887" lon="10.852016379895316"><ele>80.0</ele><time>2026-04-17T12:21:42.001Z</time></trkpt><trkpt lat="43.90970556655339" lon="10.851837829497745"><ele>81.33333333333334</ele><time>2026-04-17T12:21:43.001Z</time></trkpt><trkpt lat="43.90962276452508" lon="10.851656485738511"><ele>82.66666666666667</ele><time>2026-04-17T12:21:44.001Z</time></trkpt><trkpt lat="43.90951908884193" lon="10.851483286261171"><ele>84.0</ele><time>2026-04-17T12:21:45.001Z</time></trkpt><trkpt lat="43.909404494229285" lon="10.851325919758736"><ele>84.0</ele><time>2026-04-17T12:21:46.001Z</time></trkpt><trkpt lat="43.90928378838684" lon="10.851172421795562"><ele>84.0</ele><time>2026-04-17T12:21:47.001Z</time></trkpt><trkpt lat="43.90915485082786" lon="10.851030330200656"><ele>84.0</ele><time>2026-04-17T12:21:48.001Z</time></trkpt><trkpt lat="43.90902968344444" lon="10.850907067384439"><ele>83.0</ele><time>2026-04-17T12:21:49.001Z</time></trkpt><trkpt lat="43.9089112177968" lon="10.850793719167608"><ele>82.0</ele><time>2026-04-17T12:21:50.001Z</time></trkpt><trkpt lat="43.90881145324815" lon="10.850662308281034"><ele>81.0</ele><time>2026-04-17T12:21:51.001Z</time></trkpt><trkpt lat="43.90870423629251" lon="10.85054569783948"><ele>80.0</ele><time>2026-04-17T12:21:52.001Z</time></trkpt><trkpt lat="43.908594121156824" lon="10.8504249038572"><ele>80.0</ele><time>2026-04-17T12:21:53.001Z</time></trkpt><trkpt lat="43.908480504696136" lon="10.85029999858965"><ele>80.0</ele><time>2026-04-17T12:21:54.001Z</time></trkpt><trkpt lat="43.908362629275345" lon="10.850186261935232"><ele>80.0</ele><time>2026-04-17T12:21:55.001Z</time></trkpt><trkpt lat="43.90825402530281" lon="10.850058063093035"><ele>80.0</ele><time>2026-04-17T12:21:56.001Z</time></trkpt><trkpt lat="43.90817374234107" lon="10.84992055080239"><ele>82.25</ele><time>2026-04-17T12:21:57.001Z</time></trkpt><trkpt lat="43.9080746276154" lon="10.84979473646723"><ele>84.5</ele><time>2026-04-17T12:21:58.001Z</time></trkpt><trkpt lat="43.90799339234036" lon="10.849640158523211"><ele>86.75</ele><time>2026-04-17T12:21:59.001Z</time></trkpt><trkpt lat="43.90793717639008" lon="10.849462918567452"><ele>89.0</ele><time>2026-04-17T12:22:00.001Z</time></trkpt><trkpt lat="43.90787901828484" lon="10.849294982280918"><ele>91.75</ele><time>2026-04-17T12:22:01.001Z</time></trkpt><trkpt lat="43.907828134431014" lon="10.849126005086125"><ele>94.5</ele><time>2026-04-17T12:22:02.001Z</time></trkpt><trkpt lat="43.90778174933302" lon="10.848943102233841"><ele>97.25</ele><time>2026-04-17T12:22:03.001Z</time></trkpt><trkpt lat="43.90774307252554" lon="10.848748356091324"><ele>100.0</ele><time>2026-04-17T12:22:04.001Z</time></trkpt><trkpt lat="43.90771862577674" lon="10.84856236437155"><ele>100.0</ele><time>2026-04-17T12:22:05.001Z</time></trkpt><trkpt lat="43.90770854052133" lon="10.848380537783878"><ele>100.0</ele><time>2026-04-17T12:22:06.001Z</time></trkpt><trkpt lat="43.907706468480455" lon="10.848190814030806"><ele>100.0</ele><time>2026-04-17T12:22:07.001Z</time></trkpt><trkpt lat="43.90771619101848" lon="10.84797584269926"><ele>100.0</ele><time>2026-04-17T12:22:08.001Z</time></trkpt><trkpt lat="43.90773294161724" lon="10.847722061935388"><ele>101.0</ele><time>2026-04-17T12:22:09.001Z</time></trkpt><trkpt lat="43.90775544674338" lon="10.847451438599133"><ele>102.0</ele><time>2026-04-17T12:22:10.001Z</time></trkpt><trkpt lat="43.907763615879794" lon="10.847175674539125"><ele>103.0</ele><time>2026-04-17T12:22:11.001Z</time></trkpt><trkpt lat="43.90778704092422" lon="10.846921709950927"><ele>103.66666666666667</ele><time>2026-04-17T12:22:12.001Z</time></trkpt><trkpt lat="43.90780555487614" lon="10.846684009506411"><ele>104.33333333333334</ele><time>2026-04-17T12:22:13.001Z</time></trkpt><trkpt lat="43.90782451534071" lon="10.846452415326967"><ele>105.0</ele><time>2026-04-17T12:22:14.001Z</time></trkpt><trkpt lat="43.907845468233326" lon="10.846237388458801"><ele>105.0</ele><time>2026-04-17T12:22:15.001Z</time></trkpt><trkpt lat="43.907863722792904" lon="10.846041068490095"><ele>105.0</ele><time>2026-04-17T12:22:16.001Z</time></trkpt><trkpt lat="43.907881354362225" lon="10.845850596584407"><ele>105.0</ele><time>2026-04-17T12:22:17.001Z</time></trkpt><trkpt lat="43.907898858565545" lon="10.845658802866735"><ele>105.0</ele><time>2026-04-17T12:22:18.001Z</time></trkpt><trkpt lat="43.907912198697375" lon="10.845477724018725"><ele>104.25</ele><time>2026-04-17T12:22:19.001Z</time></trkpt><trkpt lat="43.907924443229014" lon="10.845308284746261"><ele>103.5</ele><time>2026-04-17T12:22:20.001Z</time></trkpt><trkpt lat="43.90793217357186" lon="10.845147491295988"><ele>102.75</ele><time>2026-04-17T12:22:21.001Z</time></trkpt><trkpt lat="43.90796005109772" lon="10.844991078698401"><ele>102.0</ele><time>2026-04-17T12:22:22.001Z</time></trkpt><trkpt lat="43.9079738345873" lon="10.84482533274069"><ele>100.75</ele><time>2026-04-17T12:22:23.001Z</time></trkpt><trkpt lat="43.907988738064624" lon="10.844646118960197"><ele>99.5</ele><time>2026-04-17T12:22:24.001Z</time></trkpt><trkpt lat="43.907982272830466" lon="10.844449897667717"><ele>98.25</ele><time>2026-04-17T12:22:25.001Z</time></trkpt><trkpt lat="43.90800070360476" lon="10.844243383522969"><ele>97.0</ele><time>2026-04-17T12:22:26.001Z</time></trkpt><trkpt lat="43.908016582154254" lon="10.844018775302919"><ele>96.33333333333334</ele><time>2026-04-17T12:22:27.001Z</time></trkpt><trkpt lat="43.908038399315025" lon="10.843773946924735"><ele>95.66666666666667</ele><time>2026-04-17T12:22:28.001Z</time></trkpt><trkpt lat="43.908084640612564" lon="10.843514315634803"><ele>95.0</ele><time>2026-04-17T12:22:29.001Z</time></trkpt><trkpt lat="43.90810808862926" lon="10.843240589482669"><ele>94.66666666666667</ele><time>2026-04-17T12:22:30.001Z</time></trkpt><trkpt lat="43.90813136812505" lon="10.842968773469124"><ele>94.33333333333333</ele><time>2026-04-17T12:22:31.001Z</time></trkpt><trkpt lat="43.9081547356857" lon="10.84269592919327"><ele>94.0</ele><time>2026-04-17T12:22:32.001Z</time></trkpt><trkpt lat="43.908179245452715" lon="10.84240974829911"><ele>93.33333333333333</ele><time>2026-04-17T12:22:33.001Z</time></trkpt><trkpt lat="43.908204143895695" lon="10.842119029135333"><ele>92.66666666666667</ele><time>2026-04-17T12:22:34.001Z</time></trkpt><trkpt lat="43.90822647659623" lon="10.841843323541129"><ele>92.0</ele><time>2026-04-17T12:22:35.001Z</time></trkpt><trkpt lat="43.908245575495066" lon="10.841584820785409"><ele>91.0</ele><time>2026-04-17T12:22:36.001Z</time></trkpt><trkpt lat="43.9082632799578" lon="10.841345191244235"><ele>90.0</ele><time>2026-04-17T12:22:37.001Z</time></trkpt><trkpt lat="43.90825657537146" lon="10.841135309329188"><ele>89.0</ele><time>2026-04-17T12:22:38.001Z</time></trkpt><trkpt lat="43.908256099273075" lon="10.840942767700396"><ele>88.75</ele><time>2026-04-17T12:22:39.001Z</time></trkpt><trkpt lat="43.90824456775232" lon="10.84075869096978"><ele>88.5</ele><time>2026-04-17T12:22:40.001Z</time></trkpt><trkpt lat="43.908222202289046" lon="10.840575450077525"><ele>88.25</ele><time>2026-04-17T12:22:41.001Z</time></trkpt><trkpt lat="43.908190565499716" lon="10.840400029080133"><ele>88.0</ele><time>2026-04-17T12:22:42.001Z</time></trkpt><trkpt lat="43.908145605650596" lon="10.840218275232491"><ele>89.0</ele><time>2026-04-17T12:22:43.001Z</time></trkpt><trkpt lat="43.908087597497406" lon="10.840020799163666"><ele>90.0</ele><time>2026-04-17T12:22:44.001Z</time></trkpt><trkpt lat="43.90801206206396" lon="10.839811218055795"><ele>91.0</ele><time>2026-04-17T12:22:45.001Z</time></trkpt><trkpt lat="43.907923138141534" lon="10.839607912154532"><ele>91.0</ele><time>2026-04-17T12:22:46.001Z</time></trkpt><trkpt lat="43.90781790384055" lon="10.839417859561086"><ele>91.0</ele><time>2026-04-17T12:22:47.001Z</time></trkpt><trkpt lat="43.907698563312756" lon="10.83922938568976"><ele>91.0</ele><time>2026-04-17T12:22:48.001Z</time></trkpt><trkpt lat="43.907568951392655" lon="10.839064644222686"><ele>94.33333333333333</ele><time>2026-04-17T12:22:49.001Z</time></trkpt><trkpt lat="43.90742551266512" lon="10.83891669916492"><ele>97.66666666666666</ele><time>2026-04-17T12:22:50.001Z</time></trkpt><trkpt lat="43.907272735955026" lon="10.838777190012934"><ele>101.0</ele><time>2026-04-17T12:22:51.001Z</time></trkpt><trkpt lat="43.90712073679783" lon="10.838645674103896"><ele>101.0</ele><time>2026-04-17T12:22:52.001Z</time></trkpt><trkpt lat="43.90696937176068" lon="10.838498646038168"><ele>101.0</ele><time>2026-04-17T12:22:53.001Z</time></trkpt><trkpt lat="43.906817175933334" lon="10.838346458119117"><ele>101.0</ele><time>2026-04-17T12:22:54.001Z</time></trkpt><trkpt lat="43.90666912607485" lon="10.83820237186968"><ele>103.66666666666666</ele><time>2026-04-17T12:22:55.001Z</time></trkpt><trkpt lat="43.90651725745169" lon="10.838055865284272"><ele>106.33333333333334</ele><time>2026-04-17T12:22:56.001Z</time></trkpt><trkpt lat="43.906364008960495" lon="10.837909662682733"><ele>109.0</ele><time>2026-04-17T12:22:57.001Z</time></trkpt><trkpt lat="43.90621453098738" lon="10.837763600066157"><ele>112.0</ele><time>2026-04-17T12:22:58.001Z</time></trkpt><trkpt lat="43.9060671505351" lon="10.837616143236046"><ele>115.0</ele><time>2026-04-17T12:22:59.001Z</time></trkpt><trkpt lat="43.905925082008594" lon="10.837467303386601"><ele>118.0</ele><time>2026-04-17T12:23:00.001Z</time></trkpt><trkpt lat="43.90578971876897" lon="10.837311744454118"><ele>118.0</ele><time>2026-04-17T12:23:01.001Z</time></trkpt><trkpt lat="43.9056711568981" lon="10.83713472925341"><ele>118.0</ele><time>2026-04-17T12:23:02.001Z</time></trkpt><trkpt lat="43.9055407377375" lon="10.836995028170882"><ele>118.0</ele><time>2026-04-17T12:23:03.001Z</time></trkpt><trkpt lat="43.90543005357629" lon="10.836844067075111"><ele>122.25</ele><time>2026-04-17T12:23:04.001Z</time></trkpt><trkpt lat="43.90532938005904" lon="10.83669302118772"><ele>126.5</ele><time>2026-04-17T12:23:05.001Z</time></trkpt><trkpt lat="43.90523833196747" lon="10.836545628786116"><ele>130.75</ele><time>2026-04-17T12:23:06.001Z</time></trkpt><trkpt lat="43.90516509531895" lon="10.83643326156261"><ele>135.0</ele><time>2026-04-17T12:23:07.001Z</time></trkpt><trkpt lat="43.90510829708263" lon="10.836342262553233"><ele>135.4</ele><time>2026-04-17T12:23:08.001Z</time></trkpt><trkpt lat="43.90506054405406" lon="10.83625669154172"><ele>135.8</ele><time>2026-04-17T12:23:09.001Z</time></trkpt><trkpt lat="43.90501246190627" lon="10.836172369836653"><ele>136.2</ele><time>2026-04-17T12:23:10.001Z</time></trkpt><trkpt lat="43.90495192912373" lon="10.836076522079145"><ele>136.6</ele><time>2026-04-17T12:23:11.001Z</time></trkpt><trkpt lat="43.904881631697315" lon="10.835969125820522"><ele>137.0</ele><time>2026-04-17T12:23:12.001Z</time></trkpt><trkpt lat="43.90480212216084" lon="10.835846390813792"><ele>137.0</ele><time>2026-04-17T12:23:13.001Z</time></trkpt><trkpt lat="43.90472019454055" lon="10.83570661771306"><ele>137.0</ele><time>2026-04-17T12:23:14.001Z</time></trkpt><trkpt lat="43.90463313353703" lon="10.83555186919925"><ele>137.0</ele><time>2026-04-17T12:23:15.001Z</time></trkpt><trkpt lat="43.90453455978621" lon="10.835382621919539"><ele>137.0</ele><time>2026-04-17T12:23:16.001Z</time></trkpt><trkpt lat="43.90442295801692" lon="10.835214829480565"><ele>137.0</ele><time>2026-04-17T12:23:17.001Z</time></trkpt><trkpt lat="43.904330331089625" lon="10.835055721933426"><ele>137.0</ele><time>2026-04-17T12:23:18.001Z</time></trkpt><trkpt lat="43.90423725222949" lon="10.834909108547981"><ele>137.0</ele><time>2026-04-17T12:23:19.001Z</time></trkpt><trkpt lat="43.904149685457384" lon="10.834769530042202"><ele>137.0</ele><time>2026-04-17T12:23:20.001Z</time></trkpt><trkpt lat="43.90406490175612" lon="10.834621227704726"><ele>137.0</ele><time>2026-04-17T12:23:21.001Z</time></trkpt><trkpt lat="43.903967062757765" lon="10.834466567810088"><ele>137.0</ele><time>2026-04-17T12:23:22.001Z</time></trkpt><trkpt lat="43.903867162984305" lon="10.834298610841925"><ele>137.0</ele><time>2026-04-17T12:23:23.001Z</time></trkpt><trkpt lat="43.90375927298409" lon="10.834110021066646"><ele>137.0</ele><time>2026-04-17T12:23:24.001Z</time></trkpt><trkpt lat="43.90364443680618" lon="10.833906277406076"><ele>137.0</ele><time>2026-04-17T12:23:25.001Z</time></trkpt><trkpt lat="43.903526328409825" lon="10.833688864875672"><ele>137.0</ele><time>2026-04-17T12:23:26.001Z</time></trkpt><trkpt lat="43.90340654909418" lon="10.833475162763115"><ele>133.33333333333331</ele><time>2026-04-17T12:23:27.001Z</time></trkpt><trkpt lat="43.903290602179744" lon="10.83326467199606"><ele>129.66666666666666</ele><time>2026-04-17T12:23:28.001Z</time></trkpt><trkpt lat="43.903172886135806" lon="10.833062243313277"><ele>126.0</ele><time>2026-04-17T12:23:29.001Z</time></trkpt><trkpt lat="43.90306990866117" lon="10.832870876713466"><ele>126.0</ele><time>2026-04-17T12:23:30.001Z</time></trkpt><trkpt lat="43.90296961504728" lon="10.832687525008613"><ele>126.0</ele><time>2026-04-17T12:23:31.001Z</time></trkpt><trkpt lat="43.902872203725835" lon="10.832511407498997"><ele>126.0</ele><time>2026-04-17T12:23:32.001Z</time></trkpt><trkpt lat="43.90277616367739" lon="10.832335191084013"><ele>127.33333333333334</ele><time>2026-04-17T12:23:33.001Z</time></trkpt><trkpt lat="43.90268496042594" lon="10.832168646469865"><ele>128.66666666666669</ele><time>2026-04-17T12:23:34.001Z</time></trkpt><trkpt lat="43.90258878729512" lon="10.831999836310827"><ele>130.0</ele><time>2026-04-17T12:23:35.001Z</time></trkpt><trkpt lat="43.90249297273565" lon="10.831829359646731"><ele>126.33333333333334</ele><time>2026-04-17T12:23:36.001Z</time></trkpt><trkpt lat="43.90239851616395" lon="10.83165326211857"><ele>122.66666666666666</ele><time>2026-04-17T12:23:37.001Z</time></trkpt><trkpt lat="43.90231400315181" lon="10.831475193706726"><ele>119.0</ele><time>2026-04-17T12:23:38.001Z</time></trkpt><trkpt lat="43.902236284946206" lon="10.831283426823013"><ele>119.0</ele><time>2026-04-17T12:23:39.001Z</time></trkpt><trkpt lat="43.90217786642488" lon="10.831092154070221"><ele>119.0</ele><time>2026-04-17T12:23:40.001Z</time></trkpt><trkpt lat="43.90213905374768" lon="10.830911638614618"><ele>119.0</ele><time>2026-04-17T12:23:41.001Z</time></trkpt><trkpt lat="43.90211576555587" lon="10.830736998161735"><ele>119.0</ele><time>2026-04-17T12:23:42.001Z</time></trkpt><trkpt lat="43.90209571756087" lon="10.830572291358179"><ele>116.75</ele><time>2026-04-17T12:23:43.001Z</time></trkpt><trkpt lat="43.90208057666196" lon="10.830394265524806"><ele>114.5</ele><time>2026-04-17T12:23:44.001Z</time></trkpt><trkpt lat="43.90209296258616" lon="10.830208268671377"><ele>112.25</ele><time>2026-04-17T12:23:45.001Z</time></trkpt><trkpt lat="43.90212704552425" lon="10.83003361634051"><ele>110.0</ele><time>2026-04-17T12:23:46.001Z</time></trkpt><trkpt lat="43.902157937039284" lon="10.829865768045037"><ele>109.75</ele><time>2026-04-17T12:23:47.001Z</time></trkpt><trkpt lat="43.90217901850133" lon="10.829702815648677"><ele>109.5</ele><time>2026-04-17T12:23:48.001Z</time></trkpt><trkpt lat="43.90215831403881" lon="10.829553840855207"><ele>109.25</ele><time>2026-04-17T12:23:49.001Z</time></trkpt><trkpt lat="43.902125219867436" lon="10.829401961668497"><ele>109.0</ele><time>2026-04-17T12:23:50.001Z</time></trkpt><trkpt lat="43.90207984963015" lon="10.829255859384881"><ele>108.2</ele><time>2026-04-17T12:23:51.001Z</time></trkpt><trkpt lat="43.9020375304505" lon="10.829102707672655"><ele>107.4</ele><time>2026-04-17T12:23:52.001Z</time></trkpt><trkpt lat="43.9019990099002" lon="10.828941526622314"><ele>106.6</ele><time>2026-04-17T12:23:53.001Z</time></trkpt><trkpt lat="43.90193472533055" lon="10.828804571307959"><ele>105.8</ele><time>2026-04-17T12:23:54.001Z</time></trkpt><trkpt lat="43.90186299910705" lon="10.828728719585355"><ele>105.0</ele><time>2026-04-17T12:23:55.001Z</time></trkpt><trkpt lat="43.90178605227245" lon="10.828666979233489"><ele>105.33333333333333</ele><time>2026-04-17T12:23:56.001Z</time></trkpt><trkpt lat="43.901716387395524" lon="10.82862468281242"><ele>105.66666666666666</ele><time>2026-04-17T12:23:57.001Z</time></trkpt><trkpt lat="43.901658941982625" lon="10.828575720750278"><ele>106.0</ele><time>2026-04-17T12:23:58.001Z</time></trkpt><trkpt lat="43.901585460335106" lon="10.82842957602335"><ele>106.33333333333333</ele><time>2026-04-17T12:24:00.001Z</time></trkpt><trkpt lat="43.901575854603855" lon="10.828318316826849"><ele>106.66666666666666</ele><time>2026-04-17T12:24:01.001Z</time></trkpt><trkpt lat="43.9016037467" lon="10.828207709180939"><ele>107.0</ele><time>2026-04-17T12:24:02.001Z</time></trkpt><trkpt lat="43.90165446842457" lon="10.828109933662558"><ele>107.0</ele><time>2026-04-17T12:24:03.001Z</time></trkpt><trkpt lat="43.90172284036442" lon="10.82802246561827"><ele>106.99999999999999</ele><time>2026-04-17T12:24:04.001Z</time></trkpt><trkpt lat="43.90178818418326" lon="10.827921423377349"><ele>106.99999999999999</ele><time>2026-04-17T12:24:05.001Z</time></trkpt><trkpt lat="43.901839594958965" lon="10.827797502109284"><ele>107.0</ele><time>2026-04-17T12:24:06.001Z</time></trkpt><trkpt lat="43.901887601630804" lon="10.827668412758085"><ele>107.0</ele><time>2026-04-17T12:24:07.001Z</time></trkpt><trkpt lat="43.90194326785145" lon="10.827533104886744"><ele>104.49999999999999</ele><time>2026-04-17T12:24:08.001Z</time></trkpt><trkpt lat="43.9019845997968" lon="10.827403802114965"><ele>102.0</ele><time>2026-04-17T12:24:09.001Z</time></trkpt><trkpt lat="43.90200158842365" lon="10.827289112520301"><ele>99.5</ele><time>2026-04-17T12:24:10.001Z</time></trkpt><trkpt lat="43.90200363908166" lon="10.827178092305267"><ele>97.0</ele><time>2026-04-17T12:24:11.001Z</time></trkpt><trkpt lat="43.90199782965994" lon="10.827081936588115"><ele>94.5</ele><time>2026-04-17T12:24:12.001Z</time></trkpt><trkpt lat="43.901991509382036" lon="10.826992112712503"><ele>92.0</ele><time>2026-04-17T12:24:13.001Z</time></trkpt><trkpt lat="43.90198352533282" lon="10.826893464925877"><ele>91.0</ele><time>2026-04-17T12:24:14.001Z</time></trkpt><trkpt lat="43.901974881018646" lon="10.826788333973917"><ele>90.0</ele><time>2026-04-17T12:24:15.001Z</time></trkpt><trkpt lat="43.9019691479532" lon="10.826686410871135"><ele>89.0</ele><time>2026-04-17T12:24:16.001Z</time></trkpt><trkpt lat="43.90195340875013" lon="10.826542668119261"><ele>88.0</ele><time>2026-04-17T12:24:18.001Z</time></trkpt><trkpt lat="43.90194548640682" lon="10.826411565742182"><ele>87.0</ele><time>2026-04-17T12:24:20.001Z</time></trkpt><trkpt lat="43.90194023075558" lon="10.826245142793594"><ele>87.0</ele><time>2026-04-17T12:24:22.001Z</time></trkpt><trkpt lat="43.90192710819522" lon="10.826072189001701"><ele>87.0</ele><time>2026-04-17T12:24:24.001Z</time></trkpt><trkpt lat="43.90190738595258" lon="10.825977713139261"><ele>87.0</ele><time>2026-04-17T12:24:25.001Z</time></trkpt><trkpt lat="43.901867470033" lon="10.825892410671493"><ele>87.0</ele><time>2026-04-17T12:24:26.001Z</time></trkpt><trkpt lat="43.90182194792623" lon="10.825818723529729"><ele>87.0</ele><time>2026-04-17T12:24:27.001Z</time></trkpt><trkpt lat="43.90176631130839" lon="10.825758709241795"><ele>87.0</ele><time>2026-04-17T12:24:28.001Z</time></trkpt><trkpt lat="43.90169939972522" lon="10.825701710437038"><ele>86.33333333333333</ele><time>2026-04-17T12:24:29.001Z</time></trkpt><trkpt lat="43.90162379349352" lon="10.82566426113404"><ele>85.66666666666667</ele><time>2026-04-17T12:24:30.001Z</time></trkpt><trkpt lat="43.901544648111376" lon="10.825635663189708"><ele>85.0</ele><time>2026-04-17T12:24:31.001Z</time></trkpt><trkpt lat="43.90146930326808" lon="10.825609553072255"><ele>84.33333333333334</ele><time>2026-04-17T12:24:32.001Z</time></trkpt><trkpt lat="43.90139042698045" lon="10.825582392242955"><ele>83.66666666666667</ele><time>2026-04-17T12:24:33.001Z</time></trkpt><trkpt lat="43.901304156584665" lon="10.825566254251392"><ele>83.0</ele><time>2026-04-17T12:24:34.001Z</time></trkpt><trkpt lat="43.90121732028863" lon="10.825553169204774"><ele>83.0</ele><time>2026-04-17T12:24:35.001Z</time></trkpt><trkpt lat="43.90113029308111" lon="10.825535326724166"><ele>83.0</ele><time>2026-04-17T12:24:36.001Z</time></trkpt><trkpt lat="43.90104372453432" lon="10.825519923341114"><ele>83.0</ele><time>2026-04-17T12:24:37Z</time></trkpt><trkpt lat="43.9009562353173" lon="10.82550016545347"><ele>83.0</ele><time>2026-04-17T12:24:38Z</time></trkpt><trkpt lat="43.900885615911264" lon="10.825477246422235"><ele>83.0</ele><time>2026-04-17T12:24:39Z</time></trkpt><trkpt lat="43.90077670692079" lon="10.82541274618391"><ele>83.0</ele><time>2026-04-17T12:24:41Z</time></trkpt><trkpt lat="43.90069223083844" lon="10.825375502361059"><ele>83.0</ele><time>2026-04-17T12:24:43Z</time></trkpt><trkpt lat="43.90062644679429" lon="10.825373025377685"><ele>83.0</ele><time>2026-04-17T12:25:00.001Z</time></trkpt><trkpt lat="43.90056282479035" lon="10.825392764151768"><ele>83.0</ele><time>2026-04-17T12:25:02.001Z</time></trkpt><trkpt lat="43.90041871721868" lon="10.825436781052403"><ele>83.0</ele><time>2026-04-17T12:25:04.001Z</time></trkpt><trkpt lat="43.90033263802729" lon="10.825468603179925"><ele>83.0</ele><time>2026-04-17T12:25:05.001Z</time></trkpt><trkpt lat="43.90024636378646" lon="10.825490419123145"><ele>83.0</ele><time>2026-04-17T12:25:06.001Z</time></trkpt><trkpt lat="43.90015664911109" lon="10.825507023217243"><ele>83.0</ele><time>2026-04-17T12:25:07.001Z</time></trkpt><trkpt lat="43.90007189017989" lon="10.825523442906935"><ele>83.0</ele><time>2026-04-17T12:25:08.001Z</time></trkpt><trkpt lat="43.89998954265417" lon="10.825522940101074"><ele>83.0</ele><time>2026-04-17T12:25:09.001Z</time></trkpt><trkpt lat="43.8999225935455" lon="10.8255170514613"><ele>83.0</ele><time>2026-04-17T12:25:10.001Z</time></trkpt><trkpt lat="43.89983425596561" lon="10.82549880873533"><ele>82.33333333333334</ele><time>2026-04-17T12:25:12.001Z</time></trkpt><trkpt lat="43.899712239952954" lon="10.825479294768055"><ele>81.66666666666667</ele><time>2026-04-17T12:25:14Z</time></trkpt><trkpt lat="43.89964588773598" lon="10.825463033447987"><ele>81.0</ele><time>2026-04-17T12:25:15Z</time></trkpt><trkpt lat="43.899574922108165" lon="10.825445399458903"><ele>80.33333333333333</ele><time>2026-04-17T12:25:16Z</time></trkpt><trkpt lat="43.89950540273913" lon="10.82542798580386"><ele>79.66666666666666</ele><time>2026-04-17T12:25:17Z</time></trkpt><trkpt lat="43.89939551196446" lon="10.82539740169577"><ele>79.0</ele><time>2026-04-17T12:25:19Z</time></trkpt><trkpt lat="43.89931295949164" lon="10.825374553686924"><ele>78.66666666666666</ele><time>2026-04-17T12:25:21Z</time></trkpt><trkpt lat="43.89922485802114" lon="10.825320014065337"><ele>78.33333333333333</ele><time>2026-04-17T12:25:23Z</time></trkpt><trkpt lat="43.89914608224284" lon="10.825243710593517"><ele>78.0</ele><time>2026-04-17T12:25:25Z</time></trkpt><trkpt lat="43.899096500440415" lon="10.825187019664464"><ele>77.66666666666667</ele><time>2026-04-17T12:25:27Z</time></trkpt><trkpt lat="43.89904473788156" lon="10.825099795664464"><ele>77.33333333333334</ele><time>2026-04-17T12:25:30Z</time></trkpt><trkpt lat="43.89899482560342" lon="10.825005242393994"><ele>77.0</ele><time>2026-04-17T12:25:32Z</time></trkpt><trkpt lat="43.89895244258281" lon="10.824921509923213"><ele>74.0</ele><time>2026-04-17T12:25:34Z</time></trkpt><trkpt lat="43.89888997514596" lon="10.824853181773829"><ele>71.0</ele><time>2026-04-17T12:25:36Z</time></trkpt><trkpt lat="43.8988033428452" lon="10.824829370159243"><ele>68.0</ele><time>2026-04-17T12:25:38Z</time></trkpt><trkpt lat="43.898709228794104" lon="10.82482641388536"><ele>65.0</ele><time>2026-04-17T12:25:40Z</time></trkpt><trkpt lat="43.898614050794706" lon="10.824800381509004"><ele>62.0</ele><time>2026-04-17T12:25:42Z</time></trkpt><trkpt lat="43.89851670357787" lon="10.824759067023944"><ele>62.50000000000001</ele><time>2026-04-17T12:25:44Z</time></trkpt><trkpt lat="43.89841716283021" lon="10.824687219645533"><ele>63.0</ele><time>2026-04-17T12:25:46Z</time></trkpt><trkpt lat="43.89836242275838" lon="10.824643232350939"><ele>63.5</ele><time>2026-04-17T12:25:47Z</time></trkpt><trkpt lat="43.89830727356597" lon="10.824588738562156"><ele>64.0</ele><time>2026-04-17T12:25:48Z</time></trkpt><trkpt lat="43.89825053436215" lon="10.824526246628713"><ele>64.5</ele><time>2026-04-17T12:25:49Z</time></trkpt><trkpt lat="43.898205219442076" lon="10.824445834610486"><ele>65.0</ele><time>2026-04-17T12:25:50Z</time></trkpt><trkpt lat="43.8981723349958" lon="10.824358002360064"><ele>62.50000000000001</ele><time>2026-04-17T12:25:51Z</time></trkpt><trkpt lat="43.898143726098894" lon="10.824254898365302"><ele>60.0</ele><time>2026-04-17T12:25:52Z</time></trkpt><trkpt lat="43.89813074207183" lon="10.824146809563693"><ele>57.5</ele><time>2026-04-17T12:25:53Z</time></trkpt><trkpt lat="43.89812672104592" lon="10.824035817262255"><ele>55.0</ele><time>2026-04-17T12:25:54Z</time></trkpt><trkpt lat="43.89811111418142" lon="10.82391174650086"><ele>52.50000000000001</ele><time>2026-04-17T12:25:55Z</time></trkpt><trkpt lat="43.89811283764533" lon="10.823798666007045"><ele>50.0</ele><time>2026-04-17T12:25:56Z</time></trkpt><trkpt lat="43.89810565221272" lon="10.823684626318347"><ele>50.00000000000001</ele><time>2026-04-17T12:25:57Z</time></trkpt><trkpt lat="43.898098534862044" lon="10.823570088118348"><ele>50.0</ele><time>2026-04-17T12:25:58Z</time></trkpt><trkpt lat="43.89809404672724" lon="10.823452485439228"><ele>50.0</ele><time>2026-04-17T12:25:59Z</time></trkpt><trkpt lat="43.89808484443446" lon="10.82333798969094"><ele>50.0</ele><time>2026-04-17T12:26:00Z</time></trkpt><trkpt lat="43.898081017143916" lon="10.823224706308297"><ele>50.00000000000001</ele><time>2026-04-17T12:26:01Z</time></trkpt><trkpt lat="43.89807235717917" lon="10.823109437848519"><ele>50.0</ele><time>2026-04-17T12:26:02Z</time></trkpt><trkpt lat="43.898064735673444" lon="10.823000319778886"><ele>49.28571428571429</ele><time>2026-04-17T12:26:03Z</time></trkpt><trkpt lat="43.89805974492672" lon="10.82289742443128"><ele>48.57142857142857</ele><time>2026-04-17T12:26:04Z</time></trkpt><trkpt lat="43.89804277618684" lon="10.822812443050276"><ele>47.85714285714286</ele><time>2026-04-17T12:26:05Z</time></trkpt><trkpt lat="43.89801822214667" lon="10.822727833583338"><ele>47.142857142857146</ele><time>2026-04-17T12:26:06Z</time></trkpt><trkpt lat="43.89795591915967" lon="10.822662014978636"><ele>46.42857142857143</ele><time>2026-04-17T12:26:07Z</time></trkpt><trkpt lat="43.89788557158111" lon="10.82261034859907"><ele>45.714285714285715</ele><time>2026-04-17T12:26:08Z</time></trkpt><trkpt lat="43.89780519922758" lon="10.822576416884791"><ele>45.0</ele><time>2026-04-17T12:26:09Z</time></trkpt><trkpt lat="43.897721161631665" lon="10.822547775167846"><ele>45.0</ele><time>2026-04-17T12:26:10Z</time></trkpt><trkpt lat="43.89763731160398" lon="10.822514590888929"><ele>45.0</ele><time>2026-04-17T12:26:11Z</time></trkpt><trkpt lat="43.89755737519798" lon="10.822478311889645"><ele>45.0</ele><time>2026-04-17T12:26:12Z</time></trkpt><trkpt lat="43.89749465418126" lon="10.822452260716878"><ele>45.0</ele><time>2026-04-17T12:26:13Z</time></trkpt><trkpt lat="43.89743307186241" lon="10.822427051707683"><ele>45.0</ele><time>2026-04-17T12:26:14Z</time></trkpt><trkpt lat="43.897368375117544" lon="10.82239024223225"><ele>45.0</ele><time>2026-04-17T12:26:15Z</time></trkpt><trkpt lat="43.89729926336171" lon="10.822363551880319"><ele>45.0</ele><time>2026-04-17T12:26:16Z</time></trkpt><trkpt lat="43.89722689078491" lon="10.822326265722289"><ele>44.8</ele><time>2026-04-17T12:26:18Z</time></trkpt><trkpt lat="43.89713770520393" lon="10.822280835890492"><ele>44.6</ele><time>2026-04-17T12:26:21Z</time></trkpt><trkpt lat="43.89703343133711" lon="10.822225766634055"><ele>44.400000000000006</ele><time>2026-04-17T12:26:23Z</time></trkpt><trkpt lat="43.896954812505605" lon="10.822188332356566"><ele>44.2</ele><time>2026-04-17T12:26:25Z</time></trkpt><trkpt lat="43.896888172274075" lon="10.822157318131435"><ele>44.0</ele><time>2026-04-17T12:26:27Z</time></trkpt><trkpt lat="43.89677764656945" lon="10.822078601805016"><ele>43.6</ele><time>2026-04-17T12:26:29Z</time></trkpt><trkpt lat="43.896701985825516" lon="10.822055794496523"><ele>43.2</ele><time>2026-04-17T12:26:30Z</time></trkpt><trkpt lat="43.8965766150338" lon="10.821991610156543"><ele>42.800000000000004</ele><time>2026-04-17T12:26:32Z</time></trkpt><trkpt lat="43.89650501290039" lon="10.821956335983067"><ele>42.400000000000006</ele><time>2026-04-17T12:26:33Z</time></trkpt><trkpt lat="43.89640991093652" lon="10.821892804888837"><ele>42.0</ele><time>2026-04-17T12:26:35Z</time></trkpt><trkpt lat="43.89630961424785" lon="10.821830622618446"><ele>42.2</ele><time>2026-04-17T12:26:37Z</time></trkpt><trkpt lat="43.89624268030195" lon="10.821791047247014"><ele>42.400000000000006</ele><time>2026-04-17T12:26:38Z</time></trkpt><trkpt lat="43.896164805096234" lon="10.821744270275742"><ele>42.599999999999994</ele><time>2026-04-17T12:26:39Z</time></trkpt><trkpt lat="43.896074296102185" lon="10.82169243401029"><ele>42.8</ele><time>2026-04-17T12:26:40Z</time></trkpt><trkpt lat="43.8959856125773" lon="10.821637153429883"><ele>43.0</ele><time>2026-04-17T12:26:41Z</time></trkpt><trkpt lat="43.89589586491636" lon="10.821578175919743"><ele>42.599999999999994</ele><time>2026-04-17T12:26:42Z</time></trkpt><trkpt lat="43.89580672389168" lon="10.821521771328724"><ele>42.199999999999996</ele><time>2026-04-17T12:26:43Z</time></trkpt><trkpt lat="43.89571734066941" lon="10.821463539183465"><ele>41.8</ele><time>2026-04-17T12:26:44Z</time></trkpt><trkpt lat="43.89562150658072" lon="10.82139871807829"><ele>41.4</ele><time>2026-04-17T12:26:45Z</time></trkpt><trkpt lat="43.89552159953347" lon="10.821338139052427"><ele>41.0</ele><time>2026-04-17T12:26:46Z</time></trkpt><trkpt lat="43.89541889532615" lon="10.82127084648103"><ele>41.0</ele><time>2026-04-17T12:26:47Z</time></trkpt><trkpt lat="43.89531774301514" lon="10.821198326325497"><ele>41.0</ele><time>2026-04-17T12:26:48Z</time></trkpt><trkpt lat="43.89521529530134" lon="10.821127974341884"><ele>41.0</ele><time>2026-04-17T12:26:49Z</time></trkpt><trkpt lat="43.89511607783744" lon="10.821050329098005"><ele>41.0</ele><time>2026-04-17T12:26:50Z</time></trkpt><trkpt lat="43.89500556242706" lon="10.820950399459036"><ele>40.75</ele><time>2026-04-17T12:26:51Z</time></trkpt><trkpt lat="43.894884147331645" lon="10.82083899903325"><ele>40.5</ele><time>2026-04-17T12:26:52Z</time></trkpt><trkpt lat="43.89476377622097" lon="10.820722854288558"><ele>40.25</ele><time>2026-04-17T12:26:53Z</time></trkpt><trkpt lat="43.89465137898798" lon="10.82061280120911"><ele>40.0</ele><time>2026-04-17T12:26:54Z</time></trkpt><trkpt lat="43.894536838444246" lon="10.820502297762001"><ele>40.0</ele><time>2026-04-17T12:26:55Z</time></trkpt><trkpt lat="43.894422871086284" lon="10.820390719622452"><ele>40.0</ele><time>2026-04-17T12:26:56Z</time></trkpt><trkpt lat="43.894310080278906" lon="10.820280399522808"><ele>40.0</ele><time>2026-04-17T12:26:57Z</time></trkpt><trkpt lat="43.89419628874507" lon="10.820166900851037"><ele>40.0</ele><time>2026-04-17T12:26:58Z</time></trkpt><trkpt lat="43.89408091149586" lon="10.820052226330647"><ele>40.25</ele><time>2026-04-17T12:26:59.001Z</time></trkpt><trkpt lat="43.89397303201833" lon="10.819945209481096"><ele>40.5</ele><time>2026-04-17T12:27:00.001Z</time></trkpt><trkpt lat="43.89386899867544" lon="10.819840606842405"><ele>40.75</ele><time>2026-04-17T12:27:01.001Z</time></trkpt><trkpt lat="43.8937679489993" lon="10.819740081540436"><ele>41.0</ele><time>2026-04-17T12:27:02.001Z</time></trkpt><trkpt lat="43.893667309321266" lon="10.819639468796174"><ele>41.0</ele><time>2026-04-17T12:27:03.001Z</time></trkpt><trkpt lat="43.89355928517618" lon="10.819534440545416"><ele>41.0</ele><time>2026-04-17T12:27:04.001Z</time></trkpt><trkpt lat="43.89344760964133" lon="10.81942137857965"><ele>41.0</ele><time>2026-04-17T12:27:05.001Z</time></trkpt><trkpt lat="43.893329353287065" lon="10.81930764710485"><ele>41.0</ele><time>2026-04-17T12:27:06.001Z</time></trkpt><trkpt lat="43.89320867078804" lon="10.81919063656531"><ele>41.5</ele><time>2026-04-17T12:27:07.001Z</time></trkpt><trkpt lat="43.8930895475247" lon="10.81906537151718"><ele>42.0</ele><time>2026-04-17T12:27:08.001Z</time></trkpt><trkpt lat="43.89297080245685" lon="10.818943387910954"><ele>42.5</ele><time>2026-04-17T12:27:09.001Z</time></trkpt><trkpt lat="43.892855042282825" lon="10.818826256919364"><ele>43.0</ele><time>2026-04-17T12:27:10.001Z</time></trkpt><trkpt lat="43.89274357650357" lon="10.818714292598388"><ele>43.0</ele><time>2026-04-17T12:27:11.001Z</time></trkpt><trkpt lat="43.89263265168616" lon="10.81860433561241"><ele>43.0</ele><time>2026-04-17T12:27:12.001Z</time></trkpt><trkpt lat="43.892521493481425" lon="10.81849342656545"><ele>43.0</ele><time>2026-04-17T12:27:13.001Z</time></trkpt><trkpt lat="43.89240883567182" lon="10.818379849512196"><ele>43.0</ele><time>2026-04-17T12:27:14.001Z</time></trkpt><trkpt lat="43.89229767516737" lon="10.818271881475587"><ele>42.5</ele><time>2026-04-17T12:27:15.001Z</time></trkpt><trkpt lat="43.89219047712695" lon="10.818165506713708"><ele>42.0</ele><time>2026-04-17T12:27:16.001Z</time></trkpt><trkpt lat="43.89208532475577" lon="10.818067563999865"><ele>41.5</ele><time>2026-04-17T12:27:17.001Z</time></trkpt><trkpt lat="43.89198546231791" lon="10.81797884347365"><ele>41.0</ele><time>2026-04-17T12:27:18.001Z</time></trkpt><trkpt lat="43.89188790087315" lon="10.81789357494286"><ele>41.0</ele><time>2026-04-17T12:27:19.001Z</time></trkpt><trkpt lat="43.89179296820782" lon="10.817817924146476"><ele>41.0</ele><time>2026-04-17T12:27:20.001Z</time></trkpt><trkpt lat="43.89169815764441" lon="10.817743347520498"><ele>41.0</ele><time>2026-04-17T12:27:21.001Z</time></trkpt><trkpt lat="43.89159629741259" lon="10.817670906833413"><ele>41.0</ele><time>2026-04-17T12:27:22.001Z</time></trkpt><trkpt lat="43.89149000780879" lon="10.817601258596758"><ele>40.75</ele><time>2026-04-17T12:27:23.001Z</time></trkpt><trkpt lat="43.891389210321485" lon="10.81753431830531"><ele>40.5</ele><time>2026-04-17T12:27:24.001Z</time></trkpt><trkpt lat="43.89129042398229" lon="10.817454465175677"><ele>40.25</ele><time>2026-04-17T12:27:25.001Z</time></trkpt><trkpt lat="43.89118919704196" lon="10.817363696961694"><ele>40.0</ele><time>2026-04-17T12:27:26Z</time></trkpt><trkpt lat="43.89108619019571" lon="10.81726188167326"><ele>40.0</ele><time>2026-04-17T12:27:27Z</time></trkpt><trkpt lat="43.890974712147155" lon="10.817138170320883"><ele>40.0</ele><time>2026-04-17T12:27:28Z</time></trkpt><trkpt lat="43.89085675911944" lon="10.816999380287587"><ele>40.0</ele><time>2026-04-17T12:27:29Z</time></trkpt><trkpt lat="43.890742330435124" lon="10.816846454421096"><ele>40.333333333333336</ele><time>2026-04-17T12:27:30Z</time></trkpt><trkpt lat="43.890631960566104" lon="10.816677633664419"><ele>40.666666666666664</ele><time>2026-04-17T12:27:31Z</time></trkpt><trkpt lat="43.89052581543958" lon="10.816504030229945"><ele>41.0</ele><time>2026-04-17T12:27:32Z</time></trkpt><trkpt lat="43.89042522411845" lon="10.816333377602446"><ele>41.0</ele><time>2026-04-17T12:27:33Z</time></trkpt><trkpt lat="43.89032448524083" lon="10.816166570612037"><ele>41.0</ele><time>2026-04-17T12:27:34Z</time></trkpt><trkpt lat="43.89022433598865" lon="10.81600362183304"><ele>41.0</ele><time>2026-04-17T12:27:35Z</time></trkpt><trkpt lat="43.89012928524769" lon="10.815838650757089"><ele>40.0</ele><time>2026-04-17T12:27:36Z</time></trkpt><trkpt lat="43.89003545658992" lon="10.815678361521886"><ele>39.0</ele><time>2026-04-17T12:27:37Z</time></trkpt><trkpt lat="43.88993673516109" lon="10.81552418941025"><ele>38.0</ele><time>2026-04-17T12:27:38Z</time></trkpt><trkpt lat="43.88983432234049" lon="10.815378117983283"><ele>37.0</ele><time>2026-04-17T12:27:39Z</time></trkpt><trkpt lat="43.88972566090411" lon="10.815234492574131"><ele>37.333333333333336</ele><time>2026-04-17T12:27:40Z</time></trkpt><trkpt lat="43.88961076071704" lon="10.815086953282918"><ele>37.666666666666664</ele><time>2026-04-17T12:27:41Z</time></trkpt><trkpt lat="43.88949059613302" lon="10.81493582079438"><ele>38.0</ele><time>2026-04-17T12:27:42Z</time></trkpt><trkpt lat="43.88936593731777" lon="10.814783144278982"><ele>38.666666666666664</ele><time>2026-04-17T12:27:43Z</time></trkpt><trkpt lat="43.88923746925152" lon="10.814625130050144"><ele>39.333333333333336</ele><time>2026-04-17T12:27:44Z</time></trkpt><trkpt lat="43.88910587878923" lon="10.814462617446889"><ele>40.0</ele><time>2026-04-17T12:27:45Z</time></trkpt><trkpt lat="43.888977347681646" lon="10.81430571567771"><ele>40.0</ele><time>2026-04-17T12:27:46Z</time></trkpt><trkpt lat="43.888856557549886" lon="10.814157125938063"><ele>40.0</ele><time>2026-04-17T12:27:47Z</time></trkpt><trkpt lat="43.88873856286428" lon="10.814007827824978"><ele>40.0</ele><time>2026-04-17T12:27:48Z</time></trkpt><trkpt lat="43.88862291482724" lon="10.813863743357658"><ele>40.0</ele><time>2026-04-17T12:27:49Z</time></trkpt><trkpt lat="43.888510447597035" lon="10.81372692738229"><ele>40.0</ele><time>2026-04-17T12:27:50Z</time></trkpt><trkpt lat="43.88839842087429" lon="10.813592393383965"><ele>40.0</ele><time>2026-04-17T12:27:51Z</time></trkpt><trkpt lat="43.88828388614437" lon="10.81345275391065"><ele>38.0</ele><time>2026-04-17T12:27:52Z</time></trkpt><trkpt lat="43.88816746156996" lon="10.813303628344363"><ele>36.0</ele><time>2026-04-17T12:27:53Z</time></trkpt><trkpt lat="43.88805176494046" lon="10.813148420028254"><ele>34.0</ele><time>2026-04-17T12:27:54Z</time></trkpt><trkpt lat="43.88793939811566" lon="10.812988937404418"><ele>34.0</ele><time>2026-04-17T12:27:55Z</time></trkpt><trkpt lat="43.887831862999" lon="10.812823075466948"><ele>34.0</ele><time>2026-04-17T12:27:56Z</time></trkpt><trkpt lat="43.88773441483493" lon="10.812661771580272"><ele>34.0</ele><time>2026-04-17T12:27:57Z</time></trkpt><trkpt lat="43.88763648242809" lon="10.812490903109486"><ele>33.66666666666667</ele><time>2026-04-17T12:27:58Z</time></trkpt><trkpt lat="43.887535048956586" lon="10.812309972330832"><ele>33.333333333333336</ele><time>2026-04-17T12:27:59Z</time></trkpt><trkpt lat="43.88743296826529" lon="10.81212487789795"><ele>33.0</ele><time>2026-04-17T12:28:00Z</time></trkpt><trkpt lat="43.8873324584136" lon="10.811943629247935"><ele>34.0</ele><time>2026-04-17T12:28:01Z</time></trkpt><trkpt lat="43.887234482768704" lon="10.81177299545892"><ele>35.0</ele><time>2026-04-17T12:28:02Z</time></trkpt><trkpt lat="43.887151524442956" lon="10.811595353707112"><ele>36.0</ele><time>2026-04-17T12:28:03Z</time></trkpt><trkpt lat="43.88702842453343" lon="10.811465701542492"><ele>36.0</ele><time>2026-04-17T12:28:04Z</time></trkpt><trkpt lat="43.886924300890634" lon="10.811318376175999"><ele>36.0</ele><time>2026-04-17T12:28:05Z</time></trkpt><trkpt lat="43.88682261990796" lon="10.811174790825168"><ele>36.0</ele><time>2026-04-17T12:28:06Z</time></trkpt><trkpt lat="43.88671385510649" lon="10.811025309089338"><ele>36.0</ele><time>2026-04-17T12:28:07Z</time></trkpt><trkpt lat="43.88659518530228" lon="10.81087913403705"><ele>35.333333333333336</ele><time>2026-04-17T12:28:08Z</time></trkpt><trkpt lat="43.886462861002634" lon="10.810739442622673"><ele>34.66666666666667</ele><time>2026-04-17T12:28:09Z</time></trkpt><trkpt lat="43.88631958580609" lon="10.81060803549565"><ele>34.0</ele><time>2026-04-17T12:28:10Z</time></trkpt><trkpt lat="43.88616742144875" lon="10.810484375286842"><ele>34.0</ele><time>2026-04-17T12:28:11Z</time></trkpt><trkpt lat="43.886010165504715" lon="10.810375137564002"><ele>34.0</ele><time>2026-04-17T12:28:12Z</time></trkpt><trkpt lat="43.88585379024187" lon="10.810278529174418"><ele>34.0</ele><time>2026-04-17T12:28:13Z</time></trkpt><trkpt lat="43.88569893345152" lon="10.81019892258645"><ele>34.25</ele><time>2026-04-17T12:28:14Z</time></trkpt><trkpt lat="43.88555570913971" lon="10.81014160665914"><ele>34.5</ele><time>2026-04-17T12:28:15Z</time></trkpt><trkpt lat="43.88542957247913" lon="10.810096928362439"><ele>34.75</ele><time>2026-04-17T12:28:16Z</time></trkpt><trkpt lat="43.88530403328453" lon="10.810054473306819"><ele>35.0</ele><time>2026-04-17T12:28:17Z</time></trkpt><trkpt lat="43.88518281901819" lon="10.810011776699293"><ele>33.5</ele><time>2026-04-17T12:28:18Z</time></trkpt><trkpt lat="43.885061030230474" lon="10.809969290400586"><ele>32.0</ele><time>2026-04-17T12:28:19Z</time></trkpt><trkpt lat="43.884934538824695" lon="10.809924461406588"><ele>30.5</ele><time>2026-04-17T12:28:20Z</time></trkpt><trkpt lat="43.884809491824406" lon="10.809878365921774"><ele>29.0</ele><time>2026-04-17T12:28:21Z</time></trkpt><trkpt lat="43.88468782596" lon="10.809829131663811"><ele>29.0</ele><time>2026-04-17T12:28:22Z</time></trkpt><trkpt lat="43.88457357786747" lon="10.809775949932654"><ele>29.0</ele><time>2026-04-17T12:28:23Z</time></trkpt><trkpt lat="43.88447194100884" lon="10.809716520022171"><ele>29.0</ele><time>2026-04-17T12:28:24Z</time></trkpt><trkpt lat="43.88438958074551" lon="10.809663570740279"><ele>29.0</ele><time>2026-04-17T12:28:25Z</time></trkpt><trkpt lat="43.88431854510763" lon="10.809612246218187"><ele>29.0</ele><time>2026-04-17T12:28:26Z</time></trkpt><trkpt lat="43.88425962650069" lon="10.809564780024752"><ele>29.0</ele><time>2026-04-17T12:28:27Z</time></trkpt><trkpt lat="43.88406680766633" lon="10.80947513623634"><ele>29.0</ele><time>2026-04-17T12:28:28Z</time></trkpt><trkpt lat="43.883990566119564" lon="10.809424034239804"><ele>29.0</ele><time>2026-04-17T12:28:29Z</time></trkpt><trkpt lat="43.883922450184706" lon="10.80937884312028"><ele>29.0</ele><time>2026-04-17T12:28:30Z</time></trkpt><trkpt lat="43.88380599684117" lon="10.809293800451771"><ele>29.2</ele><time>2026-04-17T12:28:32Z</time></trkpt><trkpt lat="43.883732780344" lon="10.809245848052843"><ele>29.4</ele><time>2026-04-17T12:28:33Z</time></trkpt><trkpt lat="43.88365271218517" lon="10.809179944613904"><ele>29.6</ele><time>2026-04-17T12:28:34Z</time></trkpt><trkpt lat="43.8835668883152" lon="10.809092878229176"><ele>29.8</ele><time>2026-04-17T12:28:35Z</time></trkpt><trkpt lat="43.883466091647755" lon="10.808986220102412"><ele>30.0</ele><time>2026-04-17T12:28:36Z</time></trkpt><trkpt lat="43.88335297728605" lon="10.808862070420698"><ele>30.0</ele><time>2026-04-17T12:28:37Z</time></trkpt><trkpt lat="43.88324430606079" lon="10.808739279323913"><ele>30.0</ele><time>2026-04-17T12:28:38Z</time></trkpt><trkpt lat="43.883147141227504" lon="10.808626611556264"><ele>30.0</ele><time>2026-04-17T12:28:39Z</time></trkpt><trkpt lat="43.88305232181536" lon="10.808512561363145"><ele>30.0</ele><time>2026-04-17T12:28:40Z</time></trkpt><trkpt lat="43.882964551251575" lon="10.808389479481322"><ele>30.75</ele><time>2026-04-17T12:28:41Z</time></trkpt><trkpt lat="43.88288146354736" lon="10.808272712651814"><ele>31.5</ele><time>2026-04-17T12:28:42Z</time></trkpt><trkpt lat="43.88279960275075" lon="10.808141913829688"><ele>32.25</ele><time>2026-04-17T12:28:43Z</time></trkpt><trkpt lat="43.8827173669537" lon="10.80797480797597"><ele>33.0</ele><time>2026-04-17T12:28:44Z</time></trkpt><trkpt lat="43.8826439094238" lon="10.807794429389903"><ele>32.666666666666664</ele><time>2026-04-17T12:28:45Z</time></trkpt><trkpt lat="43.882568069030135" lon="10.807606864405255"><ele>32.33333333333333</ele><time>2026-04-17T12:28:46Z</time></trkpt><trkpt lat="43.882504922116425" lon="10.807418505602806"><ele>32.0</ele><time>2026-04-17T12:28:47Z</time></trkpt><trkpt lat="43.88244727302712" lon="10.807225443458838"><ele>32.0</ele><time>2026-04-17T12:28:48Z</time></trkpt><trkpt lat="43.88239415750118" lon="10.80702825482675"><ele>32.0</ele><time>2026-04-17T12:28:49Z</time></trkpt><trkpt lat="43.88235862694133" lon="10.806830808218441"><ele>32.0</ele><time>2026-04-17T12:28:50Z</time></trkpt><trkpt lat="43.88231902607962" lon="10.80662669016448"><ele>31.0</ele><time>2026-04-17T12:28:51Z</time></trkpt><trkpt lat="43.88227964025743" lon="10.806420270723184"><ele>30.0</ele><time>2026-04-17T12:28:52Z</time></trkpt><trkpt lat="43.88224818595603" lon="10.80621332190283"><ele>29.0</ele><time>2026-04-17T12:28:53Z</time></trkpt><trkpt lat="43.882226259458285" lon="10.80600553204563"><ele>29.0</ele><time>2026-04-17T12:28:54Z</time></trkpt><trkpt lat="43.88221247096279" lon="10.805792030933294"><ele>29.0</ele><time>2026-04-17T12:28:55Z</time></trkpt><trkpt lat="43.88220845746042" lon="10.805578463006443"><ele>29.0</ele><time>2026-04-17T12:28:56Z</time></trkpt><trkpt lat="43.88220940749109" lon="10.805367305348296"><ele>28.75</ele><time>2026-04-17T12:28:57Z</time></trkpt><trkpt lat="43.882214521362734" lon="10.805158505141335"><ele>28.5</ele><time>2026-04-17T12:28:58Z</time></trkpt><trkpt lat="43.882230056644055" lon="10.804941452290826"><ele>28.25</ele><time>2026-04-17T12:28:59Z</time></trkpt><trkpt lat="43.88224101899124" lon="10.804750449654218"><ele>28.0</ele><time>2026-04-17T12:29:00Z</time></trkpt><trkpt lat="43.88225565253111" lon="10.804553111224223"><ele>28.0</ele><time>2026-04-17T12:29:01Z</time></trkpt><trkpt lat="43.88227511125533" lon="10.80434634827813"><ele>28.0</ele><time>2026-04-17T12:29:02Z</time></trkpt><trkpt lat="43.8822823405037" lon="10.8041376786706"><ele>28.0</ele><time>2026-04-17T12:29:03Z</time></trkpt><trkpt lat="43.882268377027984" lon="10.803929584383555"><ele>27.666666666666668</ele><time>2026-04-17T12:29:04Z</time></trkpt><trkpt lat="43.882234655261485" lon="10.803716643090594"><ele>27.333333333333336</ele><time>2026-04-17T12:29:05Z</time></trkpt><trkpt lat="43.88218350005349" lon="10.80350755637485"><ele>27.0</ele><time>2026-04-17T12:29:06Z</time></trkpt><trkpt lat="43.88212527980248" lon="10.803299790162567"><ele>27.0</ele><time>2026-04-17T12:29:07Z</time></trkpt><trkpt lat="43.8820713300069" lon="10.803100451537842"><ele>27.0</ele><time>2026-04-17T12:29:08Z</time></trkpt><trkpt lat="43.88202642276309" lon="10.80290147544408"><ele>27.0</ele><time>2026-04-17T12:29:09Z</time></trkpt><trkpt lat="43.8819842081797" lon="10.802704919047343"><ele>26.75</ele><time>2026-04-17T12:29:10Z</time></trkpt><trkpt lat="43.881940666037885" lon="10.802509045487183"><ele>26.5</ele><time>2026-04-17T12:29:11Z</time></trkpt><trkpt lat="43.88189436213413" lon="10.802315691852744"><ele>26.25</ele><time>2026-04-17T12:29:12.001Z</time></trkpt><trkpt lat="43.88184896055145" lon="10.802123291987092"><ele>26.0</ele><time>2026-04-17T12:29:13.001Z</time></trkpt><trkpt lat="43.88180591131384" lon="10.801937341617265"><ele>26.5</ele><time>2026-04-17T12:29:14.001Z</time></trkpt><trkpt lat="43.88176359628112" lon="10.801765836354187"><ele>27.0</ele><time>2026-04-17T12:29:15.001Z</time></trkpt><trkpt lat="43.881724978748984" lon="10.801600401216282"><ele>27.5</ele><time>2026-04-17T12:29:16.001Z</time></trkpt><trkpt lat="43.88169062387555" lon="10.801438055383946"><ele>28.0</ele><time>2026-04-17T12:29:17.001Z</time></trkpt><trkpt lat="43.88165540103488" lon="10.801275306676649"><ele>28.0</ele><time>2026-04-17T12:29:18.001Z</time></trkpt><trkpt lat="43.8816199227651" lon="10.801120676306505"><ele>27.999999999999996</ele><time>2026-04-17T12:29:19.001Z</time></trkpt><trkpt lat="43.881584691601375" lon="10.80097599173515"><ele>27.999999999999996</ele><time>2026-04-17T12:29:20.001Z</time></trkpt><trkpt lat="43.88154386420753" lon="10.800848483924007"><ele>28.0</ele><time>2026-04-17T12:29:21.001Z</time></trkpt><trkpt lat="43.88150904880666" lon="10.800758561766072"><ele>28.0</ele><time>2026-04-17T12:29:22.001Z</time></trkpt><trkpt lat="43.8814722448402" lon="10.800679655606979"><ele>28.2</ele><time>2026-04-17T12:29:23.001Z</time></trkpt><trkpt lat="43.881443534181216" lon="10.800596997358838"><ele>28.4</ele><time>2026-04-17T12:29:24.001Z</time></trkpt><trkpt lat="43.88141214212338" lon="10.800441308227787"><ele>28.599999999999998</ele><time>2026-04-17T12:29:26.001Z</time></trkpt><trkpt lat="43.88140093213349" lon="10.800309685960244"><ele>28.799999999999997</ele><time>2026-04-17T12:29:28.001Z</time></trkpt><trkpt lat="43.88138629338954" lon="10.800182806684676"><ele>29.0</ele><time>2026-04-17T12:29:31Z</time></trkpt><trkpt lat="43.881385264226026" lon="10.800024201242431"><ele>28.999999999999996</ele><time>2026-04-17T12:29:33Z</time></trkpt><trkpt lat="43.88138504671187" lon="10.799927461950757"><ele>29.0</ele><time>2026-04-17T12:29:34Z</time></trkpt><trkpt lat="43.88136990906875" lon="10.79983863266841"><ele>29.0</ele><time>2026-04-17T12:29:35Z</time></trkpt><trkpt lat="43.88127663056952" lon="10.799693748191213"><ele>29.0</ele><time>2026-04-17T12:29:37Z</time></trkpt><trkpt lat="43.8812391180024" lon="10.799607911414732"><ele>28.999999999999996</ele><time>2026-04-17T12:29:38Z</time></trkpt><trkpt lat="43.88122068327802" lon="10.79951904629926"><ele>29.0</ele><time>2026-04-17T12:29:39Z</time></trkpt><trkpt lat="43.88119538947451" lon="10.799400985336696"><ele>29.0</ele><time>2026-04-17T12:29:41Z</time></trkpt><trkpt lat="43.881112143670634" lon="10.799343975018576"><ele>29.0</ele><time>2026-04-17T12:29:43Z</time></trkpt><trkpt lat="43.880998725859996" lon="10.799415142434537"><ele>29.0</ele><time>2026-04-17T12:29:45Z</time></trkpt><trkpt lat="43.88094322374985" lon="10.799490540357136"><ele>29.0</ele><time>2026-04-17T12:29:46Z</time></trkpt><trkpt lat="43.88087863773032" lon="10.799578007279747"><ele>29.0</ele><time>2026-04-17T12:29:47Z</time></trkpt><trkpt lat="43.88077967603935" lon="10.799668857893906"><ele>28.75</ele><time>2026-04-17T12:29:48Z</time></trkpt><trkpt lat="43.88065257851528" lon="10.799754911356715"><ele>28.5</ele><time>2026-04-17T12:29:49Z</time></trkpt><trkpt lat="43.880528296218976" lon="10.79982689713514"><ele>28.25</ele><time>2026-04-17T12:29:50Z</time></trkpt><trkpt lat="43.8804164658765" lon="10.799894443973635"><ele>28.0</ele><time>2026-04-17T12:29:51Z</time></trkpt><trkpt lat="43.88030863386182" lon="10.799960760667297"><ele>28.0</ele><time>2026-04-17T12:29:52Z</time></trkpt><trkpt lat="43.88019179373545" lon="10.80000647510125"><ele>28.0</ele><time>2026-04-17T12:29:53Z</time></trkpt><trkpt lat="43.88007396461911" lon="10.80001479162861"><ele>28.0</ele><time>2026-04-17T12:29:54Z</time></trkpt><trkpt lat="43.87996432068722" lon="10.799989614523588"><ele>28.0</ele><time>2026-04-17T12:29:55Z</time></trkpt><trkpt lat="43.87986906044452" lon="10.79993178766647"><ele>27.5</ele><time>2026-04-17T12:29:56Z</time></trkpt><trkpt lat="43.879783999808765" lon="10.799846282559225"><ele>27.0</ele><time>2026-04-17T12:29:57Z</time></trkpt><trkpt lat="43.879705806663175" lon="10.799732903929742"><ele>26.5</ele><time>2026-04-17T12:29:58Z</time></trkpt><trkpt lat="43.879640967710515" lon="10.799594595634415"><ele>26.0</ele><time>2026-04-17T12:29:59Z</time></trkpt><trkpt lat="43.87958900081903" lon="10.79944271454663"><ele>26.0</ele><time>2026-04-17T12:30:00Z</time></trkpt><trkpt lat="43.87954375414841" lon="10.79928541498907"><ele>26.0</ele><time>2026-04-17T12:30:01Z</time></trkpt><trkpt lat="43.87950598737103" lon="10.799143333500428"><ele>26.0</ele><time>2026-04-17T12:30:02Z</time></trkpt><trkpt lat="43.87947130800979" lon="10.79901542258125"><ele>26.0</ele><time>2026-04-17T12:30:03Z</time></trkpt><trkpt lat="43.879430135349715" lon="10.798881423639182"><ele>26.0</ele><time>2026-04-17T12:30:04Z</time></trkpt><trkpt lat="43.879387328915186" lon="10.798737870582787"><ele>26.0</ele><time>2026-04-17T12:30:05Z</time></trkpt><trkpt lat="43.87931238772581" lon="10.798615001792447"><ele>26.0</ele><time>2026-04-17T12:30:06Z</time></trkpt><trkpt lat="43.879243524995616" lon="10.798509559610517"><ele>26.0</ele><time>2026-04-17T12:30:07Z</time></trkpt><trkpt lat="43.87916677593986" lon="10.798424941049428"><ele>26.0</ele><time>2026-04-17T12:30:08Z</time></trkpt><trkpt lat="43.87907822622351" lon="10.798370364596053"><ele>26.0</ele><time>2026-04-17T12:30:09Z</time></trkpt><trkpt lat="43.87897735556306" lon="10.798324068931562"><ele>25.75</ele><time>2026-04-17T12:30:10Z</time></trkpt><trkpt lat="43.878866532562554" lon="10.798299221170469"><ele>25.5</ele><time>2026-04-17T12:30:11Z</time></trkpt><trkpt lat="43.87875150368145" lon="10.798292983636113"><ele>25.25</ele><time>2026-04-17T12:30:12Z</time></trkpt><trkpt lat="43.87863399108758" lon="10.798299825210234"><ele>25.0</ele><time>2026-04-17T12:30:13Z</time></trkpt><trkpt lat="43.878523257604215" lon="10.79830771254622"><ele>24.500000000000004</ele><time>2026-04-17T12:30:14Z</time></trkpt><trkpt lat="43.87841239097473" lon="10.798314211105035"><ele>24.0</ele><time>2026-04-17T12:30:15Z</time></trkpt><trkpt lat="43.87831372779227" lon="10.798317369560642"><ele>23.5</ele><time>2026-04-17T12:30:16Z</time></trkpt><trkpt lat="43.87822523122497" lon="10.798320845105447"><ele>23.0</ele><time>2026-04-17T12:30:17Z</time></trkpt><trkpt lat="43.87814956217208" lon="10.79833351550764"><ele>22.5</ele><time>2026-04-17T12:30:18Z</time></trkpt><trkpt lat="43.87808236242052" lon="10.798348276350632"><ele>22.0</ele><time>2026-04-17T12:30:19Z</time></trkpt><trkpt lat="43.877967348528976" lon="10.79838245307171"><ele>22.0</ele><time>2026-04-17T12:30:21Z</time></trkpt><trkpt lat="43.87786146138679" lon="10.798419865846128"><ele>22.0</ele><time>2026-04-17T12:30:23Z</time></trkpt><trkpt lat="43.87777172054367" lon="10.798446817522981"><ele>22.0</ele><time>2026-04-17T12:30:25Z</time></trkpt><trkpt lat="43.87770055681977" lon="10.79844656715106"><ele>22.0</ele><time>2026-04-17T12:30:27Z</time></trkpt><trkpt lat="43.877614284549296" lon="10.798407741571824"><ele>22.0</ele><time>2026-04-17T12:30:29Z</time></trkpt><trkpt lat="43.87753238549239" lon="10.7982861957915"><ele>22.0</ele><time>2026-04-17T12:30:31Z</time></trkpt><trkpt lat="43.87752165403943" lon="10.798095006504074"><ele>22.0</ele><time>2026-04-17T12:30:33Z</time></trkpt><trkpt lat="43.87757517896989" lon="10.798008981494954"><ele>22.0</ele><time>2026-04-17T12:30:34Z</time></trkpt><trkpt lat="43.877598666668874" lon="10.797905743046739"><ele>22.0</ele><time>2026-04-17T12:30:35Z</time></trkpt><trkpt lat="43.87764458921773" lon="10.797799232065032"><ele>22.0</ele><time>2026-04-17T12:30:36Z</time></trkpt><trkpt lat="43.87769771868189" lon="10.797659293609767"><ele>22.0</ele><time>2026-04-17T12:30:37Z</time></trkpt><trkpt lat="43.877747593332145" lon="10.797513026084085"><ele>22.0</ele><time>2026-04-17T12:30:38Z</time></trkpt><trkpt lat="43.87778975691356" lon="10.797388407552841"><ele>22.0</ele><time>2026-04-17T12:30:39Z</time></trkpt><trkpt lat="43.877834719649606" lon="10.79727140636533"><ele>22.0</ele><time>2026-04-17T12:30:40Z</time></trkpt><trkpt lat="43.87788074523948" lon="10.797160397904179"><ele>22.0</ele><time>2026-04-17T12:30:41Z</time></trkpt><trkpt lat="43.87792627624055" lon="10.797038844573866"><ele>22.0</ele><time>2026-04-17T12:30:42Z</time></trkpt><trkpt lat="43.87797547138623" lon="10.796907082113243"><ele>22.0</ele><time>2026-04-17T12:30:43Z</time></trkpt><trkpt lat="43.87802332305496" lon="10.796766887333467"><ele>22.0</ele><time>2026-04-17T12:30:44Z</time></trkpt><trkpt lat="43.87805897351307" lon="10.796614918754988"><ele>22.0</ele><time>2026-04-17T12:30:45Z</time></trkpt><trkpt lat="43.87808759524158" lon="10.796455578500517"><ele>22.5</ele><time>2026-04-17T12:30:46Z</time></trkpt><trkpt lat="43.87810451886762" lon="10.796283640377553"><ele>23.0</ele><time>2026-04-17T12:30:47Z</time></trkpt><trkpt lat="43.87810819726575" lon="10.796103955651693"><ele>23.5</ele><time>2026-04-17T12:30:48Z</time></trkpt><trkpt lat="43.87809982857386" lon="10.795927924975746"><ele>24.0</ele><time>2026-04-17T12:30:49Z</time></trkpt><trkpt lat="43.8780847424315" lon="10.7957524957872"><ele>24.666666666666664</ele><time>2026-04-17T12:30:50Z</time></trkpt><trkpt lat="43.878068664468174" lon="10.795556320853091"><ele>25.333333333333332</ele><time>2026-04-17T12:30:51Z</time></trkpt><trkpt lat="43.878055331211016" lon="10.795340742129287"><ele>26.0</ele><time>2026-04-17T12:30:52Z</time></trkpt><trkpt lat="43.878042828407544" lon="10.795109345935407"><ele>26.0</ele><time>2026-04-17T12:30:53Z</time></trkpt><trkpt lat="43.87802964254711" lon="10.794876086723649"><ele>26.0</ele><time>2026-04-17T12:30:54Z</time></trkpt><trkpt lat="43.87801416085949" lon="10.794637864385944"><ele>26.0</ele><time>2026-04-17T12:30:55Z</time></trkpt><trkpt lat="43.87799787028893" lon="10.79440491408917"><ele>26.25</ele><time>2026-04-17T12:30:56Z</time></trkpt><trkpt lat="43.87797979532069" lon="10.79418916034541"><ele>26.5</ele><time>2026-04-17T12:30:57Z</time></trkpt><trkpt lat="43.877966963188555" lon="10.793980482942407"><ele>26.75</ele><time>2026-04-17T12:30:58Z</time></trkpt><trkpt lat="43.877953845347555" lon="10.793786109119004"><ele>27.0</ele><time>2026-04-17T12:30:59Z</time></trkpt><trkpt lat="43.87794491402504" lon="10.79361995559817"><ele>27.0</ele><time>2026-04-17T12:31:00Z</time></trkpt><trkpt lat="43.877932737467994" lon="10.793453286176172"><ele>27.0</ele><time>2026-04-17T12:31:01Z</time></trkpt><trkpt lat="43.87792044435767" lon="10.793296219693664"><ele>27.0</ele><time>2026-04-17T12:31:02Z</time></trkpt><trkpt lat="43.877910630297265" lon="10.793148897477067"><ele>27.0</ele><time>2026-04-17T12:31:03Z</time></trkpt><trkpt lat="43.877899943639726" lon="10.792995025496866"><ele>27.0</ele><time>2026-04-17T12:31:04Z</time></trkpt><trkpt lat="43.87788656778317" lon="10.79283817722733"><ele>27.000000000000004</ele><time>2026-04-17T12:31:05Z</time></trkpt><trkpt lat="43.87787572614904" lon="10.792676735524601"><ele>27.000000000000004</ele><time>2026-04-17T12:31:06Z</time></trkpt><trkpt lat="43.87786604297872" lon="10.792523756950024"><ele>27.0</ele><time>2026-04-17T12:31:07Z</time></trkpt><trkpt lat="43.87785630421543" lon="10.792377771098112"><ele>27.0</ele><time>2026-04-17T12:31:08Z</time></trkpt><trkpt lat="43.877848664329676" lon="10.792238597951336"><ele>27.0</ele><time>2026-04-17T12:31:09Z</time></trkpt><trkpt lat="43.87784004229644" lon="10.792094030765279"><ele>27.000000000000004</ele><time>2026-04-17T12:31:10Z</time></trkpt><trkpt lat="43.877831506876355" lon="10.79194289827807"><ele>27.000000000000004</ele><time>2026-04-17T12:31:11Z</time></trkpt><trkpt lat="43.87782345252369" lon="10.791788671307302"><ele>27.0</ele><time>2026-04-17T12:31:12Z</time></trkpt><trkpt lat="43.87781411608135" lon="10.791634161895619"><ele>27.0</ele><time>2026-04-17T12:31:13Z</time></trkpt><trkpt lat="43.877806022170404" lon="10.791479201085707"><ele>27.0</ele><time>2026-04-17T12:31:14Z</time></trkpt><trkpt lat="43.87780091009137" lon="10.791324336547659"><ele>27.000000000000004</ele><time>2026-04-17T12:31:15Z</time></trkpt><trkpt lat="43.87779378835775" lon="10.791170536116617"><ele>27.000000000000004</ele><time>2026-04-17T12:31:16Z</time></trkpt><trkpt lat="43.8777935235169" lon="10.791017650370438"><ele>27.0</ele><time>2026-04-17T12:31:17Z</time></trkpt><trkpt lat="43.877792561424286" lon="10.790865171146606"><ele>27.0</ele><time>2026-04-17T12:31:18.001Z</time></trkpt><trkpt lat="43.877791968806186" lon="10.790710873631644"><ele>27.0</ele><time>2026-04-17T12:31:19.001Z</time></trkpt><trkpt lat="43.87779856060235" lon="10.79056075521899"><ele>27.0</ele><time>2026-04-17T12:31:20.001Z</time></trkpt><trkpt lat="43.87781282727208" lon="10.79038744976542"><ele>27.0</ele><time>2026-04-17T12:31:21.001Z</time></trkpt><trkpt lat="43.87781916106371" lon="10.790182161828149"><ele>27.0</ele><time>2026-04-17T12:31:22.001Z</time></trkpt><trkpt lat="43.877825401295844" lon="10.789960061060567"><ele>26.666666666666664</ele><time>2026-04-17T12:31:23.001Z</time></trkpt><trkpt lat="43.87783406198486" lon="10.789732980984871"><ele>26.333333333333332</ele><time>2026-04-17T12:31:24.001Z</time></trkpt><trkpt lat="43.87783999111708" lon="10.78951040709296"><ele>26.0</ele><time>2026-04-17T12:31:25.001Z</time></trkpt><trkpt lat="43.877844250018576" lon="10.789299439725779"><ele>26.0</ele><time>2026-04-17T12:31:26.001Z</time></trkpt><trkpt lat="43.87784951478762" lon="10.78910316197568"><ele>26.0</ele><time>2026-04-17T12:31:27.001Z</time></trkpt><trkpt lat="43.87786113018317" lon="10.78891133582763"><ele>26.0</ele><time>2026-04-17T12:31:28.001Z</time></trkpt><trkpt lat="43.87787396271684" lon="10.78871471277195"><ele>26.0</ele><time>2026-04-17T12:31:29.001Z</time></trkpt><trkpt lat="43.877883692600676" lon="10.78851296858877"><ele>25.75</ele><time>2026-04-17T12:31:30Z</time></trkpt><trkpt lat="43.87789064534653" lon="10.788307316340747"><ele>25.5</ele><time>2026-04-17T12:31:31Z</time></trkpt><trkpt lat="43.87790021872859" lon="10.788103246640116"><ele>25.25</ele><time>2026-04-17T12:31:32Z</time></trkpt><trkpt lat="43.877912033007945" lon="10.787897617017203"><ele>25.0</ele><time>2026-04-17T12:31:33Z</time></trkpt><trkpt lat="43.87792085168722" lon="10.787690509893638"><ele>24.75</ele><time>2026-04-17T12:31:34Z</time></trkpt><trkpt lat="43.87792843044642" lon="10.787482262737985"><ele>24.5</ele><time>2026-04-17T12:31:35Z</time></trkpt><trkpt lat="43.87793413233267" lon="10.787272667555701"><ele>24.25</ele><time>2026-04-17T12:31:36Z</time></trkpt><trkpt lat="43.87794088380595" lon="10.787068031306942"><ele>24.0</ele><time>2026-04-17T12:31:37Z</time></trkpt><trkpt lat="43.87794715588373" lon="10.78687284362056"><ele>24.25</ele><time>2026-04-17T12:31:38Z</time></trkpt><trkpt lat="43.877955851252565" lon="10.786679890381441"><ele>24.5</ele><time>2026-04-17T12:31:39Z</time></trkpt><trkpt lat="43.87796561318355" lon="10.786495805121971"><ele>24.75</ele><time>2026-04-17T12:31:40Z</time></trkpt><trkpt lat="43.87797078012891" lon="10.786326152778082"><ele>25.0</ele><time>2026-04-17T12:31:41Z</time></trkpt><trkpt lat="43.87797910342472" lon="10.786155437649159"><ele>24.75</ele><time>2026-04-17T12:31:42Z</time></trkpt><trkpt lat="43.87798744474135" lon="10.785983032174652"><ele>24.5</ele><time>2026-04-17T12:31:43Z</time></trkpt><trkpt lat="43.87799365714878" lon="10.785811977925215"><ele>24.25</ele><time>2026-04-17T12:31:44Z</time></trkpt><trkpt lat="43.878002532650804" lon="10.78564359168243"><ele>24.0</ele><time>2026-04-17T12:31:45Z</time></trkpt><trkpt lat="43.8780095891944" lon="10.785475404035255"><ele>24.0</ele><time>2026-04-17T12:31:46Z</time></trkpt><trkpt lat="43.87801593647207" lon="10.785306361481117"><ele>24.0</ele><time>2026-04-17T12:31:47Z</time></trkpt><trkpt lat="43.878024572787474" lon="10.785135475131522"><ele>24.0</ele><time>2026-04-17T12:31:48Z</time></trkpt><trkpt lat="43.87803612894312" lon="10.78496326404255"><ele>24.0</ele><time>2026-04-17T12:31:49Z</time></trkpt><trkpt lat="43.87803983856958" lon="10.784788928513793"><ele>23.75</ele><time>2026-04-17T12:31:50Z</time></trkpt><trkpt lat="43.87803935088255" lon="10.784615141976738"><ele>23.5</ele><time>2026-04-17T12:31:51Z</time></trkpt><trkpt lat="43.878032305845124" lon="10.784443197441657"><ele>23.25</ele><time>2026-04-17T12:31:52Z</time></trkpt><trkpt lat="43.87801920407245" lon="10.784284662218726"><ele>23.0</ele><time>2026-04-17T12:31:53Z</time></trkpt><trkpt lat="43.877999039390524" lon="10.784122679501916"><ele>23.0</ele><time>2026-04-17T12:31:54Z</time></trkpt><trkpt lat="43.8779756449237" lon="10.78396446977551"><ele>23.0</ele><time>2026-04-17T12:31:55Z</time></trkpt><trkpt lat="43.87794338931739" lon="10.783799070598818"><ele>23.0</ele><time>2026-04-17T12:31:56Z</time></trkpt><trkpt lat="43.877901201032415" lon="10.783621060438744"><ele>23.0</ele><time>2026-04-17T12:31:57Z</time></trkpt><trkpt lat="43.877858031908005" lon="10.783440308603431"><ele>23.0</ele><time>2026-04-17T12:31:58Z</time></trkpt><trkpt lat="43.877816995558405" lon="10.783271570133714"><ele>23.0</ele><time>2026-04-17T12:31:59Z</time></trkpt><trkpt lat="43.877779431650346" lon="10.783109806014393"><ele>23.0</ele><time>2026-04-17T12:32:00Z</time></trkpt><trkpt lat="43.87774301844107" lon="10.782945647945525"><ele>23.0</ele><time>2026-04-17T12:32:01Z</time></trkpt><trkpt lat="43.877706831435745" lon="10.782775620509865"><ele>23.0</ele><time>2026-04-17T12:32:02Z</time></trkpt><trkpt lat="43.87766613101942" lon="10.782605300770411"><ele>23.0</ele><time>2026-04-17T12:32:03Z</time></trkpt><trkpt lat="43.877620975220225" lon="10.782434170527422"><ele>23.0</ele><time>2026-04-17T12:32:04Z</time></trkpt><trkpt lat="43.87757237286322" lon="10.782259490257102"><ele>23.0</ele><time>2026-04-17T12:32:05Z</time></trkpt><trkpt lat="43.87752673425712" lon="10.782078230119684"><ele>23.0</ele><time>2026-04-17T12:32:06Z</time></trkpt><trkpt lat="43.87748027435541" lon="10.781897043253698"><ele>23.0</ele><time>2026-04-17T12:32:07Z</time></trkpt><trkpt lat="43.877434834600464" lon="10.781730495636477"><ele>23.0</ele><time>2026-04-17T12:32:08Z</time></trkpt><trkpt lat="43.877390131510026" lon="10.781562439771017"><ele>23.0</ele><time>2026-04-17T12:32:09Z</time></trkpt><trkpt lat="43.87734641829139" lon="10.781395664275625"><ele>23.2</ele><time>2026-04-17T12:32:10Z</time></trkpt><trkpt lat="43.87730455670932" lon="10.781237659094714"><ele>23.4</ele><time>2026-04-17T12:32:11Z</time></trkpt><trkpt lat="43.877272114676" lon="10.78109942900781"><ele>23.599999999999998</ele><time>2026-04-17T12:32:12Z</time></trkpt><trkpt lat="43.87724994860948" lon="10.780978706092782"><ele>23.799999999999997</ele><time>2026-04-17T12:32:13Z</time></trkpt><trkpt lat="43.87722749314891" lon="10.780870479829126"><ele>24.0</ele><time>2026-04-17T12:32:14Z</time></trkpt><trkpt lat="43.877204889450915" lon="10.780760886609238"><ele>23.799999999999997</ele><time>2026-04-17T12:32:15Z</time></trkpt><trkpt lat="43.87718134333029" lon="10.780661201957082"><ele>23.599999999999998</ele><time>2026-04-17T12:32:17Z</time></trkpt><trkpt lat="43.87719156401217" lon="10.780472227293146"><ele>23.4</ele><time>2026-04-17T12:32:19Z</time></trkpt><trkpt lat="43.877199113179906" lon="10.780358100094146"><ele>23.2</ele><time>2026-04-17T12:32:20Z</time></trkpt><trkpt lat="43.877189960433135" lon="10.780234773530708"><ele>23.0</ele><time>2026-04-17T12:32:21Z</time></trkpt><trkpt lat="43.87714511580814" lon="10.780115420502302"><ele>23.0</ele><time>2026-04-17T12:32:22Z</time></trkpt><trkpt lat="43.877077853665995" lon="10.78000331242915"><ele>23.0</ele><time>2026-04-17T12:32:23Z</time></trkpt><trkpt lat="43.87700004455471" lon="10.779892080980623"><ele>23.0</ele><time>2026-04-17T12:32:24Z</time></trkpt><trkpt lat="43.876936419799094" lon="10.779770391193606"><ele>23.0</ele><time>2026-04-17T12:32:25Z</time></trkpt><trkpt lat="43.87687491478073" lon="10.779642921279855"><ele>23.0</ele><time>2026-04-17T12:32:26Z</time></trkpt><trkpt lat="43.87680222329937" lon="10.779485657847342"><ele>23.75</ele><time>2026-04-17T12:32:27Z</time></trkpt><trkpt lat="43.876735186476246" lon="10.779310707293835"><ele>24.5</ele><time>2026-04-17T12:32:28Z</time></trkpt><trkpt lat="43.876667762530474" lon="10.77914031941173"><ele>25.25</ele><time>2026-04-17T12:32:29Z</time></trkpt><trkpt lat="43.876606083648" lon="10.778989247957611"><ele>26.0</ele><time>2026-04-17T12:32:30Z</time></trkpt><trkpt lat="43.87654651158071" lon="10.77884748322429"><ele>26.0</ele><time>2026-04-17T12:32:31Z</time></trkpt><trkpt lat="43.87648955148391" lon="10.778713498606882"><ele>26.0</ele><time>2026-04-17T12:32:32Z</time></trkpt><trkpt lat="43.8764369309828" lon="10.778592218238728"><ele>26.0</ele><time>2026-04-17T12:32:33Z</time></trkpt><trkpt lat="43.87638748229868" lon="10.77847512794735"><ele>26.0</ele><time>2026-04-17T12:32:34Z</time></trkpt><trkpt lat="43.87633602597592" lon="10.778361607683827"><ele>26.0</ele><time>2026-04-17T12:32:35Z</time></trkpt><trkpt lat="43.87629122288202" lon="10.77826388071209"><ele>25.499999999999996</ele><time>2026-04-17T12:32:36Z</time></trkpt><trkpt lat="43.87624851813389" lon="10.7781727447293"><ele>25.0</ele><time>2026-04-17T12:32:37Z</time></trkpt><trkpt lat="43.8762086254873" lon="10.778077419861605"><ele>24.5</ele><time>2026-04-17T12:32:38Z</time></trkpt><trkpt lat="43.876161299932996" lon="10.77796941812169"><ele>24.0</ele><time>2026-04-17T12:32:39Z</time></trkpt><trkpt lat="43.876109432808995" lon="10.777847650492863"><ele>23.5</ele><time>2026-04-17T12:32:40Z</time></trkpt><trkpt lat="43.87605871110073" lon="10.777731994287175"><ele>23.0</ele><time>2026-04-17T12:32:41Z</time></trkpt><trkpt lat="43.87600968331407" lon="10.777624283268015"><ele>23.0</ele><time>2026-04-17T12:32:42Z</time></trkpt><trkpt lat="43.87596429264985" lon="10.777519854749857"><ele>23.0</ele><time>2026-04-17T12:32:43Z</time></trkpt><trkpt lat="43.87592078758799" lon="10.777414571373885"><ele>23.0</ele><time>2026-04-17T12:32:44Z</time></trkpt><trkpt lat="43.87588281229201" lon="10.777317321842187"><ele>23.0</ele><time>2026-04-17T12:32:45Z</time></trkpt><trkpt lat="43.87584255986664" lon="10.777223293097007"><ele>23.0</ele><time>2026-04-17T12:32:46Z</time></trkpt><trkpt lat="43.87580113869603" lon="10.777130259845327"><ele>23.0</ele><time>2026-04-17T12:32:47Z</time></trkpt><trkpt lat="43.875756662299985" lon="10.777041256857624"><ele>22.599999999999998</ele><time>2026-04-17T12:32:48Z</time></trkpt><trkpt lat="43.87571232047877" lon="10.77695519531613"><ele>22.2</ele><time>2026-04-17T12:32:49Z</time></trkpt><trkpt lat="43.875661002974546" lon="10.776825998996229"><ele>21.8</ele><time>2026-04-17T12:32:51Z</time></trkpt><trkpt lat="43.875633212233254" lon="10.776636327226424"><ele>21.4</ele><time>2026-04-17T12:32:53Z</time></trkpt><trkpt lat="43.87567230432926" lon="10.776529975905243"><ele>21.0</ele><time>2026-04-17T12:32:54Z</time></trkpt><trkpt lat="43.875670377554556" lon="10.776417165788867"><ele>21.0</ele><time>2026-04-17T12:32:55Z</time></trkpt><trkpt lat="43.875638993079626" lon="10.776306895609247"><ele>21.0</ele><time>2026-04-17T12:32:56Z</time></trkpt><trkpt lat="43.875574387586845" lon="10.776199741983696"><ele>21.0</ele><time>2026-04-17T12:32:57Z</time></trkpt><trkpt lat="43.87547873533602" lon="10.776118304584067"><ele>21.0</ele><time>2026-04-17T12:32:58Z</time></trkpt><trkpt lat="43.87538154725325" lon="10.776030672618665"><ele>21.0</ele><time>2026-04-17T12:32:59Z</time></trkpt><trkpt lat="43.875288498573596" lon="10.775929370278915"><ele>20.8</ele><time>2026-04-17T12:33:00Z</time></trkpt><trkpt lat="43.875214589786125" lon="10.775814425643267"><ele>20.6</ele><time>2026-04-17T12:33:01Z</time></trkpt><trkpt lat="43.87514910410022" lon="10.775706467855757"><ele>20.4</ele><time>2026-04-17T12:33:02Z</time></trkpt><trkpt lat="43.87509643556015" lon="10.7756097737936"><ele>20.2</ele><time>2026-04-17T12:33:03Z</time></trkpt><trkpt lat="43.87504872939366" lon="10.775525089158503"><ele>20.0</ele><time>2026-04-17T12:33:04Z</time></trkpt><trkpt lat="43.87499311491465" lon="10.775425049251012"><ele>20.0</ele><time>2026-04-17T12:33:05Z</time></trkpt><trkpt lat="43.874923525025174" lon="10.775261309831683"><ele>20.0</ele><time>2026-04-17T12:33:06Z</time></trkpt><trkpt lat="43.87482539404654" lon="10.775100593755912"><ele>20.0</ele><time>2026-04-17T12:33:07Z</time></trkpt><trkpt lat="43.87474135234188" lon="10.774944027650275"><ele>20.0</ele><time>2026-04-17T12:33:08Z</time></trkpt><trkpt lat="43.87463765938808" lon="10.77475615709361"><ele>20.0</ele><time>2026-04-17T12:33:09Z</time></trkpt><trkpt lat="43.87454242516922" lon="10.77457169165663"><ele>20.0</ele><time>2026-04-17T12:33:10Z</time></trkpt><trkpt lat="43.8744564994037" lon="10.774417653995398"><ele>20.0</ele><time>2026-04-17T12:33:11Z</time></trkpt><trkpt lat="43.87437251409104" lon="10.774283443530125"><ele>20.0</ele><time>2026-04-17T12:33:12Z</time></trkpt><trkpt lat="43.87429733946783" lon="10.774150914890935"><ele>19.5</ele><time>2026-04-17T12:33:13Z</time></trkpt><trkpt lat="43.87422286858634" lon="10.774019034774128"><ele>19.0</ele><time>2026-04-17T12:33:14Z</time></trkpt><trkpt lat="43.87414752894974" lon="10.773884909489807"><ele>18.5</ele><time>2026-04-17T12:33:15Z</time></trkpt><trkpt lat="43.87407069777588" lon="10.773744857965692"><ele>18.0</ele><time>2026-04-17T12:33:16Z</time></trkpt><trkpt lat="43.8739967750567" lon="10.77360316192632"><ele>18.4</ele><time>2026-04-17T12:33:17Z</time></trkpt><trkpt lat="43.873925446721444" lon="10.773460847707119"><ele>18.8</ele><time>2026-04-17T12:33:18Z</time></trkpt><trkpt lat="43.87385950152533" lon="10.773324475318722"><ele>19.2</ele><time>2026-04-17T12:33:19Z</time></trkpt><trkpt lat="43.873803081515035" lon="10.773199640066862"><ele>19.6</ele><time>2026-04-17T12:33:20Z</time></trkpt><trkpt lat="43.87375916589539" lon="10.773095011011467"><ele>20.0</ele><time>2026-04-17T12:33:21Z</time></trkpt><trkpt lat="43.87372913973105" lon="10.772996413677088"><ele>20.0</ele><time>2026-04-17T12:33:22Z</time></trkpt><trkpt lat="43.873720387941866" lon="10.772897012997467"><ele>20.0</ele><time>2026-04-17T12:33:23Z</time></trkpt><trkpt lat="43.87373329230942" lon="10.772803637756589"><ele>20.0</ele><time>2026-04-17T12:33:24Z</time></trkpt><trkpt lat="43.873736141246226" lon="10.772714897210394"><ele>20.0</ele><time>2026-04-17T12:33:25Z</time></trkpt><trkpt lat="43.87370159683892" lon="10.772633065236155"><ele>20.0</ele><time>2026-04-17T12:33:26Z</time></trkpt><trkpt lat="43.873646142702356" lon="10.772576019523495"><ele>20.0</ele><time>2026-04-17T12:33:27Z</time></trkpt><trkpt lat="43.87358122182141" lon="10.772545154432908"><ele>20.0</ele><time>2026-04-17T12:33:28Z</time></trkpt><trkpt lat="43.87350597434998" lon="10.772521704259642"><ele>20.0</ele><time>2026-04-17T12:33:29Z</time></trkpt><trkpt lat="43.8734276692902" lon="10.772466102944119"><ele>20.0</ele><time>2026-04-17T12:33:30Z</time></trkpt><trkpt lat="43.873340620374584" lon="10.772363319922967"><ele>20.0</ele><time>2026-04-17T12:33:31Z</time></trkpt><trkpt lat="43.87326130309116" lon="10.772220942105921"><ele>20.0</ele><time>2026-04-17T12:33:32Z</time></trkpt><trkpt lat="43.87318980703652" lon="10.772061722839153"><ele>20.0</ele><time>2026-04-17T12:33:33Z</time></trkpt><trkpt lat="43.873124545581554" lon="10.771904075978737"><ele>20.0</ele><time>2026-04-17T12:33:34Z</time></trkpt><trkpt lat="43.87307758831273" lon="10.771750318141077"><ele>20.0</ele><time>2026-04-17T12:33:35Z</time></trkpt><trkpt lat="43.873037387753435" lon="10.77160713192313"><ele>20.0</ele><time>2026-04-17T12:33:36Z</time></trkpt><trkpt lat="43.873000970907135" lon="10.771460263637302"><ele>19.75</ele><time>2026-04-17T12:33:37Z</time></trkpt><trkpt lat="43.872964759512854" lon="10.771294952776444"><ele>19.5</ele><time>2026-04-17T12:33:38Z</time></trkpt><trkpt lat="43.872922990084085" lon="10.771123039775448"><ele>19.25</ele><time>2026-04-17T12:33:39Z</time></trkpt><trkpt lat="43.87287945416059" lon="10.770941829304045"><ele>19.0</ele><time>2026-04-17T12:33:40Z</time></trkpt><trkpt lat="43.87284207272059" lon="10.770758579674423"><ele>19.75</ele><time>2026-04-17T12:33:41Z</time></trkpt><trkpt lat="43.87281097004799" lon="10.770577101216626"><ele>20.5</ele><time>2026-04-17T12:33:42Z</time></trkpt><trkpt lat="43.87277580489849" lon="10.770375391987779"><ele>21.25</ele><time>2026-04-17T12:33:43Z</time></trkpt><trkpt lat="43.87273714551151" lon="10.770152940545415"><ele>22.0</ele><time>2026-04-17T12:33:44Z</time></trkpt><trkpt lat="43.87269612355665" lon="10.769925349155406"><ele>22.0</ele><time>2026-04-17T12:33:45Z</time></trkpt><trkpt lat="43.872657258079585" lon="10.76969403605754"><ele>22.0</ele><time>2026-04-17T12:33:46Z</time></trkpt><trkpt lat="43.872619892850274" lon="10.769476691584897"><ele>22.0</ele><time>2026-04-17T12:33:47Z</time></trkpt><trkpt lat="43.872587566509466" lon="10.769271296007622"><ele>21.5</ele><time>2026-04-17T12:33:48Z</time></trkpt><trkpt lat="43.87256262106697" lon="10.769073316289537"><ele>21.0</ele><time>2026-04-17T12:33:49Z</time></trkpt><trkpt lat="43.87254884899236" lon="10.7688747732068"><ele>20.5</ele><time>2026-04-17T12:33:50Z</time></trkpt><trkpt lat="43.87254169455432" lon="10.768666906719975"><ele>20.0</ele><time>2026-04-17T12:33:51Z</time></trkpt><trkpt lat="43.8725380651531" lon="10.7684480128814"><ele>20.0</ele><time>2026-04-17T12:33:52Z</time></trkpt><trkpt lat="43.87254365056969" lon="10.768246204695917"><ele>20.0</ele><time>2026-04-17T12:33:53Z</time></trkpt><trkpt lat="43.87255313497155" lon="10.768053754565297"><ele>20.0</ele><time>2026-04-17T12:33:54Z</time></trkpt><trkpt lat="43.87256571351001" lon="10.767877364737188"><ele>20.0</ele><time>2026-04-17T12:33:55Z</time></trkpt><trkpt lat="43.87257281713391" lon="10.767720206344089"><ele>20.166666666666668</ele><time>2026-04-17T12:33:56Z</time></trkpt><trkpt lat="43.87257219803474" lon="10.76759588408802"><ele>20.333333333333336</ele><time>2026-04-17T12:33:57Z</time></trkpt><trkpt lat="43.87255842075444" lon="10.767496349696493"><ele>20.5</ele><time>2026-04-17T12:33:58Z</time></trkpt><trkpt lat="43.87252952125937" lon="10.767401905275706"><ele>20.666666666666668</ele><time>2026-04-17T12:33:59Z</time></trkpt><trkpt lat="43.87248455558664" lon="10.76731060379827"><ele>20.833333333333332</ele><time>2026-04-17T12:34:00Z</time></trkpt><trkpt lat="43.872414911782734" lon="10.767247004785945"><ele>21.0</ele><time>2026-04-17T12:34:01Z</time></trkpt><trkpt lat="43.87233360939992" lon="10.767221049794175"><ele>21.0</ele><time>2026-04-17T12:34:02Z</time></trkpt><trkpt lat="43.87225164813631" lon="10.76722783730215"><ele>21.0</ele><time>2026-04-17T12:34:03Z</time></trkpt><trkpt lat="43.87216575032482" lon="10.767224968647342"><ele>21.0</ele><time>2026-04-17T12:34:04Z</time></trkpt><trkpt lat="43.87208597094753" lon="10.76721510925035"><ele>21.0</ele><time>2026-04-17T12:34:05Z</time></trkpt><trkpt lat="43.87199219545309" lon="10.767019329868802"><ele>21.0</ele><time>2026-04-17T12:34:07Z</time></trkpt><trkpt lat="43.871968708855306" lon="10.766887166346457"><ele>21.75</ele><time>2026-04-17T12:34:08Z</time></trkpt><trkpt lat="43.8719480316663" lon="10.766734208798324"><ele>22.5</ele><time>2026-04-17T12:34:09Z</time></trkpt><trkpt lat="43.8719299146416" lon="10.766565086529573"><ele>23.25</ele><time>2026-04-17T12:34:10Z</time></trkpt><trkpt lat="43.87189865932142" lon="10.76637848291386"><ele>24.0</ele><time>2026-04-17T12:34:11Z</time></trkpt><trkpt lat="43.87186606299792" lon="10.766196661420931"><ele>23.25</ele><time>2026-04-17T12:34:12Z</time></trkpt><trkpt lat="43.871838165597566" lon="10.766026423969443"><ele>22.5</ele><time>2026-04-17T12:34:13Z</time></trkpt><trkpt lat="43.87180920797722" lon="10.765853820330788"><ele>21.75</ele><time>2026-04-17T12:34:14Z</time></trkpt><trkpt lat="43.87177912759761" lon="10.765666917502307"><ele>21.0</ele><time>2026-04-17T12:34:15Z</time></trkpt><trkpt lat="43.87175359407605" lon="10.765468425009175"><ele>20.333333333333332</ele><time>2026-04-17T12:34:16Z</time></trkpt><trkpt lat="43.871730689188304" lon="10.765261611859254"><ele>19.666666666666664</ele><time>2026-04-17T12:34:17Z</time></trkpt><trkpt lat="43.87170469745981" lon="10.765058066781094"><ele>19.0</ele><time>2026-04-17T12:34:18Z</time></trkpt><trkpt lat="43.87167414000193" lon="10.764854640429848"><ele>19.0</ele><time>2026-04-17T12:34:19Z</time></trkpt><trkpt lat="43.87164256591107" lon="10.76465699938928"><ele>19.0</ele><time>2026-04-17T12:34:20Z</time></trkpt><trkpt lat="43.87161000331016" lon="10.764464370614185"><ele>19.0</ele><time>2026-04-17T12:34:21Z</time></trkpt><trkpt lat="43.87157853384124" lon="10.764278640874704"><ele>19.0</ele><time>2026-04-17T12:34:22Z</time></trkpt><trkpt lat="43.87155014395023" lon="10.764101691274808"><ele>19.0</ele><time>2026-04-17T12:34:23Z</time></trkpt><trkpt lat="43.87152619363103" lon="10.763929010969727"><ele>19.0</ele><time>2026-04-17T12:34:24Z</time></trkpt><trkpt lat="43.87149902290927" lon="10.763754905249247"><ele>19.0</ele><time>2026-04-17T12:34:25Z</time></trkpt><trkpt lat="43.8714704305915" lon="10.763585484763015"><ele>19.0</ele><time>2026-04-17T12:34:26Z</time></trkpt><trkpt lat="43.87144193927558" lon="10.763421753484213"><ele>19.0</ele><time>2026-04-17T12:34:27Z</time></trkpt><trkpt lat="43.87141187716105" lon="10.7632524632226"><ele>19.0</ele><time>2026-04-17T12:34:28Z</time></trkpt><trkpt lat="43.87138681737084" lon="10.763096408076827"><ele>19.0</ele><time>2026-04-17T12:34:29Z</time></trkpt><trkpt lat="43.871372531697766" lon="10.762961473075254"><ele>19.0</ele><time>2026-04-17T12:34:30Z</time></trkpt><trkpt lat="43.87135338971756" lon="10.762838516802256"><ele>19.0</ele><time>2026-04-17T12:34:31Z</time></trkpt><trkpt lat="43.87133102802028" lon="10.762713648856188"><ele>19.166666666666664</ele><time>2026-04-17T12:34:32Z</time></trkpt><trkpt lat="43.87130965970626" lon="10.762583044370281"><ele>19.333333333333332</ele><time>2026-04-17T12:34:33Z</time></trkpt><trkpt lat="43.87128935704131" lon="10.762451659188468"><ele>19.5</ele><time>2026-04-17T12:34:34Z</time></trkpt><trkpt lat="43.87127173371729" lon="10.76234513191494"><ele>19.666666666666668</ele><time>2026-04-17T12:34:35Z</time></trkpt><trkpt lat="43.871253332079846" lon="10.762240652695452"><ele>19.833333333333336</ele><time>2026-04-17T12:34:36Z</time></trkpt><trkpt lat="43.8712328565688" lon="10.762137871102261"><ele>20.0</ele><time>2026-04-17T12:34:37Z</time></trkpt><trkpt lat="43.871216566425794" lon="10.762049097289387"><ele>20.0</ele><time>2026-04-17T12:34:38Z</time></trkpt><trkpt lat="43.87120201872019" lon="10.761963015582197"><ele>20.0</ele><time>2026-04-17T12:34:39Z</time></trkpt><trkpt lat="43.871183882200235" lon="10.761861014518386"><ele>20.0</ele><time>2026-04-17T12:34:40Z</time></trkpt><trkpt lat="43.8711614177178" lon="10.761729173539491"><ele>20.0</ele><time>2026-04-17T12:34:41Z</time></trkpt><trkpt lat="43.87113535633302" lon="10.761573175535363"><ele>20.0</ele><time>2026-04-17T12:34:42Z</time></trkpt><trkpt lat="43.87110519367929" lon="10.761396628310834"><ele>19.75</ele><time>2026-04-17T12:34:43Z</time></trkpt><trkpt lat="43.871074358604844" lon="10.761228632508374"><ele>19.5</ele><time>2026-04-17T12:34:44Z</time></trkpt><trkpt lat="43.87105132589852" lon="10.76107390393322"><ele>19.25</ele><time>2026-04-17T12:34:45Z</time></trkpt><trkpt lat="43.87102382420745" lon="10.76091113541637"><ele>19.0</ele><time>2026-04-17T12:34:46Z</time></trkpt><trkpt lat="43.870992746213105" lon="10.760730406761292"><ele>19.0</ele><time>2026-04-17T12:34:47Z</time></trkpt><trkpt lat="43.87096066657534" lon="10.760542776534862"><ele>19.0</ele><time>2026-04-17T12:34:48Z</time></trkpt><trkpt lat="43.87093027470668" lon="10.760350970280816"><ele>19.0</ele><time>2026-04-17T12:34:49Z</time></trkpt><trkpt lat="43.87090295489062" lon="10.760170855262748"><ele>19.0</ele><time>2026-04-17T12:34:50Z</time></trkpt><trkpt lat="43.870868784387056" lon="10.759958721651255"><ele>18.333333333333332</ele><time>2026-04-17T12:34:51Z</time></trkpt><trkpt lat="43.870826363736164" lon="10.759715220224265"><ele>17.666666666666668</ele><time>2026-04-17T12:34:52Z</time></trkpt><trkpt lat="43.870786020962484" lon="10.759488647784487"><ele>17.0</ele><time>2026-04-17T12:34:53Z</time></trkpt><trkpt lat="43.87075772118395" lon="10.759279327124212"><ele>17.0</ele><time>2026-04-17T12:34:54Z</time></trkpt><trkpt lat="43.87073298180097" lon="10.7590823558049"><ele>17.0</ele><time>2026-04-17T12:34:55Z</time></trkpt><trkpt lat="43.870709761587854" lon="10.758903189303627"><ele>17.0</ele><time>2026-04-17T12:34:56Z</time></trkpt><trkpt lat="43.870684908019776" lon="10.758738307964972"><ele>17.0</ele><time>2026-04-17T12:34:57Z</time></trkpt><trkpt lat="43.87065856707534" lon="10.758577141497168"><ele>17.5</ele><time>2026-04-17T12:34:58Z</time></trkpt><trkpt lat="43.87063118445078" lon="10.758427428190105"><ele>18.0</ele><time>2026-04-17T12:34:59Z</time></trkpt><trkpt lat="43.87061175087976" lon="10.758315554987998"><ele>18.5</ele><time>2026-04-17T12:35:00Z</time></trkpt><trkpt lat="43.87059638289446" lon="10.758207725043485"><ele>19.0</ele><time>2026-04-17T12:35:01Z</time></trkpt><trkpt lat="43.870579635039604" lon="10.758108705662112"><ele>19.5</ele><time>2026-04-17T12:35:02Z</time></trkpt><trkpt lat="43.87056403586135" lon="10.758015969714684"><ele>20.0</ele><time>2026-04-17T12:35:03Z</time></trkpt><trkpt lat="43.87054666898542" lon="10.75792488231715"><ele>20.0</ele><time>2026-04-17T12:35:04Z</time></trkpt><trkpt lat="43.870543979104404" lon="10.757762698832458"><ele>20.0</ele><time>2026-04-17T12:35:06Z</time></trkpt><trkpt lat="43.87057051887364" lon="10.75768289541775"><ele>20.0</ele><time>2026-04-17T12:35:07Z</time></trkpt><trkpt lat="43.870602332268604" lon="10.75760592389201"><ele>20.0</ele><time>2026-04-17T12:35:08Z</time></trkpt><trkpt lat="43.87059603039452" lon="10.75743766446016"><ele>20.0</ele><time>2026-04-17T12:35:10Z</time></trkpt><trkpt lat="43.87055159646805" lon="10.75736191155921"><ele>20.0</ele><time>2026-04-17T12:35:11Z</time></trkpt><trkpt lat="43.8705315574369" lon="10.757268028679096"><ele>19.6</ele><time>2026-04-17T12:35:12Z</time></trkpt><trkpt lat="43.87041717937238" lon="10.757225091321153"><ele>19.2</ele><time>2026-04-17T12:35:13Z</time></trkpt><trkpt lat="43.870352834296014" lon="10.7571402343041"><ele>18.8</ele><time>2026-04-17T12:35:14Z</time></trkpt><trkpt lat="43.870309960075765" lon="10.757036916497569"><ele>18.4</ele><time>2026-04-17T12:35:15Z</time></trkpt><trkpt lat="43.87028673128828" lon="10.756928939991136"><ele>18.0</ele><time>2026-04-17T12:35:16Z</time></trkpt><trkpt lat="43.87026496047872" lon="10.756828761895424"><ele>18.0</ele><time>2026-04-17T12:35:17Z</time></trkpt><trkpt lat="43.87024689896348" lon="10.756731556136888"><ele>18.0</ele><time>2026-04-17T12:35:18Z</time></trkpt><trkpt lat="43.870227375505095" lon="10.756636925212412"><ele>18.0</ele><time>2026-04-17T12:35:19Z</time></trkpt><trkpt lat="43.87021101391057" lon="10.756539255469516"><ele>18.0</ele><time>2026-04-17T12:35:20Z</time></trkpt><trkpt lat="43.87016000047757" lon="10.756470343360531"><ele>18.0</ele><time>2026-04-17T12:35:21Z</time></trkpt><trkpt lat="43.870212860957416" lon="10.75632826722715"><ele>18.0</ele><time>2026-04-17T12:35:22Z</time></trkpt><trkpt lat="43.8702225928116" lon="10.756241918721358"><ele>18.0</ele><time>2026-04-17T12:35:25Z</time></trkpt><trkpt lat="43.87020263481863" lon="10.756128401323274"><ele>18.0</ele><time>2026-04-17T12:35:29Z</time></trkpt><trkpt lat="43.87016642383953" lon="10.755974526642172"><ele>18.0</ele><time>2026-04-17T12:35:31Z</time></trkpt><trkpt lat="43.87015039916987" lon="10.755882001153958"><ele>18.0</ele><time>2026-04-17T12:35:32Z</time></trkpt><trkpt lat="43.870134397412706" lon="10.755768809380626"><ele>18.0</ele><time>2026-04-17T12:35:33Z</time></trkpt><trkpt lat="43.87009548762777" lon="10.755649701136797"><ele>18.0</ele><time>2026-04-17T12:35:34Z</time></trkpt><trkpt lat="43.870070252428114" lon="10.755545801669811"><ele>18.166666666666668</ele><time>2026-04-17T12:35:35Z</time></trkpt><trkpt lat="43.87004024800841" lon="10.755422443654451"><ele>18.333333333333332</ele><time>2026-04-17T12:35:36Z</time></trkpt><trkpt lat="43.86998985211082" lon="10.755311666586294"><ele>18.5</ele><time>2026-04-17T12:35:38Z</time></trkpt><trkpt lat="43.86996394452574" lon="10.7551932829337"><ele>18.666666666666664</ele><time>2026-04-17T12:35:39Z</time></trkpt><trkpt lat="43.86993961897502" lon="10.755087056492112"><ele>18.833333333333332</ele><time>2026-04-17T12:35:40Z</time></trkpt><trkpt lat="43.869915794707495" lon="10.754981757005593"><ele>19.0</ele><time>2026-04-17T12:35:41Z</time></trkpt><trkpt lat="43.86989439358385" lon="10.754871956831085"><ele>18.71428571428571</ele><time>2026-04-17T12:35:42Z</time></trkpt><trkpt lat="43.869875097882165" lon="10.754770702340181"><ele>18.42857142857143</ele><time>2026-04-17T12:35:43Z</time></trkpt><trkpt lat="43.86985158238009" lon="10.754676736729662"><ele>18.142857142857142</ele><time>2026-04-17T12:35:44Z</time></trkpt><trkpt lat="43.86982742301568" lon="10.754581078219083"><ele>17.857142857142854</ele><time>2026-04-17T12:35:45Z</time></trkpt><trkpt lat="43.869800957054466" lon="10.754489383085962"><ele>17.57142857142857</ele><time>2026-04-17T12:35:46Z</time></trkpt><trkpt lat="43.869771361256205" lon="10.75440532623062"><ele>17.285714285714285</ele><time>2026-04-17T12:35:47Z</time></trkpt><trkpt lat="43.86974392115778" lon="10.75432545318899"><ele>17.0</ele><time>2026-04-17T12:35:48Z</time></trkpt><trkpt lat="43.86970478707482" lon="10.754211489236322"><ele>17.0</ele><time>2026-04-17T12:35:50Z</time></trkpt><trkpt lat="43.86966329813423" lon="10.754116152677659"><ele>17.0</ele><time>2026-04-17T12:35:52Z</time></trkpt><trkpt lat="43.8696679169421" lon="10.753984349078673"><ele>17.0</ele><time>2026-04-17T12:35:54Z</time></trkpt><trkpt lat="43.869666301979386" lon="10.753814977074398"><ele>17.0</ele><time>2026-04-17T12:35:56Z</time></trkpt><trkpt lat="43.86963441963386" lon="10.753722754819577"><ele>17.0</ele><time>2026-04-17T12:35:57Z</time></trkpt><trkpt lat="43.86959194888231" lon="10.753627047462695"><ele>17.0</ele><time>2026-04-17T12:35:58Z</time></trkpt><trkpt lat="43.86955906744934" lon="10.753513302338787"><ele>17.0</ele><time>2026-04-17T12:35:59Z</time></trkpt><trkpt lat="43.86954314156196" lon="10.753371715337623"><ele>17.0</ele><time>2026-04-17T12:36:00Z</time></trkpt><trkpt lat="43.869513959391" lon="10.753212938868648"><ele>17.0</ele><time>2026-04-17T12:36:01Z</time></trkpt><trkpt lat="43.86948523212397" lon="10.753068270667201"><ele>17.0</ele><time>2026-04-17T12:36:02Z</time></trkpt><trkpt lat="43.86945244096736" lon="10.752912762577044"><ele>17.0</ele><time>2026-04-17T12:36:03Z</time></trkpt><trkpt lat="43.86941603742849" lon="10.752748822514082"><ele>17.0</ele><time>2026-04-17T12:36:04Z</time></trkpt><trkpt lat="43.86938440925932" lon="10.752598428809202"><ele>17.0</ele><time>2026-04-17T12:36:05Z</time></trkpt><trkpt lat="43.86933636994925" lon="10.752436668449333"><ele>17.0</ele><time>2026-04-17T12:36:06Z</time></trkpt><trkpt lat="43.86928424017637" lon="10.752249792587117"><ele>17.333333333333336</ele><time>2026-04-17T12:36:07Z</time></trkpt><trkpt lat="43.86922149699543" lon="10.752028806962201"><ele>17.666666666666668</ele><time>2026-04-17T12:36:08Z</time></trkpt><trkpt lat="43.86916238701448" lon="10.751790081857376"><ele>18.0</ele><time>2026-04-17T12:36:09Z</time></trkpt><trkpt lat="43.869107563647916" lon="10.751557757203448"><ele>18.0</ele><time>2026-04-17T12:36:10Z</time></trkpt><trkpt lat="43.869063633611084" lon="10.751348940597849"><ele>18.0</ele><time>2026-04-17T12:36:11Z</time></trkpt><trkpt lat="43.86902389352894" lon="10.75117068050957"><ele>18.0</ele><time>2026-04-17T12:36:12Z</time></trkpt><trkpt lat="43.86898477895273" lon="10.751015747509506"><ele>18.0</ele><time>2026-04-17T12:36:13Z</time></trkpt><trkpt lat="43.86895125056607" lon="10.750863360317952"><ele>17.8</ele><time>2026-04-17T12:36:14Z</time></trkpt><trkpt lat="43.868924684083794" lon="10.750726676272013"><ele>17.6</ele><time>2026-04-17T12:36:15Z</time></trkpt><trkpt lat="43.86889578414221" lon="10.750611665298639"><ele>17.4</ele><time>2026-04-17T12:36:16Z</time></trkpt><trkpt lat="43.868863086620145" lon="10.75047787847576"><ele>17.2</ele><time>2026-04-17T12:36:17Z</time></trkpt><trkpt lat="43.868822118471186" lon="10.750335768278232"><ele>17.0</ele><time>2026-04-17T12:36:18Z</time></trkpt><trkpt lat="43.8687933314978" lon="10.750209886458544"><ele>17.2</ele><time>2026-04-17T12:36:19Z</time></trkpt><trkpt lat="43.86875807465812" lon="10.750072049884551"><ele>17.4</ele><time>2026-04-17T12:36:20Z</time></trkpt><trkpt lat="43.86871999188934" lon="10.749929226942072"><ele>17.6</ele><time>2026-04-17T12:36:21Z</time></trkpt><trkpt lat="43.868685575248186" lon="10.749777257720066"><ele>17.8</ele><time>2026-04-17T12:36:22Z</time></trkpt><trkpt lat="43.86864906967144" lon="10.749620301976968"><ele>18.0</ele><time>2026-04-17T12:36:23Z</time></trkpt><trkpt lat="43.868611277285815" lon="10.749460250409001"><ele>17.75</ele><time>2026-04-17T12:36:24Z</time></trkpt><trkpt lat="43.868570341968116" lon="10.749293482304711"><ele>17.5</ele><time>2026-04-17T12:36:25Z</time></trkpt><trkpt lat="43.868523755638556" lon="10.749114861442512"><ele>17.25</ele><time>2026-04-17T12:36:26Z</time></trkpt><trkpt lat="43.868477729745905" lon="10.748925016901223"><ele>17.0</ele><time>2026-04-17T12:36:27Z</time></trkpt><trkpt lat="43.868431256649636" lon="10.748731160997535"><ele>17.25</ele><time>2026-04-17T12:36:28Z</time></trkpt><trkpt lat="43.86838621793262" lon="10.748535933504929"><ele>17.5</ele><time>2026-04-17T12:36:29Z</time></trkpt><trkpt lat="43.86833993246559" lon="10.74834342775821"><ele>17.75</ele><time>2026-04-17T12:36:30Z</time></trkpt><trkpt lat="43.8682927785364" lon="10.748153170974897"><ele>18.0</ele><time>2026-04-17T12:36:31Z</time></trkpt><trkpt lat="43.86824051986967" lon="10.747963689773806"><ele>18.0</ele><time>2026-04-17T12:36:32Z</time></trkpt><trkpt lat="43.868179951191" lon="10.747772723882091"><ele>18.0</ele><time>2026-04-17T12:36:33Z</time></trkpt><trkpt lat="43.86810613126321" lon="10.74758359486677"><ele>18.0</ele><time>2026-04-17T12:36:34Z</time></trkpt><trkpt lat="43.868017944166525" lon="10.747397130173782"><ele>18.0</ele><time>2026-04-17T12:36:35Z</time></trkpt><trkpt lat="43.8679171338203" lon="10.747217258589782"><ele>18.0</ele><time>2026-04-17T12:36:36Z</time></trkpt><trkpt lat="43.86780791161966" lon="10.747044122640325"><ele>18.0</ele><time>2026-04-17T12:36:37Z</time></trkpt><trkpt lat="43.86770016246562" lon="10.746876980752868"><ele>18.0</ele><time>2026-04-17T12:36:38Z</time></trkpt><trkpt lat="43.86759986482922" lon="10.746714909647805"><ele>18.0</ele><time>2026-04-17T12:36:39Z</time></trkpt><trkpt lat="43.86750571532865" lon="10.746555176834567"><ele>18.0</ele><time>2026-04-17T12:36:40Z</time></trkpt><trkpt lat="43.86741706965711" lon="10.746399498823715"><ele>18.0</ele><time>2026-04-17T12:36:41Z</time></trkpt><trkpt lat="43.86732866192213" lon="10.74624782971602"><ele>18.0</ele><time>2026-04-17T12:36:42Z</time></trkpt><trkpt lat="43.86723888005162" lon="10.746093188821046"><ele>18.0</ele><time>2026-04-17T12:36:43Z</time></trkpt><trkpt lat="43.867150896555586" lon="10.745927968696046"><ele>18.0</ele><time>2026-04-17T12:36:44Z</time></trkpt><trkpt lat="43.867071059566165" lon="10.745754871218278"><ele>18.0</ele><time>2026-04-17T12:36:45Z</time></trkpt><trkpt lat="43.86699565625903" lon="10.74556798346728"><ele>18.333333333333332</ele><time>2026-04-17T12:36:46Z</time></trkpt><trkpt lat="43.866927789995636" lon="10.745371247539017"><ele>18.666666666666664</ele><time>2026-04-17T12:36:47Z</time></trkpt><trkpt lat="43.8668714304012" lon="10.745162760889098"><ele>19.0</ele><time>2026-04-17T12:36:48Z</time></trkpt><trkpt lat="43.86681811327621" lon="10.744947048492502"><ele>19.0</ele><time>2026-04-17T12:36:49Z</time></trkpt><trkpt lat="43.86676492306495" lon="10.744732906205298"><ele>19.0</ele><time>2026-04-17T12:36:50Z</time></trkpt><trkpt lat="43.8667089320312" lon="10.744531783689743"><ele>19.0</ele><time>2026-04-17T12:36:51Z</time></trkpt><trkpt lat="43.86664990216649" lon="10.744320669145303"><ele>19.0</ele><time>2026-04-17T12:36:52Z</time></trkpt><trkpt lat="43.86658980468047" lon="10.744114927787674"><ele>19.0</ele><time>2026-04-17T12:36:53Z</time></trkpt><trkpt lat="43.866529181676555" lon="10.743910680885303"><ele>19.0</ele><time>2026-04-17T12:36:54Z</time></trkpt><trkpt lat="43.866463770417944" lon="10.743709605347785"><ele>19.0</ele><time>2026-04-17T12:36:55Z</time></trkpt><trkpt lat="43.866393913894434" lon="10.743513600559401"><ele>19.0</ele><time>2026-04-17T12:36:56Z</time></trkpt><trkpt lat="43.86632655415504" lon="10.743319432192589"><ele>19.0</ele><time>2026-04-17T12:36:57Z</time></trkpt><trkpt lat="43.866260415169926" lon="10.74313201750435"><ele>19.0</ele><time>2026-04-17T12:36:58Z</time></trkpt><trkpt lat="43.86619159650312" lon="10.742947772167684"><ele>19.0</ele><time>2026-04-17T12:36:59Z</time></trkpt><trkpt lat="43.866127684401455" lon="10.742781478729261"><ele>19.0</ele><time>2026-04-17T12:37:00Z</time></trkpt><trkpt lat="43.86606741452396" lon="10.742622813159892"><ele>19.0</ele><time>2026-04-17T12:37:01Z</time></trkpt><trkpt lat="43.86601067630504" lon="10.74247145935534"><ele>19.25</ele><time>2026-04-17T12:37:02Z</time></trkpt><trkpt lat="43.86595917313764" lon="10.74232192599916"><ele>19.5</ele><time>2026-04-17T12:37:03Z</time></trkpt><trkpt lat="43.86590260748822" lon="10.742164062012721"><ele>19.75</ele><time>2026-04-17T12:37:04Z</time></trkpt><trkpt lat="43.86583829466664" lon="10.742003894165267"><ele>20.0</ele><time>2026-04-17T12:37:05Z</time></trkpt><trkpt lat="43.865772032640685" lon="10.74184296771268"><ele>20.0</ele><time>2026-04-17T12:37:06Z</time></trkpt><trkpt lat="43.86570894816536" lon="10.7416951281852"><ele>20.0</ele><time>2026-04-17T12:37:07Z</time></trkpt><trkpt lat="43.865651423753526" lon="10.741555699722579"><ele>20.0</ele><time>2026-04-17T12:37:08Z</time></trkpt><trkpt lat="43.865599532974045" lon="10.741427075726882"><ele>20.0</ele><time>2026-04-17T12:37:09Z</time></trkpt><trkpt lat="43.86554564284166" lon="10.741308174559833"><ele>20.0</ele><time>2026-04-17T12:37:10Z</time></trkpt><trkpt lat="43.86550109269317" lon="10.741196037013387"><ele>20.0</ele><time>2026-04-17T12:37:11Z</time></trkpt><trkpt lat="43.86545412687198" lon="10.741078700045271"><ele>20.0</ele><time>2026-04-17T12:37:12Z</time></trkpt><trkpt lat="43.865414727646275" lon="10.740983760385328"><ele>20.0</ele><time>2026-04-17T12:37:13Z</time></trkpt><trkpt lat="43.865380466461765" lon="10.74090112846053"><ele>20.0</ele><time>2026-04-17T12:37:14Z</time></trkpt><trkpt lat="43.86532152494604" lon="10.740785738058635"><ele>20.0</ele><time>2026-04-17T12:37:16Z</time></trkpt><trkpt lat="43.865302474487066" lon="10.740654515492546"><ele>20.0</ele><time>2026-04-17T12:37:18Z</time></trkpt><trkpt lat="43.86531818394169" lon="10.740536182278326"><ele>20.2</ele><time>2026-04-17T12:37:20Z</time></trkpt><trkpt lat="43.86540888820443" lon="10.74043966095873"><ele>20.4</ele><time>2026-04-17T12:37:22Z</time></trkpt><trkpt lat="43.86548279466707" lon="10.7404173982413"><ele>20.6</ele><time>2026-04-17T12:37:23Z</time></trkpt><trkpt lat="43.8655621443648" lon="10.740412544083918"><ele>20.8</ele><time>2026-04-17T12:37:24Z</time></trkpt><trkpt lat="43.865647525854335" lon="10.740410684078682"><ele>21.0</ele><time>2026-04-17T12:37:25Z</time></trkpt><trkpt lat="43.86575912254617" lon="10.7404040448609"><ele>21.0</ele><time>2026-04-17T12:37:26Z</time></trkpt><trkpt lat="43.86588325311156" lon="10.740388673801526"><ele>21.0</ele><time>2026-04-17T12:37:27Z</time></trkpt><trkpt lat="43.86601108087379" lon="10.74036001381184"><ele>21.0</ele><time>2026-04-17T12:37:28Z</time></trkpt><trkpt lat="43.86612467907334" lon="10.740334324020326"><ele>21.0</ele><time>2026-04-17T12:37:29Z</time></trkpt><trkpt lat="43.866236004139665" lon="10.740303867627963"><ele>21.0</ele><time>2026-04-17T12:37:30Z</time></trkpt><trkpt lat="43.86634206254123" lon="10.740265482847525"><ele>21.0</ele><time>2026-04-17T12:37:31Z</time></trkpt><trkpt lat="43.86644629648304" lon="10.740225789232293"><ele>21.0</ele><time>2026-04-17T12:37:32Z</time></trkpt><trkpt lat="43.86654983639519" lon="10.74018373873827"><ele>21.0</ele><time>2026-04-17T12:37:33Z</time></trkpt><trkpt lat="43.86666055362294" lon="10.74015515778037"><ele>21.0</ele><time>2026-04-17T12:37:34Z</time></trkpt><trkpt lat="43.866771187709844" lon="10.740083393595398"><ele>21.0</ele><time>2026-04-17T12:37:35Z</time></trkpt><trkpt lat="43.86688954106131" lon="10.740047283610004"><ele>21.0</ele><time>2026-04-17T12:37:36Z</time></trkpt><trkpt lat="43.86698856901803" lon="10.739972953828188"><ele>21.0</ele><time>2026-04-17T12:37:37Z</time></trkpt><trkpt lat="43.8670896092448" lon="10.739922734763505"><ele>21.0</ele><time>2026-04-17T12:37:38Z</time></trkpt><trkpt lat="43.86719964975016" lon="10.739867690514565"><ele>21.0</ele><time>2026-04-17T12:37:39Z</time></trkpt><trkpt lat="43.867309970929355" lon="10.739811112291054"><ele>21.0</ele><time>2026-04-17T12:37:40Z</time></trkpt><trkpt lat="43.86740724658067" lon="10.739753569662827"><ele>21.0</ele><time>2026-04-17T12:37:41Z</time></trkpt><trkpt lat="43.86750192657042" lon="10.739697681024662"><ele>21.0</ele><time>2026-04-17T12:37:42Z</time></trkpt><trkpt lat="43.86760216755318" lon="10.73963207654264"><ele>21.0</ele><time>2026-04-17T12:37:43Z</time></trkpt><trkpt lat="43.86770653600654" lon="10.73956871493064"><ele>21.200000000000003</ele><time>2026-04-17T12:37:44Z</time></trkpt><trkpt lat="43.867799654796954" lon="10.73951298114837"><ele>21.400000000000002</ele><time>2026-04-17T12:37:45Z</time></trkpt><trkpt lat="43.867887069957064" lon="10.739477375747617"><ele>21.6</ele><time>2026-04-17T12:37:46Z</time></trkpt><trkpt lat="43.867996593908074" lon="10.73940139343898"><ele>21.8</ele><time>2026-04-17T12:37:47Z</time></trkpt><trkpt lat="43.868081295624876" lon="10.739336578077102"><ele>22.0</ele><time>2026-04-17T12:37:48Z</time></trkpt><trkpt lat="43.86816036851546" lon="10.739244536286076"><ele>22.0</ele><time>2026-04-17T12:37:49Z</time></trkpt><trkpt lat="43.86823398233544" lon="10.739178628933606"><ele>22.0</ele><time>2026-04-17T12:37:50Z</time></trkpt><trkpt lat="43.86831274992174" lon="10.739131846847982"><ele>22.0</ele><time>2026-04-17T12:37:51Z</time></trkpt><trkpt lat="43.86836907443616" lon="10.739048358706054"><ele>22.0</ele><time>2026-04-17T12:37:52Z</time></trkpt><trkpt lat="43.86844398322148" lon="10.738999371240682"><ele>22.0</ele><time>2026-04-17T12:37:53Z</time></trkpt><trkpt lat="43.86850552806582" lon="10.738933137124285"><ele>22.0</ele><time>2026-04-17T12:37:54Z</time></trkpt><trkpt lat="43.868562333357445" lon="10.73886407191848"><ele>22.166666666666664</ele><time>2026-04-17T12:37:55Z</time></trkpt><trkpt lat="43.868620118407115" lon="10.738789392678736"><ele>22.333333333333332</ele><time>2026-04-17T12:37:56Z</time></trkpt><trkpt lat="43.86868239989396" lon="10.738704009532485"><ele>22.5</ele><time>2026-04-17T12:37:57Z</time></trkpt><trkpt lat="43.868739971740716" lon="10.738619716919683"><ele>22.666666666666668</ele><time>2026-04-17T12:37:58Z</time></trkpt><trkpt lat="43.86878271427389" lon="10.738525255506124"><ele>22.833333333333336</ele><time>2026-04-17T12:37:59Z</time></trkpt><trkpt lat="43.868844343869554" lon="10.738444299794473"><ele>23.0</ele><time>2026-04-17T12:38:00Z</time></trkpt><trkpt lat="43.868902307110794" lon="10.738353869470632"><ele>23.2</ele><time>2026-04-17T12:38:01Z</time></trkpt><trkpt lat="43.8689656534095" lon="10.738258193204166"><ele>23.4</ele><time>2026-04-17T12:38:02Z</time></trkpt><trkpt lat="43.86903778331826" lon="10.738154447277333"><ele>23.599999999999998</ele><time>2026-04-17T12:38:03Z</time></trkpt><trkpt lat="43.86912469858018" lon="10.73805982655016"><ele>23.799999999999997</ele><time>2026-04-17T12:38:04Z</time></trkpt><trkpt lat="43.86918978152286" lon="10.737937494676283"><ele>24.0</ele><time>2026-04-17T12:38:05Z</time></trkpt><trkpt lat="43.86926390094369" lon="10.737840416268073"><ele>24.166666666666668</ele><time>2026-04-17T12:38:06Z</time></trkpt><trkpt lat="43.86933005960219" lon="10.737744190243795"><ele>24.333333333333336</ele><time>2026-04-17T12:38:07Z</time></trkpt><trkpt lat="43.86938815046101" lon="10.737668481075064"><ele>24.5</ele><time>2026-04-17T12:38:08Z</time></trkpt><trkpt lat="43.869457822746284" lon="10.737617600895918"><ele>24.666666666666668</ele><time>2026-04-17T12:38:09Z</time></trkpt><trkpt lat="43.869528626402406" lon="10.737516313180283"><ele>24.833333333333336</ele><time>2026-04-17T12:38:11Z</time></trkpt><trkpt lat="43.869593167691946" lon="10.73744953361254"><ele>25.0</ele><time>2026-04-17T12:38:13Z</time></trkpt><trkpt lat="43.869719125717" lon="10.73734963998876"><ele>25.25</ele><time>2026-04-17T12:38:15Z</time></trkpt><trkpt lat="43.869809256747516" lon="10.737263613077623"><ele>25.5</ele><time>2026-04-17T12:38:16Z</time></trkpt><trkpt lat="43.869907238601584" lon="10.737168853890287"><ele>25.75</ele><time>2026-04-17T12:38:17Z</time></trkpt><trkpt lat="43.87000285635661" lon="10.737076381035008"><ele>26.0</ele><time>2026-04-17T12:38:18Z</time></trkpt><trkpt lat="43.87011661445152" lon="10.736967428490958"><ele>26.0</ele><time>2026-04-17T12:38:19Z</time></trkpt><trkpt lat="43.87024643432822" lon="10.736843049958992"><ele>26.0</ele><time>2026-04-17T12:38:20Z</time></trkpt><trkpt lat="43.87037935394425" lon="10.736698074391851"><ele>26.0</ele><time>2026-04-17T12:38:21Z</time></trkpt><trkpt lat="43.87052853649896" lon="10.736579570596207"><ele>26.0</ele><time>2026-04-17T12:38:22Z</time></trkpt><trkpt lat="43.870670804611805" lon="10.736466714829426"><ele>26.0</ele><time>2026-04-17T12:38:23Z</time></trkpt><trkpt lat="43.87080264294783" lon="10.736350555967965"><ele>26.0</ele><time>2026-04-17T12:38:24Z</time></trkpt><trkpt lat="43.87093118919032" lon="10.736234056233439"><ele>26.666666666666664</ele><time>2026-04-17T12:38:25Z</time></trkpt><trkpt lat="43.87105958850347" lon="10.736117395871515"><ele>27.333333333333336</ele><time>2026-04-17T12:38:26Z</time></trkpt><trkpt lat="43.87118850047364" lon="10.736000653832354"><ele>28.0</ele><time>2026-04-17T12:38:27Z</time></trkpt><trkpt lat="43.871313077662585" lon="10.735875786237798"><ele>28.0</ele><time>2026-04-17T12:38:28Z</time></trkpt><trkpt lat="43.87143653600336" lon="10.735744531471505"><ele>28.0</ele><time>2026-04-17T12:38:29Z</time></trkpt><trkpt lat="43.871554982653585" lon="10.735605494273315"><ele>28.0</ele><time>2026-04-17T12:38:30Z</time></trkpt><trkpt lat="43.87166762327938" lon="10.73545758023997"><ele>28.0</ele><time>2026-04-17T12:38:31Z</time></trkpt><trkpt lat="43.87177348905739" lon="10.73530656477991"><ele>28.0</ele><time>2026-04-17T12:38:32Z</time></trkpt><trkpt lat="43.87187006421827" lon="10.735156312569256"><ele>28.0</ele><time>2026-04-17T12:38:33Z</time></trkpt><trkpt lat="43.87196098156672" lon="10.735005438064002"><ele>28.0</ele><time>2026-04-17T12:38:34Z</time></trkpt><trkpt lat="43.87205272079882" lon="10.734853363191244"><ele>28.0</ele><time>2026-04-17T12:38:35Z</time></trkpt><trkpt lat="43.87214181553442" lon="10.734696820333554"><ele>28.0</ele><time>2026-04-17T12:38:36Z</time></trkpt><trkpt lat="43.87222310423074" lon="10.734548209743393"><ele>28.0</ele><time>2026-04-17T12:38:37Z</time></trkpt><trkpt lat="43.87229615301586" lon="10.734404507174814"><ele>28.0</ele><time>2026-04-17T12:38:38Z</time></trkpt><trkpt lat="43.87236556811685" lon="10.734269692308429"><ele>28.0</ele><time>2026-04-17T12:38:39Z</time></trkpt><trkpt lat="43.872445974602364" lon="10.734157539933417"><ele>28.0</ele><time>2026-04-17T12:38:40Z</time></trkpt><trkpt lat="43.872513760688186" lon="10.734039188445072"><ele>28.0</ele><time>2026-04-17T12:38:41Z</time></trkpt><trkpt lat="43.87258411713035" lon="10.733917086222837"><ele>28.0</ele><time>2026-04-17T12:38:42Z</time></trkpt><trkpt lat="43.87265343959361" lon="10.733786244822149"><ele>28.2</ele><time>2026-04-17T12:38:43Z</time></trkpt><trkpt lat="43.872736037677704" lon="10.73368540774516"><ele>28.4</ele><time>2026-04-17T12:38:44Z</time></trkpt><trkpt lat="43.8728174131458" lon="10.733593223612234"><ele>28.599999999999998</ele><time>2026-04-17T12:38:45Z</time></trkpt><trkpt lat="43.8728968729836" lon="10.73350664730817"><ele>28.799999999999997</ele><time>2026-04-17T12:38:46Z</time></trkpt><trkpt lat="43.87296836468388" lon="10.733430284440521"><ele>29.0</ele><time>2026-04-17T12:38:47Z</time></trkpt><trkpt lat="43.87302592673608" lon="10.733350160737723"><ele>29.2</ele><time>2026-04-17T12:38:48Z</time></trkpt><trkpt lat="43.873093611272196" lon="10.733300821820697"><ele>29.4</ele><time>2026-04-17T12:38:49Z</time></trkpt><trkpt lat="43.87315915586175" lon="10.733235861290678"><ele>29.6</ele><time>2026-04-17T12:38:50Z</time></trkpt><trkpt lat="43.873225111372946" lon="10.73317066915029"><ele>29.8</ele><time>2026-04-17T12:38:51Z</time></trkpt><trkpt lat="43.87338525216516" lon="10.732997742342622"><ele>30.0</ele><time>2026-04-17T12:38:52Z</time></trkpt><trkpt lat="43.87346903854554" lon="10.732919899047328"><ele>30.4</ele><time>2026-04-17T12:38:53Z</time></trkpt><trkpt lat="43.87355459811447" lon="10.732850141511172"><ele>30.8</ele><time>2026-04-17T12:38:54Z</time></trkpt><trkpt lat="43.87363387582892" lon="10.732781270758217"><ele>31.200000000000003</ele><time>2026-04-17T12:38:55Z</time></trkpt><trkpt lat="43.873718118787174" lon="10.73271398107585"><ele>31.6</ele><time>2026-04-17T12:38:56Z</time></trkpt><trkpt lat="43.87380165812019" lon="10.732642921706185"><ele>32.0</ele><time>2026-04-17T12:38:57Z</time></trkpt><trkpt lat="43.87389093689248" lon="10.73258381619697"><ele>32.0</ele><time>2026-04-17T12:38:58Z</time></trkpt><trkpt lat="43.87398021140145" lon="10.73255122593044"><ele>31.999999999999996</ele><time>2026-04-17T12:38:59Z</time></trkpt><trkpt lat="43.87404496432914" lon="10.732491687239358"><ele>32.0</ele><time>2026-04-17T12:39:00Z</time></trkpt><trkpt lat="43.87411250955422" lon="10.7324629002032"><ele>32.0</ele><time>2026-04-17T12:39:01Z</time></trkpt><trkpt lat="43.87418021480215" lon="10.732430022814684"><ele>31.999999999999996</ele><time>2026-04-17T12:39:02Z</time></trkpt><trkpt lat="43.874239537447835" lon="10.73239639199019"><ele>32.0</ele><time>2026-04-17T12:39:03Z</time></trkpt><trkpt lat="43.874303931728846" lon="10.732365511824272"><ele>32.0</ele><time>2026-04-17T12:39:04Z</time></trkpt><trkpt lat="43.87437007750018" lon="10.732335491157922"><ele>32.166666666666664</ele><time>2026-04-17T12:39:05Z</time></trkpt><trkpt lat="43.87444223849305" lon="10.732309096891544"><ele>32.33333333333333</ele><time>2026-04-17T12:39:06Z</time></trkpt><trkpt lat="43.87451947434702" lon="10.73228973734966"><ele>32.5</ele><time>2026-04-17T12:39:07Z</time></trkpt><trkpt lat="43.874593894656265" lon="10.732284140874325"><ele>32.666666666666664</ele><time>2026-04-17T12:39:08Z</time></trkpt><trkpt lat="43.87466163062228" lon="10.732273642138784"><ele>32.833333333333336</ele><time>2026-04-17T12:39:09Z</time></trkpt><trkpt lat="43.87477376514065" lon="10.732257517035235"><ele>33.0</ele><time>2026-04-17T12:39:11Z</time></trkpt><trkpt lat="43.87487434189252" lon="10.73225339806681"><ele>33.0</ele><time>2026-04-17T12:39:13Z</time></trkpt><trkpt lat="43.87495211773013" lon="10.73228852569099"><ele>33.0</ele><time>2026-04-17T12:39:15Z</time></trkpt><trkpt lat="43.87503174402943" lon="10.732366793125234"><ele>33.0</ele><time>2026-04-17T12:39:17Z</time></trkpt><trkpt lat="43.87509025529614" lon="10.732472228999068"><ele>33.0</ele><time>2026-04-17T12:39:19Z</time></trkpt><trkpt lat="43.875170475735" lon="10.732544224144611"><ele>33.0</ele><time>2026-04-17T12:39:21Z</time></trkpt><trkpt lat="43.875300334092934" lon="10.73256795644988"><ele>33.199999999999996</ele><time>2026-04-17T12:39:23Z</time></trkpt><trkpt lat="43.87542980227805" lon="10.732612290952058"><ele>33.4</ele><time>2026-04-17T12:39:25Z</time></trkpt><trkpt lat="43.875495022178775" lon="10.732625548392871"><ele>33.599999999999994</ele><time>2026-04-17T12:39:26Z</time></trkpt><trkpt lat="43.875599539546094" lon="10.732674802867038"><ele>33.8</ele><time>2026-04-17T12:39:28Z</time></trkpt><trkpt lat="43.8757149003201" lon="10.732714116046408"><ele>34.0</ele><time>2026-04-17T12:39:30Z</time></trkpt><trkpt lat="43.87582844692283" lon="10.732745064074455"><ele>33.833333333333336</ele><time>2026-04-17T12:39:32Z</time></trkpt><trkpt lat="43.87589640774192" lon="10.7327855349061"><ele>33.66666666666667</ele><time>2026-04-17T12:39:33Z</time></trkpt><trkpt lat="43.87597132109685" lon="10.7328057455689"><ele>33.5</ele><time>2026-04-17T12:39:34Z</time></trkpt><trkpt lat="43.87604878881698" lon="10.732841779155883"><ele>33.333333333333336</ele><time>2026-04-17T12:39:35Z</time></trkpt><trkpt lat="43.87612121128751" lon="10.732862122581656"><ele>33.166666666666664</ele><time>2026-04-17T12:39:36Z</time></trkpt><trkpt lat="43.87619237762945" lon="10.73289612723551"><ele>33.0</ele><time>2026-04-17T12:39:37Z</time></trkpt><trkpt lat="43.876260848968535" lon="10.732932587539482"><ele>33.0</ele><time>2026-04-17T12:39:38Z</time></trkpt><trkpt lat="43.87632986441579" lon="10.732979984788848"><ele>33.0</ele><time>2026-04-17T12:39:39Z</time></trkpt><trkpt lat="43.87640060677797" lon="10.733024676235905"><ele>33.0</ele><time>2026-04-17T12:39:40Z</time></trkpt><trkpt lat="43.87647138125848" lon="10.733074309395723"><ele>33.0</ele><time>2026-04-17T12:39:41Z</time></trkpt><trkpt lat="43.87653530068999" lon="10.733127899315864"><ele>33.0</ele><time>2026-04-17T12:39:42Z</time></trkpt><trkpt lat="43.87660357055117" lon="10.733202168773028"><ele>33.0</ele><time>2026-04-17T12:39:43Z</time></trkpt><trkpt lat="43.8766733381208" lon="10.733255757093938"><ele>33.0</ele><time>2026-04-17T12:39:44Z</time></trkpt><trkpt lat="43.87674528349383" lon="10.73330954773078"><ele>33.0</ele><time>2026-04-17T12:39:45Z</time></trkpt><trkpt lat="43.8768177039964" lon="10.733341964634661"><ele>33.0</ele><time>2026-04-17T12:39:46Z</time></trkpt><trkpt lat="43.87688729260261" lon="10.733392983263224"><ele>33.0</ele><time>2026-04-17T12:39:47Z</time></trkpt><trkpt lat="43.87694814553181" lon="10.733444902535911"><ele>33.0</ele><time>2026-04-17T12:39:48Z</time></trkpt><trkpt lat="43.8770105698605" lon="10.733496149407053"><ele>33.0</ele><time>2026-04-17T12:39:49Z</time></trkpt><trkpt lat="43.877071628893404" lon="10.733542627205875"><ele>32.833333333333336</ele><time>2026-04-17T12:39:50Z</time></trkpt><trkpt lat="43.87712871723567" lon="10.733582932594029"><ele>32.666666666666664</ele><time>2026-04-17T12:39:51Z</time></trkpt><trkpt lat="43.87718421279342" lon="10.733624992578513"><ele>32.5</ele><time>2026-04-17T12:39:52Z</time></trkpt><trkpt lat="43.87728910637938" lon="10.733710478435796"><ele>32.33333333333333</ele><time>2026-04-17T12:39:54Z</time></trkpt><trkpt lat="43.87737964721981" lon="10.733784601654381"><ele>32.166666666666664</ele><time>2026-04-17T12:39:56Z</time></trkpt><trkpt lat="43.87744284809101" lon="10.733838275256193"><ele>32.0</ele><time>2026-04-17T12:39:58Z</time></trkpt><trkpt lat="43.87750411354863" lon="10.733886903977474"><ele>31.999999999999996</ele><time>2026-04-17T12:40:00Z</time></trkpt><trkpt lat="43.87758093576815" lon="10.733932909959782"><ele>32.0</ele><time>2026-04-17T12:40:05Z</time></trkpt><trkpt lat="43.8776479441298" lon="10.733946584399513"><ele>32.0</ele><time>2026-04-17T12:40:07Z</time></trkpt><trkpt lat="43.87772307412696" lon="10.733965254990409"><ele>32.0</ele><time>2026-04-17T12:40:15Z</time></trkpt><trkpt lat="43.87779272559811" lon="10.73399551435521"><ele>31.999999999999996</ele><time>2026-04-17T12:40:17Z</time></trkpt><trkpt lat="43.87786713019869" lon="10.733963168731751"><ele>32.0</ele><time>2026-04-17T12:40:19Z</time></trkpt><trkpt lat="43.87788202095848" lon="10.733841161215523"><ele>32.5</ele><time>2026-04-17T12:40:21Z</time></trkpt><trkpt lat="43.877817815471495" lon="10.733685828763672"><ele>33.0</ele><time>2026-04-17T12:40:23Z</time></trkpt><trkpt lat="43.8777932672558" lon="10.733587834725924"><ele>33.5</ele><time>2026-04-17T12:40:24Z</time></trkpt><trkpt lat="43.877769676958934" lon="10.733495289243681"><ele>34.0</ele><time>2026-04-17T12:40:25Z</time></trkpt><trkpt lat="43.877751028933034" lon="10.733384672418184"><ele>34.5</ele><time>2026-04-17T12:40:26Z</time></trkpt><trkpt lat="43.87772854434131" lon="10.733267031909259"><ele>35.0</ele><time>2026-04-17T12:40:27Z</time></trkpt><trkpt lat="43.87770484649629" lon="10.733162958593129"><ele>35.0</ele><time>2026-04-17T12:40:28Z</time></trkpt><trkpt lat="43.87767704168772" lon="10.733017987617192"><ele>35.0</ele><time>2026-04-17T12:40:30Z</time></trkpt><trkpt lat="43.877653654758014" lon="10.732924805806473"><ele>35.0</ele><time>2026-04-17T12:40:32Z</time></trkpt><trkpt lat="43.877618106676564" lon="10.732847543169282"><ele>35.0</ele><time>2026-04-17T12:41:42.999Z</time></trkpt><trkpt lat="43.877560102440675" lon="10.732734645366351"><ele>35.0</ele><time>2026-04-17T12:41:45.999Z</time></trkpt><trkpt lat="43.87753658246691" lon="10.732652761790755"><ele>35.0</ele><time>2026-04-17T12:41:46.999Z</time></trkpt><trkpt lat="43.877514771552256" lon="10.732550733253266"><ele>35.0</ele><time>2026-04-17T12:41:47.999Z</time></trkpt><trkpt lat="43.877493770600786" lon="10.732447159243565"><ele>35.0</ele><time>2026-04-17T12:41:48.999Z</time></trkpt><trkpt lat="43.87747461577402" lon="10.7323472400558"><ele>35.0</ele><time>2026-04-17T12:41:49.999Z</time></trkpt><trkpt lat="43.87745484531014" lon="10.73225668485623"><ele>35.0</ele><time>2026-04-17T12:41:50.999Z</time></trkpt><trkpt lat="43.87744507365662" lon="10.73213554870883"><ele>35.0</ele><time>2026-04-17T12:41:51.999Z</time></trkpt><trkpt lat="43.87742843530013" lon="10.732007497263673"><ele>35.0</ele><time>2026-04-17T12:41:52.999Z</time></trkpt><trkpt lat="43.87741500777127" lon="10.731855884611443"><ele>35.2</ele><time>2026-04-17T12:41:53.999Z</time></trkpt><trkpt lat="43.87741104357977" lon="10.731714133914085"><ele>35.4</ele><time>2026-04-17T12:41:54.999Z</time></trkpt><trkpt lat="43.877396618758176" lon="10.731585219450116"><ele>35.6</ele><time>2026-04-17T12:41:55.999Z</time></trkpt><trkpt lat="43.87738667365118" lon="10.731447826477"><ele>35.8</ele><time>2026-04-17T12:41:56.999Z</time></trkpt><trkpt lat="43.877378685480515" lon="10.731312277799805"><ele>36.0</ele><time>2026-04-17T12:41:57.999Z</time></trkpt><trkpt lat="43.87737771718379" lon="10.73117926566361"><ele>36.2</ele><time>2026-04-17T12:41:58.999Z</time></trkpt><trkpt lat="43.87738368921617" lon="10.731038926395795"><ele>36.400000000000006</ele><time>2026-04-17T12:41:59.999Z</time></trkpt><trkpt lat="43.87739782001091" lon="10.730890155622506"><ele>36.6</ele><time>2026-04-17T12:42:00.999Z</time></trkpt><trkpt lat="43.87741218775325" lon="10.730739248580576"><ele>36.800000000000004</ele><time>2026-04-17T12:42:01.999Z</time></trkpt><trkpt lat="43.87743306888155" lon="10.730584644019746"><ele>37.0</ele><time>2026-04-17T12:42:02.999Z</time></trkpt><trkpt lat="43.87744869558863" lon="10.730432665509795"><ele>37.0</ele><time>2026-04-17T12:42:03.999Z</time></trkpt><trkpt lat="43.877467983454565" lon="10.73028128259782"><ele>37.0</ele><time>2026-04-17T12:42:04.999Z</time></trkpt><trkpt lat="43.87748534786599" lon="10.73012694762384"><ele>37.0</ele><time>2026-04-17T12:42:05.999Z</time></trkpt><trkpt lat="43.877521355095176" lon="10.729978700493579"><ele>37.0</ele><time>2026-04-17T12:42:06.999Z</time></trkpt><trkpt lat="43.877544428126335" lon="10.729798477447469"><ele>36.0</ele><time>2026-04-17T12:42:07.999Z</time></trkpt><trkpt lat="43.87757124184666" lon="10.729589035897593"><ele>35.0</ele><time>2026-04-17T12:42:08.999Z</time></trkpt><trkpt lat="43.87758485687292" lon="10.729369719244922"><ele>34.0</ele><time>2026-04-17T12:42:09.999Z</time></trkpt><trkpt lat="43.87761847103377" lon="10.729145087130023"><ele>33.66666666666667</ele><time>2026-04-17T12:42:10.999Z</time></trkpt><trkpt lat="43.8776518672336" lon="10.728931465690378"><ele>33.333333333333336</ele><time>2026-04-17T12:42:11.999Z</time></trkpt><trkpt lat="43.87768199234483" lon="10.728722848015043"><ele>33.0</ele><time>2026-04-17T12:42:12.999Z</time></trkpt><trkpt lat="43.877704562674445" lon="10.728528506208926"><ele>33.5</ele><time>2026-04-17T12:42:13.999Z</time></trkpt><trkpt lat="43.87773479051931" lon="10.728364164587692"><ele>34.0</ele><time>2026-04-17T12:42:14.999Z</time></trkpt><trkpt lat="43.877762438759426" lon="10.728200818555722"><ele>34.5</ele><time>2026-04-17T12:42:15.999Z</time></trkpt><trkpt lat="43.87778236486095" lon="10.728032613908939"><ele>35.0</ele><time>2026-04-17T12:42:16.999Z</time></trkpt><trkpt lat="43.877804161781704" lon="10.727878427248461"><ele>35.0</ele><time>2026-04-17T12:42:17.999Z</time></trkpt><trkpt lat="43.87782186665339" lon="10.727745440513054"><ele>35.0</ele><time>2026-04-17T12:42:18.999Z</time></trkpt><trkpt lat="43.87783830371461" lon="10.727606692155726"><ele>35.0</ele><time>2026-04-17T12:42:19.999Z</time></trkpt><trkpt lat="43.87787068965421" lon="10.72747879975477"><ele>35.0</ele><time>2026-04-17T12:42:20.999Z</time></trkpt><trkpt lat="43.87788802463166" lon="10.727349227795571"><ele>35.0</ele><time>2026-04-17T12:42:21.999Z</time></trkpt><trkpt lat="43.877903567243386" lon="10.72723522350974"><ele>35.166666666666664</ele><time>2026-04-17T12:42:22.999Z</time></trkpt><trkpt lat="43.87791938159088" lon="10.72711922602309"><ele>35.33333333333333</ele><time>2026-04-17T12:42:23.999Z</time></trkpt><trkpt lat="43.87791596137638" lon="10.727015289349417"><ele>35.5</ele><time>2026-04-17T12:42:24.999Z</time></trkpt><trkpt lat="43.87794410228936" lon="10.7269198042629"><ele>35.666666666666664</ele><time>2026-04-17T12:42:25.999Z</time></trkpt><trkpt lat="43.87794329374284" lon="10.726799301734692"><ele>35.833333333333336</ele><time>2026-04-17T12:42:26.999Z</time></trkpt><trkpt lat="43.87796253658852" lon="10.726670136652409"><ele>36.0</ele><time>2026-04-17T12:42:27.999Z</time></trkpt><trkpt lat="43.87798405521896" lon="10.726531169963117"><ele>36.0</ele><time>2026-04-17T12:42:28.999Z</time></trkpt><trkpt lat="43.878008513936315" lon="10.726386438282045"><ele>36.0</ele><time>2026-04-17T12:42:29.999Z</time></trkpt><trkpt lat="43.87802649292407" lon="10.72625431684078"><ele>36.0</ele><time>2026-04-17T12:42:30.999Z</time></trkpt><trkpt lat="43.878044649733965" lon="10.726128739834653"><ele>36.0</ele><time>2026-04-17T12:42:31.999Z</time></trkpt><trkpt lat="43.87806562738289" lon="10.725999197165072"><ele>36.0</ele><time>2026-04-17T12:42:32.999Z</time></trkpt><trkpt lat="43.8780856612897" lon="10.725858942126942"><ele>37.0</ele><time>2026-04-17T12:42:33.999Z</time></trkpt><trkpt lat="43.87810294615965" lon="10.72570887834428"><ele>38.0</ele><time>2026-04-17T12:42:34.999Z</time></trkpt><trkpt lat="43.87812277218614" lon="10.725551738380771"><ele>39.0</ele><time>2026-04-17T12:42:35.999Z</time></trkpt><trkpt lat="43.878148465995594" lon="10.725391578141021"><ele>40.0</ele><time>2026-04-17T12:42:36.999Z</time></trkpt><trkpt lat="43.878176101702344" lon="10.725235681237777"><ele>41.0</ele><time>2026-04-17T12:42:37.999Z</time></trkpt><trkpt lat="43.87820588665633" lon="10.72509823996475"><ele>42.0</ele><time>2026-04-17T12:42:38.999Z</time></trkpt><trkpt lat="43.87824216722544" lon="10.724959591440514"><ele>43.0</ele><time>2026-04-17T12:42:39.999Z</time></trkpt><trkpt lat="43.87828237372227" lon="10.724816240719163"><ele>44.0</ele><time>2026-04-17T12:42:40.999Z</time></trkpt><trkpt lat="43.878324162077526" lon="10.72466557252522"><ele>45.0</ele><time>2026-04-17T12:42:41.999Z</time></trkpt><trkpt lat="43.87838744787263" lon="10.724524262385932"><ele>43.75</ele><time>2026-04-17T12:42:42.999Z</time></trkpt><trkpt lat="43.8784409398054" lon="10.724374869067711"><ele>42.5</ele><time>2026-04-17T12:42:43.999Z</time></trkpt><trkpt lat="43.878483852828765" lon="10.724211971294226"><ele>41.25</ele><time>2026-04-17T12:42:44.999Z</time></trkpt><trkpt lat="43.87854843152833" lon="10.724059738032677"><ele>40.0</ele><time>2026-04-17T12:42:45.999Z</time></trkpt><trkpt lat="43.87861471505148" lon="10.723886500659967"><ele>40.0</ele><time>2026-04-17T12:42:46.999Z</time></trkpt><trkpt lat="43.878682976268344" lon="10.723703703416453"><ele>40.0</ele><time>2026-04-17T12:42:47.999Z</time></trkpt><trkpt lat="43.878762444576786" lon="10.723508054582709"><ele>40.0</ele><time>2026-04-17T12:42:48.999Z</time></trkpt><trkpt lat="43.87883934304196" lon="10.723315004315582"><ele>39.25</ele><time>2026-04-17T12:42:49.999Z</time></trkpt><trkpt lat="43.87890964155341" lon="10.723134601230937"><ele>38.5</ele><time>2026-04-17T12:42:50.999Z</time></trkpt><trkpt lat="43.87897681854606" lon="10.722961085785414"><ele>37.75</ele><time>2026-04-17T12:42:51.999Z</time></trkpt><trkpt lat="43.87904749584519" lon="10.722788049015008"><ele>37.0</ele><time>2026-04-17T12:42:52.999Z</time></trkpt><trkpt lat="43.87911860637041" lon="10.722611716517815"><ele>36.75</ele><time>2026-04-17T12:42:53.999Z</time></trkpt><trkpt lat="43.87919121164912" lon="10.722430460642679"><ele>36.5</ele><time>2026-04-17T12:42:54.999Z</time></trkpt><trkpt lat="43.879265162560465" lon="10.722254440911057"><ele>36.25</ele><time>2026-04-17T12:42:55.999Z</time></trkpt><trkpt lat="43.87934117423495" lon="10.72208071834273"><ele>36.0</ele><time>2026-04-17T12:42:56.999Z</time></trkpt><trkpt lat="43.879411925613425" lon="10.721905441216386"><ele>35.666666666666664</ele><time>2026-04-17T12:42:57.999Z</time></trkpt><trkpt lat="43.879484518279746" lon="10.721715732426198"><ele>35.33333333333333</ele><time>2026-04-17T12:42:58.999Z</time></trkpt><trkpt lat="43.879557739426204" lon="10.721529421423485"><ele>35.0</ele><time>2026-04-17T12:42:59.999Z</time></trkpt><trkpt lat="43.87962909704612" lon="10.721340700666879"><ele>35.0</ele><time>2026-04-17T12:43:00.999Z</time></trkpt><trkpt lat="43.87969249537512" lon="10.721159874426592"><ele>35.0</ele><time>2026-04-17T12:43:01.999Z</time></trkpt><trkpt lat="43.879744965743306" lon="10.720986434626333"><ele>35.0</ele><time>2026-04-17T12:43:02.999Z</time></trkpt><trkpt lat="43.87979514546049" lon="10.7208217482266"><ele>35.0</ele><time>2026-04-17T12:43:03.999Z</time></trkpt><trkpt lat="43.8798359777701" lon="10.72066347988444"><ele>35.0</ele><time>2026-04-17T12:43:04.999Z</time></trkpt><trkpt lat="43.87987705881689" lon="10.720497797471367"><ele>35.0</ele><time>2026-04-17T12:43:05.999Z</time></trkpt><trkpt lat="43.87990654525244" lon="10.720318154623296"><ele>35.0</ele><time>2026-04-17T12:43:06.999Z</time></trkpt><trkpt lat="43.879926983960644" lon="10.72012821510915"><ele>35.0</ele><time>2026-04-17T12:43:07.999Z</time></trkpt><trkpt lat="43.87994197013403" lon="10.71993885415771"><ele>35.0</ele><time>2026-04-17T12:43:08.999Z</time></trkpt><trkpt lat="43.87994736287262" lon="10.719766557162897"><ele>35.0</ele><time>2026-04-17T12:43:09.999Z</time></trkpt><trkpt lat="43.87995712527903" lon="10.719601557186648"><ele>35.0</ele><time>2026-04-17T12:43:10.999Z</time></trkpt><trkpt lat="43.87997109862903" lon="10.719423630081778"><ele>35.0</ele><time>2026-04-17T12:43:11.999Z</time></trkpt><trkpt lat="43.8799803041707" lon="10.71924633812237"><ele>35.0</ele><time>2026-04-17T12:43:12.999Z</time></trkpt><trkpt lat="43.8799918296762" lon="10.719071138048882"><ele>35.0</ele><time>2026-04-17T12:43:13.999Z</time></trkpt><trkpt lat="43.879999278687066" lon="10.71889491335698"><ele>35.0</ele><time>2026-04-17T12:43:14.999Z</time></trkpt><trkpt lat="43.880009681222056" lon="10.718725719896828"><ele>35.0</ele><time>2026-04-17T12:43:15.999Z</time></trkpt><trkpt lat="43.880023187779706" lon="10.718559958359204"><ele>35.0</ele><time>2026-04-17T12:43:16.999Z</time></trkpt><trkpt lat="43.880043210476074" lon="10.71839777033383"><ele>35.0</ele><time>2026-04-17T12:43:17.999Z</time></trkpt><trkpt lat="43.8800662299682" lon="10.718221625238199"><ele>35.0</ele><time>2026-04-17T12:43:18.999Z</time></trkpt><trkpt lat="43.88009761411592" lon="10.718010872564582"><ele>35.0</ele><time>2026-04-17T12:43:19.999Z</time></trkpt><trkpt lat="43.88012661716598" lon="10.717776728067099"><ele>35.33333333333333</ele><time>2026-04-17T12:43:20.999Z</time></trkpt><trkpt lat="43.88016138615444" lon="10.717538413674177"><ele>35.666666666666664</ele><time>2026-04-17T12:43:21.999Z</time></trkpt><trkpt lat="43.880199083251554" lon="10.7172946912766"><ele>36.0</ele><time>2026-04-17T12:43:22.999Z</time></trkpt><trkpt lat="43.8802391485725" lon="10.717045267014013"><ele>35.666666666666664</ele><time>2026-04-17T12:43:23.999Z</time></trkpt><trkpt lat="43.88027747246663" lon="10.716820401775925"><ele>35.33333333333333</ele><time>2026-04-17T12:43:24.999Z</time></trkpt><trkpt lat="43.88031014255092" lon="10.716617939350398"><ele>35.0</ele><time>2026-04-17T12:43:25.999Z</time></trkpt><trkpt lat="43.88033915715166" lon="10.71642919518097"><ele>35.0</ele><time>2026-04-17T12:43:26.999Z</time></trkpt><trkpt lat="43.88036954126594" lon="10.716242181932442"><ele>35.0</ele><time>2026-04-17T12:43:27.999Z</time></trkpt><trkpt lat="43.88039914598903" lon="10.716063044642503"><ele>35.0</ele><time>2026-04-17T12:43:28.999Z</time></trkpt><trkpt lat="43.8804283948619" lon="10.715893485432565"><ele>35.0</ele><time>2026-04-17T12:43:29.999Z</time></trkpt><trkpt lat="43.880453251651446" lon="10.715734860556376"><ele>35.4</ele><time>2026-04-17T12:43:30.999Z</time></trkpt><trkpt lat="43.88047477243718" lon="10.715584096763813"><ele>35.8</ele><time>2026-04-17T12:43:31.999Z</time></trkpt><trkpt lat="43.88049420542597" lon="10.715443534848163"><ele>36.2</ele><time>2026-04-17T12:43:32.999Z</time></trkpt><trkpt lat="43.88051334363677" lon="10.715311415281516"><ele>36.6</ele><time>2026-04-17T12:43:33.999Z</time></trkpt><trkpt lat="43.880537323877824" lon="10.715171237590555"><ele>37.0</ele><time>2026-04-17T12:43:34.999Z</time></trkpt><trkpt lat="43.88056117632792" lon="10.715034510689216"><ele>37.4</ele><time>2026-04-17T12:43:35.999Z</time></trkpt><trkpt lat="43.88058182309098" lon="10.714902111694924"><ele>37.800000000000004</ele><time>2026-04-17T12:43:36.999Z</time></trkpt><trkpt lat="43.880605257733265" lon="10.714766867414646"><ele>38.2</ele><time>2026-04-17T12:43:37.999Z</time></trkpt><trkpt lat="43.8806345414774" lon="10.714615494609983"><ele>38.6</ele><time>2026-04-17T12:43:38.999Z</time></trkpt><trkpt lat="43.880660084217794" lon="10.714458613826324"><ele>39.0</ele><time>2026-04-17T12:43:39.999Z</time></trkpt><trkpt lat="43.88068313775054" lon="10.714318737281348"><ele>39.0</ele><time>2026-04-17T12:43:40.999Z</time></trkpt><trkpt lat="43.88069746252453" lon="10.714187115203782"><ele>39.0</ele><time>2026-04-17T12:43:41.999Z</time></trkpt><trkpt lat="43.88071181043151" lon="10.714072724816212"><ele>39.0</ele><time>2026-04-17T12:43:42.999Z</time></trkpt><trkpt lat="43.88071985685348" lon="10.713958379345728"><ele>39.0</ele><time>2026-04-17T12:43:43.999Z</time></trkpt><trkpt lat="43.88071546810658" lon="10.713847195123419"><ele>39.0</ele><time>2026-04-17T12:43:44.999Z</time></trkpt><trkpt lat="43.88070501221232" lon="10.713745613503352"><ele>39.0</ele><time>2026-04-17T12:43:45.999Z</time></trkpt><trkpt lat="43.88068941667062" lon="10.713647275357932"><ele>39.333333333333336</ele><time>2026-04-17T12:43:46.999Z</time></trkpt><trkpt lat="43.88067150097142" lon="10.713555454587285"><ele>39.666666666666664</ele><time>2026-04-17T12:43:47.999Z</time></trkpt><trkpt lat="43.8806551650479" lon="10.713469860127825"><ele>40.0</ele><time>2026-04-17T12:43:48.999Z</time></trkpt><trkpt lat="43.880651324619805" lon="10.713378313043401"><ele>40.33333333333333</ele><time>2026-04-17T12:43:49.999Z</time></trkpt><trkpt lat="43.88067929866421" lon="10.713277935333041"><ele>40.666666666666664</ele><time>2026-04-17T12:43:50.999Z</time></trkpt><trkpt lat="43.880734300821935" lon="10.713172264982266"><ele>41.0</ele><time>2026-04-17T12:43:51.999Z</time></trkpt><trkpt lat="43.88079887029509" lon="10.713067280521743"><ele>41.0</ele><time>2026-04-17T12:43:52.999Z</time></trkpt><trkpt lat="43.880873931663295" lon="10.712961619053901"><ele>41.0</ele><time>2026-04-17T12:43:53.999Z</time></trkpt><trkpt lat="43.88095493946948" lon="10.712858979438582"><ele>41.0</ele><time>2026-04-17T12:43:54.999Z</time></trkpt><trkpt lat="43.88103919069719" lon="10.712755472775447"><ele>41.0</ele><time>2026-04-17T12:43:55.999Z</time></trkpt><trkpt lat="43.88112216741818" lon="10.712656917781558"><ele>41.0</ele><time>2026-04-17T12:43:56.999Z</time></trkpt><trkpt lat="43.88120283908775" lon="10.712561247958284"><ele>42.0</ele><time>2026-04-17T12:43:57.999Z</time></trkpt><trkpt lat="43.881269157778256" lon="10.71244089935075"><ele>43.0</ele><time>2026-04-17T12:43:58.999Z</time></trkpt><trkpt lat="43.88130758663366" lon="10.712296707367228"><ele>44.0</ele><time>2026-04-17T12:43:59.999Z</time></trkpt><trkpt lat="43.88133544404541" lon="10.71214468799415"><ele>45.0</ele><time>2026-04-17T12:44:00.999Z</time></trkpt><trkpt lat="43.88135546668905" lon="10.711975350630105"><ele>44.75</ele><time>2026-04-17T12:44:01.999Z</time></trkpt><trkpt lat="43.88136197877743" lon="10.711778809168704"><ele>44.5</ele><time>2026-04-17T12:44:02.999Z</time></trkpt><trkpt lat="43.88136481576552" lon="10.711570183968151"><ele>44.25</ele><time>2026-04-17T12:44:03.999Z</time></trkpt><trkpt lat="43.881371753689166" lon="10.711358868535967"><ele>44.0</ele><time>2026-04-17T12:44:04.999Z</time></trkpt><trkpt lat="43.88138145369933" lon="10.7111647934456"><ele>43.75</ele><time>2026-04-17T12:44:05.999Z</time></trkpt><trkpt lat="43.88138894365506" lon="10.710986751514833"><ele>43.5</ele><time>2026-04-17T12:44:06.999Z</time></trkpt><trkpt lat="43.88139588118132" lon="10.710807358790348"><ele>43.25</ele><time>2026-04-17T12:44:07.999Z</time></trkpt><trkpt lat="43.881401091592444" lon="10.71062171895058"><ele>43.0</ele><time>2026-04-17T12:44:08.999Z</time></trkpt><trkpt lat="43.8814032790725" lon="10.710445058678742"><ele>43.0</ele><time>2026-04-17T12:44:09.999Z</time></trkpt><trkpt lat="43.881410073889896" lon="10.710274017931981"><ele>43.0</ele><time>2026-04-17T12:44:10.999Z</time></trkpt><trkpt lat="43.88141893902215" lon="10.710107556647833"><ele>43.0</ele><time>2026-04-17T12:44:11.999Z</time></trkpt><trkpt lat="43.8814254157468" lon="10.709948870276005"><ele>43.0</ele><time>2026-04-17T12:44:12.999Z</time></trkpt><trkpt lat="43.881432814200934" lon="10.709794680765523"><ele>43.2</ele><time>2026-04-17T12:44:13.999Z</time></trkpt><trkpt lat="43.88143847274689" lon="10.709654420270395"><ele>43.4</ele><time>2026-04-17T12:44:14.999Z</time></trkpt><trkpt lat="43.881439218255984" lon="10.709539659171886"><ele>43.6</ele><time>2026-04-17T12:44:15.999Z</time></trkpt><trkpt lat="43.881444819621656" lon="10.709443716803499"><ele>43.800000000000004</ele><time>2026-04-17T12:44:16.999Z</time></trkpt><trkpt lat="43.881450213020976" lon="10.709297601069741"><ele>44.0</ele><time>2026-04-17T12:44:18.999Z</time></trkpt><trkpt lat="43.88146495327948" lon="10.70916177327588"><ele>44.0</ele><time>2026-04-17T12:44:20.999Z</time></trkpt><trkpt lat="43.881496600889776" lon="10.708963929846034"><ele>44.0</ele><time>2026-04-17T12:44:22.999Z</time></trkpt><trkpt lat="43.881499106893614" lon="10.708819699583993"><ele>44.0</ele><time>2026-04-17T12:44:23.999Z</time></trkpt><trkpt lat="43.88151110876886" lon="10.708676240990211"><ele>44.0</ele><time>2026-04-17T12:44:24.999Z</time></trkpt><trkpt lat="43.881520765694255" lon="10.708540026579373"><ele>44.0</ele><time>2026-04-17T12:44:25.999Z</time></trkpt><trkpt lat="43.88152898434062" lon="10.708395779932918"><ele>44.0</ele><time>2026-04-17T12:44:26.999Z</time></trkpt><trkpt lat="43.88153837912058" lon="10.708261517502795"><ele>44.0</ele><time>2026-04-17T12:44:27.999Z</time></trkpt><trkpt lat="43.88155213907994" lon="10.708138378830482"><ele>44.0</ele><time>2026-04-17T12:44:28.999Z</time></trkpt><trkpt lat="43.88156813366592" lon="10.708019633420317"><ele>44.0</ele><time>2026-04-17T12:44:29.999Z</time></trkpt><trkpt lat="43.88155797097122" lon="10.707787855211233"><ele>44.0</ele><time>2026-04-17T12:44:31Z</time></trkpt><trkpt lat="43.881564041153005" lon="10.707613347253947"><ele>44.0</ele><time>2026-04-17T12:44:32Z</time></trkpt><trkpt lat="43.88156979304696" lon="10.707437313632775"><ele>44.0</ele><time>2026-04-17T12:44:33Z</time></trkpt><trkpt lat="43.881609665495894" lon="10.70727281735293"><ele>44.0</ele><time>2026-04-17T12:44:34Z</time></trkpt><trkpt lat="43.88163755182703" lon="10.707107484423053"><ele>44.0</ele><time>2026-04-17T12:44:35Z</time></trkpt><trkpt lat="43.88168680583457" lon="10.706960988176629"><ele>44.0</ele><time>2026-04-17T12:44:36Z</time></trkpt><trkpt lat="43.881719538610156" lon="10.706816220047104"><ele>44.0</ele><time>2026-04-17T12:44:37Z</time></trkpt><trkpt lat="43.881750601209866" lon="10.706678263132524"><ele>44.0</ele><time>2026-04-17T12:44:38Z</time></trkpt><trkpt lat="43.8817810924739" lon="10.706536451886933"><ele>44.0</ele><time>2026-04-17T12:44:39Z</time></trkpt><trkpt lat="43.881810516718915" lon="10.706387094310962"><ele>44.75</ele><time>2026-04-17T12:44:40Z</time></trkpt><trkpt lat="43.88184843738406" lon="10.706244237447542"><ele>45.5</ele><time>2026-04-17T12:44:41Z</time></trkpt><trkpt lat="43.881894506603466" lon="10.706095983710025"><ele>46.25</ele><time>2026-04-17T12:44:42Z</time></trkpt><trkpt lat="43.881951620113405" lon="10.70595082324023"><ele>47.0</ele><time>2026-04-17T12:44:43Z</time></trkpt><trkpt lat="43.882020093687004" lon="10.705807425677557"><ele>47.0</ele><time>2026-04-17T12:44:44Z</time></trkpt><trkpt lat="43.8821094324064" lon="10.705657007130856"><ele>47.0</ele><time>2026-04-17T12:44:45Z</time></trkpt><trkpt lat="43.88222173567872" lon="10.705485345441573"><ele>47.0</ele><time>2026-04-17T12:44:46Z</time></trkpt><trkpt lat="43.8823435793905" lon="10.705313493789497"><ele>47.0</ele><time>2026-04-17T12:44:47Z</time></trkpt><trkpt lat="43.88245451533829" lon="10.705172971994648"><ele>47.0</ele><time>2026-04-17T12:44:48Z</time></trkpt><trkpt lat="43.882559118378246" lon="10.70503208253961"><ele>47.0</ele><time>2026-04-17T12:44:49Z</time></trkpt><trkpt lat="43.88266396195122" lon="10.704885274778661"><ele>47.0</ele><time>2026-04-17T12:44:50Z</time></trkpt><trkpt lat="43.882765264345906" lon="10.704744802410033"><ele>47.0</ele><time>2026-04-17T12:44:51Z</time></trkpt><trkpt lat="43.88285689972346" lon="10.704596015235738"><ele>47.0</ele><time>2026-04-17T12:44:52Z</time></trkpt><trkpt lat="43.88294137727239" lon="10.70444613023766"><ele>47.0</ele><time>2026-04-17T12:44:53Z</time></trkpt><trkpt lat="43.88302668848193" lon="10.704282143550866"><ele>47.0</ele><time>2026-04-17T12:44:54Z</time></trkpt><trkpt lat="43.88309591760479" lon="10.704110835777314"><ele>47.0</ele><time>2026-04-17T12:44:55Z</time></trkpt><trkpt lat="43.88315664349133" lon="10.703940966692297"><ele>47.0</ele><time>2026-04-17T12:44:56Z</time></trkpt><trkpt lat="43.8832291216059" lon="10.703785963665682"><ele>47.0</ele><time>2026-04-17T12:44:57Z</time></trkpt><trkpt lat="43.88331642625496" lon="10.703636403502314"><ele>47.0</ele><time>2026-04-17T12:44:58Z</time></trkpt><trkpt lat="43.88340016124735" lon="10.703473013936087"><ele>46.75</ele><time>2026-04-17T12:44:59Z</time></trkpt><trkpt lat="43.88349258348677" lon="10.703316291169875"><ele>46.5</ele><time>2026-04-17T12:45:00Z</time></trkpt><trkpt lat="43.88358210827475" lon="10.7031462180679"><ele>46.25</ele><time>2026-04-17T12:45:01Z</time></trkpt><trkpt lat="43.88366978098573" lon="10.702977164579059"><ele>46.0</ele><time>2026-04-17T12:45:02Z</time></trkpt><trkpt lat="43.883754942065096" lon="10.702806941233028"><ele>45.66666666666667</ele><time>2026-04-17T12:45:03Z</time></trkpt><trkpt lat="43.88383648641555" lon="10.702621189094852"><ele>45.333333333333336</ele><time>2026-04-17T12:45:04Z</time></trkpt><trkpt lat="43.88393171257022" lon="10.70245612660192"><ele>45.0</ele><time>2026-04-17T12:45:05Z</time></trkpt><trkpt lat="43.884008854826654" lon="10.702282912436212"><ele>45.0</ele><time>2026-04-17T12:45:06Z</time></trkpt><trkpt lat="43.884095564465746" lon="10.70213473151435"><ele>45.0</ele><time>2026-04-17T12:45:07Z</time></trkpt><trkpt lat="43.88416070548283" lon="10.70197163299937"><ele>45.0</ele><time>2026-04-17T12:45:08Z</time></trkpt><trkpt lat="43.884237988160855" lon="10.7018209164281"><ele>45.0</ele><time>2026-04-17T12:45:09Z</time></trkpt><trkpt lat="43.88431224762368" lon="10.70165484099097"><ele>45.5</ele><time>2026-04-17T12:45:10Z</time></trkpt><trkpt lat="43.884387863149946" lon="10.701493471668549"><ele>46.0</ele><time>2026-04-17T12:45:11Z</time></trkpt><trkpt lat="43.88446694472781" lon="10.701328286347364"><ele>46.5</ele><time>2026-04-17T12:45:12Z</time></trkpt><trkpt lat="43.884543414815084" lon="10.701161128789881"><ele>47.0</ele><time>2026-04-17T12:45:13Z</time></trkpt><trkpt lat="43.884623878398365" lon="10.700996666391958"><ele>47.0</ele><time>2026-04-17T12:45:14Z</time></trkpt><trkpt lat="43.88470602513259" lon="10.70083648646729"><ele>47.0</ele><time>2026-04-17T12:45:15Z</time></trkpt><trkpt lat="43.884788568309936" lon="10.70068100200225"><ele>47.0</ele><time>2026-04-17T12:45:16Z</time></trkpt><trkpt lat="43.88486428392991" lon="10.70052053128105"><ele>47.0</ele><time>2026-04-17T12:45:17Z</time></trkpt><trkpt lat="43.88493820382508" lon="10.700358091651594"><ele>46.25</ele><time>2026-04-17T12:45:18Z</time></trkpt><trkpt lat="43.885013440719845" lon="10.700193932287359"><ele>45.5</ele><time>2026-04-17T12:45:19Z</time></trkpt><trkpt lat="43.885092344759244" lon="10.700019760187812"><ele>44.75</ele><time>2026-04-17T12:45:20Z</time></trkpt><trkpt lat="43.885173709330054" lon="10.699855935983493"><ele>44.0</ele><time>2026-04-17T12:45:21Z</time></trkpt><trkpt lat="43.885253344415396" lon="10.699678539996084"><ele>44.75</ele><time>2026-04-17T12:45:22Z</time></trkpt><trkpt lat="43.885339510478104" lon="10.699504997968491"><ele>45.5</ele><time>2026-04-17T12:45:23Z</time></trkpt><trkpt lat="43.88541982557715" lon="10.699330605470747"><ele>46.25</ele><time>2026-04-17T12:45:24Z</time></trkpt><trkpt lat="43.88550238247377" lon="10.699160205466743"><ele>47.0</ele><time>2026-04-17T12:45:25Z</time></trkpt><trkpt lat="43.885586706716005" lon="10.69899736177737"><ele>47.0</ele><time>2026-04-17T12:45:26Z</time></trkpt><trkpt lat="43.8856615283682" lon="10.69883653801382"><ele>47.0</ele><time>2026-04-17T12:45:27Z</time></trkpt><trkpt lat="43.88573627349982" lon="10.698675596389888"><ele>47.0</ele><time>2026-04-17T12:45:28Z</time></trkpt><trkpt lat="43.88581039438346" lon="10.698512158657604"><ele>47.0</ele><time>2026-04-17T12:45:29Z</time></trkpt><trkpt lat="43.88588336345361" lon="10.698355806322581"><ele>46.8</ele><time>2026-04-17T12:45:30Z</time></trkpt><trkpt lat="43.885952892979425" lon="10.698211912755967"><ele>46.6</ele><time>2026-04-17T12:45:31Z</time></trkpt><trkpt lat="43.88601913126817" lon="10.698076631264142"><ele>46.4</ele><time>2026-04-17T12:45:32Z</time></trkpt><trkpt lat="43.88607974778521" lon="10.697953189744357"><ele>46.199999999999996</ele><time>2026-04-17T12:45:33Z</time></trkpt><trkpt lat="43.886133641072796" lon="10.697848495839876"><ele>46.0</ele><time>2026-04-17T12:45:34Z</time></trkpt><trkpt lat="43.88618583674473" lon="10.69774600940607"><ele>45.66666666666667</ele><time>2026-04-17T12:45:35Z</time></trkpt><trkpt lat="43.886234012282124" lon="10.697643461029108"><ele>45.333333333333336</ele><time>2026-04-17T12:45:36Z</time></trkpt><trkpt lat="43.886283202927125" lon="10.697544003693666"><ele>45.0</ele><time>2026-04-17T12:45:37Z</time></trkpt><trkpt lat="43.88633615926768" lon="10.697452442883273"><ele>44.666666666666664</ele><time>2026-04-17T12:45:38Z</time></trkpt><trkpt lat="43.88639617909131" lon="10.697376034928034"><ele>44.33333333333333</ele><time>2026-04-17T12:45:39Z</time></trkpt><trkpt lat="43.8864608864748" lon="10.697331444553665"><ele>44.0</ele><time>2026-04-17T12:45:40Z</time></trkpt><trkpt lat="43.88652438247152" lon="10.697306550257698"><ele>44.0</ele><time>2026-04-17T12:45:41Z</time></trkpt><trkpt lat="43.88659422759125" lon="10.69729194900963"><ele>44.0</ele><time>2026-04-17T12:45:42Z</time></trkpt><trkpt lat="43.88667164571652" lon="10.697287481787631"><ele>44.0</ele><time>2026-04-17T12:45:43Z</time></trkpt><trkpt lat="43.88675031043436" lon="10.69726220777164"><ele>44.0</ele><time>2026-04-17T12:45:44Z</time></trkpt><trkpt lat="43.886822164076335" lon="10.697195420589326"><ele>44.0</ele><time>2026-04-17T12:45:45Z</time></trkpt><trkpt lat="43.886884246756736" lon="10.697123131973603"><ele>44.0</ele><time>2026-04-17T12:45:46Z</time></trkpt><trkpt lat="43.88693001596934" lon="10.69703762523321"><ele>43.83333333333333</ele><time>2026-04-17T12:45:47Z</time></trkpt><trkpt lat="43.88695428142474" lon="10.69693650684648"><ele>43.666666666666664</ele><time>2026-04-17T12:45:48Z</time></trkpt><trkpt lat="43.88696335552246" lon="10.696820517152432"><ele>43.5</ele><time>2026-04-17T12:45:49Z</time></trkpt><trkpt lat="43.88699076202061" lon="10.696717883417035"><ele>43.333333333333336</ele><time>2026-04-17T12:45:50Z</time></trkpt><trkpt lat="43.88704007589498" lon="10.69665668343661"><ele>43.16666666666667</ele><time>2026-04-17T12:45:51Z</time></trkpt><trkpt lat="43.887120210665664" lon="10.696614965998968"><ele>43.0</ele><time>2026-04-17T12:45:52Z</time></trkpt><trkpt lat="43.88722015997027" lon="10.696574605999805"><ele>42.8</ele><time>2026-04-17T12:45:53Z</time></trkpt><trkpt lat="43.887316633473134" lon="10.696518630397781"><ele>42.599999999999994</ele><time>2026-04-17T12:45:54Z</time></trkpt><trkpt lat="43.88740506738409" lon="10.696478748632723"><ele>42.400000000000006</ele><time>2026-04-17T12:45:55Z</time></trkpt><trkpt lat="43.88748577745294" lon="10.696446191016385"><ele>42.2</ele><time>2026-04-17T12:45:56Z</time></trkpt><trkpt lat="43.88756898215615" lon="10.696420490955918"><ele>42.0</ele><time>2026-04-17T12:45:57Z</time></trkpt><trkpt lat="43.887663141688854" lon="10.696381374593335"><ele>42.6</ele><time>2026-04-17T12:45:58Z</time></trkpt><trkpt lat="43.88776038586276" lon="10.696351233112358"><ele>43.2</ele><time>2026-04-17T12:45:59Z</time></trkpt><trkpt lat="43.88785406345119" lon="10.696316596139226"><ele>43.8</ele><time>2026-04-17T12:46:00Z</time></trkpt><trkpt lat="43.8879467783696" lon="10.696296103069404"><ele>44.4</ele><time>2026-04-17T12:46:01Z</time></trkpt><trkpt lat="43.888045968567845" lon="10.696261942294544"><ele>45.0</ele><time>2026-04-17T12:46:02Z</time></trkpt><trkpt lat="43.88817375591584" lon="10.696217942043774"><ele>45.0</ele><time>2026-04-17T12:46:03Z</time></trkpt><trkpt lat="43.888295665069585" lon="10.696175965772373"><ele>45.0</ele><time>2026-04-17T12:46:04Z</time></trkpt><trkpt lat="43.888413016837625" lon="10.696135364080623"><ele>45.0</ele><time>2026-04-17T12:46:05Z</time></trkpt><trkpt lat="43.88853230107642" lon="10.696092928091154"><ele>45.0</ele><time>2026-04-17T12:46:06Z</time></trkpt><trkpt lat="43.88865463398295" lon="10.696027549391077"><ele>44.25</ele><time>2026-04-17T12:46:07Z</time></trkpt><trkpt lat="43.888787444120936" lon="10.69597926935242"><ele>43.5</ele><time>2026-04-17T12:46:08Z</time></trkpt><trkpt lat="43.88891871064207" lon="10.695930639552387"><ele>42.75</ele><time>2026-04-17T12:46:09Z</time></trkpt><trkpt lat="43.889049398462596" lon="10.695891811987472"><ele>42.0</ele><time>2026-04-17T12:46:10Z</time></trkpt><trkpt lat="43.88917849631427" lon="10.69585272035145"><ele>43.25</ele><time>2026-04-17T12:46:11Z</time></trkpt><trkpt lat="43.88930092810132" lon="10.695799205130244"><ele>44.5</ele><time>2026-04-17T12:46:12Z</time></trkpt><trkpt lat="43.88943438562037" lon="10.695766098987901"><ele>45.75</ele><time>2026-04-17T12:46:13Z</time></trkpt><trkpt lat="43.88956936859837" lon="10.695716011713783"><ele>47.0</ele><time>2026-04-17T12:46:14Z</time></trkpt><trkpt lat="43.88969568881541" lon="10.695651348137378"><ele>47.0</ele><time>2026-04-17T12:46:15Z</time></trkpt><trkpt lat="43.88982075441348" lon="10.695604710098795"><ele>47.0</ele><time>2026-04-17T12:46:16Z</time></trkpt><trkpt lat="43.889947067287984" lon="10.69555349374561"><ele>47.0</ele><time>2026-04-17T12:46:17Z</time></trkpt><trkpt lat="43.890075775329414" lon="10.695504570158686"><ele>47.0</ele><time>2026-04-17T12:46:18Z</time></trkpt><trkpt lat="43.890204641737306" lon="10.69545461111065"><ele>47.0</ele><time>2026-04-17T12:46:19Z</time></trkpt><trkpt lat="43.89033998198861" lon="10.69540877542599"><ele>47.0</ele><time>2026-04-17T12:46:20Z</time></trkpt><trkpt lat="43.89047738387126" lon="10.695357848877224"><ele>47.0</ele><time>2026-04-17T12:46:21Z</time></trkpt><trkpt lat="43.890617919484164" lon="10.69530520553537"><ele>47.0</ele><time>2026-04-17T12:46:22Z</time></trkpt><trkpt lat="43.890759343931435" lon="10.695253251639356"><ele>47.0</ele><time>2026-04-17T12:46:23Z</time></trkpt><trkpt lat="43.89089808697563" lon="10.695201453129714"><ele>47.0</ele><time>2026-04-17T12:46:24Z</time></trkpt><trkpt lat="43.891035441674234" lon="10.695150700053919"><ele>47.0</ele><time>2026-04-17T12:46:25Z</time></trkpt><trkpt lat="43.89116800683355" lon="10.695103319281854"><ele>47.0</ele><time>2026-04-17T12:46:26Z</time></trkpt><trkpt lat="43.89129650572028" lon="10.695059002795226"><ele>47.6</ele><time>2026-04-17T12:46:27Z</time></trkpt><trkpt lat="43.89142308810853" lon="10.695021739083518"><ele>48.2</ele><time>2026-04-17T12:46:28Z</time></trkpt><trkpt lat="43.89154417353642" lon="10.694997700786256"><ele>48.8</ele><time>2026-04-17T12:46:29Z</time></trkpt><trkpt lat="43.891646045552065" lon="10.694979312083909"><ele>49.4</ele><time>2026-04-17T12:46:30Z</time></trkpt><trkpt lat="43.891727438720196" lon="10.694952865946282"><ele>50.0</ele><time>2026-04-17T12:46:31Z</time></trkpt><trkpt lat="43.89179544213724" lon="10.694929098821822"><ele>50.16666666666667</ele><time>2026-04-17T12:46:32Z</time></trkpt><trkpt lat="43.891894525058184" lon="10.694897905431214"><ele>50.333333333333336</ele><time>2026-04-17T12:46:34Z</time></trkpt><trkpt lat="43.891981209735604" lon="10.694879272486707"><ele>50.5</ele><time>2026-04-17T12:46:36Z</time></trkpt><trkpt lat="43.89204760387046" lon="10.694856039636061"><ele>50.66666666666667</ele><time>2026-04-17T12:46:38Z</time></trkpt><trkpt lat="43.89211347311975" lon="10.694838278363536"><ele>50.833333333333336</ele><time>2026-04-17T12:49:14Z</time></trkpt><trkpt lat="43.89220408308492" lon="10.694796236117323"><ele>51.0</ele><time>2026-04-17T12:49:16Z</time></trkpt><trkpt lat="43.89227456508354" lon="10.694770659882805"><ele>51.0</ele><time>2026-04-17T12:49:17Z</time></trkpt><trkpt lat="43.892350089823644" lon="10.694741185632806"><ele>51.0</ele><time>2026-04-17T12:49:18Z</time></trkpt><trkpt lat="43.89243483060495" lon="10.694705673953461"><ele>51.0</ele><time>2026-04-17T12:49:19Z</time></trkpt><trkpt lat="43.892523037177675" lon="10.694677596164883"><ele>51.0</ele><time>2026-04-17T12:49:20Z</time></trkpt><trkpt lat="43.892601190232064" lon="10.694653444836083"><ele>51.0</ele><time>2026-04-17T12:49:21Z</time></trkpt><trkpt lat="43.89267945813707" lon="10.694627329861047"><ele>51.0</ele><time>2026-04-17T12:49:22Z</time></trkpt><trkpt lat="43.89276506269771" lon="10.69459552559925"><ele>51.0</ele><time>2026-04-17T12:49:23Z</time></trkpt><trkpt lat="43.892860465665485" lon="10.694557163191984"><ele>51.0</ele><time>2026-04-17T12:49:24Z</time></trkpt><trkpt lat="43.892971979548356" lon="10.694511866268659"><ele>51.0</ele><time>2026-04-17T12:49:25Z</time></trkpt><trkpt lat="43.89309889745593" lon="10.694463683687031"><ele>51.0</ele><time>2026-04-17T12:49:26Z</time></trkpt><trkpt lat="43.893222984546284" lon="10.694417493171017"><ele>51.0</ele><time>2026-04-17T12:49:27Z</time></trkpt><trkpt lat="43.893335575508544" lon="10.6943754074643"><ele>51.0</ele><time>2026-04-17T12:49:28Z</time></trkpt><trkpt lat="43.89344559442738" lon="10.694336974460729"><ele>51.0</ele><time>2026-04-17T12:49:29Z</time></trkpt><trkpt lat="43.89357275129856" lon="10.694292452098543"><ele>51.0</ele><time>2026-04-17T12:49:30Z</time></trkpt><trkpt lat="43.89371605837062" lon="10.694235999654538"><ele>52.0</ele><time>2026-04-17T12:49:31Z</time></trkpt><trkpt lat="43.89386859406168" lon="10.694184301742922"><ele>53.0</ele><time>2026-04-17T12:49:32Z</time></trkpt><trkpt lat="43.894030367960035" lon="10.694137815756239"><ele>54.0</ele><time>2026-04-17T12:49:33Z</time></trkpt><trkpt lat="43.89418762694614" lon="10.694089350667353"><ele>55.0</ele><time>2026-04-17T12:49:34Z</time></trkpt><trkpt lat="43.894344582609456" lon="10.694037568146415"><ele>56.0</ele><time>2026-04-17T12:49:35Z</time></trkpt><trkpt lat="43.89449549177094" lon="10.693982402514376"><ele>57.0</ele><time>2026-04-17T12:49:36Z</time></trkpt><trkpt lat="43.894645077212736" lon="10.693924811769993"><ele>57.0</ele><time>2026-04-17T12:49:37Z</time></trkpt><trkpt lat="43.894794287588" lon="10.693874774290318"><ele>57.0</ele><time>2026-04-17T12:49:38Z</time></trkpt><trkpt lat="43.89494149966101" lon="10.693827458705158"><ele>57.0</ele><time>2026-04-17T12:49:39Z</time></trkpt><trkpt lat="43.895087152105376" lon="10.69377686102577"><ele>58.0</ele><time>2026-04-17T12:49:40Z</time></trkpt><trkpt lat="43.89522904728024" lon="10.693727780156786"><ele>59.0</ele><time>2026-04-17T12:49:41Z</time></trkpt><trkpt lat="43.89536925213137" lon="10.693682042617038"><ele>60.0</ele><time>2026-04-17T12:49:42Z</time></trkpt><trkpt lat="43.895505077002674" lon="10.693638003884262"><ele>61.0</ele><time>2026-04-17T12:49:43Z</time></trkpt><trkpt lat="43.89564513224009" lon="10.693599423622764"><ele>59.75</ele><time>2026-04-17T12:49:44Z</time></trkpt><trkpt lat="43.895790324719606" lon="10.693552549443462"><ele>58.5</ele><time>2026-04-17T12:49:45Z</time></trkpt><trkpt lat="43.895939929965856" lon="10.693504570639993"><ele>57.25</ele><time>2026-04-17T12:49:46Z</time></trkpt><trkpt lat="43.896082195295165" lon="10.69345800567394"><ele>56.0</ele><time>2026-04-17T12:49:47Z</time></trkpt><trkpt lat="43.8962203611579" lon="10.693413129281351"><ele>56.0</ele><time>2026-04-17T12:49:48Z</time></trkpt><trkpt lat="43.896355550233004" lon="10.693366939460264"><ele>56.0</ele><time>2026-04-17T12:49:49Z</time></trkpt><trkpt lat="43.89649067860279" lon="10.693321090146053"><ele>56.0</ele><time>2026-04-17T12:49:50Z</time></trkpt><trkpt lat="43.896625049194974" lon="10.69327694821456"><ele>56.0</ele><time>2026-04-17T12:49:51Z</time></trkpt><trkpt lat="43.896759839597635" lon="10.69323470228493"><ele>57.0</ele><time>2026-04-17T12:49:52Z</time></trkpt><trkpt lat="43.89689535227184" lon="10.69318571274074"><ele>58.0</ele><time>2026-04-17T12:49:53Z</time></trkpt><trkpt lat="43.897032648922455" lon="10.693137924881672"><ele>59.0</ele><time>2026-04-17T12:49:54Z</time></trkpt><trkpt lat="43.89717099392833" lon="10.69309386737064"><ele>60.0</ele><time>2026-04-17T12:49:55Z</time></trkpt><trkpt lat="43.897310550545996" lon="10.693044542759397"><ele>60.0</ele><time>2026-04-17T12:49:56Z</time></trkpt><trkpt lat="43.8974470060633" lon="10.692987256268834"><ele>60.0</ele><time>2026-04-17T12:49:57Z</time></trkpt><trkpt lat="43.897585963317695" lon="10.69293683822729"><ele>60.0</ele><time>2026-04-17T12:49:58Z</time></trkpt><trkpt lat="43.89772231850759" lon="10.692892909844739"><ele>60.0</ele><time>2026-04-17T12:49:59Z</time></trkpt><trkpt lat="43.89784949043148" lon="10.69285156060635"><ele>59.8</ele><time>2026-04-17T12:50:00Z</time></trkpt><trkpt lat="43.89796796068797" lon="10.692809593048352"><ele>59.6</ele><time>2026-04-17T12:50:01Z</time></trkpt><trkpt lat="43.89807955824252" lon="10.692767729213475"><ele>59.400000000000006</ele><time>2026-04-17T12:50:02Z</time></trkpt><trkpt lat="43.89818412454674" lon="10.692731006023704"><ele>59.2</ele><time>2026-04-17T12:50:03Z</time></trkpt><trkpt lat="43.89828203660845" lon="10.692699211462045"><ele>59.0</ele><time>2026-04-17T12:50:04Z</time></trkpt><trkpt lat="43.89838332449119" lon="10.69266768362353"><ele>58.800000000000004</ele><time>2026-04-17T12:50:05Z</time></trkpt><trkpt lat="43.898478371745185" lon="10.692641751017886"><ele>58.60000000000001</ele><time>2026-04-17T12:50:06Z</time></trkpt><trkpt lat="43.89855749888517" lon="10.692630903866183"><ele>58.4</ele><time>2026-04-17T12:50:07Z</time></trkpt><trkpt lat="43.89865815302615" lon="10.69261982098647"><ele>58.2</ele><time>2026-04-17T12:50:09Z</time></trkpt><trkpt lat="43.89874042533681" lon="10.692622501407895"><ele>58.0</ele><time>2026-04-17T12:50:11Z</time></trkpt><trkpt lat="43.898652311337834" lon="10.69256586965899"><ele>57.99999999999999</ele><time>2026-04-17T12:50:12Z</time></trkpt><trkpt lat="43.89872311342127" lon="10.692559099591156"><ele>58.0</ele><time>2026-04-17T12:50:20Z</time></trkpt><trkpt lat="43.89884859158223" lon="10.692528886111957"><ele>58.0</ele><time>2026-04-17T12:50:22Z</time></trkpt><trkpt lat="43.898927780945726" lon="10.692502013306946"><ele>58.0</ele><time>2026-04-17T12:50:23Z</time></trkpt><trkpt lat="43.89900930880488" lon="10.692480382201149"><ele>57.99999999999999</ele><time>2026-04-17T12:50:24Z</time></trkpt><trkpt lat="43.899075033655585" lon="10.692466237452793"><ele>58.0</ele><time>2026-04-17T12:50:25Z</time></trkpt><trkpt lat="43.899150059510895" lon="10.69245396919717"><ele>58.0</ele><time>2026-04-17T12:50:26Z</time></trkpt><trkpt lat="43.89923584100962" lon="10.692431955653236"><ele>58.0</ele><time>2026-04-17T12:50:27Z</time></trkpt><trkpt lat="43.8993347931336" lon="10.69241911056071"><ele>58.0</ele><time>2026-04-17T12:50:28Z</time></trkpt><trkpt lat="43.89942133214878" lon="10.692390466738033"><ele>58.0</ele><time>2026-04-17T12:50:29Z</time></trkpt><trkpt lat="43.89951711471895" lon="10.692367238453283"><ele>58.0</ele><time>2026-04-17T12:50:30Z</time></trkpt><trkpt lat="43.89961398132581" lon="10.692342823746813"><ele>58.8</ele><time>2026-04-17T12:50:31Z</time></trkpt><trkpt lat="43.89971130601271" lon="10.692309207848112"><ele>59.599999999999994</ele><time>2026-04-17T12:50:32Z</time></trkpt><trkpt lat="43.899806341388214" lon="10.69226130378839"><ele>60.400000000000006</ele><time>2026-04-17T12:50:33Z</time></trkpt><trkpt lat="43.89989595463839" lon="10.692219454830633"><ele>61.2</ele><time>2026-04-17T12:50:34Z</time></trkpt><trkpt lat="43.89997223881864" lon="10.692179451730874"><ele>62.0</ele><time>2026-04-17T12:50:35Z</time></trkpt><trkpt lat="43.90005183911445" lon="10.692148335099715"><ele>63.0</ele><time>2026-04-17T12:50:36Z</time></trkpt><trkpt lat="43.90012221454928" lon="10.692122381468995"><ele>64.0</ele><time>2026-04-17T12:50:37Z</time></trkpt><trkpt lat="43.900248024998305" lon="10.692100104311955"><ele>65.0</ele><time>2026-04-17T12:50:39Z</time></trkpt><trkpt lat="43.9003884585885" lon="10.692067441389263"><ele>66.0</ele><time>2026-04-17T12:50:41Z</time></trkpt><trkpt lat="43.900481187268944" lon="10.69204809388434"><ele>67.0</ele><time>2026-04-17T12:50:42Z</time></trkpt><trkpt lat="43.90056765545537" lon="10.692059016655588"><ele>67.0</ele><time>2026-04-17T12:50:43Z</time></trkpt><trkpt lat="43.90063449200448" lon="10.692043576515076"><ele>67.0</ele><time>2026-04-17T12:50:44Z</time></trkpt><trkpt lat="43.90069669868026" lon="10.692022770975315"><ele>67.0</ele><time>2026-04-17T12:50:45Z</time></trkpt><trkpt lat="43.900777754184936" lon="10.691974418922358"><ele>67.0</ele><time>2026-04-17T12:50:46Z</time></trkpt><trkpt lat="43.90085880323275" lon="10.691957862787705"><ele>67.0</ele><time>2026-04-17T12:50:47Z</time></trkpt><trkpt lat="43.90093614955695" lon="10.691929726982734"><ele>67.0</ele><time>2026-04-17T12:50:48Z</time></trkpt><trkpt lat="43.90105320419887" lon="10.691895533768546"><ele>67.4</ele><time>2026-04-17T12:50:50Z</time></trkpt><trkpt lat="43.901129862791294" lon="10.69192246865445"><ele>67.80000000000001</ele><time>2026-04-17T12:50:52Z</time></trkpt><trkpt lat="43.90123833305149" lon="10.691805738716127"><ele>68.2</ele><time>2026-04-17T12:50:54Z</time></trkpt><trkpt lat="43.9013264805551" lon="10.691722786473527"><ele>68.60000000000001</ele><time>2026-04-17T12:50:56Z</time></trkpt><trkpt lat="43.90139718087021" lon="10.691737019857687"><ele>69.0</ele><time>2026-04-17T12:50:57Z</time></trkpt><trkpt lat="43.90143868400754" lon="10.69166615798734"><ele>69.0</ele><time>2026-04-17T12:50:58Z</time></trkpt><trkpt lat="43.901469970227154" lon="10.691572515935414"><ele>69.0</ele><time>2026-04-17T12:50:59Z</time></trkpt><trkpt lat="43.90151601062873" lon="10.6915078992359"><ele>69.0</ele><time>2026-04-17T12:51:00Z</time></trkpt><trkpt lat="43.901569577735145" lon="10.69146133095377"><ele>69.0</ele><time>2026-04-17T12:51:01Z</time></trkpt><trkpt lat="43.901611110164446" lon="10.691391168652896"><ele>69.0</ele><time>2026-04-17T12:51:02Z</time></trkpt><trkpt lat="43.90165166952267" lon="10.691314418652"><ele>69.0</ele><time>2026-04-17T12:51:03Z</time></trkpt><trkpt lat="43.90173621232529" lon="10.691185661156302"><ele>68.60000000000001</ele><time>2026-04-17T12:51:05Z</time></trkpt><trkpt lat="43.90181494061776" lon="10.691063288722962"><ele>68.2</ele><time>2026-04-17T12:51:07Z</time></trkpt><trkpt lat="43.90188938681306" lon="10.690939513560727"><ele>67.80000000000001</ele><time>2026-04-17T12:51:09Z</time></trkpt><trkpt lat="43.90195254704691" lon="10.690845639446374"><ele>67.4</ele><time>2026-04-17T12:51:11Z</time></trkpt><trkpt lat="43.90201903276773" lon="10.690764297843852"><ele>67.0</ele><time>2026-04-17T12:51:13Z</time></trkpt><trkpt lat="43.9020677274077" lon="10.69068578658245"><ele>67.0</ele><time>2026-04-17T12:51:27Z</time></trkpt><trkpt lat="43.90211502770406" lon="10.690752016023032"><ele>67.0</ele><time>2026-04-17T12:51:29Z</time></trkpt><trkpt lat="43.90218098230623" lon="10.690785176450852"><ele>67.0</ele><time>2026-04-17T12:51:31Z</time></trkpt><trkpt lat="43.90225224619345" lon="10.690822002995752"><ele>67.0</ele><time>2026-04-17T12:51:33Z</time></trkpt><trkpt lat="43.90232002935752" lon="10.690858572456547"><ele>67.0</ele><time>2026-04-17T12:51:36Z</time></trkpt><trkpt lat="43.90241218261517" lon="10.690904897766247"><ele>67.0</ele><time>2026-04-17T12:51:40Z</time></trkpt><trkpt lat="43.90248059817683" lon="10.690905329296935"><ele>67.0</ele><time>2026-04-17T12:51:43Z</time></trkpt><trkpt lat="43.902554355218115" lon="10.690952042759347"><ele>67.0</ele><time>2026-04-17T12:51:47Z</time></trkpt><trkpt lat="43.90262388617592" lon="10.690911708808589"><ele>67.0</ele><time>2026-04-17T12:51:49Z</time></trkpt><trkpt lat="43.90273223432114" lon="10.690901598915683"><ele>67.0</ele><time>2026-04-17T12:51:51Z</time></trkpt><trkpt lat="43.902790112199526" lon="10.690867078751543"><ele>67.0</ele><time>2026-04-17T12:51:52Z</time></trkpt><trkpt lat="43.902877767617206" lon="10.69087193267724"><ele>67.0</ele><time>2026-04-17T12:51:54Z</time></trkpt><trkpt lat="43.902984536333086" lon="10.690863002651968"><ele>67.0</ele><time>2026-04-17T12:51:56Z</time></trkpt><trkpt lat="43.903087128601925" lon="10.690858478773434"><ele>67.0</ele><time>2026-04-17T12:51:58Z</time></trkpt><trkpt lat="43.90315756536554" lon="10.690855563031715"><ele>67.0</ele><time>2026-04-17T12:52:01Z</time></trkpt><trkpt lat="43.90323366406902" lon="10.690852412916543"><ele>67.0</ele><time>2026-04-17T12:52:03Z</time></trkpt><trkpt lat="43.90333979224348" lon="10.690848019846818"><ele>67.0</ele><time>2026-04-17T12:52:05Z</time></trkpt><trkpt lat="43.90340717821781" lon="10.69084218352151"><ele>67.0</ele><time>2026-04-17T12:52:06Z</time></trkpt><trkpt lat="43.903516079150954" lon="10.690835410584096"><ele>67.0</ele><time>2026-04-17T12:52:08Z</time></trkpt><trkpt lat="43.903634736752046" lon="10.690828030837626"><ele>67.0</ele><time>2026-04-17T12:52:10Z</time></trkpt><trkpt lat="43.903715247403" lon="10.690820730066955"><ele>67.0</ele><time>2026-04-17T12:52:12Z</time></trkpt><trkpt lat="43.90378942090226" lon="10.69081358630596"><ele>67.0</ele><time>2026-04-17T12:52:16Z</time></trkpt><trkpt lat="43.903868484752316" lon="10.690849410919249"><ele>67.0</ele><time>2026-04-17T12:54:13.001Z</time></trkpt><trkpt lat="43.90390468905345" lon="10.690932958431786"><ele>67.0</ele><time>2026-04-17T12:54:29.001Z</time></trkpt><trkpt lat="43.90395160492666" lon="10.691026927058937"><ele>67.0</ele><time>2026-04-17T12:54:38.001Z</time></trkpt><trkpt lat="43.90389404342761" lon="10.691082800892005"><ele>67.0</ele><time>2026-04-17T12:54:46.001Z</time></trkpt><trkpt lat="43.90388810694236" lon="10.69117152165369"><ele>69.0</ele><time>2026-04-17T12:54:54.001Z</time></trkpt></trkseg><trkseg><trkpt lat="43.90383692539711" lon="10.690860423520716"><ele>67.0</ele><time>2026-04-17T13:09:49.999Z</time></trkpt><trkpt lat="43.903916534971515" lon="10.69084798706644"><ele>67.0</ele><time>2026-04-17T13:09:52.999Z</time></trkpt><trkpt lat="43.904019631453885" lon="10.69080440116981"><ele>67.0</ele><time>2026-04-17T13:09:54.999Z</time></trkpt><trkpt lat="43.904103919768254" lon="10.690785479874547"><ele>67.0</ele><time>2026-04-17T13:09:55.999Z</time></trkpt><trkpt lat="43.90419636303516" lon="10.69076234932763"><ele>67.0</ele><time>2026-04-17T13:09:56.999Z</time></trkpt><trkpt lat="43.904291735936745" lon="10.690748291326209"><ele>67.16666666666666</ele><time>2026-04-17T13:09:57.999Z</time></trkpt><trkpt lat="43.90438542771381" lon="10.69074018994987"><ele>67.33333333333333</ele><time>2026-04-17T13:09:58.999Z</time></trkpt><trkpt lat="43.90447176953084" lon="10.690735116234322"><ele>67.5</ele><time>2026-04-17T13:09:59.999Z</time></trkpt><trkpt lat="43.90455215014095" lon="10.690708352293957"><ele>67.66666666666667</ele><time>2026-04-17T13:10:00.999Z</time></trkpt><trkpt lat="43.904639638913515" lon="10.690691804219979"><ele>67.83333333333334</ele><time>2026-04-17T13:10:01.999Z</time></trkpt><trkpt lat="43.90471281885267" lon="10.690665462658469"><ele>68.0</ele><time>2026-04-17T13:10:02.999Z</time></trkpt><trkpt lat="43.90477565038625" lon="10.690641886784725"><ele>68.0</ele><time>2026-04-17T13:10:03.999Z</time></trkpt><trkpt lat="43.904895818651234" lon="10.690630906341807"><ele>68.0</ele><time>2026-04-17T13:10:05.999Z</time></trkpt><trkpt lat="43.90497169314767" lon="10.690566578814524"><ele>68.0</ele><time>2026-04-17T13:10:07.999Z</time></trkpt><trkpt lat="43.90502125173984" lon="10.690507247315537"><ele>68.0</ele><time>2026-04-17T13:10:10.999Z</time></trkpt><trkpt lat="43.90507199633961" lon="10.69045176559575"><ele>68.0</ele><time>2026-04-17T13:10:13.999Z</time></trkpt><trkpt lat="43.90502988074618" lon="10.690335146296492"><ele>68.0</ele><time>2026-04-17T13:10:14.999Z</time></trkpt><trkpt lat="43.90499583579804" lon="10.690195220055864"><ele>67.6</ele><time>2026-04-17T13:10:16.999Z</time></trkpt><trkpt lat="43.905016495693715" lon="10.690107009870223"><ele>67.19999999999999</ele><time>2026-04-17T13:10:17.999Z</time></trkpt><trkpt lat="43.90501084724986" lon="10.690019027327118"><ele>66.8</ele><time>2026-04-17T13:10:18.999Z</time></trkpt><trkpt lat="43.904988701940916" lon="10.689854152665575"><ele>66.39999999999999</ele><time>2026-04-17T13:10:20.999Z</time></trkpt><trkpt lat="43.90498079201092" lon="10.689711523248592"><ele>66.0</ele><time>2026-04-17T13:10:22.999Z</time></trkpt><trkpt lat="43.90497025762895" lon="10.689558678174482"><ele>66.39999999999999</ele><time>2026-04-17T13:10:24.999Z</time></trkpt><trkpt lat="43.90496081890862" lon="10.689392476606562"><ele>66.8</ele><time>2026-04-17T13:10:26.999Z</time></trkpt><trkpt lat="43.904964940951466" lon="10.689259599904581"><ele>67.19999999999999</ele><time>2026-04-17T13:10:28.999Z</time></trkpt><trkpt lat="43.904958636285315" lon="10.689168175139788"><ele>67.6</ele><time>2026-04-17T13:10:30.999Z</time></trkpt><trkpt lat="43.90485535440908" lon="10.689124645018026"><ele>68.0</ele><time>2026-04-17T13:10:32.999Z</time></trkpt><trkpt lat="43.904715828086005" lon="10.689116303441635"><ele>68.0</ele><time>2026-04-17T13:10:34.999Z</time></trkpt><trkpt lat="43.90463655813881" lon="10.689129357156576"><ele>68.0</ele><time>2026-04-17T13:10:35.999Z</time></trkpt><trkpt lat="43.90455172444533" lon="10.689134453133185"><ele>68.0</ele><time>2026-04-17T13:10:36.999Z</time></trkpt><trkpt lat="43.904474861683894" lon="10.689138747863103"><ele>68.0</ele><time>2026-04-17T13:10:37.999Z</time></trkpt><trkpt lat="43.90441010666001" lon="10.68914354591192"><ele>68.0</ele><time>2026-04-17T13:10:38.999Z</time></trkpt><trkpt lat="43.904340738446436" lon="10.689138750274983"><ele>68.0</ele><time>2026-04-17T13:10:39.999Z</time></trkpt><trkpt lat="43.90426204287189" lon="10.689142931085298"><ele>67.8</ele><time>2026-04-17T13:10:40.999Z</time></trkpt><trkpt lat="43.90416538240915" lon="10.68913711379905"><ele>67.6</ele><time>2026-04-17T13:10:41.999Z</time></trkpt><trkpt lat="43.90405982155197" lon="10.689135250602536"><ele>67.4</ele><time>2026-04-17T13:10:42.999Z</time></trkpt><trkpt lat="43.903945442989546" lon="10.689136378892337"><ele>67.2</ele><time>2026-04-17T13:10:43.999Z</time></trkpt><trkpt lat="43.90383279030756" lon="10.689145597469045"><ele>67.0</ele><time>2026-04-17T13:10:44.999Z</time></trkpt><trkpt lat="43.903721403195064" lon="10.689153575763967"><ele>67.0</ele><time>2026-04-17T13:10:45.999Z</time></trkpt><trkpt lat="43.90361042233203" lon="10.68915855808338"><ele>67.0</ele><time>2026-04-17T13:10:46.999Z</time></trkpt><trkpt lat="43.90350031841808" lon="10.689165332541528"><ele>67.0</ele><time>2026-04-17T13:10:47.999Z</time></trkpt><trkpt lat="43.903389210374726" lon="10.689170160386825"><ele>67.0</ele><time>2026-04-17T13:10:48.999Z</time></trkpt><trkpt lat="43.90327721451807" lon="10.689177591640405"><ele>67.0</ele><time>2026-04-17T13:10:49.999Z</time></trkpt><trkpt lat="43.903166629385865" lon="10.689178907760047"><ele>66.2</ele><time>2026-04-17T13:10:50.999Z</time></trkpt><trkpt lat="43.90305266752239" lon="10.689189424792009"><ele>65.4</ele><time>2026-04-17T13:10:51.999Z</time></trkpt><trkpt lat="43.90293804365783" lon="10.689188061634587"><ele>64.6</ele><time>2026-04-17T13:10:52.999Z</time></trkpt><trkpt lat="43.902827456197265" lon="10.68918069071363"><ele>63.8</ele><time>2026-04-17T13:10:53.999Z</time></trkpt><trkpt lat="43.90271922997422" lon="10.689180425966407"><ele>63.0</ele><time>2026-04-17T13:10:54.999Z</time></trkpt><trkpt lat="43.902618073085556" lon="10.689177992394614"><ele>63.166666666666664</ele><time>2026-04-17T13:10:55.999Z</time></trkpt><trkpt lat="43.90252556433646" lon="10.68917429523884"><ele>63.33333333333333</ele><time>2026-04-17T13:10:56.999Z</time></trkpt><trkpt lat="43.90243904530212" lon="10.689171089814803"><ele>63.5</ele><time>2026-04-17T13:10:57.999Z</time></trkpt><trkpt lat="43.902363556950945" lon="10.689165047545227"><ele>63.666666666666664</ele><time>2026-04-17T13:10:58.999Z</time></trkpt><trkpt lat="43.902294695535694" lon="10.689162814064467"><ele>63.83333333333333</ele><time>2026-04-17T13:10:59.999Z</time></trkpt><trkpt lat="43.90217616486918" lon="10.689161985564915"><ele>64.0</ele><time>2026-04-17T13:11:01.999Z</time></trkpt><trkpt lat="43.90210326822772" lon="10.689156911009137"><ele>64.0</ele><time>2026-04-17T13:11:03.999Z</time></trkpt><trkpt lat="43.90204085659735" lon="10.689130247167363"><ele>64.0</ele><time>2026-04-17T13:11:06.999Z</time></trkpt><trkpt lat="43.90195530730914" lon="10.68908972910728"><ele>64.0</ele><time>2026-04-17T13:11:29.999Z</time></trkpt><trkpt lat="43.90184626629197" lon="10.689031809052972"><ele>64.0</ele><time>2026-04-17T13:11:31.999Z</time></trkpt><trkpt lat="43.90173459206532" lon="10.688996468425621"><ele>64.0</ele><time>2026-04-17T13:11:33.999Z</time></trkpt><trkpt lat="43.9016296985002" lon="10.688948971193847"><ele>63.857142857142854</ele><time>2026-04-17T13:11:35.999Z</time></trkpt><trkpt lat="43.90156149504512" lon="10.688920502617156"><ele>63.71428571428571</ele><time>2026-04-17T13:11:36.999Z</time></trkpt><trkpt lat="43.90149412842664" lon="10.688915135963152"><ele>63.57142857142857</ele><time>2026-04-17T13:11:37.999Z</time></trkpt><trkpt lat="43.901431109326296" lon="10.688885067344524"><ele>63.42857142857143</ele><time>2026-04-17T13:11:38.999Z</time></trkpt><trkpt lat="43.90136824738158" lon="10.688864206685098"><ele>63.285714285714285</ele><time>2026-04-17T13:11:39.999Z</time></trkpt><trkpt lat="43.90129338291304" lon="10.688846253294194"><ele>63.14285714285714</ele><time>2026-04-17T13:11:40.999Z</time></trkpt><trkpt lat="43.90122960143692" lon="10.688802075522851"><ele>63.0</ele><time>2026-04-17T13:11:41.999Z</time></trkpt><trkpt lat="43.90114592547465" lon="10.688848985417254"><ele>63.0</ele><time>2026-04-17T13:11:42.999Z</time></trkpt><trkpt lat="43.90106564287665" lon="10.68885807419324"><ele>63.0</ele><time>2026-04-17T13:11:43.999Z</time></trkpt><trkpt lat="43.900986491041984" lon="10.688871051633141"><ele>63.0</ele><time>2026-04-17T13:11:44.999Z</time></trkpt><trkpt lat="43.90089583286208" lon="10.68888055121241"><ele>63.0</ele><time>2026-04-17T13:11:45.999Z</time></trkpt><trkpt lat="43.900787407931965" lon="10.688892207449417"><ele>63.0</ele><time>2026-04-17T13:11:46.999Z</time></trkpt><trkpt lat="43.90066529919598" lon="10.688901247625827"><ele>62.0</ele><time>2026-04-17T13:11:47.999Z</time></trkpt><trkpt lat="43.90054619867314" lon="10.68890931125933"><ele>61.0</ele><time>2026-04-17T13:11:48.999Z</time></trkpt><trkpt lat="43.9004313843566" lon="10.68891500464179"><ele>60.0</ele><time>2026-04-17T13:11:49.999Z</time></trkpt><trkpt lat="43.900314937967295" lon="10.688925052590072"><ele>59.0</ele><time>2026-04-17T13:11:50.999Z</time></trkpt><trkpt lat="43.900199638992135" lon="10.68893357901933"><ele>59.0</ele><time>2026-04-17T13:11:51.999Z</time></trkpt><trkpt lat="43.90008727279581" lon="10.688925912917796"><ele>59.0</ele><time>2026-04-17T13:11:52.999Z</time></trkpt><trkpt lat="43.89996948982412" lon="10.688926141358229"><ele>59.0</ele><time>2026-04-17T13:11:53.999Z</time></trkpt><trkpt lat="43.89985600660627" lon="10.6889201633024"><ele>59.0</ele><time>2026-04-17T13:11:54.999Z</time></trkpt><trkpt lat="43.89974326386289" lon="10.68891512432412"><ele>58.800000000000004</ele><time>2026-04-17T13:11:55.999Z</time></trkpt><trkpt lat="43.899635034121964" lon="10.688911862371645"><ele>58.60000000000001</ele><time>2026-04-17T13:11:56.999Z</time></trkpt><trkpt lat="43.89952025743254" lon="10.688913630965303"><ele>58.4</ele><time>2026-04-17T13:11:57.999Z</time></trkpt><trkpt lat="43.89941127434149" lon="10.68890858945496"><ele>58.2</ele><time>2026-04-17T13:11:58.999Z</time></trkpt><trkpt lat="43.89930267005632" lon="10.688903604161064"><ele>58.0</ele><time>2026-04-17T13:11:59.999Z</time></trkpt><trkpt lat="43.89919897037229" lon="10.688901816389428"><ele>57.599999999999994</ele><time>2026-04-17T13:12:00.999Z</time></trkpt><trkpt lat="43.89910155919059" lon="10.68889779048529"><ele>57.199999999999996</ele><time>2026-04-17T13:12:01.999Z</time></trkpt><trkpt lat="43.89900902970156" lon="10.688896867736565"><ele>56.8</ele><time>2026-04-17T13:12:02.999Z</time></trkpt><trkpt lat="43.89892350486176" lon="10.688890586473391"><ele>56.4</ele><time>2026-04-17T13:12:03.999Z</time></trkpt><trkpt lat="43.898835955342186" lon="10.688882573931462"><ele>56.0</ele><time>2026-04-17T13:12:04.999Z</time></trkpt><trkpt lat="43.89874706934209" lon="10.688874855746924"><ele>56.0</ele><time>2026-04-17T13:12:05.999Z</time></trkpt><trkpt lat="43.89864653474652" lon="10.688864497558521"><ele>55.99999999999999</ele><time>2026-04-17T13:12:06.999Z</time></trkpt><trkpt lat="43.898535204638016" lon="10.68886003547712"><ele>55.99999999999999</ele><time>2026-04-17T13:12:07.999Z</time></trkpt><trkpt lat="43.89842487522144" lon="10.688858484957345"><ele>56.0</ele><time>2026-04-17T13:12:08.999Z</time></trkpt><trkpt lat="43.898314104024244" lon="10.68884736787649"><ele>56.0</ele><time>2026-04-17T13:12:09.999Z</time></trkpt><trkpt lat="43.898198887937454" lon="10.688833454312352"><ele>55.8</ele><time>2026-04-17T13:12:10.999Z</time></trkpt><trkpt lat="43.898092119694056" lon="10.688835640110835"><ele>55.599999999999994</ele><time>2026-04-17T13:12:11.999Z</time></trkpt><trkpt lat="43.897982204197774" lon="10.688828620650698"><ele>55.4</ele><time>2026-04-17T13:12:12.999Z</time></trkpt><trkpt lat="43.897873274718386" lon="10.688822915282335"><ele>55.2</ele><time>2026-04-17T13:12:13.999Z</time></trkpt><trkpt lat="43.897767360299035" lon="10.688817572612061"><ele>55.0</ele><time>2026-04-17T13:12:14.999Z</time></trkpt><trkpt lat="43.89766766332426" lon="10.688800252061574"><ele>54.49999999999999</ele><time>2026-04-17T13:12:15.999Z</time></trkpt><trkpt lat="43.897576608632086" lon="10.688807323906163"><ele>54.0</ele><time>2026-04-17T13:12:16.999Z</time></trkpt><trkpt lat="43.89749309057144" lon="10.688802044077164"><ele>53.5</ele><time>2026-04-17T13:12:17.999Z</time></trkpt><trkpt lat="43.89741944352795" lon="10.688797514581307"><ele>53.0</ele><time>2026-04-17T13:12:18.999Z</time></trkpt><trkpt lat="43.897343492626966" lon="10.688799692328319"><ele>52.49999999999999</ele><time>2026-04-17T13:12:19.999Z</time></trkpt><trkpt lat="43.897274947008235" lon="10.688801215912472"><ele>52.0</ele><time>2026-04-17T13:12:20.999Z</time></trkpt><trkpt lat="43.89719048007511" lon="10.688798561752334"><ele>52.0</ele><time>2026-04-17T13:12:22.999Z</time></trkpt><trkpt lat="43.89714655044761" lon="10.689027466288255"><ele>52.0</ele><time>2026-04-17T13:12:25.999Z</time></trkpt><trkpt lat="43.89716146192195" lon="10.689196303579267"><ele>52.0</ele><time>2026-04-17T13:12:27.999Z</time></trkpt><trkpt lat="43.89716242951372" lon="10.68930330940003"><ele>52.0</ele><time>2026-04-17T13:12:28.999Z</time></trkpt><trkpt lat="43.8971633264337" lon="10.689411177952216"><ele>52.0</ele><time>2026-04-17T13:12:29.999Z</time></trkpt><trkpt lat="43.897162117930876" lon="10.68951690477002"><ele>51.83333333333333</ele><time>2026-04-17T13:12:30.999Z</time></trkpt><trkpt lat="43.89715890435056" lon="10.68962593140815"><ele>51.666666666666664</ele><time>2026-04-17T13:12:31.999Z</time></trkpt><trkpt lat="43.897156722664164" lon="10.689736807016208"><ele>51.5</ele><time>2026-04-17T13:12:32.999Z</time></trkpt><trkpt lat="43.897155749650906" lon="10.689866256691696"><ele>51.33333333333333</ele><time>2026-04-17T13:12:33.999Z</time></trkpt><trkpt lat="43.89715784408534" lon="10.690005265338424"><ele>51.166666666666664</ele><time>2026-04-17T13:12:35Z</time></trkpt><trkpt lat="43.89715938239995" lon="10.690135745945598"><ele>51.0</ele><time>2026-04-17T13:12:35.999Z</time></trkpt><trkpt lat="43.89715976592405" lon="10.690263149338818"><ele>51.0</ele><time>2026-04-17T13:12:37Z</time></trkpt><trkpt lat="43.89715672343733" lon="10.69038543933035"><ele>51.0</ele><time>2026-04-17T13:12:38Z</time></trkpt><trkpt lat="43.89715407747653" lon="10.690504041856762"><ele>51.0</ele><time>2026-04-17T13:12:39Z</time></trkpt><trkpt lat="43.897154351790846" lon="10.690631851978406"><ele>51.0</ele><time>2026-04-17T13:12:40Z</time></trkpt><trkpt lat="43.89715732808242" lon="10.690766386033747"><ele>51.0</ele><time>2026-04-17T13:12:41Z</time></trkpt><trkpt lat="43.8971556584752" lon="10.690907339465422"><ele>51.0</ele><time>2026-04-17T13:12:42Z</time></trkpt><trkpt lat="43.89715706526126" lon="10.69104844341105"><ele>51.0</ele><time>2026-04-17T13:12:43Z</time></trkpt><trkpt lat="43.89716422154294" lon="10.691187509946884"><ele>51.0</ele><time>2026-04-17T13:12:44Z</time></trkpt><trkpt lat="43.897180613071434" lon="10.691314633283774"><ele>51.0</ele><time>2026-04-17T13:12:45Z</time></trkpt><trkpt lat="43.89720218020087" lon="10.691436307863013"><ele>51.0</ele><time>2026-04-17T13:12:46Z</time></trkpt><trkpt lat="43.89722428774943" lon="10.691552473773012"><ele>51.5</ele><time>2026-04-17T13:12:47Z</time></trkpt><trkpt lat="43.897247584807566" lon="10.691664717115218"><ele>52.0</ele><time>2026-04-17T13:12:48Z</time></trkpt><trkpt lat="43.89727492448377" lon="10.691785704380987"><ele>52.5</ele><time>2026-04-17T13:12:49Z</time></trkpt><trkpt lat="43.89730320467175" lon="10.691911016022773"><ele>53.0</ele><time>2026-04-17T13:12:50Z</time></trkpt><trkpt lat="43.89732472625002" lon="10.692024453607"><ele>53.5</ele><time>2026-04-17T13:12:51Z</time></trkpt><trkpt lat="43.8973436018918" lon="10.692130624388547"><ele>54.0</ele><time>2026-04-17T13:12:52Z</time></trkpt><trkpt lat="43.89735779681973" lon="10.692223870386316"><ele>54.25</ele><time>2026-04-17T13:12:53Z</time></trkpt><trkpt lat="43.89738329101883" lon="10.692358306260438"><ele>54.5</ele><time>2026-04-17T13:12:55Z</time></trkpt><trkpt lat="43.89740939249213" lon="10.692481462431383"><ele>54.75</ele><time>2026-04-17T13:12:57Z</time></trkpt><trkpt lat="43.89744895539604" lon="10.692765942673113"><ele>55.0</ele><time>2026-04-17T13:12:59Z</time></trkpt><trkpt lat="43.897466461044765" lon="10.69288293074034"><ele>56.0</ele><time>2026-04-17T13:13:01Z</time></trkpt><trkpt lat="43.897428847247475" lon="10.692974570023157"><ele>57.0</ele><time>2026-04-17T13:13:03Z</time></trkpt><trkpt lat="43.8972873505487" lon="10.693005077502942"><ele>58.0</ele><time>2026-04-17T13:13:05Z</time></trkpt><trkpt lat="43.89718189552745" lon="10.693025614288395"><ele>59.0</ele><time>2026-04-17T13:13:06Z</time></trkpt><trkpt lat="43.89707767960172" lon="10.693067293759372"><ele>60.0</ele><time>2026-04-17T13:13:07Z</time></trkpt><trkpt lat="43.89696949454493" lon="10.693110541674342"><ele>60.0</ele><time>2026-04-17T13:13:08Z</time></trkpt><trkpt lat="43.89684624538048" lon="10.693151515697092"><ele>60.0</ele><time>2026-04-17T13:13:09Z</time></trkpt><trkpt lat="43.89672936993522" lon="10.693183212344763"><ele>60.0</ele><time>2026-04-17T13:13:10Z</time></trkpt><trkpt lat="43.896618220884356" lon="10.693214851375105"><ele>60.0</ele><time>2026-04-17T13:13:11Z</time></trkpt><trkpt lat="43.89651120829902" lon="10.693252442427848"><ele>59.0</ele><time>2026-04-17T13:13:12Z</time></trkpt><trkpt lat="43.896406981472104" lon="10.693289890747504"><ele>58.0</ele><time>2026-04-17T13:13:13Z</time></trkpt><trkpt lat="43.89627746022757" lon="10.693330217251155"><ele>57.0</ele><time>2026-04-17T13:13:14Z</time></trkpt><trkpt lat="43.89613952181896" lon="10.693375772560247"><ele>56.0</ele><time>2026-04-17T13:13:15Z</time></trkpt><trkpt lat="43.895991530103096" lon="10.693420763162514"><ele>55.0</ele><time>2026-04-17T13:13:16Z</time></trkpt><trkpt lat="43.89583210738772" lon="10.693466112253931"><ele>54.0</ele><time>2026-04-17T13:13:17Z</time></trkpt><trkpt lat="43.89566711144958" lon="10.693524149923718"><ele>53.0</ele><time>2026-04-17T13:13:18Z</time></trkpt><trkpt lat="43.895492892042476" lon="10.693582756057625"><ele>54.333333333333336</ele><time>2026-04-17T13:13:19Z</time></trkpt><trkpt lat="43.89532891299662" lon="10.693640304979732"><ele>55.66666666666667</ele><time>2026-04-17T13:13:20Z</time></trkpt><trkpt lat="43.895171385899864" lon="10.693700411077662"><ele>57.0</ele><time>2026-04-17T13:13:21Z</time></trkpt><trkpt lat="43.895017073113564" lon="10.693761237113529"><ele>57.0</ele><time>2026-04-17T13:13:22Z</time></trkpt><trkpt lat="43.894862488989574" lon="10.69381363847909"><ele>57.0</ele><time>2026-04-17T13:13:23Z</time></trkpt><trkpt lat="43.89471101334326" lon="10.69385152581512"><ele>57.0</ele><time>2026-04-17T13:13:23.999Z</time></trkpt><trkpt lat="43.894559497267196" lon="10.693890827298745"><ele>57.0</ele><time>2026-04-17T13:13:24.999Z</time></trkpt><trkpt lat="43.89441732576386" lon="10.693943649536017"><ele>57.0</ele><time>2026-04-17T13:13:25.999Z</time></trkpt><trkpt lat="43.89428112876173" lon="10.693995345805487"><ele>57.0</ele><time>2026-04-17T13:13:26.999Z</time></trkpt><trkpt lat="43.89414263371377" lon="10.69403444016275"><ele>57.0</ele><time>2026-04-17T13:13:27.999Z</time></trkpt><trkpt lat="43.89400311882889" lon="10.694078454701788"><ele>56.25</ele><time>2026-04-17T13:13:28.999Z</time></trkpt><trkpt lat="43.89386028228532" lon="10.694134828008682"><ele>55.5</ele><time>2026-04-17T13:13:29.999Z</time></trkpt><trkpt lat="43.893722616818806" lon="10.69418010192656"><ele>54.75</ele><time>2026-04-17T13:13:30.999Z</time></trkpt><trkpt lat="43.89358110735265" lon="10.69422925623731"><ele>54.0</ele><time>2026-04-17T13:13:31.999Z</time></trkpt><trkpt lat="43.893435057716125" lon="10.694281903125175"><ele>54.33333333333333</ele><time>2026-04-17T13:13:32.999Z</time></trkpt><trkpt lat="43.893287337117336" lon="10.69433497949459"><ele>54.666666666666664</ele><time>2026-04-17T13:13:33.999Z</time></trkpt><trkpt lat="43.893130787826664" lon="10.694393286734613"><ele>55.0</ele><time>2026-04-17T13:13:34.999Z</time></trkpt><trkpt lat="43.89297448109625" lon="10.694450921176234"><ele>55.0</ele><time>2026-04-17T13:13:35.999Z</time></trkpt><trkpt lat="43.89282494805446" lon="10.694505847071134"><ele>55.0</ele><time>2026-04-17T13:13:36.999Z</time></trkpt><trkpt lat="43.89268094302914" lon="10.694559784550995"><ele>55.0</ele><time>2026-04-17T13:13:37.999Z</time></trkpt><trkpt lat="43.89254602152447" lon="10.694607695832415"><ele>55.0</ele><time>2026-04-17T13:13:38.999Z</time></trkpt><trkpt lat="43.89242490057774" lon="10.694659030192964"><ele>54.0</ele><time>2026-04-17T13:13:39.999Z</time></trkpt><trkpt lat="43.89230623285815" lon="10.69470254090838"><ele>53.0</ele><time>2026-04-17T13:13:40.999Z</time></trkpt><trkpt lat="43.89218492194533" lon="10.694741962791236"><ele>52.0</ele><time>2026-04-17T13:13:41.999Z</time></trkpt><trkpt lat="43.89206817502606" lon="10.694782436000267"><ele>51.0</ele><time>2026-04-17T13:13:42.999Z</time></trkpt><trkpt lat="43.891964347923654" lon="10.694814119900132"><ele>51.0</ele><time>2026-04-17T13:13:43.999Z</time></trkpt><trkpt lat="43.89186179653435" lon="10.694852363805486"><ele>51.0</ele><time>2026-04-17T13:13:44.999Z</time></trkpt><trkpt lat="43.89174296173582" lon="10.694889508368735"><ele>51.0</ele><time>2026-04-17T13:13:45.999Z</time></trkpt><trkpt lat="43.89162162317286" lon="10.694925636936516"><ele>51.0</ele><time>2026-04-17T13:13:46.999Z</time></trkpt><trkpt lat="43.891491498544795" lon="10.694967118124719"><ele>50.75</ele><time>2026-04-17T13:13:47.999Z</time></trkpt><trkpt lat="43.89135893824477" lon="10.695010833681138"><ele>50.5</ele><time>2026-04-17T13:13:48.999Z</time></trkpt><trkpt lat="43.89121945863538" lon="10.695050914893773"><ele>50.25</ele><time>2026-04-17T13:13:49.999Z</time></trkpt><trkpt lat="43.89107440857096" lon="10.695095477981106"><ele>50.0</ele><time>2026-04-17T13:13:50.999Z</time></trkpt><trkpt lat="43.890935520443584" lon="10.69513770412672"><ele>50.25</ele><time>2026-04-17T13:13:51.999Z</time></trkpt><trkpt lat="43.89079691680413" lon="10.69518772881097"><ele>50.5</ele><time>2026-04-17T13:13:52.999Z</time></trkpt><trkpt lat="43.890657105601065" lon="10.695249344840645"><ele>50.75</ele><time>2026-04-17T13:13:53.999Z</time></trkpt><trkpt lat="43.89051660840087" lon="10.695301174944905"><ele>51.0</ele><time>2026-04-17T13:13:54.999Z</time></trkpt><trkpt lat="43.89038526169231" lon="10.695315174913993"><ele>51.0</ele><time>2026-04-17T13:13:55.999Z</time></trkpt><trkpt lat="43.890255954738464" lon="10.695322683579775"><ele>51.0</ele><time>2026-04-17T13:13:56.999Z</time></trkpt><trkpt lat="43.89009187923788" lon="10.695446547289862"><ele>51.0</ele><time>2026-04-17T13:13:57.999Z</time></trkpt><trkpt lat="43.88995403902492" lon="10.695506993583908"><ele>50.0</ele><time>2026-04-17T13:13:58.999Z</time></trkpt><trkpt lat="43.88981619145414" lon="10.695575266393147"><ele>49.0</ele><time>2026-04-17T13:13:59.999Z</time></trkpt><trkpt lat="43.88967418128338" lon="10.695635944427966"><ele>48.0</ele><time>2026-04-17T13:14:00.999Z</time></trkpt><trkpt lat="43.88952991627314" lon="10.695692738516195"><ele>47.0</ele><time>2026-04-17T13:14:01.999Z</time></trkpt><trkpt lat="43.88938462529806" lon="10.695743781758786"><ele>45.75</ele><time>2026-04-17T13:14:02.999Z</time></trkpt><trkpt lat="43.88924749813405" lon="10.695788200183259"><ele>44.5</ele><time>2026-04-17T13:14:03.999Z</time></trkpt><trkpt lat="43.88912285741292" lon="10.695837727872004"><ele>43.25</ele><time>2026-04-17T13:14:04.999Z</time></trkpt><trkpt lat="43.88900210512517" lon="10.695884618960088"><ele>42.0</ele><time>2026-04-17T13:14:05.999Z</time></trkpt><trkpt lat="43.88888646254374" lon="10.695925374540101"><ele>42.0</ele><time>2026-04-17T13:14:06.999Z</time></trkpt><trkpt lat="43.888777403043484" lon="10.69596256653265"><ele>42.0</ele><time>2026-04-17T13:14:07.999Z</time></trkpt><trkpt lat="43.88867414728537" lon="10.6959977955237"><ele>42.0</ele><time>2026-04-17T13:14:08.999Z</time></trkpt><trkpt lat="43.888572693375714" lon="10.696035866357972"><ele>42.0</ele><time>2026-04-17T13:14:09.999Z</time></trkpt><trkpt lat="43.888469901169294" lon="10.696071695773739"><ele>42.0</ele><time>2026-04-17T13:14:10.999Z</time></trkpt><trkpt lat="43.888359127109254" lon="10.696108642246033"><ele>42.6</ele><time>2026-04-17T13:14:11.999Z</time></trkpt><trkpt lat="43.88825164539094" lon="10.696145551943344"><ele>43.2</ele><time>2026-04-17T13:14:12.999Z</time></trkpt><trkpt lat="43.88814950095079" lon="10.696178833430123"><ele>43.8</ele><time>2026-04-17T13:14:13.999Z</time></trkpt><trkpt lat="43.88805008927765" lon="10.696213175280278"><ele>44.4</ele><time>2026-04-17T13:14:14.999Z</time></trkpt><trkpt lat="43.88796064605556" lon="10.6962467066117"><ele>45.0</ele><time>2026-04-17T13:14:15.999Z</time></trkpt><trkpt lat="43.88785699011551" lon="10.69628252217546"><ele>45.0</ele><time>2026-04-17T13:14:16.999Z</time></trkpt><trkpt lat="43.88775456102085" lon="10.696316786761242"><ele>45.0</ele><time>2026-04-17T13:14:17.999Z</time></trkpt><trkpt lat="43.88764839768578" lon="10.696355771141464"><ele>45.0</ele><time>2026-04-17T13:14:18.999Z</time></trkpt><trkpt lat="43.88754923131274" lon="10.696396451739755"><ele>45.0</ele><time>2026-04-17T13:14:19.999Z</time></trkpt><trkpt lat="43.887450366237125" lon="10.696431950173443"><ele>45.0</ele><time>2026-04-17T13:14:20.999Z</time></trkpt><trkpt lat="43.887353416923936" lon="10.696465430498458"><ele>44.4</ele><time>2026-04-17T13:14:21.999Z</time></trkpt><trkpt lat="43.887252036854406" lon="10.69650860379704"><ele>43.8</ele><time>2026-04-17T13:14:22.999Z</time></trkpt><trkpt lat="43.88715499674565" lon="10.69655820686519"><ele>43.2</ele><time>2026-04-17T13:14:23.999Z</time></trkpt><trkpt lat="43.88708034427475" lon="10.696599107061486"><ele>42.6</ele><time>2026-04-17T13:14:24.999Z</time></trkpt><trkpt lat="43.88697178870903" lon="10.696657335654766"><ele>42.0</ele><time>2026-04-17T13:14:26.999Z</time></trkpt><trkpt lat="43.886871232026486" lon="10.69674377840286"><ele>42.0</ele><time>2026-04-17T13:14:28.999Z</time></trkpt><trkpt lat="43.88676583699559" lon="10.696848960318778"><ele>42.0</ele><time>2026-04-17T13:14:30.999Z</time></trkpt><trkpt lat="43.88669362777466" lon="10.696918401586846"><ele>42.0</ele><time>2026-04-17T13:14:31.999Z</time></trkpt><trkpt lat="43.886631474307976" lon="10.69699565305823"><ele>42.0</ele><time>2026-04-17T13:14:32.999Z</time></trkpt><trkpt lat="43.886580130852096" lon="10.697068934946579"><ele>42.0</ele><time>2026-04-17T13:14:33.999Z</time></trkpt><trkpt lat="43.88652629608751" lon="10.697154829065306"><ele>42.400000000000006</ele><time>2026-04-17T13:14:34.999Z</time></trkpt><trkpt lat="43.886454884495954" lon="10.697239709654806"><ele>42.800000000000004</ele><time>2026-04-17T13:14:35.999Z</time></trkpt><trkpt lat="43.88637338208987" lon="10.697323502966924"><ele>43.2</ele><time>2026-04-17T13:14:36.999Z</time></trkpt><trkpt lat="43.88630037223805" lon="10.69742365420966"><ele>43.6</ele><time>2026-04-17T13:14:37.999Z</time></trkpt><trkpt lat="43.88624123461323" lon="10.697534419644764"><ele>44.0</ele><time>2026-04-17T13:14:38.999Z</time></trkpt><trkpt lat="43.886171220744984" lon="10.697664824633527"><ele>44.0</ele><time>2026-04-17T13:14:40Z</time></trkpt><trkpt lat="43.88608850635359" lon="10.697817941967518"><ele>44.0</ele><time>2026-04-17T13:14:41Z</time></trkpt><trkpt lat="43.88600287577024" lon="10.697990033980291"><ele>44.0</ele><time>2026-04-17T13:14:42Z</time></trkpt><trkpt lat="43.88591565395045" lon="10.69817848992544"><ele>44.0</ele><time>2026-04-17T13:14:43Z</time></trkpt><trkpt lat="43.88582605764916" lon="10.698368075131835"><ele>44.0</ele><time>2026-04-17T13:14:44Z</time></trkpt><trkpt lat="43.885738668934486" lon="10.698552706575914"><ele>44.0</ele><time>2026-04-17T13:14:45Z</time></trkpt><trkpt lat="43.88565431838584" lon="10.69873071425477"><ele>44.75</ele><time>2026-04-17T13:14:46Z</time></trkpt><trkpt lat="43.88557765033319" lon="10.698907034285627"><ele>45.5</ele><time>2026-04-17T13:14:47Z</time></trkpt><trkpt lat="43.88550040874442" lon="10.69908192500448"><ele>46.25</ele><time>2026-04-17T13:14:48Z</time></trkpt><trkpt lat="43.885420673641256" lon="10.699247259273106"><ele>47.0</ele><time>2026-04-17T13:14:49Z</time></trkpt><trkpt lat="43.885343786279485" lon="10.699409206968351"><ele>47.75</ele><time>2026-04-17T13:14:50Z</time></trkpt><trkpt lat="43.88526140802779" lon="10.699580143112529"><ele>48.5</ele><time>2026-04-17T13:14:51Z</time></trkpt><trkpt lat="43.88517899058729" lon="10.699757588331034"><ele>49.25</ele><time>2026-04-17T13:14:52Z</time></trkpt><trkpt lat="43.885100429544615" lon="10.699927621290982"><ele>50.0</ele><time>2026-04-17T13:14:53Z</time></trkpt><trkpt lat="43.8850251635826" lon="10.700083923640642"><ele>49.25</ele><time>2026-04-17T13:14:54Z</time></trkpt><trkpt lat="43.88495268896569" lon="10.700232351838023"><ele>48.5</ele><time>2026-04-17T13:14:55Z</time></trkpt><trkpt lat="43.88487922375505" lon="10.700378138976182"><ele>47.75</ele><time>2026-04-17T13:14:56Z</time></trkpt><trkpt lat="43.884801960484424" lon="10.700532068948412"><ele>47.0</ele><time>2026-04-17T13:14:57Z</time></trkpt><trkpt lat="43.88472078923598" lon="10.70070007511099"><ele>47.0</ele><time>2026-04-17T13:14:58Z</time></trkpt><trkpt lat="43.884634665232745" lon="10.700874681214675"><ele>47.0</ele><time>2026-04-17T13:14:59Z</time></trkpt><trkpt lat="43.88454613753354" lon="10.701054976521274"><ele>47.0</ele><time>2026-04-17T13:15:00Z</time></trkpt><trkpt lat="43.884456224379846" lon="10.701245965315946"><ele>47.33333333333333</ele><time>2026-04-17T13:15:01Z</time></trkpt><trkpt lat="43.8843675862995" lon="10.701439307427792"><ele>47.666666666666664</ele><time>2026-04-17T13:15:02Z</time></trkpt><trkpt lat="43.884274847326274" lon="10.70162420680029"><ele>48.0</ele><time>2026-04-17T13:15:03Z</time></trkpt><trkpt lat="43.884188710764576" lon="10.701803687502869"><ele>47.0</ele><time>2026-04-17T13:15:04Z</time></trkpt><trkpt lat="43.88410506584958" lon="10.701980184378977"><ele>46.0</ele><time>2026-04-17T13:15:05Z</time></trkpt><trkpt lat="43.884018990698486" lon="10.702159566288602"><ele>45.0</ele><time>2026-04-17T13:15:06Z</time></trkpt><trkpt lat="43.88393182901274" lon="10.702346393245907"><ele>45.0</ele><time>2026-04-17T13:15:07Z</time></trkpt><trkpt lat="43.88384638789757" lon="10.702531430380324"><ele>45.0</ele><time>2026-04-17T13:15:08Z</time></trkpt><trkpt lat="43.8837616609157" lon="10.702709736816342"><ele>45.0</ele><time>2026-04-17T13:15:09Z</time></trkpt><trkpt lat="43.88368166035384" lon="10.702876739528351"><ele>45.25</ele><time>2026-04-17T13:15:10Z</time></trkpt><trkpt lat="43.883603181224274" lon="10.703038155620831"><ele>45.5</ele><time>2026-04-17T13:15:11Z</time></trkpt><trkpt lat="43.88352313578174" lon="10.703192966240989"><ele>45.75</ele><time>2026-04-17T13:15:12Z</time></trkpt><trkpt lat="43.88343590150331" lon="10.703346813772262"><ele>46.0</ele><time>2026-04-17T13:15:13Z</time></trkpt><trkpt lat="43.88334891148851" lon="10.703501598086023"><ele>46.25</ele><time>2026-04-17T13:15:14Z</time></trkpt><trkpt lat="43.883267240477586" lon="10.703647262127141"><ele>46.5</ele><time>2026-04-17T13:15:15Z</time></trkpt><trkpt lat="43.883190143405805" lon="10.70377980178638"><ele>46.75</ele><time>2026-04-17T13:15:16Z</time></trkpt><trkpt lat="43.883117899005825" lon="10.703922140915559"><ele>47.0</ele><time>2026-04-17T13:15:17Z</time></trkpt><trkpt lat="43.88305037178932" lon="10.70408189727873"><ele>47.0</ele><time>2026-04-17T13:15:18Z</time></trkpt><trkpt lat="43.882986014994415" lon="10.704249961610628"><ele>47.0</ele><time>2026-04-17T13:15:19Z</time></trkpt><trkpt lat="43.88291600608538" lon="10.704415197517797"><ele>47.0</ele><time>2026-04-17T13:15:20Z</time></trkpt><trkpt lat="43.88282264925863" lon="10.704583987790434"><ele>47.0</ele><time>2026-04-17T13:15:21Z</time></trkpt><trkpt lat="43.882720547329555" lon="10.704736296540593"><ele>47.0</ele><time>2026-04-17T13:15:22Z</time></trkpt><trkpt lat="43.88261312187119" lon="10.704884977014931"><ele>47.0</ele><time>2026-04-17T13:15:23Z</time></trkpt><trkpt lat="43.88250409508461" lon="10.70503985844119"><ele>47.0</ele><time>2026-04-17T13:15:24Z</time></trkpt><trkpt lat="43.88239414470427" lon="10.705198313661048"><ele>47.0</ele><time>2026-04-17T13:15:25Z</time></trkpt><trkpt lat="43.88228927306178" lon="10.705344719444698"><ele>47.0</ele><time>2026-04-17T13:15:26Z</time></trkpt><trkpt lat="43.882196892993065" lon="10.705473504885466"><ele>47.0</ele><time>2026-04-17T13:15:27Z</time></trkpt><trkpt lat="43.88211489276533" lon="10.705594223343558"><ele>47.0</ele><time>2026-04-17T13:15:28Z</time></trkpt><trkpt lat="43.882032650994354" lon="10.705712446500822"><ele>47.0</ele><time>2026-04-17T13:15:29Z</time></trkpt><trkpt lat="43.88195857539056" lon="10.705843598987318"><ele>47.0</ele><time>2026-04-17T13:15:30Z</time></trkpt><trkpt lat="43.88189891655315" lon="10.705981691066569"><ele>47.0</ele><time>2026-04-17T13:15:31Z</time></trkpt><trkpt lat="43.881851291224855" lon="10.706121375475846"><ele>47.0</ele><time>2026-04-17T13:15:32Z</time></trkpt><trkpt lat="43.88181373520659" lon="10.706257125824491"><ele>46.6</ele><time>2026-04-17T13:15:33Z</time></trkpt><trkpt lat="43.88178217401441" lon="10.706396017579122"><ele>46.2</ele><time>2026-04-17T13:15:34Z</time></trkpt><trkpt lat="43.88175001572378" lon="10.70653617513895"><ele>45.8</ele><time>2026-04-17T13:15:35Z</time></trkpt><trkpt lat="43.881712461799616" lon="10.706676547473336"><ele>45.4</ele><time>2026-04-17T13:15:36Z</time></trkpt><trkpt lat="43.88167169266512" lon="10.706829246944764"><ele>45.0</ele><time>2026-04-17T13:15:37Z</time></trkpt><trkpt lat="43.881627782788215" lon="10.706996381038698"><ele>44.75</ele><time>2026-04-17T13:15:38Z</time></trkpt><trkpt lat="43.88158529811231" lon="10.70717820541943"><ele>44.5</ele><time>2026-04-17T13:15:39Z</time></trkpt><trkpt lat="43.88155143848707" lon="10.707372386289878"><ele>44.25</ele><time>2026-04-17T13:15:40Z</time></trkpt><trkpt lat="43.881525409108974" lon="10.707567554384779"><ele>44.0</ele><time>2026-04-17T13:15:41Z</time></trkpt><trkpt lat="43.88151172927813" lon="10.707769194559262"><ele>44.0</ele><time>2026-04-17T13:15:42Z</time></trkpt><trkpt lat="43.88150612640136" lon="10.707972720561663"><ele>44.0</ele><time>2026-04-17T13:15:43Z</time></trkpt><trkpt lat="43.88149765165364" lon="10.70817866239729"><ele>44.0</ele><time>2026-04-17T13:15:44Z</time></trkpt><trkpt lat="43.88148738303977" lon="10.708377719020943"><ele>44.0</ele><time>2026-04-17T13:15:45Z</time></trkpt><trkpt lat="43.88147370321522" lon="10.708556206843651"><ele>44.25</ele><time>2026-04-17T13:15:46Z</time></trkpt><trkpt lat="43.881460158075924" lon="10.708727506280889"><ele>44.5</ele><time>2026-04-17T13:15:47Z</time></trkpt><trkpt lat="43.881451429850436" lon="10.708899759891885"><ele>44.75</ele><time>2026-04-17T13:15:48Z</time></trkpt><trkpt lat="43.881443421667655" lon="10.70904530244631"><ele>45.0</ele><time>2026-04-17T13:15:49Z</time></trkpt><trkpt lat="43.88142947114075" lon="10.70920002924911"><ele>45.0</ele><time>2026-04-17T13:15:50Z</time></trkpt><trkpt lat="43.881425864315155" lon="10.70936927369753"><ele>45.0</ele><time>2026-04-17T13:15:51Z</time></trkpt><trkpt lat="43.881415696225" lon="10.709552816875858"><ele>45.0</ele><time>2026-04-17T13:15:52Z</time></trkpt><trkpt lat="43.881409567900796" lon="10.70974356021632"><ele>45.0</ele><time>2026-04-17T13:15:53Z</time></trkpt><trkpt lat="43.88139961766715" lon="10.709948770010262"><ele>44.666666666666664</ele><time>2026-04-17T13:15:54Z</time></trkpt><trkpt lat="43.88138059551832" lon="10.71018129995208"><ele>44.33333333333333</ele><time>2026-04-17T13:15:55Z</time></trkpt><trkpt lat="43.88137883518873" lon="10.710372960971712"><ele>44.0</ele><time>2026-04-17T13:15:56Z</time></trkpt><trkpt lat="43.88137035394826" lon="10.710591064272407"><ele>44.0</ele><time>2026-04-17T13:15:56.999Z</time></trkpt><trkpt lat="43.88135879256673" lon="10.71080760575957"><ele>44.0</ele><time>2026-04-17T13:15:57.999Z</time></trkpt><trkpt lat="43.8813460737555" lon="10.711019589982827"><ele>44.0</ele><time>2026-04-17T13:15:58.999Z</time></trkpt><trkpt lat="43.88133673318967" lon="10.711229280882717"><ele>44.0</ele><time>2026-04-17T13:15:59.999Z</time></trkpt><trkpt lat="43.88132909880371" lon="10.711428127591768"><ele>44.0</ele><time>2026-04-17T13:16:00.999Z</time></trkpt><trkpt lat="43.881324403307886" lon="10.711617801013231"><ele>44.0</ele><time>2026-04-17T13:16:01.999Z</time></trkpt><trkpt lat="43.88131792050396" lon="10.711797086216825"><ele>44.0</ele><time>2026-04-17T13:16:02.999Z</time></trkpt><trkpt lat="43.881311527249444" lon="10.711959598010397"><ele>44.2</ele><time>2026-04-17T13:16:03.999Z</time></trkpt><trkpt lat="43.88129785761919" lon="10.712101845172203"><ele>44.400000000000006</ele><time>2026-04-17T13:16:04.999Z</time></trkpt><trkpt lat="43.88127707345027" lon="10.712235779597501"><ele>44.6</ele><time>2026-04-17T13:16:05.999Z</time></trkpt><trkpt lat="43.88124173743008" lon="10.712363596979358"><ele>44.8</ele><time>2026-04-17T13:16:06.999Z</time></trkpt><trkpt lat="43.88119271147448" lon="10.712479977946524"><ele>45.0</ele><time>2026-04-17T13:16:07.999Z</time></trkpt><trkpt lat="43.881133640296454" lon="10.71257932047714"><ele>45.0</ele><time>2026-04-17T13:16:08.999Z</time></trkpt><trkpt lat="43.88106607612226" lon="10.712671676808153"><ele>45.0</ele><time>2026-04-17T13:16:09.999Z</time></trkpt><trkpt lat="43.88099892599403" lon="10.712753726073174"><ele>45.0</ele><time>2026-04-17T13:16:10.999Z</time></trkpt><trkpt lat="43.88093165777692" lon="10.71281722997631"><ele>45.0</ele><time>2026-04-17T13:16:11.999Z</time></trkpt><trkpt lat="43.880870233331976" lon="10.712881578999918"><ele>45.0</ele><time>2026-04-17T13:16:12.999Z</time></trkpt><trkpt lat="43.88076371762657" lon="10.71295712747983"><ele>44.333333333333336</ele><time>2026-04-17T13:16:14.999Z</time></trkpt><trkpt lat="43.88070031847978" lon="10.712967033508363"><ele>43.666666666666664</ele><time>2026-04-17T13:16:15.999Z</time></trkpt><trkpt lat="43.880635558476904" lon="10.712949691946095"><ele>43.0</ele><time>2026-04-17T13:16:16.999Z</time></trkpt><trkpt lat="43.880513916159636" lon="10.712935844231016"><ele>42.33333333333333</ele><time>2026-04-17T13:16:18.999Z</time></trkpt><trkpt lat="43.880452256491076" lon="10.712970619073467"><ele>41.666666666666664</ele><time>2026-04-17T13:16:19.999Z</time></trkpt><trkpt lat="43.88041029866244" lon="10.713049232723353"><ele>41.0</ele><time>2026-04-17T13:16:20.999Z</time></trkpt><trkpt lat="43.880394173500704" lon="10.713138023368936"><ele>41.0</ele><time>2026-04-17T13:16:21.999Z</time></trkpt><trkpt lat="43.88041002890715" lon="10.713230988429197"><ele>41.0</ele><time>2026-04-17T13:16:22.999Z</time></trkpt><trkpt lat="43.880448284839446" lon="10.713317132254893"><ele>41.0</ele><time>2026-04-17T13:16:23.999Z</time></trkpt><trkpt lat="43.88050385460352" lon="10.71340025035948"><ele>41.0</ele><time>2026-04-17T13:16:24.999Z</time></trkpt><trkpt lat="43.880567086946854" lon="10.71348489558687"><ele>41.0</ele><time>2026-04-17T13:16:25.999Z</time></trkpt><trkpt lat="43.88061794953482" lon="10.713580458623806"><ele>41.0</ele><time>2026-04-17T13:16:26.999Z</time></trkpt><trkpt lat="43.88064991120344" lon="10.713697763756002"><ele>40.599999999999994</ele><time>2026-04-17T13:16:27.999Z</time></trkpt><trkpt lat="43.880666592456905" lon="10.713824226201291"><ele>40.199999999999996</ele><time>2026-04-17T13:16:28.999Z</time></trkpt><trkpt lat="43.88067163655597" lon="10.713954348890514"><ele>39.8</ele><time>2026-04-17T13:16:29.999Z</time></trkpt><trkpt lat="43.88066690420439" lon="10.71410210494633"><ele>39.4</ele><time>2026-04-17T13:16:30.999Z</time></trkpt><trkpt lat="43.880652509058415" lon="10.714247309855429"><ele>39.0</ele><time>2026-04-17T13:16:31.999Z</time></trkpt><trkpt lat="43.88062861304209" lon="10.714406336243478"><ele>39.0</ele><time>2026-04-17T13:16:32.999Z</time></trkpt><trkpt lat="43.88060309852587" lon="10.714562396779995"><ele>39.0</ele><time>2026-04-17T13:16:33.999Z</time></trkpt><trkpt lat="43.88058038020923" lon="10.714707918101976"><ele>39.0</ele><time>2026-04-17T13:16:34.999Z</time></trkpt><trkpt lat="43.8805607200905" lon="10.714870356768717"><ele>39.0</ele><time>2026-04-17T13:16:35.999Z</time></trkpt><trkpt lat="43.880533247880734" lon="10.715032896747802"><ele>39.0</ele><time>2026-04-17T13:16:36.999Z</time></trkpt><trkpt lat="43.88050999796139" lon="10.715203891522918"><ele>39.0</ele><time>2026-04-17T13:16:37.999Z</time></trkpt><trkpt lat="43.880475616362496" lon="10.715352103069089"><ele>39.0</ele><time>2026-04-17T13:16:38.999Z</time></trkpt><trkpt lat="43.88045440071461" lon="10.715511441183114"><ele>39.0</ele><time>2026-04-17T13:16:39.999Z</time></trkpt><trkpt lat="43.88043137793506" lon="10.715668637449891"><ele>38.6</ele><time>2026-04-17T13:16:40.999Z</time></trkpt><trkpt lat="43.88041062685198" lon="10.715818735283904"><ele>38.2</ele><time>2026-04-17T13:16:41.999Z</time></trkpt><trkpt lat="43.88038919676852" lon="10.71595893049467"><ele>37.800000000000004</ele><time>2026-04-17T13:16:42.999Z</time></trkpt><trkpt lat="43.880368687643994" lon="10.716099501897519"><ele>37.4</ele><time>2026-04-17T13:16:43.999Z</time></trkpt><trkpt lat="43.880343306189765" lon="10.716252260235581"><ele>37.0</ele><time>2026-04-17T13:16:44.999Z</time></trkpt><trkpt lat="43.88031689842732" lon="10.716424943982872"><ele>36.75</ele><time>2026-04-17T13:16:46Z</time></trkpt><trkpt lat="43.88028977490003" lon="10.716602584695853"><ele>36.5</ele><time>2026-04-17T13:16:47Z</time></trkpt><trkpt lat="43.88026627257275" lon="10.71676283961164"><ele>36.25</ele><time>2026-04-17T13:16:48Z</time></trkpt><trkpt lat="43.880242876852066" lon="10.716913738777547"><ele>36.0</ele><time>2026-04-17T13:16:49Z</time></trkpt><trkpt lat="43.8802164071917" lon="10.717067087413326"><ele>36.0</ele><time>2026-04-17T13:16:50Z</time></trkpt><trkpt lat="43.880185387469055" lon="10.717269634903063"><ele>36.0</ele><time>2026-04-17T13:16:51Z</time></trkpt><trkpt lat="43.880149694992866" lon="10.717497368607614"><ele>36.0</ele><time>2026-04-17T13:16:52Z</time></trkpt><trkpt lat="43.88012321028802" lon="10.717691989103036"><ele>35.75</ele><time>2026-04-17T13:16:53Z</time></trkpt><trkpt lat="43.880095167194504" lon="10.717867093049124"><ele>35.5</ele><time>2026-04-17T13:16:54Z</time></trkpt><trkpt lat="43.88006889293045" lon="10.718042085207124"><ele>35.25</ele><time>2026-04-17T13:16:55Z</time></trkpt><trkpt lat="43.88004146476079" lon="10.71821330709574"><ele>35.0</ele><time>2026-04-17T13:16:56Z</time></trkpt><trkpt lat="43.880015119455834" lon="10.718383262273898"><ele>35.0</ele><time>2026-04-17T13:16:57Z</time></trkpt><trkpt lat="43.87999354242498" lon="10.718551303420785"><ele>35.0</ele><time>2026-04-17T13:16:58Z</time></trkpt><trkpt lat="43.87997693232121" lon="10.718724132524356"><ele>35.0</ele><time>2026-04-17T13:16:59Z</time></trkpt><trkpt lat="43.879959486917194" lon="10.718900748469663"><ele>35.0</ele><time>2026-04-17T13:17:00Z</time></trkpt><trkpt lat="43.87995513252378" lon="10.719060204514463"><ele>35.0</ele><time>2026-04-17T13:17:01Z</time></trkpt><trkpt lat="43.879944668115876" lon="10.719215670063798"><ele>35.0</ele><time>2026-04-17T13:17:02Z</time></trkpt><trkpt lat="43.87993364201135" lon="10.71936276580698"><ele>35.0</ele><time>2026-04-17T13:17:03Z</time></trkpt><trkpt lat="43.879923154156316" lon="10.719504803471013"><ele>35.0</ele><time>2026-04-17T13:17:04Z</time></trkpt><trkpt lat="43.87991651024703" lon="10.719645586753671"><ele>35.0</ele><time>2026-04-17T13:17:05Z</time></trkpt><trkpt lat="43.8799070458176" lon="10.719793665046412"><ele>35.0</ele><time>2026-04-17T13:17:06Z</time></trkpt><trkpt lat="43.879892895726655" lon="10.719941261165435"><ele>35.0</ele><time>2026-04-17T13:17:07Z</time></trkpt><trkpt lat="43.87987830335969" lon="10.720096231831166"><ele>35.0</ele><time>2026-04-17T13:17:08Z</time></trkpt><trkpt lat="43.87986182344106" lon="10.720255813693283"><ele>35.0</ele><time>2026-04-17T13:17:09Z</time></trkpt><trkpt lat="43.8798418425975" lon="10.72041790179791"><ele>35.0</ele><time>2026-04-17T13:17:10Z</time></trkpt><trkpt lat="43.87981672568532" lon="10.720580404735168"><ele>35.0</ele><time>2026-04-17T13:17:11Z</time></trkpt><trkpt lat="43.879782206373555" lon="10.720738934652674"><ele>35.0</ele><time>2026-04-17T13:17:12Z</time></trkpt><trkpt lat="43.87973926794174" lon="10.720905565026863"><ele>35.0</ele><time>2026-04-17T13:17:13Z</time></trkpt><trkpt lat="43.87969086720781" lon="10.721081209268931"><ele>35.0</ele><time>2026-04-17T13:17:14Z</time></trkpt><trkpt lat="43.87962820830646" lon="10.721256458923294"><ele>35.0</ele><time>2026-04-17T13:17:15Z</time></trkpt><trkpt lat="43.87956583142254" lon="10.721425244815247"><ele>35.0</ele><time>2026-04-17T13:17:16Z</time></trkpt><trkpt lat="43.87949620239929" lon="10.721611900215398"><ele>35.0</ele><time>2026-04-17T13:17:17Z</time></trkpt><trkpt lat="43.87942017722228" lon="10.721809758362937"><ele>35.33333333333333</ele><time>2026-04-17T13:17:18Z</time></trkpt><trkpt lat="43.87934246467038" lon="10.722003276315007"><ele>35.666666666666664</ele><time>2026-04-17T13:17:19Z</time></trkpt><trkpt lat="43.879266885481314" lon="10.722194788676301"><ele>36.0</ele><time>2026-04-17T13:17:20Z</time></trkpt><trkpt lat="43.87918924441555" lon="10.722372811442233"><ele>36.333333333333336</ele><time>2026-04-17T13:17:21Z</time></trkpt><trkpt lat="43.87911633557227" lon="10.722552214782047"><ele>36.66666666666667</ele><time>2026-04-17T13:17:22Z</time></trkpt><trkpt lat="43.87904542044689" lon="10.72273375564205"><ele>37.0</ele><time>2026-04-17T13:17:23Z</time></trkpt><trkpt lat="43.87896888773391" lon="10.722925279282583"><ele>37.0</ele><time>2026-04-17T13:17:24Z</time></trkpt><trkpt lat="43.878895545128564" lon="10.72310934566725"><ele>37.0</ele><time>2026-04-17T13:17:25Z</time></trkpt><trkpt lat="43.87882781937911" lon="10.723286933014338"><ele>37.0</ele><time>2026-04-17T13:17:26Z</time></trkpt><trkpt lat="43.87875468082216" lon="10.723467666727354"><ele>37.0</ele><time>2026-04-17T13:17:27Z</time></trkpt><trkpt lat="43.878677635333325" lon="10.72364690185041"><ele>37.75</ele><time>2026-04-17T13:17:28Z</time></trkpt><trkpt lat="43.878615565762146" lon="10.723814701772696"><ele>38.5</ele><time>2026-04-17T13:17:29Z</time></trkpt><trkpt lat="43.8785509194263" lon="10.723971414224792"><ele>39.25</ele><time>2026-04-17T13:17:30Z</time></trkpt><trkpt lat="43.87849028766155" lon="10.72411628480783"><ele>40.0</ele><time>2026-04-17T13:17:31Z</time></trkpt><trkpt lat="43.87842787841668" lon="10.724268980855292"><ele>41.25</ele><time>2026-04-17T13:17:32Z</time></trkpt><trkpt lat="43.87837542510672" lon="10.724433934793547"><ele>42.5</ele><time>2026-04-17T13:17:33Z</time></trkpt><trkpt lat="43.87831934191915" lon="10.724583088069602"><ele>43.75</ele><time>2026-04-17T13:17:34Z</time></trkpt><trkpt lat="43.8782650975773" lon="10.724724749163906"><ele>45.0</ele><time>2026-04-17T13:17:35Z</time></trkpt><trkpt lat="43.87823652957286" lon="10.724879775453191"><ele>45.0</ele><time>2026-04-17T13:17:36Z</time></trkpt><trkpt lat="43.878198819699875" lon="10.725033701039527"><ele>45.0</ele><time>2026-04-17T13:17:37Z</time></trkpt><trkpt lat="43.87816437228901" lon="10.725187366093932"><ele>45.0</ele><time>2026-04-17T13:17:38Z</time></trkpt><trkpt lat="43.87813327688748" lon="10.725337177982125"><ele>45.0</ele><time>2026-04-17T13:17:39Z</time></trkpt><trkpt lat="43.87810956457539" lon="10.72548806309326"><ele>44.166666666666664</ele><time>2026-04-17T13:17:40Z</time></trkpt><trkpt lat="43.87809209381601" lon="10.725611063454455"><ele>43.333333333333336</ele><time>2026-04-17T13:17:41Z</time></trkpt><trkpt lat="43.878077559077106" lon="10.7257088601385"><ele>42.5</ele><time>2026-04-17T13:17:42Z</time></trkpt><trkpt lat="43.8780611751338" lon="10.725841116123952"><ele>41.66666666666667</ele><time>2026-04-17T13:17:44Z</time></trkpt><trkpt lat="43.87803090421551" lon="10.725926895645271"><ele>40.833333333333336</ele><time>2026-04-17T13:17:46Z</time></trkpt><trkpt lat="43.878016297033554" lon="10.726022676953379"><ele>40.0</ele><time>2026-04-17T13:17:48Z</time></trkpt><trkpt lat="43.878008711902766" lon="10.726113166892613"><ele>39.333333333333336</ele><time>2026-04-17T13:17:51Z</time></trkpt><trkpt lat="43.87800526680047" lon="10.726263981406687"><ele>38.66666666666667</ele><time>2026-04-17T13:18:11Z</time></trkpt><trkpt lat="43.87799480031223" lon="10.726353895704856"><ele>38.0</ele><time>2026-04-17T13:18:12Z</time></trkpt><trkpt lat="43.87797987611483" lon="10.726447807339316"><ele>37.333333333333336</ele><time>2026-04-17T13:18:13Z</time></trkpt><trkpt lat="43.87796547270056" lon="10.726550124778456"><ele>36.666666666666664</ele><time>2026-04-17T13:18:14Z</time></trkpt><trkpt lat="43.87795029220402" lon="10.72666922859664"><ele>36.0</ele><time>2026-04-17T13:18:15Z</time></trkpt><trkpt lat="43.877926716594125" lon="10.726807648247807"><ele>36.0</ele><time>2026-04-17T13:18:16Z</time></trkpt><trkpt lat="43.87790159985353" lon="10.726954210084552"><ele>36.0</ele><time>2026-04-17T13:18:17Z</time></trkpt><trkpt lat="43.87787900712965" lon="10.727096330720183"><ele>36.0</ele><time>2026-04-17T13:18:18Z</time></trkpt><trkpt lat="43.877858546531854" lon="10.727246446087213"><ele>36.0</ele><time>2026-04-17T13:18:19Z</time></trkpt><trkpt lat="43.87783499750167" lon="10.72741127564787"><ele>36.0</ele><time>2026-04-17T13:18:20Z</time></trkpt><trkpt lat="43.877811883500414" lon="10.727587870951156"><ele>35.75</ele><time>2026-04-17T13:18:21Z</time></trkpt><trkpt lat="43.87778811411482" lon="10.727770092330962"><ele>35.5</ele><time>2026-04-17T13:18:22Z</time></trkpt><trkpt lat="43.87776192952648" lon="10.727957780615812"><ele>35.25</ele><time>2026-04-17T13:18:23Z</time></trkpt><trkpt lat="43.877734574621634" lon="10.728145405283673"><ele>35.0</ele><time>2026-04-17T13:18:24Z</time></trkpt><trkpt lat="43.877710614240456" lon="10.728324883593249"><ele>35.0</ele><time>2026-04-17T13:18:25Z</time></trkpt><trkpt lat="43.87769326235386" lon="10.728507805921687"><ele>35.0</ele><time>2026-04-17T13:18:26Z</time></trkpt><trkpt lat="43.87766496345404" lon="10.72867028682353"><ele>35.0</ele><time>2026-04-17T13:18:27Z</time></trkpt><trkpt lat="43.87764213148634" lon="10.728825649709007"><ele>35.0</ele><time>2026-04-17T13:18:28Z</time></trkpt><trkpt lat="43.877621754745874" lon="10.728968955376802"><ele>34.8</ele><time>2026-04-17T13:18:29Z</time></trkpt><trkpt lat="43.877605732260456" lon="10.729106803201667"><ele>34.6</ele><time>2026-04-17T13:18:30Z</time></trkpt><trkpt lat="43.87758377455525" lon="10.729230002598374"><ele>34.4</ele><time>2026-04-17T13:18:31Z</time></trkpt><trkpt lat="43.87756081703497" lon="10.729351359794288"><ele>34.2</ele><time>2026-04-17T13:18:32Z</time></trkpt><trkpt lat="43.87754331267917" lon="10.729479927496316"><ele>34.0</ele><time>2026-04-17T13:18:33Z</time></trkpt><trkpt lat="43.87752571520815" lon="10.729598834453954"><ele>34.0</ele><time>2026-04-17T13:18:34Z</time></trkpt><trkpt lat="43.877508684571744" lon="10.729718014943064"><ele>34.0</ele><time>2026-04-17T13:18:35Z</time></trkpt><trkpt lat="43.87749490354522" lon="10.729828814338633"><ele>34.0</ele><time>2026-04-17T13:18:36Z</time></trkpt><trkpt lat="43.87748158286197" lon="10.729929727364631"><ele>34.0</ele><time>2026-04-17T13:18:37Z</time></trkpt><trkpt lat="43.87747053162181" lon="10.73001597300051"><ele>34.0</ele><time>2026-04-17T13:18:38Z</time></trkpt><trkpt lat="43.87745168553473" lon="10.73016866946632"><ele>34.0</ele><time>2026-04-17T13:18:40Z</time></trkpt><trkpt lat="43.87743824444344" lon="10.73030131065626"><ele>34.6</ele><time>2026-04-17T13:18:42Z</time></trkpt><trkpt lat="43.877413908866004" lon="10.730493036650493"><ele>35.2</ele><time>2026-04-17T13:18:43.999Z</time></trkpt><trkpt lat="43.87739311707027" lon="10.730617612609603"><ele>35.800000000000004</ele><time>2026-04-17T13:18:44.999Z</time></trkpt><trkpt lat="43.8773705521721" lon="10.730729433405674"><ele>36.4</ele><time>2026-04-17T13:18:45.999Z</time></trkpt><trkpt lat="43.87735647217685" lon="10.730838637641957"><ele>37.0</ele><time>2026-04-17T13:18:46.999Z</time></trkpt><trkpt lat="43.87734548116265" lon="10.730938705948411"><ele>37.0</ele><time>2026-04-17T13:18:47.999Z</time></trkpt><trkpt lat="43.87733649279178" lon="10.731043196221695"><ele>37.0</ele><time>2026-04-17T13:18:48.999Z</time></trkpt><trkpt lat="43.87731458246857" lon="10.73112943510128"><ele>37.0</ele><time>2026-04-17T13:18:49.999Z</time></trkpt><trkpt lat="43.87727714709433" lon="10.731208131424397"><ele>37.0</ele><time>2026-04-17T13:18:50.999Z</time></trkpt><trkpt lat="43.87722330005637" lon="10.731272518394402"><ele>37.0</ele><time>2026-04-17T13:18:52Z</time></trkpt><trkpt lat="43.8771540889532" lon="10.731314914335256"><ele>37.0</ele><time>2026-04-17T13:18:53Z</time></trkpt><trkpt lat="43.87707928922227" lon="10.731352386583472"><ele>37.0</ele><time>2026-04-17T13:18:54Z</time></trkpt><trkpt lat="43.8769929143307" lon="10.731382870840012"><ele>36.800000000000004</ele><time>2026-04-17T13:18:55Z</time></trkpt><trkpt lat="43.87690899038315" lon="10.731422378338056"><ele>36.6</ele><time>2026-04-17T13:18:56Z</time></trkpt><trkpt lat="43.87682038807354" lon="10.731468488991027"><ele>36.400000000000006</ele><time>2026-04-17T13:18:57Z</time></trkpt><trkpt lat="43.876731947010484" lon="10.731519050361007"><ele>36.2</ele><time>2026-04-17T13:18:58Z</time></trkpt><trkpt lat="43.87663501200251" lon="10.73157140301193"><ele>36.0</ele><time>2026-04-17T13:18:59Z</time></trkpt><trkpt lat="43.876539819695225" lon="10.731621127376476"><ele>35.75</ele><time>2026-04-17T13:19:00Z</time></trkpt><trkpt lat="43.87644710047526" lon="10.731671089343314"><ele>35.5</ele><time>2026-04-17T13:19:01Z</time></trkpt><trkpt lat="43.87633917822635" lon="10.731719287030955"><ele>35.25</ele><time>2026-04-17T13:19:02Z</time></trkpt><trkpt lat="43.876229832415554" lon="10.731769692116417"><ele>35.0</ele><time>2026-04-17T13:19:03Z</time></trkpt><trkpt lat="43.876110194193565" lon="10.731814096003294"><ele>35.0</ele><time>2026-04-17T13:19:04Z</time></trkpt><trkpt lat="43.87598633975479" lon="10.731861576351589"><ele>35.0</ele><time>2026-04-17T13:19:05Z</time></trkpt><trkpt lat="43.87586544725044" lon="10.73190810074272"><ele>35.0</ele><time>2026-04-17T13:19:06Z</time></trkpt><trkpt lat="43.87574834521329" lon="10.73195094539057"><ele>35.0</ele><time>2026-04-17T13:19:07Z</time></trkpt><trkpt lat="43.87563831923624" lon="10.731988805670007"><ele>34.8</ele><time>2026-04-17T13:19:08Z</time></trkpt><trkpt lat="43.87553509261056" lon="10.732026563467278"><ele>34.6</ele><time>2026-04-17T13:19:09Z</time></trkpt><trkpt lat="43.875450500754624" lon="10.732053509506352"><ele>34.4</ele><time>2026-04-17T13:19:10Z</time></trkpt><trkpt lat="43.87536049651603" lon="10.732082525918866"><ele>34.2</ele><time>2026-04-17T13:19:11Z</time></trkpt><trkpt lat="43.875275884590025" lon="10.73210165119134"><ele>34.0</ele><time>2026-04-17T13:19:12Z</time></trkpt><trkpt lat="43.875193690771255" lon="10.732127064471571"><ele>34.0</ele><time>2026-04-17T13:19:13Z</time></trkpt><trkpt lat="43.87512668697718" lon="10.732150984990758"><ele>34.0</ele><time>2026-04-17T13:19:14Z</time></trkpt><trkpt lat="43.87500793265354" lon="10.732188790383983"><ele>34.0</ele><time>2026-04-17T13:19:16Z</time></trkpt><trkpt lat="43.8748837080909" lon="10.732203353711943"><ele>34.0</ele><time>2026-04-17T13:19:18Z</time></trkpt><trkpt lat="43.87476073638755" lon="10.732220417465948"><ele>34.0</ele><time>2026-04-17T13:19:20Z</time></trkpt><trkpt lat="43.874681187443116" lon="10.732236878771197"><ele>33.8</ele><time>2026-04-17T13:19:21Z</time></trkpt><trkpt lat="43.87458470033081" lon="10.732258702525304"><ele>33.599999999999994</ele><time>2026-04-17T13:19:22Z</time></trkpt><trkpt lat="43.874481846533214" lon="10.732280412934863"><ele>33.4</ele><time>2026-04-17T13:19:23Z</time></trkpt><trkpt lat="43.87438277730895" lon="10.732305604373229"><ele>33.199999999999996</ele><time>2026-04-17T13:19:24Z</time></trkpt><trkpt lat="43.87428638098445" lon="10.732338346930701"><ele>33.0</ele><time>2026-04-17T13:19:25Z</time></trkpt><trkpt lat="43.8741919048694" lon="10.732378010941256"><ele>32.75</ele><time>2026-04-17T13:19:26Z</time></trkpt><trkpt lat="43.87408729037491" lon="10.73242984137056"><ele>32.5</ele><time>2026-04-17T13:19:27Z</time></trkpt><trkpt lat="43.873952940886156" lon="10.73249591383236"><ele>32.25</ele><time>2026-04-17T13:19:28Z</time></trkpt><trkpt lat="43.87380061193319" lon="10.732588266159402"><ele>32.0</ele><time>2026-04-17T13:19:29Z</time></trkpt><trkpt lat="43.87363228828893" lon="10.732696128551588"><ele>32.33333333333333</ele><time>2026-04-17T13:19:30Z</time></trkpt><trkpt lat="43.873472063914285" lon="10.732846143237083"><ele>32.666666666666664</ele><time>2026-04-17T13:19:31Z</time></trkpt><trkpt lat="43.87330960929494" lon="10.733002262409165"><ele>33.0</ele><time>2026-04-17T13:19:32Z</time></trkpt><trkpt lat="43.87314816143217" lon="10.733161841395537"><ele>31.5</ele><time>2026-04-17T13:19:33Z</time></trkpt><trkpt lat="43.87297446603188" lon="10.733337340040263"><ele>30.0</ele><time>2026-04-17T13:19:34Z</time></trkpt><trkpt lat="43.87321927496445" lon="10.733113107938987"><ele>30.0</ele><time>2026-04-17T13:19:35Z</time></trkpt><trkpt lat="43.87312990204979" lon="10.73320141508401"><ele>30.0</ele><time>2026-04-17T13:19:36Z</time></trkpt><trkpt lat="43.873037772350415" lon="10.733291499878902"><ele>30.0</ele><time>2026-04-17T13:19:37Z</time></trkpt><trkpt lat="43.87293687943814" lon="10.733391613156689"><ele>30.0</ele><time>2026-04-17T13:19:38Z</time></trkpt><trkpt lat="43.87283723255543" lon="10.733501680882785"><ele>29.75</ele><time>2026-04-17T13:19:39Z</time></trkpt><trkpt lat="43.87273743131947" lon="10.733609214534914"><ele>29.5</ele><time>2026-04-17T13:19:40Z</time></trkpt><trkpt lat="43.87264746697119" lon="10.733705216582079"><ele>29.25</ele><time>2026-04-17T13:19:41Z</time></trkpt><trkpt lat="43.87256743282916" lon="10.733805094183507"><ele>29.0</ele><time>2026-04-17T13:19:42Z</time></trkpt><trkpt lat="43.872506810123674" lon="10.733940066366012"><ele>28.75</ele><time>2026-04-17T13:19:43Z</time></trkpt><trkpt lat="43.87241604294055" lon="10.734066545534517"><ele>28.5</ele><time>2026-04-17T13:19:44Z</time></trkpt><trkpt lat="43.87233960058889" lon="10.734222416290773"><ele>28.25</ele><time>2026-04-17T13:19:45Z</time></trkpt><trkpt lat="43.87225425615377" lon="10.73437976077306"><ele>28.0</ele><time>2026-04-17T13:19:46Z</time></trkpt><trkpt lat="43.87216793365303" lon="10.734543562411684"><ele>28.0</ele><time>2026-04-17T13:19:47Z</time></trkpt><trkpt lat="43.87209127050927" lon="10.734693341785816"><ele>28.0</ele><time>2026-04-17T13:19:48Z</time></trkpt><trkpt lat="43.87201366888623" lon="10.734829810920203"><ele>28.0</ele><time>2026-04-17T13:19:49Z</time></trkpt><trkpt lat="43.8719351523884" lon="10.73495610892079"><ele>28.0</ele><time>2026-04-17T13:19:50Z</time></trkpt><trkpt lat="43.87186402180398" lon="10.7350782669874"><ele>28.0</ele><time>2026-04-17T13:19:51Z</time></trkpt><trkpt lat="43.87179331833955" lon="10.735194097714523"><ele>27.999999999999996</ele><time>2026-04-17T13:19:52Z</time></trkpt><trkpt lat="43.87172575017774" lon="10.735294591020418"><ele>27.999999999999996</ele><time>2026-04-17T13:19:53Z</time></trkpt><trkpt lat="43.871652712589494" lon="10.735398384102444"><ele>28.0</ele><time>2026-04-17T13:19:54Z</time></trkpt><trkpt lat="43.87157815269998" lon="10.735495402915566"><ele>28.0</ele><time>2026-04-17T13:19:55Z</time></trkpt><trkpt lat="43.871504906578956" lon="10.735588270502005"><ele>28.000000000000004</ele><time>2026-04-17T13:19:56Z</time></trkpt><trkpt lat="43.87143306031371" lon="10.735666273321453"><ele>28.0</ele><time>2026-04-17T13:19:57Z</time></trkpt><trkpt lat="43.871372413979174" lon="10.7357311849945"><ele>28.0</ele><time>2026-04-17T13:19:58Z</time></trkpt><trkpt lat="43.871309615625535" lon="10.735794286123186"><ele>28.0</ele><time>2026-04-17T13:19:59Z</time></trkpt><trkpt lat="43.871246998785345" lon="10.735855105339349"><ele>28.000000000000004</ele><time>2026-04-17T13:20:00Z</time></trkpt><trkpt lat="43.87118862587483" lon="10.735912202331972"><ele>28.0</ele><time>2026-04-17T13:20:01Z</time></trkpt><trkpt lat="43.87112143682709" lon="10.735978747440488"><ele>28.000000000000004</ele><time>2026-04-17T13:20:03Z</time></trkpt><trkpt lat="43.871070613520175" lon="10.736030372525867"><ele>28.0</ele><time>2026-04-17T13:20:07Z</time></trkpt><trkpt lat="43.870983974511475" lon="10.736082113916277"><ele>28.0</ele><time>2026-04-17T13:20:31Z</time></trkpt><trkpt lat="43.87093174934054" lon="10.736143328035842"><ele>28.0</ele><time>2026-04-17T13:20:32Z</time></trkpt><trkpt lat="43.87086691386149" lon="10.736212896159435"><ele>28.000000000000004</ele><time>2026-04-17T13:20:33Z</time></trkpt><trkpt lat="43.87081069824356" lon="10.736263171401434"><ele>28.0</ele><time>2026-04-17T13:20:34Z</time></trkpt><trkpt lat="43.87070474225315" lon="10.736345912200726"><ele>27.599999999999998</ele><time>2026-04-17T13:20:36Z</time></trkpt><trkpt lat="43.87058535776241" lon="10.73645299779128"><ele>27.199999999999996</ele><time>2026-04-17T13:20:38Z</time></trkpt><trkpt lat="43.870512895301104" lon="10.736520161357465"><ele>26.8</ele><time>2026-04-17T13:20:39Z</time></trkpt><trkpt lat="43.87045421664737" lon="10.73657312633142"><ele>26.4</ele><time>2026-04-17T13:20:40Z</time></trkpt><trkpt lat="43.8703964728312" lon="10.736612988650279"><ele>26.0</ele><time>2026-04-17T13:20:41Z</time></trkpt><trkpt lat="43.87029702615132" lon="10.736690313338416"><ele>26.0</ele><time>2026-04-17T13:20:43Z</time></trkpt><trkpt lat="43.870226428761754" lon="10.736752542927965"><ele>26.0</ele><time>2026-04-17T13:20:45Z</time></trkpt><trkpt lat="43.87017203104822" lon="10.736830324855646"><ele>26.0</ele><time>2026-04-17T13:20:49Z</time></trkpt><trkpt lat="43.87008216705617" lon="10.736897622940907"><ele>26.0</ele><time>2026-04-17T13:23:25.999Z</time></trkpt><trkpt lat="43.86999093122039" lon="10.737015483649113"><ele>26.0</ele><time>2026-04-17T13:23:27.999Z</time></trkpt><trkpt lat="43.86992695661872" lon="10.737076653381648"><ele>26.200000000000003</ele><time>2026-04-17T13:23:28.999Z</time></trkpt><trkpt lat="43.86986519096925" lon="10.737138324953156"><ele>26.400000000000002</ele><time>2026-04-17T13:23:29.999Z</time></trkpt><trkpt lat="43.86978286872464" lon="10.737219076793766"><ele>26.6</ele><time>2026-04-17T13:23:30.999Z</time></trkpt><trkpt lat="43.86968859555946" lon="10.737312329129393"><ele>26.8</ele><time>2026-04-17T13:23:31.999Z</time></trkpt><trkpt lat="43.869590804977896" lon="10.737411071285793"><ele>27.0</ele><time>2026-04-17T13:23:32.999Z</time></trkpt><trkpt lat="43.869500458007366" lon="10.7375033738353"><ele>27.0</ele><time>2026-04-17T13:23:33.999Z</time></trkpt><trkpt lat="43.869414842248034" lon="10.73759999663382"><ele>27.0</ele><time>2026-04-17T13:23:34.999Z</time></trkpt><trkpt lat="43.86932376808448" lon="10.737714784403096"><ele>27.0</ele><time>2026-04-17T13:23:35.999Z</time></trkpt><trkpt lat="43.86923397998907" lon="10.737841725846708"><ele>27.0</ele><time>2026-04-17T13:23:36.999Z</time></trkpt><trkpt lat="43.86914827050242" lon="10.737966195430795"><ele>26.25</ele><time>2026-04-17T13:23:37.999Z</time></trkpt><trkpt lat="43.86906410995173" lon="10.738086597170385"><ele>25.5</ele><time>2026-04-17T13:23:38.999Z</time></trkpt><trkpt lat="43.86898081146185" lon="10.738204268474183"><ele>24.75</ele><time>2026-04-17T13:23:39.999Z</time></trkpt><trkpt lat="43.86889437461768" lon="10.73833184095673"><ele>24.0</ele><time>2026-04-17T13:23:40.999Z</time></trkpt><trkpt lat="43.868802520627476" lon="10.738464391725076"><ele>23.75</ele><time>2026-04-17T13:23:41.999Z</time></trkpt><trkpt lat="43.86870636503602" lon="10.738600376952654"><ele>23.5</ele><time>2026-04-17T13:23:42.999Z</time></trkpt><trkpt lat="43.86860662524314" lon="10.73873535144396"><ele>23.25</ele><time>2026-04-17T13:23:43.999Z</time></trkpt><trkpt lat="43.86849780599038" lon="10.738867096118039"><ele>23.0</ele><time>2026-04-17T13:23:44.999Z</time></trkpt><trkpt lat="43.868382144099876" lon="10.738993395183805"><ele>22.75</ele><time>2026-04-17T13:23:45.999Z</time></trkpt><trkpt lat="43.86826196102308" lon="10.739114655221575"><ele>22.5</ele><time>2026-04-17T13:23:46.999Z</time></trkpt><trkpt lat="43.86813869590893" lon="10.73922318969816"><ele>22.25</ele><time>2026-04-17T13:23:47.999Z</time></trkpt><trkpt lat="43.86801516123007" lon="10.739319225690934"><ele>22.0</ele><time>2026-04-17T13:23:48.999Z</time></trkpt><trkpt lat="43.8678945846456" lon="10.73940820874208"><ele>22.0</ele><time>2026-04-17T13:23:49.999Z</time></trkpt><trkpt lat="43.86777639772427" lon="10.739490392136018"><ele>22.0</ele><time>2026-04-17T13:23:50.999Z</time></trkpt><trkpt lat="43.86765782057287" lon="10.739562370234244"><ele>22.0</ele><time>2026-04-17T13:23:51.999Z</time></trkpt><trkpt lat="43.867544131297336" lon="10.739629452781918"><ele>22.0</ele><time>2026-04-17T13:23:52.999Z</time></trkpt><trkpt lat="43.86743383964557" lon="10.739696041056808"><ele>21.75</ele><time>2026-04-17T13:23:53.999Z</time></trkpt><trkpt lat="43.86731890793597" lon="10.739764896951929"><ele>21.5</ele><time>2026-04-17T13:23:54.999Z</time></trkpt><trkpt lat="43.86720001080803" lon="10.73983455824174"><ele>21.25</ele><time>2026-04-17T13:23:55.999Z</time></trkpt><trkpt lat="43.86706840494793" lon="10.73990329434764"><ele>21.0</ele><time>2026-04-17T13:23:56.999Z</time></trkpt><trkpt lat="43.866927712489606" lon="10.739970281307592"><ele>21.0</ele><time>2026-04-17T13:23:57.999Z</time></trkpt><trkpt lat="43.86678604567871" lon="10.740038518957826"><ele>21.0</ele><time>2026-04-17T13:23:58.999Z</time></trkpt><trkpt lat="43.86664082812149" lon="10.74010749057358"><ele>21.0</ele><time>2026-04-17T13:23:59.999Z</time></trkpt><trkpt lat="43.86650257639283" lon="10.740163745688243"><ele>21.0</ele><time>2026-04-17T13:24:00.999Z</time></trkpt><trkpt lat="43.86637293433228" lon="10.740202107301382"><ele>21.0</ele><time>2026-04-17T13:24:01.999Z</time></trkpt><trkpt lat="43.866249623256685" lon="10.740234697502576"><ele>21.0</ele><time>2026-04-17T13:24:02.999Z</time></trkpt><trkpt lat="43.86612547778944" lon="10.740262606520544"><ele>21.0</ele><time>2026-04-17T13:24:03.999Z</time></trkpt><trkpt lat="43.866005991000854" lon="10.740291216611155"><ele>21.0</ele><time>2026-04-17T13:24:04.999Z</time></trkpt><trkpt lat="43.865891808019754" lon="10.740315162654854"><ele>21.0</ele><time>2026-04-17T13:24:05.999Z</time></trkpt><trkpt lat="43.86578272957678" lon="10.740331801448791"><ele>21.0</ele><time>2026-04-17T13:24:06.999Z</time></trkpt><trkpt lat="43.865678028213644" lon="10.740346264775273"><ele>21.0</ele><time>2026-04-17T13:24:07.999Z</time></trkpt><trkpt lat="43.86557888796395" lon="10.740347623472188"><ele>21.0</ele><time>2026-04-17T13:24:08.999Z</time></trkpt><trkpt lat="43.8654991693454" lon="10.740353576691932"><ele>21.0</ele><time>2026-04-17T13:24:09.999Z</time></trkpt><trkpt lat="43.865431070816264" lon="10.740359444563886"><ele>21.0</ele><time>2026-04-17T13:24:10.999Z</time></trkpt><trkpt lat="43.86535686862012" lon="10.740363766197728"><ele>21.0</ele><time>2026-04-17T13:24:11.999Z</time></trkpt><trkpt lat="43.86528570410053" lon="10.740397126213887"><ele>21.0</ele><time>2026-04-17T13:24:12.999Z</time></trkpt><trkpt lat="43.8652184083109" lon="10.74041080998438"><ele>21.0</ele><time>2026-04-17T13:24:14.999Z</time></trkpt><trkpt lat="43.86516516257416" lon="10.74047236284621"><ele>21.0</ele><time>2026-04-17T13:24:16.999Z</time></trkpt><trkpt lat="43.86515720435371" lon="10.7406054354486"><ele>21.0</ele><time>2026-04-17T13:24:18.999Z</time></trkpt><trkpt lat="43.865182593265494" lon="10.740688182628608"><ele>21.0</ele><time>2026-04-17T13:24:19.999Z</time></trkpt><trkpt lat="43.865243191433194" lon="10.740761702654025"><ele>21.0</ele><time>2026-04-17T13:24:20.999Z</time></trkpt><trkpt lat="43.86527082912283" lon="10.740848089672392"><ele>21.0</ele><time>2026-04-17T13:24:21.999Z</time></trkpt><trkpt lat="43.86531589805634" lon="10.740940849846027"><ele>21.0</ele><time>2026-04-17T13:24:22.999Z</time></trkpt><trkpt lat="43.865384171528106" lon="10.741047219158993"><ele>21.0</ele><time>2026-04-17T13:24:23.999Z</time></trkpt><trkpt lat="43.86542590880682" lon="10.741193170914004"><ele>21.0</ele><time>2026-04-17T13:24:24.999Z</time></trkpt><trkpt lat="43.865493567444915" lon="10.741339371144788"><ele>20.75</ele><time>2026-04-17T13:24:25.999Z</time></trkpt><trkpt lat="43.8655615711115" lon="10.741484174399842"><ele>20.5</ele><time>2026-04-17T13:24:26.999Z</time></trkpt><trkpt lat="43.86563217017182" lon="10.741644597113883"><ele>20.25</ele><time>2026-04-17T13:24:27.999Z</time></trkpt><trkpt lat="43.86570321569464" lon="10.741803259937797"><ele>20.0</ele><time>2026-04-17T13:24:28.999Z</time></trkpt><trkpt lat="43.865774200601265" lon="10.741963786836978"><ele>20.0</ele><time>2026-04-17T13:24:29.999Z</time></trkpt><trkpt lat="43.86583307306786" lon="10.742118201142908"><ele>20.0</ele><time>2026-04-17T13:24:30.999Z</time></trkpt><trkpt lat="43.86589843209745" lon="10.742276660591354"><ele>20.0</ele><time>2026-04-17T13:24:31.999Z</time></trkpt><trkpt lat="43.865969602634024" lon="10.74245137145939"><ele>20.0</ele><time>2026-04-17T13:24:32.999Z</time></trkpt><trkpt lat="43.866039292502734" lon="10.742643550643912"><ele>19.666666666666668</ele><time>2026-04-17T13:24:33.999Z</time></trkpt><trkpt lat="43.86611636129994" lon="10.74284797958657"><ele>19.333333333333332</ele><time>2026-04-17T13:24:34.999Z</time></trkpt><trkpt lat="43.86619657806481" lon="10.743052128868369"><ele>19.0</ele><time>2026-04-17T13:24:35.999Z</time></trkpt><trkpt lat="43.866272941571516" lon="10.743259909862994"><ele>19.0</ele><time>2026-04-17T13:24:36.999Z</time></trkpt><trkpt lat="43.86634600884292" lon="10.743474439296037"><ele>19.0</ele><time>2026-04-17T13:24:37.999Z</time></trkpt><trkpt lat="43.86641925548625" lon="10.743688126929875"><ele>19.0</ele><time>2026-04-17T13:24:38.999Z</time></trkpt><trkpt lat="43.86648735946919" lon="10.743901074828644"><ele>19.0</ele><time>2026-04-17T13:24:39.999Z</time></trkpt><trkpt lat="43.86655275277518" lon="10.744115358755192"><ele>19.0</ele><time>2026-04-17T13:24:40.999Z</time></trkpt><trkpt lat="43.86662084584974" lon="10.744328892176968"><ele>19.0</ele><time>2026-04-17T13:24:41.999Z</time></trkpt><trkpt lat="43.86667631436495" lon="10.744546439359558"><ele>19.0</ele><time>2026-04-17T13:24:42.999Z</time></trkpt><trkpt lat="43.866730565575125" lon="10.744757789936006"><ele>19.0</ele><time>2026-04-17T13:24:43.999Z</time></trkpt><trkpt lat="43.86678363405302" lon="10.744958682106072"><ele>19.0</ele><time>2026-04-17T13:24:44.999Z</time></trkpt><trkpt lat="43.866832138854" lon="10.745156995494208"><ele>19.0</ele><time>2026-04-17T13:24:45.999Z</time></trkpt><trkpt lat="43.866891083574416" lon="10.745350895951946"><ele>19.0</ele><time>2026-04-17T13:24:46.999Z</time></trkpt><trkpt lat="43.86694991017048" lon="10.745551409530528"><ele>19.0</ele><time>2026-04-17T13:24:47.999Z</time></trkpt><trkpt lat="43.86702340726087" lon="10.745735931410763"><ele>19.0</ele><time>2026-04-17T13:24:48.999Z</time></trkpt><trkpt lat="43.86711320846984" lon="10.745927984198435"><ele>19.0</ele><time>2026-04-17T13:24:49.999Z</time></trkpt><trkpt lat="43.86720814941297" lon="10.746106997544052"><ele>19.0</ele><time>2026-04-17T13:24:50.999Z</time></trkpt><trkpt lat="43.86730627169082" lon="10.746270751280344"><ele>18.666666666666664</ele><time>2026-04-17T13:24:51.999Z</time></trkpt><trkpt lat="43.86741536659077" lon="10.74643778380943"><ele>18.333333333333332</ele><time>2026-04-17T13:24:52.999Z</time></trkpt><trkpt lat="43.8675138799905" lon="10.746612522671894"><ele>18.0</ele><time>2026-04-17T13:24:53.999Z</time></trkpt><trkpt lat="43.8676069417905" lon="10.746781307498306"><ele>18.333333333333332</ele><time>2026-04-17T13:24:54.999Z</time></trkpt><trkpt lat="43.867709658934956" lon="10.746954218435185"><ele>18.666666666666664</ele><time>2026-04-17T13:24:55.999Z</time></trkpt><trkpt lat="43.86780765166687" lon="10.747127050759492"><ele>19.0</ele><time>2026-04-17T13:24:56.999Z</time></trkpt><trkpt lat="43.867896811160975" lon="10.747277818002512"><ele>19.0</ele><time>2026-04-17T13:24:57.999Z</time></trkpt><trkpt lat="43.86798095890766" lon="10.747419541810961"><ele>19.0</ele><time>2026-04-17T13:24:58.999Z</time></trkpt><trkpt lat="43.868058380456525" lon="10.747572964799195"><ele>19.0</ele><time>2026-04-17T13:24:59.999Z</time></trkpt><trkpt lat="43.8681239875772" lon="10.747728102017023"><ele>19.0</ele><time>2026-04-17T13:25:00.999Z</time></trkpt><trkpt lat="43.86817625109057" lon="10.747884767564186"><ele>18.75</ele><time>2026-04-17T13:25:01.999Z</time></trkpt><trkpt lat="43.86822657584407" lon="10.748037729959112"><ele>18.5</ele><time>2026-04-17T13:25:02.999Z</time></trkpt><trkpt lat="43.86826425986383" lon="10.748194114958235"><ele>18.25</ele><time>2026-04-17T13:25:03.999Z</time></trkpt><trkpt lat="43.86829852723816" lon="10.748344621885735"><ele>18.0</ele><time>2026-04-17T13:25:04.999Z</time></trkpt><trkpt lat="43.86833243688469" lon="10.748487296809568"><ele>17.75</ele><time>2026-04-17T13:25:05.999Z</time></trkpt><trkpt lat="43.86836767143208" lon="10.748637524438575"><ele>17.5</ele><time>2026-04-17T13:25:06.999Z</time></trkpt><trkpt lat="43.86840529329195" lon="10.748792129007512"><ele>17.25</ele><time>2026-04-17T13:25:07.999Z</time></trkpt><trkpt lat="43.86844057734098" lon="10.74895030182648"><ele>17.0</ele><time>2026-04-17T13:25:08.999Z</time></trkpt><trkpt lat="43.86847928121956" lon="10.749112723611143"><ele>17.0</ele><time>2026-04-17T13:25:09.999Z</time></trkpt><trkpt lat="43.86851758125722" lon="10.749272871098041"><ele>17.0</ele><time>2026-04-17T13:25:10.999Z</time></trkpt><trkpt lat="43.8685528853426" lon="10.749425023995965"><ele>17.0</ele><time>2026-04-17T13:25:11.999Z</time></trkpt><trkpt lat="43.8685905437625" lon="10.749572631131306"><ele>17.0</ele><time>2026-04-17T13:25:12.999Z</time></trkpt><trkpt lat="43.868625297905105" lon="10.749711915871893"><ele>17.0</ele><time>2026-04-17T13:25:13.999Z</time></trkpt><trkpt lat="43.86865362158879" lon="10.74984747584299"><ele>17.0</ele><time>2026-04-17T13:25:14.999Z</time></trkpt><trkpt lat="43.86868997144445" lon="10.749977639071936"><ele>17.0</ele><time>2026-04-17T13:25:15.999Z</time></trkpt><trkpt lat="43.868719331605746" lon="10.75010746221067"><ele>17.0</ele><time>2026-04-17T13:25:16.999Z</time></trkpt><trkpt lat="43.86875142303434" lon="10.750256482529421"><ele>17.0</ele><time>2026-04-17T13:25:17.999Z</time></trkpt><trkpt lat="43.86878865753716" lon="10.750401259800583"><ele>17.0</ele><time>2026-04-17T13:25:18.999Z</time></trkpt><trkpt lat="43.868823488418506" lon="10.75054903990831"><ele>17.0</ele><time>2026-04-17T13:25:19.999Z</time></trkpt><trkpt lat="43.86886544801109" lon="10.750706148279566"><ele>17.0</ele><time>2026-04-17T13:25:20.999Z</time></trkpt><trkpt lat="43.868904767946304" lon="10.750871156773966"><ele>17.0</ele><time>2026-04-17T13:25:21.999Z</time></trkpt><trkpt lat="43.86894736404551" lon="10.751040344771164"><ele>17.25</ele><time>2026-04-17T13:25:22.999Z</time></trkpt><trkpt lat="43.868989185970506" lon="10.751202167116329"><ele>17.5</ele><time>2026-04-17T13:25:23.999Z</time></trkpt><trkpt lat="43.869028167564295" lon="10.751360464973274"><ele>17.75</ele><time>2026-04-17T13:25:24.999Z</time></trkpt><trkpt lat="43.86906932761885" lon="10.75151641945298"><ele>18.0</ele><time>2026-04-17T13:25:25.999Z</time></trkpt><trkpt lat="43.8691082377661" lon="10.751673373030478"><ele>18.0</ele><time>2026-04-17T13:25:26.999Z</time></trkpt><trkpt lat="43.869147406721986" lon="10.751826221689138"><ele>18.0</ele><time>2026-04-17T13:25:27.999Z</time></trkpt><trkpt lat="43.869187216265864" lon="10.751983191596059"><ele>18.0</ele><time>2026-04-17T13:25:28.999Z</time></trkpt><trkpt lat="43.86922786175551" lon="10.7521382988077"><ele>18.0</ele><time>2026-04-17T13:25:29.999Z</time></trkpt><trkpt lat="43.869265985694355" lon="10.75228689858053"><ele>17.8</ele><time>2026-04-17T13:25:30.999Z</time></trkpt><trkpt lat="43.86929884225284" lon="10.752424526847717"><ele>17.6</ele><time>2026-04-17T13:25:31.999Z</time></trkpt><trkpt lat="43.86933391004252" lon="10.752556238857588"><ele>17.4</ele><time>2026-04-17T13:25:32.999Z</time></trkpt><trkpt lat="43.86936710350174" lon="10.752691694508654"><ele>17.2</ele><time>2026-04-17T13:25:34Z</time></trkpt><trkpt lat="43.86939657627489" lon="10.752812433293338"><ele>17.0</ele><time>2026-04-17T13:25:35Z</time></trkpt><trkpt lat="43.86942376989746" lon="10.752931426542153"><ele>17.0</ele><time>2026-04-17T13:25:36Z</time></trkpt><trkpt lat="43.86944643952099" lon="10.753048639487671"><ele>17.0</ele><time>2026-04-17T13:25:37Z</time></trkpt><trkpt lat="43.86946513280044" lon="10.75315724888565"><ele>17.0</ele><time>2026-04-17T13:25:38Z</time></trkpt><trkpt lat="43.86948137842476" lon="10.753256307545977"><ele>17.0</ele><time>2026-04-17T13:25:39Z</time></trkpt><trkpt lat="43.86949839273599" lon="10.75335292679066"><ele>17.0</ele><time>2026-04-17T13:25:40Z</time></trkpt><trkpt lat="43.869515074471416" lon="10.753445126100486"><ele>17.0</ele><time>2026-04-17T13:25:41Z</time></trkpt><trkpt lat="43.86952017610689" lon="10.75360025470482"><ele>17.0</ele><time>2026-04-17T13:25:43Z</time></trkpt><trkpt lat="43.86948502989436" lon="10.753720924355806"><ele>17.0</ele><time>2026-04-17T13:25:46Z</time></trkpt><trkpt lat="43.86939812669497" lon="10.753752136425165"><ele>17.0</ele><time>2026-04-17T13:25:48Z</time></trkpt><trkpt lat="43.869328284957845" lon="10.753731984239879"><ele>17.0</ele><time>2026-04-17T13:25:49Z</time></trkpt><trkpt lat="43.86924949380088" lon="10.75369847806643"><ele>17.0</ele><time>2026-04-17T13:25:50Z</time></trkpt><trkpt lat="43.86917364475207" lon="10.753672167765222"><ele>17.0</ele><time>2026-04-17T13:25:51Z</time></trkpt><trkpt lat="43.86908815957927" lon="10.753659339957647"><ele>17.4</ele><time>2026-04-17T13:25:52Z</time></trkpt><trkpt lat="43.868993633619404" lon="10.753651468888396"><ele>17.799999999999997</ele><time>2026-04-17T13:25:53Z</time></trkpt><trkpt lat="43.86888655293615" lon="10.753643186931068"><ele>18.2</ele><time>2026-04-17T13:25:54Z</time></trkpt><trkpt lat="43.868788200930645" lon="10.75364361242306"><ele>18.599999999999998</ele><time>2026-04-17T13:25:55Z</time></trkpt><trkpt lat="43.86869546834946" lon="10.753646874688329"><ele>19.0</ele><time>2026-04-17T13:25:56Z</time></trkpt><trkpt lat="43.868603606489394" lon="10.753647240310153"><ele>19.0</ele><time>2026-04-17T13:25:57Z</time></trkpt><trkpt lat="43.8685096029258" lon="10.75364291805462"><ele>19.0</ele><time>2026-04-17T13:25:58Z</time></trkpt><trkpt lat="43.86840907798633" lon="10.75364386199393"><ele>19.0</ele><time>2026-04-17T13:25:59Z</time></trkpt><trkpt lat="43.86830089226425" lon="10.753640252858498"><ele>19.0</ele><time>2026-04-17T13:26:00Z</time></trkpt><trkpt lat="43.86819352037553" lon="10.75362404243914"><ele>19.0</ele><time>2026-04-17T13:26:01Z</time></trkpt><trkpt lat="43.868080585273155" lon="10.753602770877093"><ele>18.8</ele><time>2026-04-17T13:26:02Z</time></trkpt><trkpt lat="43.867974279393486" lon="10.753573166499404"><ele>18.599999999999998</ele><time>2026-04-17T13:26:03Z</time></trkpt><trkpt lat="43.86787139707143" lon="10.753526221504087"><ele>18.4</ele><time>2026-04-17T13:26:04Z</time></trkpt><trkpt lat="43.86777397937298" lon="10.753477703582192"><ele>18.2</ele><time>2026-04-17T13:26:05Z</time></trkpt><trkpt lat="43.867675361585825" lon="10.753422189173504"><ele>18.0</ele><time>2026-04-17T13:26:06Z</time></trkpt><trkpt lat="43.867576103614944" lon="10.753373063007555"><ele>17.6</ele><time>2026-04-17T13:26:07Z</time></trkpt><trkpt lat="43.86748153739491" lon="10.753351333742975"><ele>17.200000000000003</ele><time>2026-04-17T13:26:08Z</time></trkpt><trkpt lat="43.867384830645605" lon="10.753332110432229"><ele>16.8</ele><time>2026-04-17T13:26:09Z</time></trkpt><trkpt lat="43.86728516017392" lon="10.753313245974082"><ele>16.400000000000002</ele><time>2026-04-17T13:26:10Z</time></trkpt><trkpt lat="43.86718714653467" lon="10.75329569997668"><ele>16.0</ele><time>2026-04-17T13:26:11Z</time></trkpt><trkpt lat="43.867088450787925" lon="10.753278327676375"><ele>15.999999999999998</ele><time>2026-04-17T13:26:12Z</time></trkpt><trkpt lat="43.86699390291978" lon="10.753258648064588"><ele>16.0</ele><time>2026-04-17T13:26:13Z</time></trkpt><trkpt lat="43.86690880254549" lon="10.753245224698455"><ele>16.0</ele><time>2026-04-17T13:26:14Z</time></trkpt><trkpt lat="43.866829301513135" lon="10.753228729080652"><ele>16.0</ele><time>2026-04-17T13:26:15Z</time></trkpt><trkpt lat="43.866752446486174" lon="10.75320960940281"><ele>15.999999999999998</ele><time>2026-04-17T13:26:16Z</time></trkpt><trkpt lat="43.8666775972668" lon="10.75318635363606"><ele>16.0</ele><time>2026-04-17T13:26:17Z</time></trkpt><trkpt lat="43.86660787375404" lon="10.753173757571327"><ele>15.857142857142856</ele><time>2026-04-17T13:26:18Z</time></trkpt><trkpt lat="43.86653672474031" lon="10.753160097272605"><ele>15.714285714285712</ele><time>2026-04-17T13:26:19Z</time></trkpt><trkpt lat="43.86646889574047" lon="10.75314569762915"><ele>15.571428571428571</ele><time>2026-04-17T13:26:20Z</time></trkpt><trkpt lat="43.866399084464774" lon="10.75313503217555"><ele>15.428571428571427</ele><time>2026-04-17T13:26:21Z</time></trkpt><trkpt lat="43.86633499038641" lon="10.753120926183474"><ele>15.285714285714285</ele><time>2026-04-17T13:26:22Z</time></trkpt><trkpt lat="43.86627128228884" lon="10.753104551033024"><ele>15.142857142857142</ele><time>2026-04-17T13:26:23Z</time></trkpt><trkpt lat="43.86620910033479" lon="10.753089375685075"><ele>15.0</ele><time>2026-04-17T13:26:24Z</time></trkpt><trkpt lat="43.866090036649716" lon="10.753065069578032"><ele>15.0</ele><time>2026-04-17T13:26:26Z</time></trkpt><trkpt lat="43.86601317262881" lon="10.753050502561843"><ele>15.0</ele><time>2026-04-17T13:26:28Z</time></trkpt><trkpt lat="43.865955334245186" lon="10.753001015172826"><ele>15.0</ele><time>2026-04-17T13:26:32Z</time></trkpt></trkseg></trk></gpx>